# Wetter Temperatur Luftdruck Luftfeuchtigkeit Sichtweite Windgeschwindigkeit Windrichtung Zeit
1 Clouds 29 1009 65 6000 2.57 30 13:50 22.04.2021
2 Clouds 30 1009 58 6000 4.12 10 13:27 22.04.2021
3 Clouds 31 1008 55 6000 5.14 20 12:56 22.04.2021
4 Clouds 31 1008 55 6000 5.14 30 12:38 22.04.2021
5 Clouds 31 1008 55 6000 5.14 30 12:19 22.04.2021
6 Clouds 32 1008 48 6000 5.14 50 11:45 22.04.2021
7 Clouds 32 1008 48 6000 5.14 50 11:45 22.04.2021
8 Clouds 32 1007 48 6000 5.14 40 11:22 22.04.2021
9 Clouds 32 1007 45 6000 6.17 40 10:44 22.04.2021
10 Clouds 32 1007 45 6000 5.14 30 10:22 22.04.2021
11 Clouds 33 1007 45 6000 5.14 30 09:44 22.04.2021
12 Haze 33 1008 46 5000 5.14 30 09:19 22.04.2021
13 Haze 34 1009 49 5000 6.17 40 08:38 22.04.2021
14 Haze 33 1009 49 5000 6.17 40 08:18 22.04.2021
15 Haze 34 1009 46 5000 5.14 40 07:40 22.04.2021
16 Haze 33 1009 46 5000 5.14 40 07:20 22.04.2021
17 Haze 32 1010 46 4000 1.54 220 06:23 22.04.2021
18 Haze 31 1011 58 4000 0.43 44 05:25 22.04.2021
19 Haze 30 1011 65 4000 1.54 130 04:29 22.04.2021
20 Haze 26 1010 83 5000 1.54 230 00:55 22.04.2021
21 Haze 26 1010 83 5000 1.22 155 23:47 21.04.2021
22 Haze 27 1010 83 5000 1.37 134 23:26 21.04.2021
23 Haze 27 1010 78 5000 1.54 0 22:42 21.04.2021
24 Haze 27 1010 78 5000 1.54 0 22:24 21.04.2021
25 Haze 27 1010 78 5000 2.06 150 21:49 21.04.2021
26 Haze 27 1010 78 5000 2.57 0 21:24 21.04.2021
27 Haze 27 1010 83 4000 3.09 170 20:58 21.04.2021
28 Haze 27 1010 83 4000 4.12 190 20:21 21.04.2021
29 Haze 27 1011 78 4000 3.6 210 19:43 21.04.2021
30 Haze 27 1011 78 4000 3.09 210 19:24 21.04.2021
31 Haze 28 1011 74 4000 3.6 220 18:46 21.04.2021
32 Haze 28 1011 78 4000 3.09 270 18:27 21.04.2021
33 Haze 26 1012 74 4000 2.06 290 17:48 21.04.2021
34 Clouds 29 1011 70 6000 2.06 90 17:25 21.04.2021
35 Clouds 29 1011 70 6000 2.06 90 17:25 21.04.2021
36 Clouds 29 1011 70 6000 2.06 90 16:55 21.04.2021
37 Clouds 29 1011 70 6000 1.54 70 15:59 21.04.2021
38 Clouds 29 1011 70 6000 1.54 40 15:41 21.04.2021
39 Clouds 30 1010 62 6000 3.09 360 14:58 21.04.2021
40 Clouds 30 1010 62 6000 3.09 360 14:40 21.04.2021
41 Clouds 30 1010 62 6000 3.09 360 14:18 21.04.2021
42 Haze 30 1009 62 5000 4.12 30 13:40 21.04.2021
43 Haze 30 1009 62 5000 4.12 30 13:21 21.04.2021
44 Clouds 31 1008 51 6000 3.6 50 12:31 21.04.2021
45 Clouds 32 1008 48 6000 5.14 30 11:50 21.04.2021
46 Clouds 32 1007 46 6000 5.14 20 11:30 21.04.2021
47 Clouds 31 1007 52 6000 4.63 30 10:52 21.04.2021
48 Clouds 31 1007 49 6000 4.63 50 10:34 21.04.2021
49 Clouds 32 1008 46 6000 4.63 60 09:51 21.04.2021
50 Clouds 33 1008 46 6000 4.63 60 09:19 21.04.2021
51 Haze 34 1009 49 5000 4.12 60 08:40 21.04.2021
52 Haze 32 1009 49 5000 4.12 60 08:20 21.04.2021
53 Haze 34 1010 49 5000 3.6 70 07:31 21.04.2021
54 Haze 31 1010 55 5000 2.06 130 06:57 21.04.2021
55 Haze 30 1012 55 5000 3.6 70 05:22 21.04.2021
56 Haze 25 1011 88 3000 2.1 121 01:32 21.04.2021
57 Haze 25 1010 88 4000 2.3 124 23:51 20.04.2021
58 Haze 25 1010 88 5000 2.56 124 23:25 20.04.2021
59 Haze 25 1010 83 5000 1.03 0 22:41 20.04.2021
60 Haze 25 1010 83 5000 1.54 0 22:21 20.04.2021
61 Haze 25 1010 83 5000 1.54 180 21:47 20.04.2021
62 Haze 26 1010 78 5000 2.57 0 21:25 20.04.2021
63 Haze 26 1010 78 5000 2.57 180 20:44 20.04.2021
64 Haze 26 1011 78 5000 2.57 200 20:24 20.04.2021
65 Haze 26 1011 83 5000 2.06 180 19:57 20.04.2021
66 Haze 26 1011 83 5000 2.06 180 19:39 20.04.2021
67 Haze 26 1011 83 5000 2.06 180 19:39 20.04.2021
68 Haze 28 1011 78 5000 2.06 0 19:21 20.04.2021
69 Clouds 27 1012 83 6000 1.54 160 18:36 20.04.2021
70 Clouds 27 1012 83 6000 1.54 160 17:46 20.04.2021
71 Clouds 27 1012 83 6000 1.54 230 17:28 20.04.2021
72 Clouds 27 1012 83 6000 1.54 210 16:49 20.04.2021
73 Clouds 26 1011 83 6000 1.54 230 15:53 20.04.2021
74 Clouds 26 1011 83 6000 2.57 210 15:29 20.04.2021
75 Clouds 27 1011 78 6000 3.09 210 14:58 20.04.2021
76 Haze 29 1010 70 5000 1.54 30 14:33 20.04.2021
77 Haze 29 1010 70 5000 3.09 60 13:52 20.04.2021
78 Haze 30 1009 62 5000 5.66 30 13:22 20.04.2021
79 Haze 30 1009 62 5000 5.66 30 12:44 20.04.2021
80 Haze 31 1009 62 5000 3.09 360 12:20 20.04.2021
81 Clouds 31 1008 55 6000 7.2 50 11:44 20.04.2021
82 Clouds 32 1008 55 6000 6.69 30 11:21 20.04.2021
83 Clouds 33 1007 49 6000 7.2 30 10:44 20.04.2021
84 Clouds 33 1007 49 6000 7.2 40 10:23 20.04.2021
85 Haze 33 1008 49 5000 7.72 50 09:36 20.04.2021
86 Haze 33 1009 52 4000 3.09 30 08:56 20.04.2021
87 Haze 32 1009 55 4000 3.09 90 08:25 20.04.2021
88 Haze 32 1010 52 4000 3.09 30 07:49 20.04.2021
89 Haze 31 1010 58 4000 1.54 30 06:49 20.04.2021
90 Haze 31 1012 70 4000 1.54 90 05:40 20.04.2021
91 Haze 30 1012 70 5000 2.06 0 04:42 20.04.2021
92 Mist 27 1010 83 4000 0.51 0 01:57 20.04.2021
93 Haze 25 1010 88 4000 1.09 192 00:38 20.04.2021
94 Haze 25 1009 88 5000 1.3 192 23:38 19.04.2021
95 Clouds 25 1009 88 6000 1.03 0 22:58 19.04.2021
96 Clouds 25 1009 88 6000 1.03 0 22:36 19.04.2021
97 Clouds 25 1010 88 7000 1.54 230 21:51 19.04.2021
98 Clouds 25 1010 88 7000 1.54 230 21:33 19.04.2021
99 Haze 26 1010 83 5000 2.06 210 20:56 19.04.2021
100 Haze 26 1010 83 5000 2.06 210 20:38 19.04.2021
101 Haze 26 1010 88 5000 1.54 0 20:19 19.04.2021
102 Haze 24 1010 88 5000 2.57 0 19:41 19.04.2021
103 Haze 24 1010 88 5000 3.09 220 19:23 19.04.2021
104 Clouds 26 1011 88 5000 3.6 230 18:47 19.04.2021
105 Clouds 26 1011 88 5000 3.6 220 18:22 19.04.2021
106 Clouds 26 1011 94 4000 3.6 220 17:54 19.04.2021
107 Clouds 26 1011 94 4000 5.14 200 17:29 19.04.2021
108 Clouds 27 1011 83 4000 5.14 180 16:53 19.04.2021
109 Clouds 27 1011 83 4000 5.14 180 16:34 19.04.2021
110 Clouds 28 1010 78 7000 3.6 180 15:55 19.04.2021
111 Clouds 29 1010 70 7000 1.54 310 15:30 19.04.2021
112 Rain 27 1010 70 7000 0.51 0 14:55 19.04.2021
113 Rain 29 1009 66 5000 1.54 20 14:36 19.04.2021
114 Rain 30 1009 66 5000 1.54 20 13:54 19.04.2021
115 Rain 30 1009 66 5000 1.54 20 13:31 19.04.2021
116 Clouds 30 1008 66 5000 4.12 50 12:56 19.04.2021
117 Clouds 31 1008 66 5000 4.63 350 12:38 19.04.2021
118 Clouds 31 1008 66 5000 4.63 350 12:19 19.04.2021
119 Haze 31 1007 66 5000 4.12 20 11:51 19.04.2021
120 Clouds 31 1007 62 6000 3.6 200 11:20 19.04.2021
121 Haze 31 1007 62 5000 3.6 20 10:44 19.04.2021
122 Haze 31 1007 62 5000 3.6 20 10:20 19.04.2021
123 Haze 32 1008 55 5000 2.57 360 09:48 19.04.2021
124 Haze 32 1008 55 5000 2.57 360 09:26 19.04.2021
125 Haze 32 1009 62 5000 4.63 20 08:45 19.04.2021
126 Haze 32 1009 55 5000 4.12 20 08:22 19.04.2021
127 Haze 32 1010 55 5000 3.09 40 07:45 19.04.2021
128 Haze 31 1010 55 5000 3.09 40 07:18 19.04.2021
129 Haze 31 1011 55 5000 2.57 90 05:43 19.04.2021
130 Haze 27 1012 94 3000 1.72 103 02:34 19.04.2021
131 Haze 26 1011 94 4000 1.59 125 00:45 19.04.2021
132 Haze 26 1010 94 4000 1.68 109 23:38 18.04.2021
133 Haze 26 1010 94 4000 1.4 112 23:18 18.04.2021
134 Mist 26 1010 83 3000 1.54 230 22:43 18.04.2021
135 Mist 26 1010 88 3000 1.54 240 22:23 18.04.2021
136 Haze 27 1010 83 3000 2.06 0 21:29 18.04.2021
137 Haze 27 1010 83 3000 2.06 0 21:29 18.04.2021
138 Haze 26 1011 83 4000 2.57 0 20:56 18.04.2021
139 Haze 27 1011 83 4000 2.57 0 20:37 18.04.2021
140 Haze 27 1011 83 4000 2.06 0 20:19 18.04.2021
141 Haze 27 1011 83 5000 2.57 0 19:44 18.04.2021
142 Clouds 28 1008 58 10000 1.24 90 19:21 18.04.2021
143 Clouds 28 1008 56 10000 1.24 90 18:46 18.04.2021
144 Haze 28 1012 89 5000 1.25 71 18:27 18.04.2021
145 Haze 27 1012 89 5000 1.25 71 17:50 18.04.2021
146 Haze 27 1012 89 5000 1.25 71 17:30 18.04.2021
147 Haze 28 1012 78 5000 2.06 200 16:54 18.04.2021
148 Clouds 28 1012 78 6000 2.57 210 16:35 18.04.2021
149 Clouds 28 1011 78 6000 1.37 37 15:51 18.04.2021
150 Clouds 28 1011 78 6000 1.37 37 15:30 18.04.2021
151 Clouds 28 1011 78 6000 2.08 8 14:58 18.04.2021
152 Clouds 28 1010 78 6000 2.08 8 14:39 18.04.2021
153 Clouds 29 1010 78 6000 2.49 357 14:18 18.04.2021
154 Clouds 29 1010 74 6000 1.54 310 13:44 18.04.2021
155 Clouds 30 1010 74 6000 1.54 330 13:24 18.04.2021
156 Haze 31 1009 70 5000 1.54 330 12:35 18.04.2021
157 Haze 32 1009 66 5000 3.6 10 11:52 18.04.2021
158 Haze 33 1009 66 5000 2.57 360 11:27 18.04.2021
159 Haze 32 1009 70 5000 3.6 10 10:54 18.04.2021
160 Haze 33 1009 66 5000 3.09 350 10:35 18.04.2021
161 Haze 33 1009 58 5000 3.6 360 09:58 18.04.2021
162 Haze 34 1010 58 5000 3.6 50 09:39 18.04.2021
163 Haze 34 1010 58 5000 3.6 50 09:39 18.04.2021
164 Haze 33 1010 58 5000 3.6 50 09:19 18.04.2021
165 Haze 32 1010 58 4000 3.6 40 08:41 18.04.2021
166 Haze 32 1010 58 4000 3.6 40 08:19 18.04.2021
167 Haze 32 1011 62 4000 2.57 80 07:39 18.04.2021
168 Haze 30 1013 70 4000 1.54 150 05:48 18.04.2021
169 Haze 29 1013 74 4000 2.57 160 05:26 18.04.2021
170 Haze 30 1013 83 3000 2.06 130 04:30 18.04.2021
171 Rain 27 1013 94 3000 2.57 70 02:23 18.04.2021
172 Mist 26 1011 94 3000 1.53 231 00:41 18.04.2021
173 Mist 26 1011 94 3000 1.56 215 23:46 17.04.2021
174 Haze 26 1011 100 3000 1.54 260 23:18 17.04.2021
175 Clouds 26 1011 83 6000 1.54 0 22:41 17.04.2021
176 Clouds 26 1011 83 7000 1.54 0 22:20 17.04.2021
177 Haze 27 1011 78 4700 1.54 210 21:39 17.04.2021
178 Haze 27 1011 83 4800 2.06 260 21:21 17.04.2021
179 Haze 27 1011 83 5000 2.06 250 20:28 17.04.2021
180 Haze 27 1012 78 5000 2.06 210 19:46 17.04.2021
181 Haze 27 1012 78 5000 1.54 210 19:23 17.04.2021
182 Haze 27 1013 100 4000 1.54 270 18:58 17.04.2021
183 Haze 27 1013 100 4000 1.54 270 18:37 17.04.2021
184 Haze 27 1013 100 4000 1.54 270 18:18 17.04.2021
185 Haze 27 1013 89 4000 1.54 200 17:41 17.04.2021
186 Haze 26 1013 100 4000 1.54 280 16:55 17.04.2021
187 Haze 26 1013 94 4000 1.54 280 16:29 17.04.2021
188 Haze 27 1012 94 4000 1.54 270 15:55 17.04.2021
189 Haze 28 1012 83 4000 6.17 210 14:51 17.04.2021
190 Haze 29 1011 78 4000 1.54 210 14:33 17.04.2021
191 Haze 29 1010 74 4000 1.16 317 13:50 17.04.2021
192 Haze 29 1009 74 4000 2.57 350 13:25 17.04.2021
193 Haze 30 1009 70 5000 4.12 350 12:42 17.04.2021
194 Haze 31 1009 70 5000 4.12 350 12:20 17.04.2021
195 Haze 32 1008 70 4000 4.12 320 11:46 17.04.2021
196 Haze 32 1008 70 4000 4.12 320 11:27 17.04.2021
197 Haze 31 1008 66 5000 2.57 340 10:45 17.04.2021
198 Haze 31 1008 66 5000 2.57 330 10:26 17.04.2021
199 Rain 30 1009 69 5000 2.57 350 09:39 17.04.2021
200 Rain 30 1010 74 4000 4.12 350 08:41 17.04.2021
201 Rain 30 1010 74 4000 4.12 350 08:21 17.04.2021
202 Haze 31 1011 70 4000 2.57 20 06:47 17.04.2021
203 Haze 29 1012 79 3000 1.54 120 03:55 17.04.2021
204 Haze 30 1012 83 3000 1.54 70 03:37 17.04.2021
205 Mist 26 1011 94 3000 1.54 180 00:48 17.04.2021
206 Mist 27 1011 94 3000 1.54 180 00:27 17.04.2021
207 Haze 27 1010 94 4000 1.64 128 23:48 16.04.2021
208 Haze 27 1010 94 4000 1.61 116 23:25 16.04.2021
209 Clouds 28 1007 62 10000 1.61 116 22:46 16.04.2021
210 Clouds 28 1007 62 10000 1.57 114 22:21 16.04.2021
211 Clouds 28 1007 61 10000 1.57 114 21:50 16.04.2021
212 Clouds 28 1007 61 10000 1.57 114 21:30 16.04.2021
213 Mist 28 1010 83 2500 1.03 0 20:50 16.04.2021
214 Mist 28 1011 83 3000 1.54 270 20:24 16.04.2021
215 Haze 28 1011 83 4000 2.06 260 19:52 16.04.2021
216 Haze 29 1011 83 5000 1.03 300 19:29 16.04.2021
217 Haze 29 1011 78 5000 1.12 122 18:36 16.04.2021
218 Haze 29 1011 78 5000 1 108 18:18 16.04.2021
219 Haze 28 1011 78 5000 1 108 17:37 16.04.2021
220 Haze 28 1011 78 5000 1 75 17:18 16.04.2021
221 Haze 28 1011 78 5000 1 75 16:42 16.04.2021
222 Haze 28 1011 78 5000 1.29 50 16:23 16.04.2021
223 Haze 28 1010 78 5000 1.29 50 15:44 16.04.2021
224 Haze 29 1010 78 5000 1.93 36 15:18 16.04.2021
225 Haze 29 1009 74 5000 2.06 30 14:42 16.04.2021
226 Haze 30 1009 74 5000 2.06 30 14:18 16.04.2021
227 Haze 30 1008 70 5000 3.09 30 13:42 16.04.2021
228 Haze 30 1008 70 5000 3.09 30 13:20 16.04.2021
229 Haze 30 1008 66 5000 3.09 50 12:47 16.04.2021
230 Clouds 31 1008 66 6000 2.57 40 12:27 16.04.2021
231 Clouds 31 1008 66 6000 2.57 40 12:27 16.04.2021
232 Haze 31 1007 62 5000 3.6 30 11:49 16.04.2021
233 Haze 31 1007 58 5000 3.6 30 11:25 16.04.2021
234 Haze 32 1007 62 5000 3.09 20 10:46 16.04.2021
235 Clouds 33 1008 58 6000 3.09 50 10:26 16.04.2021
236 Clouds 33 1008 55 6000 3.6 50 09:52 16.04.2021
237 Clouds 33 1008 55 6000 3.6 50 09:24 16.04.2021
238 Clouds 32 1009 55 6000 3.09 70 08:46 16.04.2021
239 Haze 32 1009 58 5000 3.09 100 08:28 16.04.2021
240 Haze 32 1010 58 5000 3.09 70 07:52 16.04.2021
241 Haze 32 1010 62 5000 2.57 90 07:33 16.04.2021
242 Haze 31 1011 62 5000 3.09 100 06:56 16.04.2021
243 Haze 30 1012 62 5000 2.57 100 05:33 16.04.2021
244 Haze 29 1012 70 4000 2.06 70 04:19 16.04.2021
245 Mist 25 1011 100 3000 1.23 163 00:54 16.04.2021
246 Mist 25 1011 94 3000 1.54 190 00:36 16.04.2021
247 Mist 25 1011 94 3000 1.54 190 00:18 16.04.2021
248 Mist 25 1010 94 3000 1.54 160 23:36 15.04.2021
249 Mist 25 1010 88 2900 1.03 340 22:53 15.04.2021
250 Mist 26 1010 88 2900 1.03 340 22:33 15.04.2021
251 Mist 26 1010 88 5000 2.06 280 21:59 15.04.2021
252 Mist 26 1010 88 5000 2.06 280 21:40 15.04.2021
253 Mist 26 1010 88 4500 1.54 270 21:19 15.04.2021
254 Mist 25 1011 88 4800 1.54 210 20:40 15.04.2021
255 Mist 25 1011 88 4500 1.54 220 20:21 15.04.2021
256 Clouds 25 1012 88 7000 1.54 0 19:43 15.04.2021
257 Mist 25 1012 94 3000 1.54 40 19:24 15.04.2021
258 Mist 25 1012 94 3000 1.54 40 18:42 15.04.2021
259 Mist 25 1012 94 3000 1.54 40 18:20 15.04.2021
260 Mist 25 1012 94 3000 1.54 200 17:54 15.04.2021
261 Haze 25 1012 94 4000 1.54 120 17:36 15.04.2021
262 Haze 25 1012 94 5000 2.06 110 16:57 15.04.2021
263 Clouds 25 1011 100 4000 2.57 180 16:39 15.04.2021
264 Rain 25 1011 100 4000 2.57 180 16:20 15.04.2021
265 Rain 25 1011 100 4000 2.97 225 15:44 15.04.2021
266 Rain 25 1011 100 4000 2.76 191 15:25 15.04.2021
267 Rain 25 1011 94 4000 2.06 150 14:39 15.04.2021
268 Rain 25 1011 94 4000 2.06 150 14:21 15.04.2021
269 Rain 25 1010 88 4000 2.06 170 13:41 15.04.2021
270 Rain 25 1010 88 4000 2.06 170 13:18 15.04.2021
271 Rain 26 1009 88 4000 1.33 336 12:40 15.04.2021
272 Rain 26 1009 88 4000 2.86 353 12:20 15.04.2021
273 Rain 26 1009 83 4000 3.09 210 11:45 15.04.2021
274 Clouds 26 1009 89 4000 5.14 260 11:23 15.04.2021
275 Haze 28 1009 83 3000 4.12 240 10:49 15.04.2021
276 Haze 29 1008 89 3000 5.14 250 10:27 15.04.2021
277 Clouds 30 1008 89 3000 1.54 260 09:48 15.04.2021
278 Rain 31 1008 58 7000 4.12 40 09:23 15.04.2021
279 Rain 31 1010 74 3000 5.14 60 08:47 15.04.2021
280 Rain 31 1010 74 3000 5.14 60 07:53 15.04.2021
281 Haze 31 1010 55 3000 4.12 50 07:24 15.04.2021
282 Haze 31 1011 66 3000 1.54 180 06:39 15.04.2021
283 Haze 31 1011 66 3000 1.54 180 06:20 15.04.2021
284 Haze 31 1012 70 4000 1.69 73 04:51 15.04.2021
285 Mist 24 1010 94 3000 1.41 103 01:24 15.04.2021
286 Mist 25 1010 100 3000 1.04 108 23:42 14.04.2021
287 Mist 24 1010 100 3000 0.64 113 23:22 14.04.2021
288 Mist 24 1010 94 4500 1.54 350 22:46 14.04.2021
289 Clouds 25 1010 88 6000 1.03 0 22:25 14.04.2021
290 Clouds 25 1010 88 6000 1.03 140 21:49 14.04.2021
291 Mist 25 1010 88 4600 1.03 0 21:31 14.04.2021
292 Haze 26 1010 88 5000 2.06 170 20:56 14.04.2021
293 Haze 26 1010 88 5000 2.06 170 20:34 14.04.2021
294 Haze 26 1011 88 3000 2.57 210 19:54 14.04.2021
295 Haze 26 1011 88 5000 1.54 0 19:20 14.04.2021
296 Haze 26 1011 88 5000 0.51 0 18:57 14.04.2021
297 Haze 25 1011 100 4000 1.96 163 18:22 14.04.2021
298 Haze 25 1011 100 4000 1.96 163 17:59 14.04.2021
299 Rain 25 1011 100 4000 2.31 167 17:28 14.04.2021
300 Haze 25 1011 94 4000 2.31 167 16:54 14.04.2021
301 Haze 25 1011 94 4000 2.06 150 16:28 14.04.2021
302 Haze 25 1011 94 4000 3.5 174 15:47 14.04.2021
303 Haze 25 1010 94 4000 1.54 200 15:27 14.04.2021
304 Haze 25 1010 94 4000 1.54 100 14:56 14.04.2021
305 Rain 25 1010 94 4000 1.54 250 14:37 14.04.2021
306 Rain 25 1010 94 4000 1.54 250 14:18 14.04.2021
307 Rain 25 1009 88 7000 3.09 210 13:44 14.04.2021
308 Rain 25 1009 88 5000 3.6 210 12:40 14.04.2021
309 Rain 26 1009 94 5000 4.12 200 12:18 14.04.2021
310 Rain 26 1009 89 4500 4.63 160 11:39 14.04.2021
311 Rain 26 1009 83 6000 4.12 200 11:19 14.04.2021
312 Rain 28 1008 89 3000 3.09 240 10:33 14.04.2021
313 Rain 29 1008 78 3000 3.09 230 09:43 14.04.2021
314 Clouds 29 1008 78 3000 3.09 230 09:23 14.04.2021
315 Haze 32 1009 62 4000 3.09 360 08:48 14.04.2021
316 Haze 32 1009 55 5000 1.54 350 08:23 14.04.2021
317 Haze 33 1010 55 5000 1.54 160 07:27 14.04.2021
318 Haze 31 1011 58 5000 1.54 120 06:27 14.04.2021
319 Haze 30 1012 62 5000 1.54 360 05:24 14.04.2021
320 Mist 27 1011 100 2000 1.54 170 02:24 14.04.2021
321 Mist 26 1010 94 4000 0.71 236 00:50 14.04.2021
322 Mist 26 1010 94 4000 0.86 228 00:27 14.04.2021
323 Mist 26 1010 100 4000 0.86 228 23:31 13.04.2021
324 Mist 26 1010 94 3000 1.03 0 22:44 13.04.2021
325 Mist 26 1010 88 3000 1.54 0 22:20 13.04.2021
326 Mist 26 1010 88 3000 1.03 280 21:48 13.04.2021
327 Haze 26 1010 88 4000 1.03 0 21:30 13.04.2021
328 Haze 26 1011 88 5000 1.03 290 20:48 13.04.2021
329 Haze 26 1011 88 5000 1.54 290 20:24 13.04.2021
330 Haze 26 1011 88 5000 1.03 290 19:57 13.04.2021
331 Clouds 26 1011 83 6000 1.03 320 19:25 13.04.2021
332 Clouds 26 1011 88 6000 1.03 180 18:49 13.04.2021
333 Clouds 26 1012 88 6000 1.03 0 18:30 13.04.2021
334 Clouds 26 1012 88 6000 1.03 0 18:30 13.04.2021
335 Clouds 26 1012 88 6000 1.03 0 18:30 13.04.2021
336 Clouds 26 1012 83 6000 1.54 220 17:40 13.04.2021
337 Haze 26 1012 88 5000 2.89 164 17:19 13.04.2021
338 Haze 26 1012 88 5000 2.89 164 16:45 13.04.2021
339 Haze 26 1012 88 5000 1.64 174 16:26 13.04.2021
340 Haze 26 1012 88 5000 1.64 174 16:26 13.04.2021
341 Rain 27 1012 78 6000 3.09 130 15:55 13.04.2021
342 Rain 26 1010 94 5000 1.54 110 15:36 13.04.2021
343 Rain 26 1010 94 5000 1.54 110 14:54 13.04.2021
344 Rain 26 1010 94 5000 1.54 110 14:24 13.04.2021
345 Rain 26 1010 100 5000 2.57 130 13:53 13.04.2021
346 Rain 26 1010 100 2000 2.57 130 13:27 13.04.2021
347 Rain 26 1010 88 2000 4.12 120 12:59 13.04.2021
348 Rain 26 1009 88 2000 4.12 140 12:41 13.04.2021
349 Rain 26 1009 88 2000 4.12 140 12:22 13.04.2021
350 Rain 29 1008 62 5000 3.6 280 11:36 13.04.2021
351 Haze 30 1008 62 5000 4.63 10 10:57 13.04.2021
352 Haze 30 1008 66 5000 4.63 20 10:39 13.04.2021
353 Haze 31 1008 66 5000 4.63 20 10:18 13.04.2021
354 Haze 33 1009 52 5000 3.09 30 09:42 13.04.2021
355 Haze 34 1009 52 5000 3.09 30 09:18 13.04.2021
356 Haze 34 1009 52 5000 3.09 30 09:18 13.04.2021
357 Haze 33 1010 52 5000 2.57 20 08:42 13.04.2021
358 Haze 34 1010 52 5000 2.57 20 08:21 13.04.2021
359 Haze 34 1010 52 5000 2.57 20 08:21 13.04.2021
360 Clouds 33 1010 58 10000 3.09 40 07:36 13.04.2021
361 Clouds 32 1011 66 9000 2.57 0 06:59 13.04.2021
362 Clouds 32 1012 62 9000 1.54 0 06:18 13.04.2021
363 Haze 29 1012 83 5000 2.06 0 02:52 13.04.2021
364 Mist 25 1011 94 2000 1.54 0 01:28 13.04.2021
365 Mist 25 1010 94 2000 1.03 0 23:49 12.04.2021
366 Mist 25 1010 94 1900 1.03 0 23:29 12.04.2021
367 Mist 25 1010 94 1900 1.03 0 22:43 12.04.2021
368 Mist 25 1010 94 2300 0.51 0 22:25 12.04.2021
369 Mist 25 1011 94 1900 1.03 0 21:47 12.04.2021
370 Mist 26 1011 94 1800 2.06 310 21:23 12.04.2021
371 Mist 26 1011 89 2000 1.54 0 20:45 12.04.2021
372 Mist 26 1011 89 3000 1.03 160 20:26 12.04.2021
373 Mist 26 1011 89 3000 1.54 140 19:58 12.04.2021
374 Mist 26 1011 89 3000 1.54 140 19:38 12.04.2021
375 Mist 26 1012 89 3000 2.06 220 19:19 12.04.2021
376 Mist 26 1012 89 3000 1.54 220 18:46 12.04.2021
377 Mist 26 1012 89 3000 1.54 250 18:27 12.04.2021
378 Clouds 26 1012 89 6000 1.03 170 17:45 12.04.2021
379 Rain 26 1012 89 7000 2.06 0 17:24 12.04.2021
380 Rain 26 1012 89 7000 2.06 170 16:49 12.04.2021
381 Rain 26 1012 89 6000 3.09 170 16:28 12.04.2021
382 Rain 26 1012 89 4500 1.54 170 15:54 12.04.2021
383 Rain 26 1011 89 4000 3.09 130 15:33 12.04.2021
384 Rain 26 1011 83 5000 1.54 0 14:55 12.04.2021
385 Rain 28 1011 83 5000 1.54 0 14:36 12.04.2021
386 Rain 28 1010 83 5000 2.06 0 13:53 12.04.2021
387 Rain 29 1009 62 5000 3.09 10 13:31 12.04.2021
388 Clouds 31 1009 62 5000 3.09 10 12:56 12.04.2021
389 Clouds 31 1009 62 5000 3.09 10 12:36 12.04.2021
390 Clouds 32 1009 62 5000 3.09 10 12:18 12.04.2021
391 Haze 33 1008 58 5000 2.57 330 11:25 12.04.2021
392 Haze 33 1008 58 5000 2.57 350 10:49 12.04.2021
393 Haze 34 1008 58 4000 3.6 340 10:27 12.04.2021
394 Haze 35 1009 55 4000 4.63 360 09:51 12.04.2021
395 Haze 34 1009 55 4000 3.09 340 09:23 12.04.2021
396 Clouds 34 1010 46 6000 2.06 280 08:40 12.04.2021
397 Clouds 33 1011 46 6000 2.57 210 07:42 12.04.2021
398 Clouds 33 1011 46 6000 2.57 210 07:22 12.04.2021
399 Clouds 32 1012 55 6000 1.54 160 06:27 12.04.2021
400 Haze 32 1013 62 5000 1.54 120 05:42 12.04.2021
401 Haze 25 1012 94 3000 1.01 146 01:40 12.04.2021
402 Clouds 25 1011 83 7000 2.06 170 00:26 12.04.2021
403 Clouds 25 1011 83 6000 2.57 170 23:49 11.04.2021
404 Clouds 25 1011 83 6000 1.54 0 23:31 11.04.2021
405 Clouds 25 1011 83 6000 1.03 0 22:48 11.04.2021
406 Clouds 25 1011 83 6000 2.57 190 22:26 11.04.2021
407 Clouds 25 1011 78 6000 2.57 210 21:52 11.04.2021
408 Clouds 26 1011 78 6000 3.09 250 21:31 11.04.2021
409 Haze 26 1012 78 5000 3.09 250 20:59 11.04.2021
410 Haze 26 1012 78 5000 3.09 250 20:39 11.04.2021
411 Haze 26 1012 78 5000 3.09 260 20:20 11.04.2021
412 Haze 26 1012 83 5000 3.09 260 19:40 11.04.2021
413 Haze 25 1013 88 4000 2.83 249 19:19 11.04.2021
414 Haze 26 1013 88 4000 2.83 249 18:47 11.04.2021
415 Haze 25 1013 88 4000 2.41 244 18:26 11.04.2021
416 Haze 25 1012 94 4000 2.41 244 17:50 11.04.2021
417 Haze 26 1012 94 4000 2.41 244 17:30 11.04.2021
418 Haze 26 1012 94 4000 2.41 244 17:30 11.04.2021
419 Haze 26 1012 94 4000 2.4 262 16:59 11.04.2021
420 Haze 25 1011 100 4000 2.4 262 16:40 11.04.2021
421 Haze 26 1011 100 4000 2.42 284 16:20 11.04.2021
422 Haze 26 1011 88 3000 2.42 284 15:42 11.04.2021
423 Haze 26 1011 88 3000 2.7 302 15:22 11.04.2021
424 Haze 26 1011 94 3000 1.54 160 14:49 11.04.2021
425 Haze 26 1010 94 3000 1.54 180 14:19 11.04.2021
426 Haze 27 1010 89 3000 1.54 170 13:40 11.04.2021
427 Haze 27 1010 89 3000 1.54 170 13:22 11.04.2021
428 Rain 27 1009 94 3000 3.58 330 12:26 11.04.2021
429 Rain 27 1009 88 3000 1.54 130 11:56 11.04.2021
430 Rain 27 1009 88 3000 2.57 150 11:38 11.04.2021
431 Rain 28 1009 88 3000 2.57 150 11:19 11.04.2021
432 Rain 28 1009 88 3000 7.72 240 10:40 11.04.2021
433 Rain 29 1009 88 3000 7.72 240 10:20 11.04.2021
434 Rain 29 1009 78 3000 6.17 20 09:43 11.04.2021
435 Haze 32 1009 62 4000 7.2 20 09:25 11.04.2021
436 Haze 33 1010 52 5000 4.15 353 08:39 11.04.2021
437 Haze 32 1011 58 5000 3.09 330 07:38 11.04.2021
438 Haze 32 1011 58 5000 3.09 330 07:19 11.04.2021
439 Haze 31 1012 55 5000 1.54 180 05:47 11.04.2021
440 Haze 30 1012 58 5000 0.3 329 05:22 11.04.2021
441 Clouds 31 1012 70 6000 1.54 0 04:35 11.04.2021
442 Clouds 29 1012 74 6000 2.06 0 03:35 11.04.2021
443 Clouds 26 1010 88 6000 1.54 310 00:55 11.04.2021
444 Clouds 26 1010 83 6000 0.51 0 00:32 11.04.2021
445 Clouds 26 1010 78 6000 0.51 0 23:45 10.04.2021
446 Clouds 26 1010 78 6000 2.57 180 22:55 10.04.2021
447 Clouds 26 1010 78 6000 2.57 190 22:28 10.04.2021
448 Clouds 26 1010 78 6000 1.54 200 21:54 10.04.2021
449 Haze 26 1011 78 5000 2.06 200 21:25 10.04.2021
450 Haze 26 1011 83 5000 2.06 240 20:56 10.04.2021
451 Haze 26 1011 83 5000 2.06 240 20:36 10.04.2021
452 Haze 26 1011 78 5000 1.54 220 20:18 10.04.2021
453 Clouds 27 1011 78 6000 3.09 230 19:42 10.04.2021
454 Clouds 26 1012 83 7000 3.09 240 19:24 10.04.2021
455 Clouds 27 1012 83 7000 3.09 260 18:42 10.04.2021
456 Clouds 27 1012 83 7000 3.09 290 18:23 10.04.2021
457 Clouds 28 1012 74 7000 4.12 330 17:35 10.04.2021
458 Clouds 28 1012 74 7000 2.57 340 16:43 10.04.2021
459 Haze 29 1011 78 5000 1.75 305 16:24 10.04.2021
460 Haze 29 1011 78 5000 1.75 305 15:48 10.04.2021
461 Haze 30 1011 70 5000 1.98 318 14:55 10.04.2021
462 Haze 30 1010 70 5000 1.98 318 14:34 10.04.2021
463 Haze 30 1010 70 5000 1.54 330 13:58 10.04.2021
464 Haze 30 1009 74 5000 1.54 110 13:36 10.04.2021
465 Haze 31 1008 66 4000 2.06 140 12:43 10.04.2021
466 Haze 32 1008 66 4000 2.06 140 12:20 10.04.2021
467 Clouds 31 1009 62 9000 2.57 0 11:45 10.04.2021
468 Clouds 32 1008 62 10000 3.09 30 11:23 10.04.2021
469 Clouds 32 1008 58 10000 3.6 20 10:51 10.04.2021
470 Clouds 31 1009 74 10000 1.54 30 10:31 10.04.2021
471 Clouds 32 1009 74 10000 1.54 30 09:45 10.04.2021
472 Clouds 31 1009 74 10000 1.54 30 09:19 10.04.2021
473 Rain 32 1010 66 5000 2.57 320 08:36 10.04.2021
474 Haze 33 1010 66 5000 2.57 320 08:18 10.04.2021
475 Haze 33 1010 62 5000 1.54 300 07:26 10.04.2021
476 Haze 33 1011 70 5000 3.12 353 06:42 10.04.2021
477 Haze 31 1012 78 5000 2.06 60 05:36 10.04.2021
478 Haze 27 1011 88 5000 2.57 40 03:42 10.04.2021
479 Haze 26 1011 88 5000 2.06 10 02:48 10.04.2021
480 Haze 25 1010 94 5000 1.54 290 01:43 10.04.2021
481 Clouds 25 1010 94 4000 2.57 190 00:37 10.04.2021
482 Rain 24 1010 88 4000 2.06 180 23:58 09.04.2021
483 Rain 25 1010 94 3000 2.06 280 23:36 09.04.2021
484 Rain 25 1010 94 2500 2.57 290 22:57 09.04.2021
485 Rain 25 1010 94 5000 1.03 0 22:37 09.04.2021
486 Haze 28 1010 83 3200 3.09 320 21:41 09.04.2021
487 Haze 28 1009 83 4000 2.57 280 21:22 09.04.2021
488 Haze 28 1009 78 4000 2.06 260 20:59 09.04.2021
489 Haze 28 1009 78 4000 2.06 260 20:40 09.04.2021
490 Haze 28 1010 78 4000 2.06 280 20:21 09.04.2021
491 Haze 28 1010 74 4000 1.54 290 19:43 09.04.2021
492 Haze 28 1010 78 5000 2.29 245 19:23 09.04.2021
493 Haze 28 1010 78 5000 2.29 245 18:44 09.04.2021
494 Haze 28 1010 78 5000 2.18 256 18:25 09.04.2021
495 Haze 29 1010 78 5000 2.18 256 17:52 09.04.2021
496 Haze 29 1010 78 4000 1.54 260 17:33 09.04.2021
497 Haze 29 1010 78 5000 1.54 220 16:55 09.04.2021
498 Haze 29 1010 74 5000 1.54 180 16:32 09.04.2021
499 Clouds 29 1009 74 6000 2.58 291 15:50 09.04.2021
500 Clouds 29 1009 79 6000 2.88 322 15:25 09.04.2021
501 Clouds 29 1008 74 6000 2.88 322 14:47 09.04.2021
502 Haze 30 1007 74 5000 3.29 316 14:29 09.04.2021
503 Haze 30 1008 74 5000 1.54 340 13:49 09.04.2021
504 Haze 30 1007 70 5000 1.54 350 13:23 09.04.2021
505 Clouds 31 1007 66 6000 1.54 360 12:48 09.04.2021
506 Clouds 31 1007 66 6000 1.54 360 12:48 09.04.2021
507 Clouds 31 1006 62 6000 2.57 360 12:27 09.04.2021
508 Clouds 32 1006 62 6000 2.57 350 11:44 09.04.2021
509 Clouds 32 1006 58 6000 4.12 360 11:21 09.04.2021
510 Clouds 31 1006 58 6000 2.57 340 10:40 09.04.2021
511 Clouds 33 1006 58 6000 2.57 340 10:18 09.04.2021
512 Haze 31 1007 62 5000 4.12 350 09:29 09.04.2021
513 Haze 33 1008 58 5000 5.14 350 08:56 09.04.2021
514 Haze 33 1008 58 5000 5.14 350 08:37 09.04.2021
515 Haze 33 1008 58 5000 4.12 320 07:35 09.04.2021
516 Haze 33 1009 58 5000 1.54 340 06:33 09.04.2021
517 Haze 30 1010 62 5000 3.09 280 05:45 09.04.2021
518 Haze 31 1010 79 5000 2.57 240 03:48 09.04.2021
519 Haze 26 1008 89 4000 1.54 260 00:40 09.04.2021
520 Haze 26 1008 89 4000 1.54 260 00:21 09.04.2021
521 Haze 27 1008 89 5000 1.54 280 23:57 08.04.2021
522 Haze 27 1008 89 4000 1.54 290 22:58 08.04.2021
523 Haze 27 1008 89 4000 1.54 290 22:38 08.04.2021
524 Haze 27 1008 89 5000 2.06 280 22:20 08.04.2021
525 Haze 27 1008 89 5000 2.06 320 21:54 08.04.2021
526 Haze 27 1008 89 5000 2.06 320 21:54 08.04.2021
527 Haze 27 1008 89 5000 2.06 320 21:36 08.04.2021
528 Haze 27 1008 89 5000 2.06 310 21:18 08.04.2021
529 Haze 27 1008 89 5000 1.03 310 20:42 08.04.2021
530 Haze 27 1008 83 5000 1.03 330 20:20 08.04.2021
531 Haze 28 1009 83 5000 1.54 340 19:41 08.04.2021
532 Haze 28 1009 83 5000 2.57 270 19:19 08.04.2021
533 Clouds 28 1010 83 6000 1.54 330 18:44 08.04.2021
534 Haze 28 1009 74 5000 2.57 260 18:20 08.04.2021
535 Haze 28 1009 74 5000 2.57 260 17:48 08.04.2021
536 Haze 28 1009 74 5000 2.57 260 17:21 08.04.2021
537 Haze 28 1009 74 5000 3.09 250 16:45 08.04.2021
538 Haze 28 1009 74 5000 3.09 250 16:25 08.04.2021
539 Haze 29 1008 70 5000 3.09 250 15:47 08.04.2021
540 Haze 29 1008 65 5000 3.09 270 15:28 08.04.2021
541 Rain 29 1007 65 5000 4.12 250 14:44 08.04.2021
542 Haze 30 1007 62 5000 4.12 260 14:23 08.04.2021
543 Haze 30 1007 58 5000 4.12 270 13:54 08.04.2021
544 Haze 30 1006 58 5000 4.12 250 13:36 08.04.2021
545 Haze 31 1006 58 5000 4.12 250 13:18 08.04.2021
546 Haze 32 1006 48 5000 5.66 240 12:38 08.04.2021
547 Haze 33 1005 48 5000 5.14 260 11:59 08.04.2021
548 Haze 33 1005 48 5000 5.14 240 11:37 08.04.2021
549 Haze 34 1005 46 5000 5.14 270 10:56 08.04.2021
550 Haze 34 1005 52 5000 5.14 270 10:28 08.04.2021
551 Haze 34 1005 49 5000 5.14 270 09:51 08.04.2021
552 Haze 35 1005 51 5000 5.14 250 09:33 08.04.2021
553 Haze 35 1006 51 5000 5.14 260 08:45 08.04.2021
554 Haze 33 1006 51 5000 6.17 250 08:25 08.04.2021
555 Haze 35 1007 51 5000 5.14 240 07:53 08.04.2021
556 Clouds 34 1008 55 6000 5.14 270 06:55 08.04.2021
557 Haze 27 1008 89 5000 2.06 250 02:34 08.04.2021
558 Clouds 26 1007 89 6000 2.06 240 00:34 08.04.2021
559 Clouds 26 1007 89 6000 2.57 260 23:56 07.04.2021
560 Clouds 26 1007 69 6000 3.09 280 23:37 07.04.2021
561 Clouds 26 1007 69 6000 3.09 280 23:18 07.04.2021
562 Haze 26 1008 88 5000 5.27 244 22:43 07.04.2021
563 Haze 25 1008 88 5000 5.37 242 22:22 07.04.2021
564 Haze 25 1008 88 5000 5.37 242 22:22 07.04.2021
565 Clouds 25 1008 88 5000 3.09 260 21:42 07.04.2021
566 Haze 26 1008 88 4300 3.6 260 21:21 07.04.2021
567 Haze 26 1008 88 4300 3.6 240 20:42 07.04.2021
568 Haze 26 1008 83 4000 3.09 250 20:20 07.04.2021
569 Mist 26 1009 83 4500 2.57 260 19:42 07.04.2021
570 Clouds 26 1009 83 5000 3.09 260 19:24 07.04.2021
571 Clouds 25 1010 88 7000 2.57 270 18:47 07.04.2021
572 Clouds 26 1009 69 6000 2.57 240 18:19 07.04.2021
573 Clouds 26 1009 69 6000 2.57 240 17:53 07.04.2021
574 Clouds 26 1009 69 6000 2.57 240 17:35 07.04.2021
575 Clouds 26 1009 73 6000 2.57 240 16:48 07.04.2021
576 Clouds 26 1009 78 9000 2.06 280 16:22 07.04.2021
577 Clouds 27 1009 61 6000 2.57 270 15:57 07.04.2021
578 Clouds 27 1009 61 6000 5.14 260 15:38 07.04.2021
579 Clouds 27 1009 61 6000 7.72 240 14:52 07.04.2021
580 Haze 26 1008 73 5000 6.17 240 14:25 07.04.2021
581 Haze 26 1008 83 5000 6.69 250 13:47 07.04.2021
582 Clouds 27 1008 70 3000 7.72 250 13:23 07.04.2021
583 Haze 28 1007 65 5000 5.14 250 12:49 07.04.2021
584 Clouds 31 1007 66 6000 4.12 280 12:22 07.04.2021
585 Clouds 31 1006 62 5000 5.66 280 11:48 07.04.2021
586 Clouds 32 1006 58 6000 3.6 270 11:25 07.04.2021
587 Clouds 31 1006 62 6000 3.09 260 10:52 07.04.2021
588 Haze 30 1006 66 5000 2.57 280 09:57 07.04.2021
589 Haze 30 1007 70 5000 2.57 260 09:38 07.04.2021
590 Haze 31 1007 70 5000 2.57 260 09:19 07.04.2021
591 Clouds 31 1008 66 6000 2.57 270 08:33 07.04.2021
592 Clouds 31 1008 66 6000 2.57 270 08:33 07.04.2021
593 Clouds 31 1008 66 6000 4.12 250 07:58 07.04.2021
594 Haze 30 1009 66 5000 3.6 280 07:30 07.04.2021
595 Haze 30 1010 70 5000 2.57 280 06:59 07.04.2021
596 Clouds 30 1010 70 6000 4.12 270 06:22 07.04.2021
597 Haze 28 1011 89 5000 3.6 260 04:22 07.04.2021
598 Rain 26 1009 89 6000 4.12 250 00:19 07.04.2021
599 Clouds 27 1009 78 6000 3.6 240 23:42 06.04.2021
600 Rain 27 1009 78 6000 3.6 240 23:18 06.04.2021
601 Rain 26 1009 88 7000 3.6 260 22:38 06.04.2021
602 Clouds 27 1008 83 7000 4.12 260 22:18 06.04.2021
603 Clouds 27 1008 83 7000 4.12 260 21:40 06.04.2021
604 Clouds 27 1008 83 7000 4.63 260 21:21 06.04.2021
605 Clouds 27 1009 83 7000 4.12 260 20:52 06.04.2021
606 Clouds 27 1009 83 7000 4.63 260 20:22 06.04.2021
607 Rain 27 1010 83 7000 4.63 260 19:52 06.04.2021
608 Clouds 27 1010 83 7000 4.63 260 19:33 06.04.2021
609 Clouds 28 1010 69 6000 6.17 240 18:51 06.04.2021
610 Clouds 28 1010 69 6000 6.17 240 18:32 06.04.2021
611 Clouds 28 1010 69 6000 6.17 240 17:57 06.04.2021
612 Clouds 28 1010 69 6000 10.29 260 17:38 06.04.2021
613 Clouds 28 1010 69 6000 10.29 260 17:18 06.04.2021
614 Clouds 28 1010 74 6000 3.6 220 16:41 06.04.2021
615 Clouds 28 1010 83 6000 7.72 260 15:49 06.04.2021
616 Clouds 28 1009 83 6000 5.14 240 15:24 06.04.2021
617 Clouds 28 1009 69 6000 9.26 250 14:40 06.04.2021
618 Clouds 28 1009 69 6000 9.26 250 14:21 06.04.2021
619 Clouds 29 1008 65 7000 10.29 240 13:46 06.04.2021
620 Clouds 29 1008 61 6000 10.29 240 13:25 06.04.2021
621 Clouds 30 1006 58 6000 10.29 250 12:43 06.04.2021
622 Clouds 31 1006 58 6000 10.29 250 12:24 06.04.2021
623 Clouds 31 1006 55 6000 11.32 250 11:54 06.04.2021
624 Clouds 32 1006 55 6000 10.29 240 11:36 06.04.2021
625 Rain 32 1006 55 6000 10.29 240 11:18 06.04.2021
626 Rain 32 1006 51 6000 8.23 260 10:38 06.04.2021
627 Clouds 33 1006 51 6000 8.23 260 10:19 06.04.2021
628 Clouds 33 1007 46 6000 8.75 250 09:42 06.04.2021
629 Clouds 32 1007 48 6000 9.26 240 08:48 06.04.2021
630 Clouds 33 1008 51 6000 7.72 280 08:19 06.04.2021
631 Clouds 33 1009 55 6000 7.2 250 06:57 06.04.2021
632 Clouds 32 1010 62 6000 7.72 250 06:24 06.04.2021
633 Clouds 30 1010 65 6000 4.12 240 03:54 06.04.2021
634 Clouds 26 1009 78 6000 4.12 240 00:48 06.04.2021
635 Clouds 26 1008 78 6000 3.09 260 00:21 06.04.2021
636 Clouds 26 1008 78 6000 2.57 270 23:50 05.04.2021
637 Clouds 26 1008 78 6000 3.09 260 23:28 05.04.2021
638 Clouds 26 1008 83 7000 5.14 240 22:53 05.04.2021
639 Clouds 26 1008 83 7000 5.14 240 22:33 05.04.2021
640 Clouds 26 1008 83 10000 3.09 280 21:47 05.04.2021
641 Clouds 26 1009 83 6000 5.14 260 21:23 05.04.2021
642 Clouds 27 1009 78 6000 4.63 250 20:49 05.04.2021
643 Clouds 27 1009 78 6000 4.63 250 20:30 05.04.2021
644 Clouds 27 1009 78 6000 5.14 240 19:45 05.04.2021
645 Clouds 27 1010 83 7000 4.63 250 19:25 05.04.2021
646 Clouds 27 1010 83 7000 5.14 250 18:57 05.04.2021
647 Clouds 27 1010 83 7000 5.14 250 18:38 05.04.2021
648 Clouds 27 1010 83 7000 4.63 260 18:19 05.04.2021
649 Clouds 28 1010 78 7000 3.6 260 17:46 05.04.2021
650 Clouds 28 1010 78 7000 2.06 270 17:21 05.04.2021
651 Clouds 28 1010 78 7000 2.06 270 17:21 05.04.2021
652 Clouds 28 1010 78 7000 3.6 250 16:44 05.04.2021
653 Haze 28 1008 69 6000 3.09 250 16:21 05.04.2021
654 Haze 28 1008 69 6000 3.09 250 15:56 05.04.2021
655 Haze 28 1008 69 6000 3.09 250 15:30 05.04.2021
656 Haze 28 1008 69 5000 4.12 220 14:58 05.04.2021
657 Haze 28 1008 69 5000 4.12 220 14:35 05.04.2021
658 Haze 29 1007 65 5000 2.57 200 13:40 05.04.2021
659 Haze 29 1007 65 5000 2.57 200 13:22 05.04.2021
660 Haze 30 1007 58 5000 5.14 240 12:45 05.04.2021
661 Haze 31 1007 55 5000 5.14 240 12:22 05.04.2021
662 Rain 30 1007 58 5000 4.12 260 11:45 05.04.2021
663 Haze 31 1007 58 5000 6.17 250 11:27 05.04.2021
664 Haze 31 1007 62 5000 4.12 260 10:45 05.04.2021
665 Haze 30 1007 70 5000 4.12 260 10:27 05.04.2021
666 Haze 31 1007 62 5000 2.57 270 09:48 05.04.2021
667 Haze 32 1007 62 5000 2.57 270 09:24 05.04.2021
668 Haze 32 1008 62 5000 2.57 220 08:45 05.04.2021
669 Haze 33 1008 62 5000 2.57 220 08:26 05.04.2021
670 Haze 31 1009 70 5000 3.09 260 07:37 05.04.2021
671 Rain 31 1010 74 5000 4.12 260 06:32 05.04.2021
672 Mist 27 1009 94 2000 2.98 230 01:57 05.04.2021
673 Mist 26 1008 94 3000 1.54 150 00:50 05.04.2021
674 Haze 27 1008 89 4000 3.45 230 23:52 04.04.2021
675 Haze 27 1008 89 4000 3.06 224 23:28 04.04.2021
676 Clouds 27 1008 78 7000 1.03 260 22:52 04.04.2021
677 Clouds 27 1008 78 6000 1.54 180 22:30 04.04.2021
678 Haze 27 1008 78 4600 0.51 0 21:43 04.04.2021
679 Haze 27 1008 78 5000 1.54 20 21:19 04.04.2021
680 Rain 27 1009 78 6000 1.03 10 20:30 04.04.2021
681 Rain 27 1009 78 6000 1.03 0 19:58 04.04.2021
682 Rain 27 1009 78 6000 1.03 0 19:38 04.04.2021
683 Rain 28 1009 74 6000 2.06 0 19:19 04.04.2021
684 Rain 28 1009 74 5000 1.77 216 18:45 04.04.2021
685 Rain 28 1009 74 5000 1.56 230 18:24 04.04.2021
686 Rain 28 1009 74 5000 1.56 230 17:45 04.04.2021
687 Rain 28 1009 74 5000 1.38 244 17:24 04.04.2021
688 Rain 28 1009 83 5000 1.54 290 16:52 04.04.2021
689 Haze 29 1009 83 5000 1.54 280 16:21 04.04.2021
690 Haze 29 1008 78 5000 1.41 284 15:36 04.04.2021
691 Haze 29 1008 83 5000 1.54 350 14:51 04.04.2021
692 Haze 29 1007 83 5000 1.54 280 14:28 04.04.2021
693 Haze 29 1007 83 5000 1.54 280 13:53 04.04.2021
694 Clouds 30 1007 74 6000 1.54 330 13:25 04.04.2021
695 Clouds 29 1006 74 6000 2.06 310 12:50 04.04.2021
696 Clouds 31 1005 66 6000 3.09 20 12:27 04.04.2021
697 Clouds 32 1005 62 6000 2.57 340 11:43 04.04.2021
698 Clouds 31 1005 62 6000 2.57 340 11:25 04.04.2021
699 Clouds 31 1005 66 6000 2.06 10 10:46 04.04.2021
700 Clouds 31 1005 70 6000 2.57 30 10:19 04.04.2021
701 Haze 31 1006 70 5000 2.06 350 09:27 04.04.2021
702 Haze 32 1007 70 5000 2.57 340 08:59 04.04.2021
703 Haze 32 1007 74 5000 2.57 20 08:41 04.04.2021
704 Haze 32 1007 74 5000 2.57 20 08:23 04.04.2021
705 Haze 31 1008 74 5000 3.03 337 06:39 04.04.2021
706 Haze 31 1008 74 5000 3.03 337 06:39 04.04.2021
707 Haze 30 1009 79 5000 2.06 360 05:34 04.04.2021
708 Clouds 26 1008 89 3000 1.54 40 01:47 04.04.2021
709 Mist 26 1008 83 3000 1.03 0 00:44 04.04.2021
710 Haze 26 1007 83 3000 2.57 180 23:59 03.04.2021
711 Mist 26 1007 89 3000 2.57 160 23:39 03.04.2021
712 Mist 26 1007 83 3000 1.54 0 22:54 03.04.2021
713 Mist 26 1007 89 2000 3.09 180 22:24 03.04.2021
714 Mist 26 1007 89 3000 2.06 0 21:59 03.04.2021
715 Mist 26 1007 89 3000 2.06 0 21:39 03.04.2021
716 Haze 26 1007 89 5000 1.03 0 21:19 03.04.2021
717 Haze 26 1008 89 5000 2.57 0 20:38 03.04.2021
718 Haze 26 1008 89 5000 3.09 160 20:18 03.04.2021
719 Haze 26 1008 89 5000 2.57 180 19:43 03.04.2021
720 Haze 26 1008 89 5000 2.06 170 19:18 03.04.2021
721 Haze 27 1008 83 5000 2.57 0 18:44 03.04.2021
722 Haze 27 1009 83 5000 2.06 0 17:58 03.04.2021
723 Haze 27 1009 83 5000 2.57 180 17:28 03.04.2021
724 Clouds 27 1008 83 6000 2.06 0 16:59 03.04.2021
725 Clouds 27 1008 83 6000 1.54 0 16:32 03.04.2021
726 Clouds 28 1007 78 6000 0.66 241 15:57 03.04.2021
727 Clouds 28 1007 78 6000 0.66 241 15:39 03.04.2021
728 Rain 28 1007 78 6000 1.04 268 15:18 03.04.2021
729 Clouds 28 1007 78 6000 1.47 244 14:37 03.04.2021
730 Clouds 27 1007 83 7000 2.06 0 14:19 03.04.2021
731 Clouds 29 1007 83 8000 2.06 120 13:42 03.04.2021
732 Clouds 29 1006 83 8000 1.54 0 13:20 03.04.2021
733 Clouds 29 1006 78 9000 1.54 70 12:41 03.04.2021
734 Clouds 29 1006 78 9000 2.06 0 12:19 03.04.2021
735 Clouds 30 1006 70 9000 2.06 0 11:32 03.04.2021
736 Clouds 30 1006 74 9000 1.54 0 10:49 03.04.2021
737 Clouds 30 1006 74 8000 1.54 0 10:30 03.04.2021
738 Rain 29 1006 74 8000 1.54 0 09:50 03.04.2021
739 Clouds 29 1007 78 7000 1.54 100 09:27 03.04.2021
740 Rain 30 1007 78 10000 2.06 0 08:40 03.04.2021
741 Rain 29 1008 74 9000 2.57 40 08:21 03.04.2021
742 Rain 29 1009 83 9000 2.57 0 07:27 03.04.2021
743 Rain 27 1010 89 6000 3.09 170 05:43 03.04.2021
744 Rain 26 1010 89 5000 2.57 0 03:35 03.04.2021
745 Rain 25 1008 94 5000 3.09 140 02:38 03.04.2021
746 Rain 25 1008 88 5000 2.06 0 01:56 03.04.2021
747 Rain 25 1007 94 4000 1.54 0 00:20 03.04.2021
748 Rain 25 1007 94 4000 1.03 0 23:47 02.04.2021
749 Rain 25 1007 94 4000 2.06 240 23:24 02.04.2021
750 Rain 25 1007 94 4000 1.03 320 22:50 02.04.2021
751 Rain 25 1007 94 3000 2.57 230 22:32 02.04.2021
752 Rain 26 1007 94 2500 3.6 330 21:42 02.04.2021
753 Rain 25 1007 94 4000 1.54 220 21:23 02.04.2021
754 Rain 25 1007 94 2500 2.57 0 20:48 02.04.2021
755 Mist 25 1007 94 4000 2.06 260 20:27 02.04.2021
756 Mist 25 1007 94 5000 4.12 260 19:57 02.04.2021
757 Mist 25 1007 94 5000 4.12 260 19:38 02.04.2021
758 Rain 25 1008 94 4500 5.14 240 19:20 02.04.2021
759 Clouds 26 1008 83 9000 6.17 230 18:38 02.04.2021
760 Clouds 27 1008 83 9000 6.17 230 18:20 02.04.2021
761 Clouds 28 1008 83 8000 3.09 240 17:37 02.04.2021
762 Clouds 29 1008 74 9000 2.06 110 16:48 02.04.2021
763 Clouds 28 1007 78 8000 3.09 110 16:22 02.04.2021
764 Haze 29 1006 66 4000 4.12 60 15:32 02.04.2021
765 Haze 30 1006 66 4000 4.12 60 14:55 02.04.2021
766 Haze 30 1006 66 4000 4.12 60 14:29 02.04.2021
767 Haze 30 1005 66 4000 4.12 360 13:42 02.04.2021
768 Haze 30 1005 66 4000 4.12 360 13:20 02.04.2021
769 Haze 31 1005 58 5000 3.09 10 12:41 02.04.2021
770 Haze 31 1005 58 5000 3.09 10 12:41 02.04.2021
771 Haze 31 1005 58 5000 3.09 10 12:20 02.04.2021
772 Haze 31 1004 58 5000 3.09 20 11:54 02.04.2021
773 Haze 32 1004 55 5000 2.57 360 11:20 02.04.2021
774 Clouds 32 1005 49 6000 5.14 20 10:46 02.04.2021
775 Clouds 32 1005 49 6000 5.14 20 10:28 02.04.2021
776 Clouds 32 1005 48 6000 5.14 350 09:53 02.04.2021
777 Clouds 32 1005 49 6000 4.12 360 09:27 02.04.2021
778 Haze 32 1006 49 5000 4.12 340 08:51 02.04.2021
779 Haze 34 1006 49 5000 5.14 20 08:29 02.04.2021
780 Haze 32 1006 49 5000 3.09 350 07:30 02.04.2021
781 Haze 32 1007 51 5000 2.57 260 06:47 02.04.2021
782 Haze 30 1008 66 5000 3.09 210 04:49 02.04.2021
783 Haze 27 1007 83 5000 0.96 186 02:30 02.04.2021
784 Haze 27 1006 83 5000 1.63 265 00:50 02.04.2021
785 Haze 26 1006 83 5000 1.97 269 00:22 02.04.2021
786 Haze 26 1006 83 5000 1.54 320 23:35 01.04.2021
787 Clouds 26 1006 83 7000 1.54 290 22:57 01.04.2021
788 Clouds 26 1006 83 7000 1.54 300 22:20 01.04.2021
789 Clouds 26 1006 83 7000 1.03 350 21:50 01.04.2021
790 Clouds 27 1006 83 7000 1.54 330 21:27 01.04.2021
791 Clouds 27 1006 83 7000 2.06 280 20:47 01.04.2021
792 Clouds 27 1007 83 7000 3.09 260 20:25 01.04.2021
793 Clouds 27 1007 83 7000 4.12 260 19:56 01.04.2021
794 Clouds 27 1007 83 7000 4.12 260 19:35 01.04.2021
795 Clouds 27 1007 78 7000 4.63 260 18:46 01.04.2021
796 Haze 27 1006 78 5000 2.49 205 18:19 01.04.2021
797 Haze 27 1006 78 5000 2.49 205 17:52 01.04.2021
798 Haze 27 1006 78 5000 2.49 205 17:33 01.04.2021
799 Haze 27 1006 74 5000 1.54 310 16:53 01.04.2021
800 Haze 27 1006 74 5000 1.54 310 16:30 01.04.2021
801 Rain 27 1006 74 5000 1.54 220 15:47 01.04.2021
802 Rain 27 1006 74 6000 2.06 150 15:20 01.04.2021
803 Clouds 28 1006 74 6000 2.06 210 14:46 01.04.2021
804 Clouds 27 1006 74 6000 3.6 280 14:26 01.04.2021
805 Clouds 27 1006 74 6000 4.12 240 13:56 01.04.2021
806 Rain 28 1005 74 6000 5.14 240 13:31 01.04.2021
807 Clouds 28 1005 70 6000 4.12 250 12:54 01.04.2021
808 Rain 28 1005 65 6000 5.14 280 12:33 01.04.2021
809 Clouds 29 1005 70 6000 6.69 260 11:55 01.04.2021
810 Clouds 30 1005 66 6000 6.69 240 11:37 01.04.2021
811 Rain 30 1005 66 6000 6.69 240 11:18 01.04.2021
812 Rain 30 1005 62 6000 5.66 250 10:42 01.04.2021
813 Rain 30 1005 62 6000 5.66 250 10:22 01.04.2021
814 Rain 30 1005 62 6000 6.17 250 09:31 01.04.2021
815 Clouds 30 1006 66 6000 3.6 270 08:42 01.04.2021
816 Clouds 30 1006 66 6000 3.6 270 08:24 01.04.2021
817 Clouds 29 1007 70 6000 4.12 280 07:21 01.04.2021
818 Haze 29 1008 70 5000 4.12 260 06:54 01.04.2021
819 Clouds 27 1009 78 6000 4.12 270 04:56 01.04.2021
820 Clouds 26 1007 83 6000 4.12 270 02:58 01.04.2021
821 Haze 26 1006 88 5000 4.12 230 23:52 31.03.2021
822 Haze 26 1006 88 5000 4.12 230 23:34 31.03.2021
823 Haze 26 1006 88 5000 5.14 250 22:43 31.03.2021
824 Haze 26 1006 88 5000 5.14 260 22:22 31.03.2021
825 Clouds 26 1006 88 6000 5.66 250 21:48 31.03.2021
826 Clouds 26 1006 88 6000 5.14 260 21:24 31.03.2021
827 Clouds 26 1006 83 6000 5.66 240 20:58 31.03.2021
828 Clouds 26 1006 88 6000 5.66 250 20:40 31.03.2021
829 Rain 26 1006 88 6000 5.66 250 20:19 31.03.2021
830 Rain 26 1006 83 6000 5.66 230 19:42 31.03.2021
831 Clouds 27 1007 83 6000 5.14 230 19:19 31.03.2021
832 Clouds 27 1008 83 6000 5.66 230 18:53 31.03.2021
833 Haze 27 1007 94 5000 2.57 210 18:34 31.03.2021
834 Haze 27 1007 94 5000 2.57 210 17:38 31.03.2021
835 Rain 27 1007 94 5000 2.57 210 17:19 31.03.2021
836 Rain 27 1007 94 5000 2.57 200 16:50 31.03.2021
837 Haze 27 1007 94 4000 3.09 220 16:31 31.03.2021
838 Haze 27 1007 94 4000 3.6 220 15:53 31.03.2021
839 Rain 27 1006 94 3000 3.09 230 15:20 31.03.2021
840 Rain 27 1006 89 3000 3.09 240 14:49 31.03.2021
841 Rain 27 1005 94 3000 3.6 240 14:25 31.03.2021
842 Rain 27 1005 94 3000 1.54 240 13:55 31.03.2021
843 Rain 28 1005 89 2500 2.57 250 13:23 31.03.2021
844 Rain 30 1003 62 5000 1.54 310 12:40 31.03.2021
845 Rain 31 1003 62 5000 1.54 310 12:18 31.03.2021
846 Rain 32 1003 58 5000 2.06 320 11:23 31.03.2021
847 Haze 33 1002 62 5000 3.09 330 10:50 31.03.2021
848 Haze 33 1003 62 5000 2.57 310 10:27 31.03.2021
849 Haze 33 1003 62 5000 3.09 340 09:56 31.03.2021
850 Haze 32 1003 55 5000 5.14 350 09:31 31.03.2021
851 Clouds 34 1003 55 6000 3 240 08:46 31.03.2021
852 Clouds 32 1004 55 6000 2.06 250 08:26 31.03.2021
853 Clouds 32 1005 58 6000 2.57 250 07:37 31.03.2021
854 Haze 30 1007 66 5000 2.06 220 05:21 31.03.2021
855 Haze 27 1006 89 4000 1.54 200 02:37 31.03.2021
856 Clouds 26 1006 88 7000 2.57 220 00:54 31.03.2021
857 Clouds 26 1006 88 6000 2.57 220 00:25 31.03.2021
858 Clouds 26 1006 88 7000 2.57 270 23:57 30.03.2021
859 Clouds 26 1005 94 7000 3.09 260 23:25 30.03.2021
860 Clouds 26 1005 94 7000 3.09 270 22:50 30.03.2021
861 Clouds 26 1005 94 6000 3.6 270 22:31 30.03.2021
862 Haze 26 1005 89 5000 4.12 260 21:59 30.03.2021
863 Rain 26 1006 94 5000 3.6 270 21:31 30.03.2021
864 Rain 26 1006 89 5000 3.6 280 20:59 30.03.2021
865 Haze 26 1006 89 5000 3.6 280 20:40 30.03.2021
866 Rain 26 1007 89 6000 4.12 260 20:20 30.03.2021
867 Rain 26 1007 89 6000 3.09 280 19:43 30.03.2021
868 Clouds 26 1007 89 6000 3.09 260 18:58 30.03.2021
869 Clouds 26 1007 89 6000 3.6 260 18:30 30.03.2021
870 Rain 27 1007 89 6000 3.09 280 17:48 30.03.2021
871 Clouds 27 1006 89 4000 1.54 280 17:30 30.03.2021
872 Rain 26 1006 89 4000 1.54 280 16:47 30.03.2021
873 Rain 27 1006 89 4000 1.54 280 16:28 30.03.2021
874 Clouds 27 1006 89 4000 1.54 280 15:39 30.03.2021
875 Rain 27 1006 89 4000 1.54 280 15:19 30.03.2021
876 Rain 27 1006 89 4000 1.54 280 14:45 30.03.2021
877 Clouds 27 1006 89 4000 1.54 280 14:21 30.03.2021
878 Clouds 27 1005 89 3000 2.06 250 13:49 30.03.2021
879 Clouds 28 1005 89 3000 2.06 250 13:26 30.03.2021
880 Haze 28 1005 74 5000 1.54 20 12:41 30.03.2021
881 Haze 29 1005 74 5000 1.54 20 12:21 30.03.2021
882 Haze 30 1005 70 5000 2.57 290 11:47 30.03.2021
883 Haze 29 1004 74 5000 2.06 50 11:19 30.03.2021
884 Haze 30 1004 79 5000 2.57 30 10:42 30.03.2021
885 Haze 30 1004 79 5000 2.57 30 10:19 30.03.2021
886 Clouds 29 1006 83 4000 3.09 40 09:41 30.03.2021
887 Clouds 29 1006 83 4000 3.09 40 09:21 30.03.2021
888 Rain 29 1007 79 4000 4.12 40 08:43 30.03.2021
889 Rain 31 1007 79 4000 3.6 50 07:56 30.03.2021
890 Rain 30 1007 89 3000 3.09 40 07:31 30.03.2021
891 Haze 29 1008 84 3000 1.54 100 06:30 30.03.2021
892 Clouds 28 1009 89 4000 2.06 60 05:25 30.03.2021
893 Rain 27 1006 89 4000 1.54 220 01:57 30.03.2021
894 Mist 27 1006 89 3000 2.06 270 23:55 29.03.2021
895 Rain 27 1006 89 3000 2.57 220 23:22 29.03.2021
896 Rain 27 1006 89 4000 3.09 250 22:43 29.03.2021
897 Mist 27 1006 89 4500 3.09 280 21:57 29.03.2021
898 Mist 27 1006 89 4500 3.09 280 21:35 29.03.2021
899 Haze 27 1007 89 3200 3.6 260 20:51 29.03.2021
900 Haze 27 1007 89 3200 3.6 260 20:33 29.03.2021
901 Haze 28 1007 83 5000 2.57 280 19:56 29.03.2021
902 Haze 28 1007 83 4000 2.57 280 19:32 29.03.2021
903 Haze 28 1008 83 3000 2.57 290 18:57 29.03.2021
904 Haze 27 1008 89 5000 1.54 280 18:38 29.03.2021
905 Haze 28 1008 89 5000 1.54 280 18:19 29.03.2021
906 Haze 28 1008 89 5000 1.54 280 17:36 29.03.2021
907 Haze 28 1008 83 5000 1.54 270 16:54 29.03.2021
908 Clouds 28 1007 83 6000 1.54 300 16:34 29.03.2021
909 Clouds 28 1007 83 6000 1.54 280 15:43 29.03.2021
910 Clouds 29 1006 83 6000 1.54 270 15:24 29.03.2021
911 Clouds 28 1006 83 6000 1.54 300 14:48 29.03.2021
912 Clouds 28 1006 83 6000 1.54 300 14:23 29.03.2021
913 Clouds 29 1005 79 6000 1.54 340 13:45 29.03.2021
914 Clouds 29 1005 79 6000 1.54 330 13:19 29.03.2021
915 Clouds 29 1005 79 6000 2.06 330 12:49 29.03.2021
916 Haze 31 1005 74 5000 2.57 30 11:49 29.03.2021
917 Haze 31 1005 74 5000 2.06 20 11:29 29.03.2021
918 Haze 30 1004 79 5000 2.57 330 10:51 29.03.2021
919 Clouds 31 1005 70 8000 4.12 10 10:31 29.03.2021
920 Clouds 30 1007 89 3000 4.63 30 09:33 29.03.2021
921 Clouds 31 1007 89 3000 4.63 30 08:51 29.03.2021
922 Clouds 31 1007 89 3000 4.63 30 08:27 29.03.2021
923 Rain 31 1008 79 3000 3.09 40 07:22 29.03.2021
924 Haze 32 1008 70 5000 2.06 340 06:26 29.03.2021
925 Haze 30 1008 83 4000 1.54 120 03:35 29.03.2021
926 Mist 27 1007 94 3000 2.57 200 00:55 29.03.2021
927 Mist 27 1007 89 2700 2.06 200 00:20 29.03.2021
928 Mist 27 1007 89 3000 2.57 200 23:30 28.03.2021
929 Haze 27 1007 89 4000 3.09 200 22:54 28.03.2021
930 Haze 27 1007 89 4000 3.09 200 22:35 28.03.2021
931 Haze 27 1007 83 4000 1.54 220 21:59 28.03.2021
932 Haze 27 1007 83 4000 1.54 220 21:40 28.03.2021
933 Haze 27 1007 83 4000 1.54 220 21:40 28.03.2021
934 Haze 27 1007 83 5000 2.06 200 21:22 28.03.2021
935 Haze 27 1007 83 5000 1.54 190 20:47 28.03.2021
936 Haze 27 1008 83 5000 1.54 210 20:29 28.03.2021
937 Haze 27 1008 89 5000 1.03 0 19:43 28.03.2021
938 Clouds 27 1008 89 3000 1.03 0 19:22 28.03.2021
939 Clouds 27 1008 83 4000 3.09 160 18:58 28.03.2021
940 Haze 27 1009 83 5000 2.57 160 18:25 28.03.2021
941 Haze 28 1008 83 4000 2.57 0 17:46 28.03.2021
942 Haze 28 1008 83 4000 2.57 0 17:23 28.03.2021
943 Haze 28 1008 83 5000 1.54 0 16:45 28.03.2021
944 Clouds 28 1008 83 6000 1.54 0 16:23 28.03.2021
945 Haze 28 1007 83 5000 2.06 340 15:25 28.03.2021
946 Haze 28 1007 89 5000 2.06 340 14:52 28.03.2021
947 Clouds 28 1006 89 5000 3.09 320 14:30 28.03.2021
948 Clouds 28 1005 89 1000 4.63 220 13:43 28.03.2021
949 Rain 28 1005 89 1000 4.63 220 13:20 28.03.2021
950 Rain 29 1005 89 1000 4.63 220 12:49 28.03.2021
951 Rain 31 1004 62 5000 4.12 360 12:29 28.03.2021
952 Haze 32 1004 58 5000 3.09 360 11:40 28.03.2021
953 Haze 32 1004 58 5000 3.09 360 11:21 28.03.2021
954 Haze 32 1004 62 5000 5.14 350 10:43 28.03.2021
955 Haze 34 1004 62 5000 5.14 10 10:23 28.03.2021
956 Haze 34 1005 59 5000 5.14 20 09:44 28.03.2021
957 Haze 32 1005 62 5000 3.6 10 09:24 28.03.2021
958 Haze 32 1005 58 5000 3.6 330 08:45 28.03.2021
959 Clouds 32 1007 55 6000 1.54 260 07:46 28.03.2021
960 Clouds 32 1008 62 6000 2.57 90 06:23 28.03.2021
961 Haze 28 1008 89 3000 1.54 280 03:51 28.03.2021
962 Mist 26 1008 100 3000 1.54 190 00:52 28.03.2021
963 Mist 25 1008 94 3000 1.54 170 00:19 28.03.2021
964 Mist 25 1007 100 3000 1.54 260 23:40 27.03.2021
965 Mist 26 1007 100 3000 2.06 250 22:54 27.03.2021
966 Mist 26 1007 100 3000 1.54 290 22:36 27.03.2021
967 Mist 26 1008 89 4000 1.03 220 21:48 27.03.2021
968 Mist 25 1008 89 4000 2.06 180 21:23 27.03.2021
969 Mist 25 1008 89 4000 2.06 190 20:59 27.03.2021
970 Mist 25 1008 89 4000 2.06 190 20:38 27.03.2021
971 Mist 25 1008 89 3000 2.06 210 20:19 27.03.2021
972 Mist 25 1008 89 3000 1.03 0 19:42 27.03.2021
973 Mist 25 1009 89 3500 1.03 10 19:23 27.03.2021
974 Rain 25 1009 89 3500 1.03 0 18:48 27.03.2021
975 Rain 26 1010 94 4000 3.15 203 18:27 27.03.2021
976 Haze 26 1010 94 4000 3.15 203 17:45 27.03.2021
977 Rain 26 1010 94 4000 3.76 178 17:23 27.03.2021
978 Rain 26 1010 94 4000 1.54 80 16:48 27.03.2021
979 Clouds 26 1010 94 4000 1.54 120 16:28 27.03.2021
980 Rain 26 1010 94 4000 2.57 90 15:46 27.03.2021
981 Rain 26 1009 88 3000 2.06 90 15:21 27.03.2021
982 Rain 26 1009 88 3000 2.06 90 14:45 27.03.2021
983 Rain 26 1008 94 2000 3.6 120 13:42 27.03.2021
984 Rain 27 1007 94 2000 5.14 170 13:22 27.03.2021
985 Rain 27 1007 94 2000 5.14 170 12:50 27.03.2021
986 Rain 27 1007 89 2000 4.12 170 11:59 27.03.2021
987 Rain 28 1005 78 2000 4.12 170 11:39 27.03.2021
988 Rain 28 1005 78 2000 4.12 170 11:19 27.03.2021
989 Haze 30 1005 66 5000 3.6 40 10:42 27.03.2021
990 Rain 31 1005 62 10000 3.6 20 10:22 27.03.2021
991 Haze 32 1005 66 5000 4.12 330 09:22 27.03.2021
992 Haze 32 1005 70 5000 5.14 350 08:42 27.03.2021
993 Haze 31 1005 70 5000 5.14 350 08:18 27.03.2021
994 Haze 32 1007 70 5000 3.09 330 07:31 27.03.2021
995 Haze 32 1008 58 4000 2.06 320 06:43 27.03.2021
996 Haze 32 1009 74 4000 1.54 130 04:42 27.03.2021
997 Haze 30 1009 79 4000 1.54 170 03:29 27.03.2021
998 Haze 27 1008 94 3000 1.54 150 00:48 27.03.2021
999 Haze 26 1007 94 3000 1.82 107 00:26 27.03.2021
1000 Haze 26 1006 94 4000 1.82 107 23:43 26.03.2021
1001 Haze 26 1007 94 4000 1.54 90 22:45 26.03.2021
1002 Haze 26 1006 94 4000 1.54 230 22:25 26.03.2021
1003 Haze 27 1007 78 5000 2.57 200 21:25 26.03.2021
1004 Haze 27 1007 78 5000 2.57 160 20:58 26.03.2021
1005 Haze 27 1008 78 5000 2.06 160 20:32 26.03.2021
1006 Haze 28 1008 74 5000 3.09 160 19:53 26.03.2021
1007 Haze 28 1008 74 5000 2.06 0 19:35 26.03.2021
1008 Haze 28 1008 78 5000 1.54 90 18:59 26.03.2021
1009 Haze 28 1008 78 5000 1.54 90 18:41 26.03.2021
1010 Haze 28 1009 83 5000 1.54 220 18:18 26.03.2021
1011 Haze 28 1009 83 5000 1.54 220 17:44 26.03.2021
1012 Haze 28 1009 83 5000 1.54 250 16:54 26.03.2021
1013 Clouds 29 1008 74 7000 4.12 80 16:30 26.03.2021
1014 Clouds 29 1008 74 7000 3.6 80 15:43 26.03.2021
1015 Haze 29 1008 78 5000 2.06 80 14:57 26.03.2021
1016 Clouds 29 1006 66 6000 1.54 30 14:23 26.03.2021
1017 Clouds 30 1006 66 6000 1.54 30 13:34 26.03.2021
1018 Clouds 30 1006 66 6000 2.57 10 12:49 26.03.2021
1019 Haze 30 1005 66 5000 2.06 350 11:50 26.03.2021
1020 Haze 31 1004 66 5000 3.6 350 11:31 26.03.2021
1021 Haze 32 1004 62 5000 2.57 360 10:46 26.03.2021
1022 Haze 32 1004 62 5000 3.09 20 10:27 26.03.2021
1023 Clouds 33 1005 66 4000 5.14 360 09:42 26.03.2021
1024 Clouds 33 1005 66 4000 5.14 360 09:18 26.03.2021
1025 Haze 34 1005 55 5000 4.63 30 08:37 26.03.2021
1026 Haze 33 1006 55 5000 4.63 10 07:59 26.03.2021
1027 Haze 34 1006 55 5000 4.63 10 07:23 26.03.2021
1028 Haze 34 1007 46 5000 1.54 150 06:57 26.03.2021
1029 Haze 32 1008 52 5000 1.54 170 06:27 26.03.2021
1030 Haze 32 1008 55 5000 1.54 210 05:26 26.03.2021
1031 Haze 28 1008 94 4000 1.21 230 01:57 26.03.2021
1032 Haze 25 1008 88 4000 2.06 270 00:27 26.03.2021
1033 Clouds 25 1008 88 6000 2.06 270 23:44 25.03.2021
1034 Clouds 25 1007 83 6000 2.57 270 22:56 25.03.2021
1035 Clouds 25 1007 88 7000 2.06 250 22:28 25.03.2021
1036 Clouds 25 1007 83 8000 1.54 290 21:51 25.03.2021
1037 Clouds 25 1007 83 8000 1.54 290 21:33 25.03.2021
1038 Clouds 25 1007 83 6000 1.03 350 20:45 25.03.2021
1039 Clouds 26 1008 83 8000 1.03 230 20:25 25.03.2021
1040 Clouds 26 1008 83 6000 2.06 230 19:45 25.03.2021
1041 Clouds 26 1008 78 6000 2.57 220 19:27 25.03.2021
1042 Clouds 27 1009 78 6000 2.06 230 18:47 25.03.2021
1043 Clouds 27 1009 78 6000 2.57 230 18:27 25.03.2021
1044 Clouds 27 1009 78 6000 2.57 260 17:51 25.03.2021
1045 Clouds 26 1010 83 6000 2.57 260 17:33 25.03.2021
1046 Clouds 27 1009 78 6000 3.09 260 16:51 25.03.2021
1047 Clouds 27 1009 78 6000 3.09 260 16:51 25.03.2021
1048 Clouds 27 1009 78 6000 3.09 260 16:30 25.03.2021
1049 Clouds 27 1009 78 6000 3.09 260 15:45 25.03.2021
1050 Clouds 27 1009 78 7000 3.6 260 15:21 25.03.2021
1051 Clouds 27 1009 78 7000 3.09 270 14:46 25.03.2021
1052 Clouds 28 1009 78 7000 4.63 240 13:52 25.03.2021
1053 Haze 29 1007 78 5000 2.06 190 13:24 25.03.2021
1054 Haze 29 1007 78 5000 2.06 190 12:45 25.03.2021
1055 Haze 29 1007 78 5000 2.06 190 12:21 25.03.2021
1056 Haze 29 1007 74 5000 3.09 230 11:52 25.03.2021
1057 Haze 30 1006 74 5000 3.09 240 11:30 25.03.2021
1058 Haze 30 1006 78 5000 2.57 230 10:55 25.03.2021
1059 Rain 30 1006 78 5000 2.57 220 10:27 25.03.2021
1060 Haze 30 1006 78 5000 4.12 210 09:57 25.03.2021
1061 Rain 30 1006 83 4000 4.63 220 09:38 25.03.2021
1062 Clouds 29 1006 89 4000 3.09 250 08:57 25.03.2021
1063 Clouds 31 1007 62 1000 8.75 220 08:29 25.03.2021
1064 Rain 33 1007 58 5000 3.09 350 07:24 25.03.2021
1065 Haze 33 1007 58 5000 1.54 300 06:27 25.03.2021
1066 Haze 32 1008 55 5000 2.06 270 05:49 25.03.2021
1067 Haze 32 1008 55 5000 2.06 270 05:49 25.03.2021
1068 Haze 31 1009 66 5000 1.54 240 03:59 25.03.2021
1069 Haze 26 1008 88 5000 1.54 190 00:44 25.03.2021
1070 Haze 26 1007 88 5000 1.54 220 00:18 25.03.2021
1071 Clouds 26 1007 78 6000 1.54 180 23:33 24.03.2021
1072 Clouds 27 1007 74 6000 2.06 200 22:51 24.03.2021
1073 Clouds 27 1007 74 6000 2.06 200 22:32 24.03.2021
1074 Clouds 27 1007 83 10000 3.6 230 21:47 24.03.2021
1075 Clouds 27 1007 83 7000 2.57 260 21:25 24.03.2021
1076 Clouds 27 1007 78 9000 2.06 290 20:46 24.03.2021
1077 Clouds 27 1007 78 9000 2.06 290 20:46 24.03.2021
1078 Clouds 27 1008 78 7000 2.57 280 20:21 24.03.2021
1079 Clouds 27 1008 78 7000 4.12 260 19:59 24.03.2021
1080 Clouds 27 1008 78 7000 3.09 250 19:31 24.03.2021
1081 Clouds 27 1008 78 7000 3.09 250 18:52 24.03.2021
1082 Clouds 27 1008 83 7000 3.6 250 18:24 24.03.2021
1083 Clouds 27 1008 78 7000 3.6 270 17:53 24.03.2021
1084 Clouds 27 1008 78 7000 4.63 250 17:32 24.03.2021
1085 Clouds 27 1008 78 7000 4.63 250 17:32 24.03.2021
1086 Clouds 27 1008 78 7000 5.14 250 16:54 24.03.2021
1087 Clouds 27 1008 78 7000 5.14 270 16:31 24.03.2021
1088 Clouds 27 1008 74 7000 5.14 270 15:57 24.03.2021
1089 Clouds 27 1008 74 7000 5.14 270 15:33 24.03.2021
1090 Clouds 27 1008 74 7000 6.17 260 14:55 24.03.2021
1091 Clouds 28 1006 74 6000 4.12 250 14:28 24.03.2021
1092 Clouds 28 1006 74 6000 4.12 250 13:58 24.03.2021
1093 Clouds 28 1006 74 6000 4.12 250 13:28 24.03.2021
1094 Clouds 28 1007 78 9000 8.23 250 12:49 24.03.2021
1095 Clouds 29 1006 74 6000 5.14 240 12:27 24.03.2021
1096 Clouds 29 1006 74 6000 5.14 240 11:54 24.03.2021
1097 Clouds 29 1006 74 6000 5.14 240 11:35 24.03.2021
1098 Clouds 29 1005 69 6000 5.14 250 10:46 24.03.2021
1099 Haze 30 1005 65 5000 7.72 250 10:26 24.03.2021
1100 Haze 30 1006 65 5000 7.72 250 09:54 24.03.2021
1101 Haze 31 1006 62 5000 7.72 240 09:25 24.03.2021
1102 Clouds 32 1006 55 6000 7.72 240 08:57 24.03.2021
1103 Clouds 33 1006 55 6000 7.72 240 08:29 24.03.2021
1104 Clouds 33 1007 58 6000 6.17 240 07:42 24.03.2021
1105 Clouds 33 1007 58 6000 5.14 260 06:58 24.03.2021
1106 Clouds 34 1008 55 6000 5.14 240 06:34 24.03.2021
1107 Clouds 27 1009 83 6000 5.14 220 01:21 24.03.2021
1108 Clouds 26 1008 83 6000 2.57 250 00:33 24.03.2021
1109 Clouds 26 1008 83 6000 3.09 270 23:43 23.03.2021
1110 Clouds 26 1008 83 6000 3.09 270 23:18 23.03.2021
1111 Clouds 27 1007 78 6000 2.06 260 22:40 23.03.2021
1112 Clouds 27 1007 78 6000 1.54 280 21:59 23.03.2021
1113 Haze 26 1008 83 5000 4.12 280 21:41 23.03.2021
1114 Haze 26 1008 83 5000 4.12 280 21:41 23.03.2021
1115 Haze 26 1007 88 5000 3.6 280 21:20 23.03.2021
1116 Haze 27 1008 83 5000 2.06 310 20:43 23.03.2021
1117 Clouds 27 1008 83 6000 1.54 320 20:25 23.03.2021
1118 Clouds 27 1008 83 7000 3.09 270 19:45 23.03.2021
1119 Clouds 27 1009 83 7000 3.09 270 19:25 23.03.2021
1120 Clouds 27 1009 83 7000 3.09 250 18:43 23.03.2021
1121 Clouds 27 1010 74 6000 1.54 250 18:21 23.03.2021
1122 Clouds 27 1010 74 6000 1.54 250 17:45 23.03.2021
1123 Clouds 28 1010 74 6000 1.54 250 17:21 23.03.2021
1124 Clouds 28 1010 74 6000 1.54 250 17:21 23.03.2021
1125 Clouds 28 1010 69 6000 2.57 230 16:26 23.03.2021
1126 Clouds 29 1009 69 6000 4.12 230 15:59 23.03.2021
1127 Clouds 29 1009 69 6000 2.06 220 15:38 23.03.2021
1128 Clouds 29 1009 74 6000 2.57 220 14:52 23.03.2021
1129 Clouds 29 1009 74 6000 2.57 220 14:52 23.03.2021
1130 Clouds 29 1008 74 6000 2.06 250 14:21 23.03.2021
1131 Clouds 29 1008 65 6000 3.6 220 13:50 23.03.2021
1132 Clouds 29 1007 65 6000 4.12 240 13:26 23.03.2021
1133 Clouds 29 1007 65 6000 5.14 240 12:59 23.03.2021
1134 Clouds 30 1006 62 6000 6.17 260 12:39 23.03.2021
1135 Clouds 30 1006 62 6000 6.17 260 12:19 23.03.2021
1136 Clouds 31 1006 58 6000 8.23 240 11:42 23.03.2021
1137 Rain 32 1005 58 5000 7.2 243 10:44 23.03.2021
1138 Rain 33 1005 62 5000 7.2 240 10:23 23.03.2021
1139 Rain 33 1005 58 5000 6.69 220 09:58 23.03.2021
1140 Haze 33 1006 55 5000 5.14 200 09:36 23.03.2021
1141 Haze 32 1006 55 5000 5.14 200 09:18 23.03.2021
1142 Haze 32 1006 58 5000 5.14 300 08:39 23.03.2021
1143 Haze 32 1006 58 5000 5.14 300 08:20 23.03.2021
1144 Clouds 33 1007 49 6000 2.57 260 07:28 23.03.2021
1145 Clouds 32 1007 52 6000 4.12 260 06:59 23.03.2021
1146 Clouds 33 1008 52 6000 5.14 240 06:23 23.03.2021
1147 Clouds 30 1009 70 6000 6.17 240 03:21 23.03.2021
1148 Clouds 26 1009 88 6000 2.57 250 00:56 23.03.2021
1149 Clouds 26 1008 83 6000 3.09 230 23:33 22.03.2021
1150 Clouds 26 1008 83 6000 1.54 240 22:46 22.03.2021
1151 Clouds 26 1008 83 6000 1.54 240 22:24 22.03.2021
1152 Haze 26 1008 88 5000 3.09 270 21:57 22.03.2021
1153 Haze 26 1008 88 5000 3.09 270 21:36 22.03.2021
1154 Haze 26 1008 83 5000 3.09 280 21:18 22.03.2021
1155 Haze 26 1008 83 5000 3.09 280 20:38 22.03.2021
1156 Clouds 27 1009 89 6000 3.09 270 20:19 22.03.2021
1157 Clouds 26 1009 89 7000 3.6 280 19:48 22.03.2021
1158 Clouds 27 1009 89 7000 3.6 250 19:29 22.03.2021
1159 Clouds 27 1009 89 7000 2.57 280 18:45 22.03.2021
1160 Clouds 27 1010 83 7000 4.12 250 18:27 22.03.2021
1161 Clouds 27 1010 83 7000 4.12 280 17:51 22.03.2021
1162 Clouds 28 1010 78 7000 3.6 280 17:24 22.03.2021
1163 Rain 28 1010 78 7000 4.12 280 16:59 22.03.2021
1164 Clouds 28 1010 78 7000 4.12 280 16:40 22.03.2021
1165 Clouds 29 1010 74 7000 3.6 300 15:58 22.03.2021
1166 Clouds 29 1010 74 7000 3.6 300 15:37 22.03.2021
1167 Clouds 29 1010 74 7000 3.6 300 15:37 22.03.2021
1168 Clouds 29 1010 74 7000 3.6 280 15:18 22.03.2021
1169 Clouds 29 1010 74 7000 4.12 280 14:49 22.03.2021
1170 Haze 29 1008 65 5000 3.09 230 14:29 22.03.2021
1171 Haze 29 1008 65 5000 3.09 230 13:39 22.03.2021
1172 Haze 30 1008 65 5000 3.09 230 13:19 22.03.2021
1173 Haze 30 1007 62 5000 4.12 190 12:45 22.03.2021
1174 Haze 31 1007 62 5000 4.12 190 12:22 22.03.2021
1175 Clouds 32 1006 55 9000 5.66 300 11:46 22.03.2021
1176 Clouds 33 1006 55 9000 5.66 300 11:22 22.03.2021
1177 Clouds 34 1006 55 9000 5.66 280 10:43 22.03.2021
1178 Clouds 34 1005 62 9000 4.12 300 10:24 22.03.2021
1179 Clouds 34 1006 58 9000 4.63 330 09:40 22.03.2021
1180 Rain 34 1006 58 9000 4.63 330 09:21 22.03.2021
1181 Clouds 33 1007 55 10000 7.2 330 08:43 22.03.2021
1182 Clouds 33 1007 58 10000 6.17 330 08:24 22.03.2021
1183 Clouds 34 1008 43 6000 3.6 270 07:44 22.03.2021
1184 Clouds 35 1008 43 6000 3.6 270 06:53 22.03.2021
1185 Clouds 34 1008 46 6000 2.57 270 06:27 22.03.2021
1186 Haze 30 1009 83 3000 1.54 120 02:33 22.03.2021
1187 Clouds 26 1008 83 8000 2.06 230 00:33 22.03.2021
1188 Clouds 25 1008 88 7000 2.57 250 23:54 21.03.2021
1189 Clouds 25 1008 88 7000 4.12 250 23:19 21.03.2021
1190 Clouds 25 1008 88 7000 4.12 250 23:19 21.03.2021
1191 Clouds 25 1008 88 7000 4.12 250 23:19 21.03.2021
1192 Clouds 26 1007 88 7000 3.09 220 22:56 21.03.2021
1193 Clouds 26 1007 83 7000 2.57 220 22:18 21.03.2021
1194 Clouds 26 1007 83 7000 3.09 200 21:40 21.03.2021
1195 Clouds 26 1007 83 7000 3.09 200 21:22 21.03.2021
1196 Clouds 26 1007 83 7000 2.57 210 20:43 21.03.2021
1197 Clouds 26 1008 83 7000 2.57 210 20:25 21.03.2021
1198 Clouds 26 1008 83 7000 2.57 240 19:53 21.03.2021
1199 Clouds 26 1008 83 7000 2.06 0 19:21 21.03.2021
1200 Clouds 27 1008 83 7000 2.57 240 18:50 21.03.2021
1201 Clouds 27 1008 83 7000 2.57 240 18:27 21.03.2021
1202 Clouds 27 1008 78 7000 3.6 220 17:48 21.03.2021
1203 Haze 27 1008 78 5000 2.57 210 17:21 21.03.2021
1204 Haze 28 1008 78 5000 2.57 210 16:59 21.03.2021
1205 Haze 28 1008 78 5000 2.57 210 16:40 21.03.2021
1206 Clouds 28 1011 78 10000 3.39 245 16:21 21.03.2021
1207 Rain 29 1010 72 10000 0.89 225 15:41 21.03.2021
1208 Rain 29 1008 47 10000 3.82 245 15:20 21.03.2021
1209 Rain 28 1007 78 7000 4.12 270 14:46 21.03.2021
1210 Rain 28 1007 74 7000 4.12 260 14:26 21.03.2021
1211 Rain 28 1007 78 7000 4.12 270 13:54 21.03.2021
1212 Rain 28 1006 74 8000 4.12 280 13:25 21.03.2021
1213 Rain 28 1005 74 8000 5.14 290 12:42 21.03.2021
1214 Rain 29 1005 70 8000 5.14 280 12:23 21.03.2021
1215 Rain 29 1005 70 8000 5.14 280 12:23 21.03.2021
1216 Rain 29 1005 70 9000 6.17 260 11:37 21.03.2021
1217 Rain 29 1005 70 9000 6.69 260 11:19 21.03.2021
1218 Rain 29 1005 70 9000 6.69 260 11:19 21.03.2021
1219 Rain 29 1003 74 4000 10.29 210 10:42 21.03.2021
1220 Rain 29 1003 74 4000 10.29 210 10:23 21.03.2021
1221 Rain 29 1003 74 4000 10.29 210 09:46 21.03.2021
1222 Clouds 31 1004 66 6000 8.75 300 09:27 21.03.2021
1223 Clouds 34 1004 66 9000 7.72 340 08:40 21.03.2021
1224 Clouds 34 1005 49 6000 2.57 320 08:21 21.03.2021
1225 Clouds 34 1005 49 6000 2.57 320 08:21 21.03.2021
1226 Clouds 34 1005 49 6000 2.57 320 07:38 21.03.2021
1227 Clouds 34 1006 52 6000 2.06 330 06:56 21.03.2021
1228 Clouds 34 1007 49 6000 3.6 270 05:54 21.03.2021
1229 Clouds 30 1008 78 6000 1.54 270 02:25 21.03.2021
1230 Haze 25 1006 88 5000 1.54 280 00:42 21.03.2021
1231 Haze 25 1006 88 5000 1.54 280 00:22 21.03.2021
1232 Clouds 25 1006 88 6000 3.61 240 23:49 20.03.2021
1233 Clouds 26 1006 89 6000 1.54 250 23:24 20.03.2021
1234 Clouds 26 1006 89 6000 1.54 250 22:56 20.03.2021
1235 Clouds 26 1006 89 6000 1.54 250 22:23 20.03.2021
1236 Clouds 26 1006 89 7000 3.6 280 21:47 20.03.2021
1237 Clouds 26 1006 83 7000 3.09 260 21:25 20.03.2021
1238 Clouds 26 1006 89 7000 4.12 270 20:48 20.03.2021
1239 Clouds 26 1007 89 7000 3.09 290 20:23 20.03.2021
1240 Clouds 26 1007 83 7000 2.57 290 19:51 20.03.2021
1241 Clouds 26 1007 83 7000 3.6 290 19:28 20.03.2021
1242 Clouds 27 1007 78 7000 4.12 280 18:50 20.03.2021
1243 Clouds 27 1007 78 7000 4.63 280 18:27 20.03.2021
1244 Clouds 27 1007 78 7000 4.63 280 17:58 20.03.2021
1245 Clouds 27 1007 78 7000 4.63 280 17:39 20.03.2021
1246 Clouds 27 1008 83 7000 4.63 270 17:19 20.03.2021
1247 Clouds 27 1007 83 7000 3.6 290 16:38 20.03.2021
1248 Clouds 27 1007 78 7000 5.14 270 16:18 20.03.2021
1249 Clouds 28 1007 74 7000 4.63 270 15:40 20.03.2021
1250 Clouds 28 1007 74 7000 4.63 270 15:40 20.03.2021
1251 Clouds 28 1007 74 7000 4.63 270 15:21 20.03.2021
1252 Haze 27 1005 78 5000 1.54 250 14:31 20.03.2021
1253 Haze 27 1005 78 5000 1.54 250 14:31 20.03.2021
1254 Haze 28 1005 78 5000 1.54 250 13:56 20.03.2021
1255 Haze 28 1005 83 5000 1.54 240 13:29 20.03.2021
1256 Haze 28 1004 83 5000 1.54 230 12:30 20.03.2021
1257 Clouds 28 1004 78 4000 4.12 280 11:58 20.03.2021
1258 Rain 28 1004 78 4000 4.12 280 11:39 20.03.2021
1259 Clouds 29 1004 78 4000 4.12 280 11:20 20.03.2021
1260 Haze 31 1003 70 5000 1.54 320 10:39 20.03.2021
1261 Rain 32 1003 70 5000 1.54 320 10:20 20.03.2021
1262 Rain 32 1004 58 5000 2.57 340 09:44 20.03.2021
1263 Haze 32 1004 58 5000 2.57 340 09:21 20.03.2021
1264 Haze 33 1004 58 4000 2.06 330 08:51 20.03.2021
1265 Haze 33 1004 66 4000 2.57 350 08:18 20.03.2021
1266 Haze 33 1006 83 3000 1.54 360 07:41 20.03.2021
1267 Haze 32 1006 83 3000 1.54 360 07:20 20.03.2021
1268 Haze 34 1007 58 3000 1.54 90 06:39 20.03.2021
1269 Haze 33 1007 66 3000 4.12 50 05:28 20.03.2021
1270 Haze 30 1008 62 4000 1.54 120 03:43 20.03.2021
1271 Haze 27 1007 78 5000 2.06 180 01:31 20.03.2021
1272 Haze 26 1006 83 5000 3.6 240 23:46 19.03.2021
1273 Haze 26 1006 83 5000 3.6 260 23:19 19.03.2021
1274 Haze 26 1006 88 5000 2.57 250 22:43 19.03.2021
1275 Haze 26 1006 88 5000 2.06 200 22:22 19.03.2021
1276 Clouds 26 1006 83 6000 3.6 230 21:42 19.03.2021
1277 Clouds 26 1007 83 6000 3.09 240 21:20 19.03.2021
1278 Clouds 26 1007 83 6000 3.6 240 20:45 19.03.2021
1279 Clouds 26 1007 83 6000 3.6 250 20:26 19.03.2021
1280 Clouds 27 1007 83 6000 3.6 260 19:48 19.03.2021
1281 Clouds 27 1008 78 6000 3.09 230 19:22 19.03.2021
1282 Clouds 27 1008 78 7000 4.12 230 18:49 19.03.2021
1283 Clouds 27 1008 74 7000 3.09 240 18:27 19.03.2021
1284 Haze 28 1008 74 5000 2.06 190 17:58 19.03.2021
1285 Haze 28 1008 74 5000 2.06 190 17:38 19.03.2021
1286 Haze 28 1008 74 5000 2.06 190 17:18 19.03.2021
1287 Haze 28 1008 74 5000 2.06 190 16:44 19.03.2021
1288 Haze 28 1008 74 5000 1.54 180 16:25 19.03.2021
1289 Rain 28 1008 78 5000 2.57 180 15:34 19.03.2021
1290 Rain 29 1007 74 5000 2.57 240 14:53 19.03.2021
1291 Rain 29 1007 74 5000 3.6 250 14:33 19.03.2021
1292 Haze 29 1007 78 5000 3.6 230 13:51 19.03.2021
1293 Haze 29 1007 78 5000 2.06 240 13:19 19.03.2021
1294 Rain 29 1005 74 5000 1.54 250 12:42 19.03.2021
1295 Haze 29 1005 74 5000 1.54 250 12:18 19.03.2021
1296 Haze 30 1005 74 5000 1.54 280 11:33 19.03.2021
1297 Rain 31 1005 70 5000 1.54 340 10:47 19.03.2021
1298 Rain 30 1004 79 5000 2.06 340 10:23 19.03.2021
1299 Rain 31 1005 84 4000 3.09 20 09:44 19.03.2021
1300 Rain 31 1005 84 4000 3.09 20 09:26 19.03.2021
1301 Rain 32 1005 84 3000 2.57 60 08:52 19.03.2021
1302 Rain 32 1005 66 4000 2.57 310 08:29 19.03.2021
1303 Clouds 32 1005 66 4000 4.05 312 07:50 19.03.2021
1304 Haze 33 1006 58 4000 3.6 350 07:31 19.03.2021
1305 Haze 32 1008 58 5000 1.54 260 05:29 19.03.2021
1306 Haze 29 1009 78 3000 1.54 220 02:20 19.03.2021
1307 Haze 26 1008 83 4000 1.54 210 23:57 18.03.2021
1308 Haze 26 1009 83 4000 1.54 240 23:29 18.03.2021
1309 Haze 26 1009 89 4000 2.06 180 22:52 18.03.2021
1310 Haze 26 1009 89 4000 2.06 180 22:26 18.03.2021
1311 Haze 26 1009 89 4000 2.06 180 22:26 18.03.2021
1312 Clouds 26 1009 89 7000 1.54 0 21:55 18.03.2021
1313 Clouds 26 1009 89 7000 1.54 0 21:36 18.03.2021
1314 Clouds 26 1009 83 7000 1.03 0 20:43 18.03.2021
1315 Clouds 27 1008 83 8000 1.54 0 20:23 18.03.2021
1316 Clouds 26 1008 83 9000 2.06 260 19:43 18.03.2021
1317 Clouds 26 1008 78 9000 2.57 230 19:23 18.03.2021
1318 Clouds 26 1008 78 9000 2.57 230 19:23 18.03.2021
1319 Clouds 27 1009 74 8000 3.09 210 18:52 18.03.2021
1320 Clouds 27 1008 74 8000 3.09 210 18:25 18.03.2021
1321 Clouds 27 1008 74 8000 2.06 190 17:43 18.03.2021
1322 Clouds 27 1009 74 8000 2.06 170 17:20 18.03.2021
1323 Clouds 27 1008 74 8000 2.06 170 16:41 18.03.2021
1324 Clouds 28 1009 74 8000 2.57 0 16:23 18.03.2021
1325 Clouds 28 1009 74 8000 3.6 160 15:41 18.03.2021
1326 Clouds 28 1009 78 7000 4.63 170 15:21 18.03.2021
1327 Clouds 28 1009 65 8000 4.12 200 14:49 18.03.2021
1328 Haze 28 1008 74 3000 3.6 210 14:23 18.03.2021
1329 Haze 28 1008 74 3000 3.6 210 13:43 18.03.2021
1330 Haze 29 1008 74 3000 3.6 210 13:25 18.03.2021
1331 Haze 29 1007 70 4000 4.12 220 12:40 18.03.2021
1332 Haze 29 1007 70 4000 4.12 220 12:22 18.03.2021
1333 Haze 29 1007 65 4000 4.12 240 11:46 18.03.2021
1334 Haze 30 1005 55 4000 2.57 310 11:25 18.03.2021
1335 Haze 32 1005 55 4000 2.57 350 10:42 18.03.2021
1336 Haze 32 1005 55 4000 2.57 350 10:23 18.03.2021
1337 Haze 33 1005 58 3000 2.57 330 09:53 18.03.2021
1338 Haze 33 1005 58 3000 3.09 310 09:27 18.03.2021
1339 Haze 32 1006 66 3000 3.09 320 08:46 18.03.2021
1340 Haze 32 1006 66 3000 2.57 340 08:26 18.03.2021
1341 Haze 32 1007 62 3000 2.57 310 07:48 18.03.2021
1342 Haze 33 1008 55 4000 2.57 320 06:50 18.03.2021
1343 Haze 34 1008 55 4000 2.57 320 06:26 18.03.2021
1344 Haze 32 1009 51 5000 3.09 340 05:28 18.03.2021
1345 Haze 26 1008 83 4000 1.54 230 00:51 18.03.2021
1346 Haze 26 1008 88 4000 1.54 230 23:58 17.03.2021
1347 Haze 26 1008 89 3000 1.54 150 22:44 17.03.2021
1348 Haze 26 1007 89 3000 1.21 87 22:24 17.03.2021
1349 Haze 27 1007 89 3000 1.54 320 21:53 17.03.2021
1350 Clouds 27 1007 78 6000 1.54 240 21:33 17.03.2021
1351 Clouds 27 1007 74 6000 2.57 210 20:58 17.03.2021
1352 Clouds 27 1007 74 6000 2.57 210 20:40 17.03.2021
1353 Haze 28 1008 74 5000 2.06 210 20:20 17.03.2021
1354 Haze 28 1008 78 5000 2.06 0 19:43 17.03.2021
1355 Haze 28 1009 83 4000 1.12 36 19:21 17.03.2021
1356 Haze 28 1009 83 4000 0.98 12 18:52 17.03.2021
1357 Haze 28 1009 83 4000 0.98 12 18:32 17.03.2021
1358 Haze 29 1009 83 4000 1.46 10 17:43 17.03.2021
1359 Haze 29 1009 78 4000 1.54 150 17:23 17.03.2021
1360 Haze 29 1009 78 5000 1.54 50 16:43 17.03.2021
1361 Haze 29 1009 78 5000 1.54 50 16:21 17.03.2021
1362 Haze 29 1009 70 5000 1.47 22 15:49 17.03.2021
1363 Haze 29 1009 70 5000 1.47 22 15:30 17.03.2021
1364 Haze 30 1009 74 5000 1.03 70 14:43 17.03.2021
1365 Haze 30 1008 65 5000 1.54 290 14:21 17.03.2021
1366 Haze 29 1007 70 5000 1.54 360 13:55 17.03.2021
1367 Haze 30 1007 62 5000 1.54 40 13:27 17.03.2021
1368 Haze 31 1007 58 5000 2.57 30 12:51 17.03.2021
1369 Haze 31 1007 58 5000 3.09 30 12:31 17.03.2021
1370 Haze 32 1006 55 5000 2.57 20 11:50 17.03.2021
1371 Haze 32 1006 51 5000 2.57 360 11:23 17.03.2021
1372 Haze 32 1005 51 5000 2.06 330 10:54 17.03.2021
1373 Haze 33 1005 48 5000 2.57 330 10:26 17.03.2021
1374 Haze 33 1005 48 5000 2.57 330 10:26 17.03.2021
1375 Haze 32 1006 51 5000 2.06 310 09:48 17.03.2021
1376 Haze 33 1006 51 4000 2.57 350 09:25 17.03.2021
1377 Haze 33 1006 49 4000 3.09 30 08:58 17.03.2021
1378 Haze 33 1006 48 4000 3.09 340 08:38 17.03.2021
1379 Haze 33 1007 51 4000 4.12 360 07:49 17.03.2021
1380 Haze 34 1007 55 4000 2.06 330 07:30 17.03.2021
1381 Haze 33 1008 55 4000 5.14 360 06:42 17.03.2021
1382 Haze 30 1009 55 4000 2.57 90 04:21 17.03.2021
1383 Haze 30 1010 65 4000 1.54 250 02:50 17.03.2021
1384 Mist 25 1008 94 2000 0.93 161 00:40 17.03.2021
1385 Mist 25 1008 100 4000 1.4 138 23:33 16.03.2021
1386 Mist 25 1008 94 4000 1.77 148 22:51 16.03.2021
1387 Haze 25 1008 94 5000 1.77 148 22:33 16.03.2021
1388 Mist 26 1008 83 5000 1.54 220 21:51 16.03.2021
1389 Mist 26 1008 83 5000 1.54 210 21:32 16.03.2021
1390 Haze 26 1009 83 5000 1.03 0 20:59 16.03.2021
1391 Haze 26 1009 83 5000 1.03 0 20:38 16.03.2021
1392 Haze 26 1009 88 3500 1.54 280 20:18 16.03.2021
1393 Haze 26 1009 83 3000 1.03 300 19:42 16.03.2021
1394 Haze 26 1009 83 3000 2.06 290 19:23 16.03.2021
1395 Haze 27 1010 83 4000 0.51 360 18:45 16.03.2021
1396 Haze 26 1010 94 5000 1.77 133 18:27 16.03.2021
1397 Haze 27 1010 94 5000 1.77 133 17:50 16.03.2021
1398 Haze 26 1010 94 5000 1.77 133 17:31 16.03.2021
1399 Haze 27 1010 88 5000 2.18 138 16:53 16.03.2021
1400 Haze 27 1010 88 5000 2.18 138 16:30 16.03.2021
1401 Haze 27 1010 88 5000 1.42 143 15:47 16.03.2021
1402 Haze 27 1010 88 5000 1.54 170 15:22 16.03.2021
1403 Haze 27 1010 88 5000 0.92 194 14:59 16.03.2021
1404 Haze 27 1009 88 5000 2.57 120 14:40 16.03.2021
1405 Haze 27 1009 88 5000 2.57 120 14:21 16.03.2021
1406 Haze 27 1009 88 5000 3.6 120 13:54 16.03.2021
1407 Haze 28 1009 83 4000 2.57 130 13:27 16.03.2021
1408 Rain 28 1008 89 4000 4.12 90 12:54 16.03.2021
1409 Rain 28 1008 89 4000 1.54 60 12:35 16.03.2021
1410 Clouds 29 1008 89 2000 3.6 150 11:54 16.03.2021
1411 Rain 30 1007 74 4000 3.6 180 11:28 16.03.2021
1412 Haze 31 1007 66 4000 2.06 310 10:45 16.03.2021
1413 Haze 31 1007 66 4000 2.06 310 10:20 16.03.2021
1414 Haze 32 1006 66 4000 4.12 350 09:39 16.03.2021
1415 Haze 33 1006 66 4000 4.12 350 09:19 16.03.2021
1416 Haze 31 1007 66 4000 4.12 10 08:51 16.03.2021
1417 Haze 33 1007 66 4000 3.6 360 08:32 16.03.2021
1418 Haze 33 1008 58 4000 3.6 340 07:50 16.03.2021
1419 Haze 32 1009 62 5000 3.09 20 06:57 16.03.2021
1420 Haze 32 1009 62 5000 2.06 320 06:37 16.03.2021
1421 Haze 32 1011 58 5000 2.06 330 05:35 16.03.2021
1422 Haze 31 1011 78 4000 1.54 210 02:46 16.03.2021
1423 Haze 29 1011 83 4000 1.54 220 02:25 16.03.2021
1424 Haze 26 1009 78 4000 1.54 110 00:25 16.03.2021
1425 Haze 26 1009 78 5000 1.54 90 23:37 15.03.2021
1426 Haze 26 1009 78 5000 1.54 90 23:18 15.03.2021
1427 Haze 26 1009 69 5000 1.54 270 22:42 15.03.2021
1428 Haze 26 1009 69 5000 1.54 270 22:23 15.03.2021
1429 Mist 26 1008 89 3000 2.06 140 21:47 15.03.2021
1430 Mist 26 1009 89 3000 2.06 0 21:27 15.03.2021
1431 Mist 26 1009 89 3000 1.03 0 20:47 15.03.2021
1432 Mist 26 1009 89 3000 0.51 0 20:27 15.03.2021
1433 Mist 27 1009 89 3600 1.03 0 19:57 15.03.2021
1434 Mist 27 1009 89 3600 1.03 0 19:39 15.03.2021
1435 Haze 27 1010 89 4000 1.54 220 19:21 15.03.2021
1436 Haze 27 1010 89 4000 1.54 0 18:41 15.03.2021
1437 Haze 27 1010 89 3500 2.57 200 18:22 15.03.2021
1438 Mist 27 1010 89 3500 3.09 200 17:49 15.03.2021
1439 Haze 27 1010 89 3000 1.54 260 17:22 15.03.2021
1440 Haze 27 1010 89 4000 1.03 270 16:44 15.03.2021
1441 Haze 27 1010 89 2900 1.03 230 16:18 15.03.2021
1442 Haze 28 1009 83 4000 1.54 70 15:39 15.03.2021
1443 Haze 28 1009 83 5000 1.54 120 15:20 15.03.2021
1444 Clouds 28 1009 83 7000 1.03 80 14:41 15.03.2021
1445 Haze 29 1008 78 4000 3.6 340 14:20 15.03.2021
1446 Haze 29 1008 78 4000 3.6 340 13:45 15.03.2021
1447 Haze 29 1008 78 4000 3.6 340 13:24 15.03.2021
1448 Haze 29 1007 78 4000 2.06 300 12:46 15.03.2021
1449 Haze 30 1006 74 5000 2.57 330 12:18 15.03.2021
1450 Haze 30 1006 70 5000 1.54 250 11:46 15.03.2021
1451 Haze 31 1006 70 5000 1.54 280 11:26 15.03.2021
1452 Haze 31 1006 70 5000 1.54 270 10:45 15.03.2021
1453 Haze 32 1006 66 5000 2.06 290 10:26 15.03.2021
1454 Haze 32 1007 66 5000 2.06 150 09:48 15.03.2021
1455 Haze 32 1007 66 5000 2.06 150 09:30 15.03.2021
1456 Haze 32 1007 66 5000 3.09 130 08:47 15.03.2021
1457 Haze 32 1008 66 5000 3.6 90 08:27 15.03.2021
1458 Haze 32 1008 66 5000 3.6 60 07:43 15.03.2021
1459 Haze 32 1009 70 5000 2.57 100 07:22 15.03.2021
1460 Haze 33 1010 62 5000 2.06 260 06:21 15.03.2021
1461 Haze 31 1011 78 4000 2.42 280 03:59 15.03.2021
1462 Haze 25 1010 88 4000 1.54 230 01:20 15.03.2021
1463 Haze 25 1008 94 4000 1.54 250 23:24 14.03.2021
1464 Haze 25 1008 94 4000 1.54 240 23:00 14.03.2021
1465 Haze 25 1008 94 4000 1.54 200 22:38 14.03.2021
1466 Haze 25 1008 94 4000 1.54 200 22:18 14.03.2021
1467 Haze 26 1008 94 5000 1.03 330 21:41 14.03.2021
1468 Haze 26 1008 94 5000 1.03 330 21:18 14.03.2021
1469 Clouds 26 1008 94 6000 1.03 240 20:42 14.03.2021
1470 Clouds 26 1008 94 6000 1.03 240 20:24 14.03.2021
1471 Clouds 26 1009 89 6000 1.03 0 19:42 14.03.2021
1472 Clouds 26 1009 89 6000 1.03 0 19:20 14.03.2021
1473 Clouds 26 1010 89 6000 1.03 0 18:41 14.03.2021
1474 Clouds 26 1010 89 6000 1.03 0 18:18 14.03.2021
1475 Haze 27 1010 83 5000 1.54 240 17:39 14.03.2021
1476 Haze 27 1010 83 5000 1.54 240 17:20 14.03.2021
1477 Haze 27 1010 83 5000 1.54 240 16:42 14.03.2021
1478 Haze 27 1010 83 5000 1.54 240 16:23 14.03.2021
1479 Haze 28 1010 83 5000 1.54 310 15:52 14.03.2021
1480 Haze 28 1010 83 5000 1.54 300 15:25 14.03.2021
1481 Haze 28 1010 74 5000 1.54 330 14:41 14.03.2021
1482 Haze 28 1010 74 5000 1.54 330 14:20 14.03.2021
1483 Clouds 28 1009 69 6000 1.54 270 13:48 14.03.2021
1484 Clouds 29 1009 65 6000 2.06 280 13:27 14.03.2021
1485 Clouds 29 1008 61 6000 3.09 270 12:44 14.03.2021
1486 Clouds 30 1007 58 6000 2.06 260 12:26 14.03.2021
1487 Clouds 31 1007 51 6000 2.57 250 11:42 14.03.2021
1488 Clouds 32 1007 51 6000 2.57 250 11:23 14.03.2021
1489 Clouds 31 1007 61 6000 1.54 310 10:38 14.03.2021
1490 Clouds 32 1007 61 6000 1.54 310 10:20 14.03.2021
1491 Clouds 32 1007 61 6000 2.06 300 09:59 14.03.2021
1492 Clouds 32 1007 62 6000 3.6 280 09:41 14.03.2021
1493 Clouds 32 1007 62 6000 3.6 280 09:20 14.03.2021
1494 Haze 29 1008 74 5000 5.14 300 08:40 14.03.2021
1495 Haze 29 1009 74 5000 3.6 280 07:59 14.03.2021
1496 Haze 29 1009 65 5000 6.17 270 07:34 14.03.2021
1497 Clouds 30 1010 58 6000 5.14 280 05:42 14.03.2021
1498 Haze 27 1009 78 5000 2.06 250 01:35 14.03.2021
1499 Haze 25 1009 88 5000 3.15 245 00:49 14.03.2021
1500 Haze 24 1009 88 5000 3.75 239 00:18 14.03.2021
1501 Haze 25 1009 83 5000 3.75 239 23:42 13.03.2021
1502 Haze 25 1009 83 5000 4.38 246 23:20 13.03.2021
1503 Haze 25 1009 83 5000 1.54 220 22:49 13.03.2021
1504 Haze 25 1009 88 5000 1.54 220 22:25 13.03.2021
1505 Clouds 25 1008 83 7000 2.06 270 21:40 13.03.2021
1506 Clouds 25 1008 83 7000 2.06 270 21:40 13.03.2021
1507 Clouds 26 1009 83 7000 1.03 280 21:19 13.03.2021
1508 Clouds 26 1009 88 7000 1.54 330 20:48 13.03.2021
1509 Clouds 26 1009 83 7000 1.54 270 20:28 13.03.2021
1510 Clouds 27 1009 83 10000 2.06 0 19:45 13.03.2021
1511 Clouds 27 1010 83 8000 2.06 0 19:27 13.03.2021
1512 Clouds 27 1010 88 8000 2.57 0 18:43 13.03.2021
1513 Rain 27 1011 69 5000 1.54 250 18:21 13.03.2021
1514 Rain 27 1011 69 5000 1.54 250 17:56 13.03.2021
1515 Haze 28 1011 69 5000 1.54 250 17:34 13.03.2021
1516 Rain 28 1011 65 5000 1.54 240 16:57 13.03.2021
1517 Rain 28 1011 65 6000 2.57 240 16:39 13.03.2021
1518 Rain 28 1011 57 6000 2.57 210 15:58 13.03.2021
1519 Rain 28 1011 57 6000 2.57 250 15:22 13.03.2021
1520 Rain 29 1010 54 6000 2.06 270 14:46 13.03.2021
1521 Clouds 29 1010 54 6000 2.57 280 14:25 13.03.2021
1522 Clouds 29 1010 58 6000 2.57 280 13:45 13.03.2021
1523 Clouds 29 1009 61 6000 2.57 240 13:21 13.03.2021
1524 Clouds 30 1008 58 6000 4.12 270 12:42 13.03.2021
1525 Clouds 31 1008 66 6000 2.06 330 11:59 13.03.2021
1526 Clouds 31 1008 66 6000 2.06 330 11:40 13.03.2021
1527 Clouds 31 1008 66 6000 2.06 330 11:22 13.03.2021
1528 Clouds 32 1007 66 6000 2.06 350 10:49 13.03.2021
1529 Clouds 32 1008 62 6000 2.06 340 10:25 13.03.2021
1530 Haze 31 1008 66 5000 2.57 280 09:38 13.03.2021
1531 Haze 31 1008 66 5000 2.57 260 08:58 13.03.2021
1532 Haze 30 1009 74 5000 3.09 270 08:39 13.03.2021
1533 Haze 30 1009 74 5000 3.09 270 08:19 13.03.2021
1534 Clouds 32 1010 58 6000 4.12 340 07:39 13.03.2021
1535 Clouds 33 1012 51 6000 3.09 260 05:45 13.03.2021
1536 Haze 30 1012 69 4000 2.57 280 02:43 13.03.2021
1537 Haze 25 1011 83 5000 1.54 230 00:50 13.03.2021
1538 Haze 25 1010 83 5000 2.37 251 23:51 12.03.2021
1539 Haze 26 1010 83 5000 2.37 251 23:32 12.03.2021
1540 Haze 26 1010 83 5000 2.06 230 22:42 12.03.2021
1541 Haze 26 1010 83 5000 2.06 230 22:23 12.03.2021
1542 Haze 26 1011 94 5000 2.57 280 21:43 12.03.2021
1543 Clouds 26 1010 88 6000 2.57 260 21:24 12.03.2021
1544 Clouds 26 1011 88 6000 3.09 270 20:55 12.03.2021
1545 Clouds 26 1011 94 6000 3.6 270 20:32 12.03.2021
1546 Clouds 26 1011 94 6000 3.09 260 19:56 12.03.2021
1547 Clouds 26 1011 94 6000 3.09 260 19:38 12.03.2021
1548 Clouds 27 1012 89 6000 2.57 0 18:59 12.03.2021
1549 Rain 27 1012 94 6000 2.06 0 18:35 12.03.2021
1550 Clouds 27 1013 94 6000 2.06 0 17:49 12.03.2021
1551 Clouds 27 1013 89 6000 2.06 0 17:30 12.03.2021
1552 Clouds 27 1013 89 6000 2.57 0 16:55 12.03.2021
1553 Clouds 27 1013 89 6000 2.57 0 16:36 12.03.2021
1554 Clouds 28 1012 89 6000 4.12 280 15:52 12.03.2021
1555 Clouds 28 1012 89 6000 2.57 290 15:28 12.03.2021
1556 Clouds 28 1011 78 6000 1.54 290 14:48 12.03.2021
1557 Haze 29 1010 65 5000 1.54 260 14:21 12.03.2021
1558 Haze 29 1010 65 5000 1.54 260 13:44 12.03.2021
1559 Haze 29 1010 65 5000 1.54 260 13:21 12.03.2021
1560 Haze 29 1010 66 5000 2.57 280 12:57 12.03.2021
1561 Haze 30 1009 70 5000 5.14 270 12:38 12.03.2021
1562 Haze 30 1009 70 5000 5.14 270 12:19 12.03.2021
1563 Haze 30 1009 70 5000 5.14 270 11:48 12.03.2021
1564 Haze 30 1008 70 5000 3.09 240 11:21 12.03.2021
1565 Haze 31 1008 66 5000 3.6 280 10:48 12.03.2021
1566 Haze 31 1008 70 5000 2.57 310 10:24 12.03.2021
1567 Clouds 32 1009 70 6000 2.57 290 09:49 12.03.2021
1568 Clouds 32 1009 70 6000 2.57 290 09:19 12.03.2021
1569 Clouds 31 1010 70 6000 3.6 320 08:43 12.03.2021
1570 Clouds 31 1010 70 6000 4.12 340 07:56 12.03.2021
1571 Clouds 31 1010 62 6000 3.6 340 07:31 12.03.2021
1572 Clouds 31 1011 70 6000 3.09 270 06:46 12.03.2021
1573 Clouds 31 1012 66 6000 2.06 290 05:57 12.03.2021
1574 Mist 27 1011 94 4000 1.54 230 01:42 12.03.2021
1575 Mist 25 1011 94 4000 1.54 240 00:18 12.03.2021
1576 Mist 25 1010 94 3000 1.54 270 23:19 11.03.2021
1577 Mist 25 1010 94 3000 2.06 260 22:42 11.03.2021
1578 Mist 25 1010 94 3000 2.06 260 22:22 11.03.2021
1579 Mist 25 1010 88 5000 1.03 270 21:46 11.03.2021
1580 Mist 25 1010 88 4000 2.06 230 21:26 11.03.2021
1581 Mist 25 1011 94 4000 1.54 260 20:49 11.03.2021
1582 Mist 25 1011 94 5000 1.03 280 20:27 11.03.2021
1583 Haze 25 1011 94 5000 1.54 220 19:57 11.03.2021
1584 Haze 25 1011 94 5000 1.54 220 19:38 11.03.2021
1585 Clouds 25 1011 94 7000 3.09 210 18:55 11.03.2021
1586 Haze 26 1012 89 5000 3.03 246 18:35 11.03.2021
1587 Haze 26 1012 89 5000 3.14 249 17:57 11.03.2021
1588 Haze 26 1012 89 5000 3.14 249 17:39 11.03.2021
1589 Haze 26 1012 89 5000 3.28 259 16:43 11.03.2021
1590 Haze 27 1012 89 5000 3.15 272 16:24 11.03.2021
1591 Haze 28 1012 83 5000 3.15 272 15:44 11.03.2021
1592 Haze 28 1012 78 5000 1.54 330 15:21 11.03.2021
1593 Haze 28 1011 78 5000 1.54 360 14:45 11.03.2021
1594 Haze 28 1011 78 5000 1.54 360 14:45 11.03.2021
1595 Haze 28 1011 78 5000 1.54 340 14:19 11.03.2021
1596 Haze 28 1010 74 5000 1.54 350 13:46 11.03.2021
1597 Clouds 28 1009 69 6000 1.54 360 13:23 11.03.2021
1598 Clouds 28 1009 69 6000 1.54 350 12:57 11.03.2021
1599 Clouds 28 1008 69 6000 1.54 330 12:36 11.03.2021
1600 Clouds 28 1008 69 6000 1.54 330 12:18 11.03.2021
1601 Clouds 30 1008 65 6000 2.06 320 11:42 11.03.2021
1602 Clouds 30 1008 65 6000 2.06 320 11:19 11.03.2021
1603 Clouds 30 1008 62 6000 2.06 360 10:28 11.03.2021
1604 Clouds 30 1008 62 6000 3.6 300 09:53 11.03.2021
1605 Clouds 30 1008 62 6000 3.6 300 09:34 11.03.2021
1606 Clouds 31 1009 62 6000 2.06 330 08:59 11.03.2021
1607 Clouds 29 1009 62 6000 2.06 270 08:41 11.03.2021
1608 Clouds 31 1009 62 6000 2.06 270 08:18 11.03.2021
1609 Haze 31 1011 62 5000 2.57 260 07:22 11.03.2021
1610 Haze 30 1011 65 5000 3.6 270 06:49 11.03.2021
1611 Haze 29 1011 70 5000 2.06 290 06:23 11.03.2021
1612 Clouds 25 1013 94 5000 1.54 240 02:48 11.03.2021
1613 -273 0 0 0 0 0 00:48 11.03.2021
1614 -273 0 0 0 0 0 00:47 11.03.2021
1615 Rain 25 1012 94 5000 5.14 300 23:27 10.03.2021
1616 -273 0 0 0 0 0 23:26 10.03.2021
1617 Rain 25 1012 94 5000 5.14 300 23:26 10.03.2021
1618 -273 0 0 0 0 0 22:47 10.03.2021
1619 -273 0 0 0 0 0 22:47 10.03.2021
1620 -273 0 0 0 0 0 22:47 10.03.2021
1621 Clouds 25 1010 94 5000 2.06 0 22:27 10.03.2021
1622 Rain 24 1010 94 5000 2.06 130 21:47 10.03.2021
1623 Rain 24 1010 94 5000 2.06 100 21:24 10.03.2021
1624 Rain 24 1010 94 5000 2.06 0 20:46 10.03.2021
1625 Rain 25 1010 94 5000 2.06 100 20:28 10.03.2021
1626 Rain 25 1011 88 5000 2.06 140 19:53 10.03.2021
1627 Rain 25 1011 88 5000 2.06 0 19:30 10.03.2021
1628 Rain 24 1012 94 3000 5.14 250 18:47 10.03.2021
1629 Rain 24 1012 94 3000 5.14 250 18:28 10.03.2021
1630 Rain 24 1012 94 3000 5.14 250 17:57 10.03.2021
1631 Rain 26 1012 89 2000 5.14 280 17:39 10.03.2021
1632 Rain 26 1012 78 5000 1.54 13 17:19 10.03.2021
1633 Haze 26 1012 78 5000 1.54 13 16:45 10.03.2021
1634 Haze 27 1011 78 5000 1.91 12 16:25 10.03.2021
1635 Haze 28 1011 78 5000 1.54 280 15:48 10.03.2021
1636 Haze 28 1011 78 5000 2.46 7 15:25 10.03.2021
1637 Haze 28 1011 78 5000 2.46 7 15:25 10.03.2021
1638 Clouds 28 1010 78 6000 2.46 7 14:57 10.03.2021
1639 Clouds 27 1010 78 6000 2.58 1 14:21 10.03.2021
1640 Clouds 29 1010 74 6000 1.54 300 13:52 10.03.2021
1641 Clouds 28 1009 74 6000 2.06 330 13:31 10.03.2021
1642 Clouds 28 1009 74 6000 1.54 350 12:47 10.03.2021
1643 Clouds 29 1008 74 6000 2.06 340 12:24 10.03.2021
1644 Clouds 29 1008 62 6000 3.09 340 11:50 10.03.2021
1645 Clouds 29 1008 62 6000 3.09 350 11:22 10.03.2021
1646 Clouds 30 1008 62 6000 3.09 340 10:50 10.03.2021
1647 Clouds 30 1008 58 6000 4.12 340 10:31 10.03.2021
1648 Clouds 30 1008 58 6000 2.57 350 09:55 10.03.2021
1649 Clouds 30 1008 58 6000 4.12 350 09:37 10.03.2021
1650 Clouds 30 1008 58 6000 4.12 350 09:18 10.03.2021
1651 Haze 31 1009 58 5000 3.6 340 08:42 10.03.2021
1652 Haze 31 1009 58 5000 3.6 340 08:23 10.03.2021
1653 Haze 32 1009 62 5000 3.6 330 07:42 10.03.2021
1654 Haze 31 1009 62 5000 3.6 330 07:21 10.03.2021
1655 Haze 30 1010 66 5000 3.09 330 06:49 10.03.2021
1656 Rain 26 1012 83 4000 2.06 200 02:42 10.03.2021
1657 Rain 25 1010 88 3000 2.06 230 00:27 10.03.2021
1658 Rain 25 1010 100 3000 1.54 180 23:27 09.03.2021
1659 Rain 25 1010 100 3000 1.54 180 22:50 09.03.2021
1660 Rain 25 1010 94 3000 1.54 200 22:31 09.03.2021
1661 Rain 26 1010 94 4000 2.06 240 21:58 09.03.2021
1662 Clouds 26 1010 94 4000 2.06 240 21:37 09.03.2021
1663 Clouds 26 1009 94 4000 1.54 210 21:18 09.03.2021
1664 Rain 26 1010 94 4000 2.57 260 20:45 09.03.2021
1665 Clouds 26 1010 89 3000 1.54 0 20:22 09.03.2021
1666 Clouds 26 1011 89 5000 1.54 0 19:57 09.03.2021
1667 Haze 26 1011 89 5000 1.54 290 19:29 09.03.2021
1668 Haze 26 1011 89 5000 1.03 320 18:54 09.03.2021
1669 Haze 26 1011 89 5000 1.03 350 18:30 09.03.2021
1670 Haze 27 1012 83 5000 1.54 20 17:58 09.03.2021
1671 Haze 27 1012 83 5000 1.54 20 17:38 09.03.2021
1672 Haze 26 1011 83 5000 1.03 80 17:19 09.03.2021
1673 Clouds 26 1011 83 6000 1.03 0 16:40 09.03.2021
1674 Clouds 26 1011 83 6000 1.03 350 16:20 09.03.2021
1675 Clouds 26 1011 83 6000 1.03 350 16:20 09.03.2021
1676 Clouds 26 1011 78 6000 1.03 0 15:47 09.03.2021
1677 Clouds 26 1011 78 6000 1.03 0 15:24 09.03.2021
1678 Rain 27 1011 78 6000 1.54 0 14:46 09.03.2021
1679 Rain 26 1010 83 3000 2.06 230 14:24 09.03.2021
1680 Rain 27 1010 83 3000 2.06 230 13:39 09.03.2021
1681 Rain 27 1010 83 3000 2.06 230 13:21 09.03.2021
1682 Rain 27 1009 94 3000 3.13 324 12:46 09.03.2021
1683 Haze 27 1009 94 3000 3.7 327 12:27 09.03.2021
1684 Clouds 27 1008 94 3000 2.57 280 11:43 09.03.2021
1685 Clouds 30 1008 74 2000 4.12 230 11:22 09.03.2021
1686 Rain 31 1008 66 5000 2.57 360 10:58 09.03.2021
1687 Haze 30 1008 66 5000 2.57 360 10:39 09.03.2021
1688 Haze 30 1008 66 5000 2.57 360 10:20 09.03.2021
1689 Clouds 30 1008 66 6000 2.06 360 09:45 09.03.2021
1690 Clouds 31 1008 62 6000 2.06 20 09:26 09.03.2021
1691 Clouds 30 1008 62 6000 3.09 280 08:49 09.03.2021
1692 Clouds 31 1009 66 6000 1.54 350 08:30 09.03.2021
1693 Haze 29 1010 78 4000 2.57 340 07:46 09.03.2021
1694 Haze 29 1010 78 4000 2.57 340 07:23 09.03.2021
1695 Haze 28 1011 83 4000 2.06 290 06:44 09.03.2021
1696 Rain 28 1011 94 4000 5.14 320 05:48 09.03.2021
1697 Haze 25 1010 88 5000 1.54 320 00:59 09.03.2021
1698 Haze 24 1010 88 5000 1.03 270 23:56 08.03.2021
1699 Haze 24 1010 88 5000 1.03 270 23:37 08.03.2021
1700 Clouds 25 1009 88 6000 1.03 290 23:18 08.03.2021
1701 Clouds 25 1009 88 6000 2.06 270 22:40 08.03.2021
1702 Clouds 25 1009 88 6000 2.57 240 22:21 08.03.2021
1703 Clouds 25 1009 88 6000 3.09 230 21:45 08.03.2021
1704 Clouds 25 1009 88 6000 2.57 230 21:26 08.03.2021
1705 Clouds 25 1010 88 6000 3.09 240 20:40 08.03.2021
1706 Clouds 25 1010 83 6000 3.6 240 20:20 08.03.2021
1707 Clouds 25 1011 88 6000 2.57 220 19:40 08.03.2021
1708 Clouds 26 1011 88 6000 3.09 240 18:57 08.03.2021
1709 Clouds 26 1011 88 6000 1.54 0 18:37 08.03.2021
1710 Clouds 26 1011 88 6000 1.54 0 18:18 08.03.2021
1711 Rain 26 1012 88 6000 1.03 0 17:43 08.03.2021
1712 Rain 26 1012 94 6000 1.54 0 17:22 08.03.2021
1713 Clouds 26 1012 83 6000 1.54 0 16:41 08.03.2021
1714 Clouds 26 1012 83 6000 1.54 0 16:21 08.03.2021
1715 Rain 26 1012 88 6000 2.06 0 15:41 08.03.2021
1716 Rain 27 1012 83 6000 3.09 260 15:22 08.03.2021
1717 Rain 27 1011 83 6000 2.57 250 14:21 08.03.2021
1718 Rain 26 1011 83 6000 2.57 250 13:54 08.03.2021
1719 Rain 26 1011 83 6000 3.09 270 13:23 08.03.2021
1720 Rain 27 1010 83 6000 3.6 270 12:56 08.03.2021
1721 Rain 27 1010 83 6000 3.6 270 12:35 08.03.2021
1722 Rain 27 1010 83 7000 5.66 270 11:50 08.03.2021
1723 Rain 27 1009 74 7000 5.66 260 11:30 08.03.2021
1724 Rain 28 1009 74 7000 6.17 250 10:57 08.03.2021
1725 Rain 28 1009 78 7000 6.17 240 10:39 08.03.2021
1726 Rain 28 1009 78 7000 6.17 240 10:18 08.03.2021
1727 Rain 28 1009 78 6000 8.75 260 09:27 08.03.2021
1728 Rain 28 1009 83 5000 3.6 270 08:52 08.03.2021
1729 Rain 28 1009 83 5000 3.6 270 08:25 08.03.2021
1730 Haze 32 1010 58 5000 4.63 280 07:21 08.03.2021
1731 Clouds 31 1011 62 9000 6.69 300 05:42 08.03.2021
1732 Haze 27 1011 88 5000 1.54 230 02:43 08.03.2021
1733 Clouds 25 1011 94 6000 1.54 0 00:42 08.03.2021
1734 Mist 25 1010 94 5000 2.57 230 23:53 07.03.2021
1735 Mist 25 1010 94 5000 3.09 230 23:22 07.03.2021
1736 Mist 25 1010 94 4000 2.06 270 22:48 07.03.2021
1737 Clouds 25 1010 94 4000 3.6 270 22:28 07.03.2021
1738 Clouds 25 1010 94 4000 5.14 270 21:53 07.03.2021
1739 Clouds 25 1010 94 4000 5.14 270 21:33 07.03.2021
1740 Mist 25 1010 94 4000 2.57 0 20:59 07.03.2021
1741 Mist 25 1010 94 4000 2.57 0 20:41 07.03.2021
1742 Haze 25 1010 88 4000 1.54 0 20:19 07.03.2021
1743 Haze 25 1011 88 5000 2.57 280 19:41 07.03.2021
1744 Haze 25 1011 88 5000 1.54 0 19:22 07.03.2021
1745 Haze 25 1011 88 5000 1.54 0 18:56 07.03.2021
1746 Haze 25 1012 88 5000 1.54 0 18:38 07.03.2021
1747 Haze 26 1012 88 5000 1.54 0 18:18 07.03.2021
1748 Haze 26 1012 88 5000 1.54 0 17:39 07.03.2021
1749 Clouds 26 1012 88 6000 1.54 0 17:19 07.03.2021
1750 Clouds 26 1013 88 6000 0.51 0 16:43 07.03.2021
1751 Rain 26 1013 88 6000 2.06 0 16:21 07.03.2021
1752 Rain 26 1013 88 6000 2.06 20 15:52 07.03.2021
1753 Rain 26 1012 88 6000 2.06 50 15:32 07.03.2021
1754 Rain 26 1012 88 6000 1.54 0 14:56 07.03.2021
1755 Rain 26 1012 88 6000 2.57 230 14:29 07.03.2021
1756 Rain 26 1011 88 6000 2.57 240 13:51 07.03.2021
1757 Rain 26 1011 88 4000 3.6 240 13:30 07.03.2021
1758 Rain 27 1010 74 7000 4.12 250 12:59 07.03.2021
1759 Rain 27 1010 74 7000 4.12 250 12:40 07.03.2021
1760 Rain 28 1010 69 7000 3.6 240 12:20 07.03.2021
1761 Rain 28 1009 69 7000 3.09 260 11:24 07.03.2021
1762 Rain 29 1008 69 7000 2.06 0 10:56 07.03.2021
1763 Rain 29 1008 69 7000 2.06 0 10:38 07.03.2021
1764 Rain 29 1008 69 7000 2.06 0 10:38 07.03.2021
1765 Rain 30 1008 65 7000 7.72 270 09:58 07.03.2021
1766 Rain 30 1008 65 7000 7.72 270 09:39 07.03.2021
1767 Rain 31 1008 66 8000 6.69 340 09:19 07.03.2021
1768 Clouds 32 1008 58 10000 7.72 340 08:45 07.03.2021
1769 Clouds 30 1008 62 10000 5.14 340 08:22 07.03.2021
1770 Clouds 32 1009 62 7000 2.57 0 06:51 07.03.2021
1771 Haze 29 1012 83 5000 3.6 280 02:40 07.03.2021
1772 Mist 26 1011 89 5000 1.54 0 00:35 07.03.2021
1773 Mist 26 1011 88 5000 0.51 300 23:41 06.03.2021
1774 Mist 26 1011 88 4000 1.03 280 23:20 06.03.2021
1775 Mist 26 1011 88 3000 1.54 260 22:46 06.03.2021
1776 Mist 26 1010 94 2500 2.57 260 22:24 06.03.2021
1777 Mist 26 1010 94 2500 1.54 290 21:49 06.03.2021
1778 Haze 26 1010 94 3000 1.03 290 21:21 06.03.2021
1779 Haze 26 1010 94 3000 2.06 310 20:44 06.03.2021
1780 Haze 26 1010 94 3000 2.06 270 20:21 06.03.2021
1781 Haze 26 1011 94 2000 1.54 290 19:41 06.03.2021
1782 Haze 26 1011 89 2500 2.06 290 19:18 06.03.2021
1783 Haze 26 1011 89 2500 1.03 320 18:43 06.03.2021
1784 Haze 26 1012 89 2500 1.54 300 18:23 06.03.2021
1785 Haze 26 1012 89 4000 1.03 0 17:55 06.03.2021
1786 Haze 26 1012 89 4000 1.03 360 17:33 06.03.2021
1787 Haze 27 1012 89 4000 0.51 0 17:00 06.03.2021
1788 Haze 27 1012 89 4000 0.51 0 16:37 06.03.2021
1789 Haze 27 1012 89 3000 2.06 270 16:18 06.03.2021
1790 Clouds 28 1012 83 4000 1.54 300 15:41 06.03.2021
1791 Clouds 27 1012 89 6000 1.03 0 15:23 06.03.2021
1792 Clouds 27 1011 89 5000 1.03 0 14:33 06.03.2021
1793 Clouds 27 1011 83 6000 1.54 0 13:56 06.03.2021
1794 Clouds 28 1011 83 6000 1.54 0 13:37 06.03.2021
1795 Clouds 28 1010 83 6000 2.57 160 13:19 06.03.2021
1796 Rain 28 1010 78 6000 1.03 0 12:43 06.03.2021
1797 Rain 28 1010 78 6000 2.57 310 12:19 06.03.2021
1798 Rain 28 1010 78 7000 5.14 280 11:47 06.03.2021
1799 Clouds 29 1009 74 9000 4.12 260 11:21 06.03.2021
1800 Clouds 30 1008 74 9000 3.6 250 10:45 06.03.2021
1801 Clouds 30 1008 70 9000 3.09 340 10:18 06.03.2021
1802 Clouds 30 1008 70 10000 4.12 340 09:40 06.03.2021
1803 Clouds 31 1008 70 10000 4.12 350 09:19 06.03.2021
1804 Clouds 31 1008 70 10000 4.12 350 09:19 06.03.2021
1805 Clouds 32 1009 70 9000 5.14 340 08:33 06.03.2021
1806 Clouds 33 1009 70 8000 5.14 340 07:57 06.03.2021
1807 Rain 33 1010 74 8000 5.66 340 07:23 06.03.2021
1808 Clouds 32 1010 70 8000 4.63 340 06:48 06.03.2021
1809 Clouds 33 1011 66 8000 3.6 340 05:34 06.03.2021
1810 Mist 28 1011 83 4000 2.06 0 02:25 06.03.2021
1811 Mist 25 1011 94 3000 2.06 0 00:47 06.03.2021
1812 Mist 25 1011 94 4000 1.03 0 23:53 05.03.2021
1813 Mist 25 1010 94 3000 2.06 0 23:28 05.03.2021
1814 Mist 25 1010 94 3500 2.06 170 22:46 05.03.2021
1815 Mist 25 1010 94 3000 1.54 160 22:23 05.03.2021
1816 Mist 25 1009 94 3000 2.57 190 21:54 05.03.2021
1817 Mist 25 1010 94 3000 2.06 210 21:34 05.03.2021
1818 Mist 26 1010 83 3000 2.06 210 20:55 05.03.2021
1819 Mist 26 1010 83 3000 2.06 210 20:37 05.03.2021
1820 Mist 26 1010 89 2000 1.54 250 20:19 05.03.2021
1821 Mist 27 1010 89 2000 2.06 270 19:33 05.03.2021
1822 Mist 27 1011 89 5000 1.54 310 18:59 05.03.2021
1823 Mist 27 1011 89 5000 1.54 310 18:41 05.03.2021
1824 Mist 27 1011 94 4000 1.54 0 18:23 05.03.2021
1825 Mist 26 1011 89 4000 2.06 0 17:37 05.03.2021
1826 Mist 26 1011 89 4000 2.06 0 17:37 05.03.2021
1827 Mist 25 1011 89 5000 2.57 0 16:58 05.03.2021
1828 Mist 25 1011 89 5000 2.57 0 16:38 05.03.2021
1829 Rain 26 1011 88 6000 2.06 0 16:20 05.03.2021
1830 Rain 25 1011 88 6000 1.54 220 15:46 05.03.2021
1831 Rain 26 1011 88 6000 1.54 0 15:23 05.03.2021
1832 Rain 26 1011 88 6000 2.57 200 14:39 05.03.2021
1833 Rain 26 1011 88 6000 2.57 0 14:18 05.03.2021
1834 Rain 27 1010 83 7000 1.54 0 13:22 05.03.2021
1835 Rain 27 1010 83 6000 2.06 0 13:00 05.03.2021
1836 Rain 25 1010 88 6000 2.57 270 12:30 05.03.2021
1837 Rain 27 1009 88 7000 2.57 270 11:37 05.03.2021
1838 Rain 24 1009 83 5000 2.57 0 11:18 05.03.2021
1839 Clouds 26 1010 73 6000 7.2 240 10:42 05.03.2021
1840 Clouds 29 1008 74 9000 3.09 10 10:24 05.03.2021
1841 Clouds 29 1009 74 9000 4.12 20 09:50 05.03.2021
1842 Clouds 31 1008 70 10000 5.14 20 09:27 05.03.2021
1843 Clouds 32 1008 70 10000 5.66 20 08:46 05.03.2021
1844 Clouds 32 1008 70 10000 5.66 20 08:27 05.03.2021
1845 Clouds 33 1009 66 10000 5.14 10 07:58 05.03.2021
1846 Clouds 33 1009 62 10000 5.66 20 07:29 05.03.2021
1847 Clouds 32 1010 66 9000 4.63 20 06:33 05.03.2021
1848 Clouds 32 1011 70 9000 2.57 10 05:32 05.03.2021
1849 Haze 27 1011 83 5000 2.06 0 00:53 05.03.2021
1850 Haze 26 1011 83 5000 2.06 160 23:44 04.03.2021
1851 Haze 27 1010 83 5000 2.57 170 23:19 04.03.2021
1852 Haze 26 1010 83 5000 1.54 190 22:28 04.03.2021
1853 Haze 26 1010 83 5000 2.57 180 21:52 04.03.2021
1854 Haze 26 1010 83 5000 2.06 180 21:29 04.03.2021
1855 Haze 26 1010 83 5000 2.57 180 20:43 04.03.2021
1856 Haze 26 1011 83 5000 2.06 0 20:24 04.03.2021
1857 Haze 26 1011 89 5000 1.54 0 19:59 04.03.2021
1858 Haze 26 1011 89 5000 1.54 0 19:40 04.03.2021
1859 Haze 26 1011 89 5000 1.03 190 19:21 04.03.2021
1860 Haze 26 1012 89 5000 1.54 0 18:45 04.03.2021
1861 Haze 27 1012 83 5000 3.09 0 18:25 04.03.2021
1862 Haze 27 1012 83 5000 2.06 0 17:46 04.03.2021
1863 Haze 27 1012 83 5000 3.09 130 17:28 04.03.2021
1864 Clouds 27 1012 83 6000 3.6 120 16:48 04.03.2021
1865 Clouds 27 1013 83 6000 1.54 0 16:29 04.03.2021
1866 Clouds 27 1013 89 6000 2.06 70 15:50 04.03.2021
1867 Clouds 27 1012 83 5000 2.57 70 15:32 04.03.2021
1868 Rain 28 1012 78 5000 2.57 50 14:50 04.03.2021
1869 Rain 28 1011 78 6000 2.06 40 14:31 04.03.2021
1870 Rain 28 1011 78 6000 2.57 0 13:50 04.03.2021
1871 Rain 28 1011 78 6000 1.54 0 13:32 04.03.2021
1872 Rain 29 1010 78 6000 2.06 10 12:58 04.03.2021
1873 Rain 29 1010 78 6000 2.06 10 12:39 04.03.2021
1874 Rain 30 1009 74 5000 3.09 360 11:47 04.03.2021
1875 Rain 30 1009 70 7000 3.6 340 11:26 04.03.2021
1876 Rain 29 1009 70 8000 3.6 340 10:55 04.03.2021
1877 Rain 29 1008 74 8000 6.69 340 10:31 04.03.2021
1878 Clouds 30 1008 66 9000 6.17 340 09:44 04.03.2021
1879 Rain 30 1008 66 9000 6.17 350 09:23 04.03.2021
1880 Clouds 30 1009 62 8000 5.66 350 08:36 04.03.2021
1881 Clouds 32 1010 62 8000 5.14 330 07:53 04.03.2021
1882 Clouds 34 1010 62 8000 4.12 320 07:29 04.03.2021
1883 Clouds 32 1011 62 7000 3.6 320 06:25 04.03.2021
1884 Clouds 31 1012 70 7000 4.12 280 05:39 04.03.2021
1885 Haze 27 1012 89 3300 1.54 0 01:44 04.03.2021
1886 Haze 27 1012 89 3300 1.54 0 01:44 04.03.2021
1887 Haze 27 1012 89 3300 1.54 0 01:44 04.03.2021
1888 Haze 27 1012 89 3300 1.54 0 01:44 04.03.2021
1889 Haze 27 1012 89 3300 1.54 0 01:44 04.03.2021
1890 Haze 26 1011 94 3000 2.57 0 22:45 03.03.2021
1891 Haze 26 1011 94 3000 2.06 0 22:26 03.03.2021
1892 Haze 26 1011 89 4000 2.57 0 21:45 03.03.2021
1893 Haze 26 1011 89 4000 2.57 0 21:45 03.03.2021
1894 Haze 26 1011 89 4000 1.54 0 21:24 03.03.2021
1895 Haze 26 1011 89 4700 2.06 0 20:59 03.03.2021
1896 Haze 26 1011 89 4700 2.06 0 20:41 03.03.2021
1897 Clouds 26 1011 83 6000 1.03 320 20:19 03.03.2021
1898 Clouds 27 1012 83 8000 1.54 220 19:41 03.03.2021
1899 Clouds 27 1012 83 8000 2.06 270 19:22 03.03.2021
1900 Clouds 27 1012 83 8000 3.09 290 18:48 03.03.2021
1901 Clouds 27 1012 83 7000 3.09 310 18:26 03.03.2021
1902 Haze 28 1013 78 3500 1.54 320 17:54 03.03.2021
1903 Clouds 28 1013 78 5000 2.06 280 17:20 03.03.2021
1904 Clouds 28 1012 78 6000 2.06 320 16:44 03.03.2021
1905 Haze 28 1012 74 2400 1.54 350 16:26 03.03.2021
1906 Clouds 28 1012 74 5000 1.54 350 15:45 03.03.2021
1907 Clouds 28 1011 74 7000 1.54 20 15:27 03.03.2021
1908 Rain 28 1011 74 8000 2.06 200 14:34 03.03.2021
1909 Rain 28 1010 74 8000 1.54 70 13:59 03.03.2021
1910 Rain 28 1010 74 8000 1.54 70 13:37 03.03.2021
1911 Rain 29 1010 70 8000 2.57 40 13:18 03.03.2021
1912 Rain 29 1010 74 8000 2.57 50 12:40 03.03.2021
1913 Clouds 29 1010 74 8000 3.09 20 12:22 03.03.2021
1914 Clouds 29 1009 74 9000 3.09 20 11:43 03.03.2021
1915 Clouds 30 1009 70 10000 2.57 10 11:21 03.03.2021
1916 Clouds 31 1008 70 10000 3.09 350 10:43 03.03.2021
1917 Clouds 32 1008 66 10000 4.12 350 10:20 03.03.2021
1918 Clouds 33 1008 66 10000 5.14 350 09:40 03.03.2021
1919 Clouds 31 1009 62 10000 5.14 360 08:49 03.03.2021
1920 Clouds 32 1009 66 10000 5.66 360 08:23 03.03.2021
1921 Clouds 32 1010 66 10000 5.66 340 07:53 03.03.2021
1922 Clouds 32 1010 66 10000 5.14 10 07:20 03.03.2021
1923 Clouds 34 1011 66 10000 4.12 340 06:19 03.03.2021
1924 Clouds 31 1011 70 10000 2.57 0 05:31 03.03.2021
1925 Clouds 33 1012 70 9000 3.09 330 04:36 03.03.2021
1926 Clouds 32 1012 74 8000 2.57 0 03:52 03.03.2021
1927 Mist 25 1010 94 5000 1.54 280 00:18 03.03.2021
1928 Rain 26 1010 94 6000 2.57 240 23:32 02.03.2021
1929 Rain 27 1010 94 5000 2.06 360 22:50 02.03.2021
1930 Clouds 26 1011 88 3500 4.12 30 22:21 02.03.2021
1931 Clouds 26 1011 88 3000 5.14 340 21:51 02.03.2021
1932 Clouds 27 1010 89 3500 2.06 0 21:32 02.03.2021
1933 Clouds 26 1010 94 4000 2.06 200 20:55 02.03.2021
1934 Clouds 27 1010 94 4000 2.06 200 20:37 02.03.2021
1935 Mist 27 1010 83 3000 1.03 20 20:19 02.03.2021
1936 Haze 27 1010 83 3000 1.03 30 19:46 02.03.2021
1937 Haze 26 1010 89 3000 1.03 40 19:26 02.03.2021
1938 Haze 27 1011 83 4000 1.03 20 18:41 02.03.2021
1939 Haze 27 1011 83 4000 1.03 320 18:21 02.03.2021
1940 Haze 27 1011 83 5000 1.03 310 17:57 02.03.2021
1941 Haze 27 1011 83 5000 1.03 310 17:38 02.03.2021
1942 Haze 27 1011 83 5000 1.03 250 17:18 02.03.2021
1943 Haze 27 1011 83 5000 1.03 250 16:44 02.03.2021
1944 Haze 28 1010 83 5000 2.57 160 15:54 02.03.2021
1945 Haze 28 1010 89 5000 1.54 0 15:27 02.03.2021
1946 Haze 28 1010 89 5000 2.06 240 14:44 02.03.2021
1947 Clouds 28 1010 89 6000 2.06 270 14:18 02.03.2021
1948 Clouds 28 1010 89 6000 2.06 270 14:18 02.03.2021
1949 Rain 28 1010 89 6000 2.06 290 13:44 02.03.2021
1950 Rain 28 1010 83 6000 1.03 310 13:23 02.03.2021
1951 Rain 28 1010 78 8000 1.54 290 12:45 02.03.2021
1952 Rain 29 1009 74 8000 1.54 320 12:25 02.03.2021
1953 Rain 29 1008 74 5000 2.06 350 11:45 02.03.2021
1954 Rain 30 1008 74 9000 3.09 350 11:22 02.03.2021
1955 Clouds 30 1008 74 8000 4.12 340 10:49 02.03.2021
1956 Rain 31 1008 74 10000 4.12 360 10:25 02.03.2021
1957 Clouds 32 1008 74 10000 4.12 360 09:41 02.03.2021
1958 Clouds 33 1008 74 10000 5.66 350 09:22 02.03.2021
1959 Clouds 32 1008 66 10000 4.63 350 08:43 02.03.2021
1960 Clouds 32 1009 70 10000 4.12 340 08:25 02.03.2021
1961 Clouds 32 1010 74 10000 4.63 350 07:41 02.03.2021
1962 Rain 31 1010 74 9000 3.6 350 06:37 02.03.2021
1963 Rain 32 1011 74 10000 1.03 0 05:47 02.03.2021
1964 Rain 30 1012 78 9000 1.54 0 05:29 02.03.2021
1965 Rain 28 1012 88 9000 2.06 0 02:35 02.03.2021
1966 Clouds 27 1011 88 8000 1.54 0 01:42 02.03.2021
1967 Rain 26 1011 88 8000 1.54 0 01:18 02.03.2021
1968 Clouds 26 1010 88 5000 1.54 210 23:29 01.03.2021
1969 Clouds 26 1009 88 6000 2.06 190 22:43 01.03.2021
1970 Clouds 26 1010 88 6000 2.57 240 22:24 01.03.2021
1971 Clouds 26 1010 89 6000 2.57 0 21:52 01.03.2021
1972 Clouds 26 1010 88 7000 1.03 0 21:24 01.03.2021
1973 Clouds 27 1010 88 6000 3.09 50 20:55 01.03.2021
1974 Rain 27 1010 88 6000 3.09 50 20:37 01.03.2021
1975 Rain 27 1010 94 3500 2.57 90 20:18 01.03.2021
1976 Rain 28 1010 89 10000 3.09 230 19:41 01.03.2021
1977 Rain 27 1011 89 3000 2.57 120 19:18 01.03.2021
1978 Clouds 27 1011 89 5000 2.06 190 18:37 01.03.2021
1979 Clouds 27 1011 89 4000 1.03 150 18:19 01.03.2021
1980 Clouds 27 1011 89 6000 2.06 0 17:42 01.03.2021
1981 Clouds 28 1011 89 6000 2.06 0 17:19 01.03.2021
1982 Clouds 28 1011 83 7000 1.03 200 16:45 01.03.2021
1983 Clouds 28 1011 83 7000 1.03 160 16:26 01.03.2021
1984 Clouds 28 1011 83 7000 1.03 160 16:26 01.03.2021
1985 Clouds 28 1011 83 5000 0.51 0 15:42 01.03.2021
1986 Clouds 28 1011 83 5000 1.03 0 15:22 01.03.2021
1987 Rain 28 1011 83 6000 1.03 0 14:55 01.03.2021
1988 Rain 28 1011 83 6000 1.03 0 14:36 01.03.2021
1989 Rain 28 1010 83 6000 1.54 40 13:44 01.03.2021
1990 Rain 28 1009 83 6000 1.03 0 13:25 01.03.2021
1991 Rain 28 1009 78 6000 2.06 20 12:59 01.03.2021
1992 Rain 28 1009 78 6000 2.06 20 12:40 01.03.2021
1993 Rain 28 1009 78 6000 3.09 350 12:19 01.03.2021
1994 Rain 29 1008 78 5000 2.57 0 11:45 01.03.2021
1995 Rain 30 1008 74 7000 3.6 350 10:57 01.03.2021
1996 Rain 30 1008 74 7000 3.6 350 10:36 01.03.2021
1997 Rain 31 1008 66 9000 5.14 350 10:18 01.03.2021
1998 Rain 32 1008 66 9000 6.17 340 09:44 01.03.2021
1999 Rain 33 1008 66 10000 5.66 340 09:23 01.03.2021
2000 Clouds 33 1008 66 10000 5.66 340 08:53 01.03.2021
2001 Clouds 32 1008 70 10000 5.14 320 08:22 01.03.2021
2002 Clouds 32 1008 70 10000 5.14 320 08:22 01.03.2021
2003 Clouds 32 1010 70 10000 4.12 340 06:54 01.03.2021
2004 Clouds 32 1010 74 10000 6.17 340 06:24 01.03.2021
2005 Clouds 29 1011 66 10000 4.12 250 02:37 01.03.2021
2006 Clouds 26 1010 83 7000 3.09 270 23:41 28.02.2021
2007 Clouds 26 1010 83 7000 3.09 250 22:56 28.02.2021
2008 Clouds 26 1009 83 7000 3.6 260 22:26 28.02.2021
2009 Clouds 27 1009 83 7000 3.6 260 21:55 28.02.2021
2010 Clouds 26 1009 83 7000 3.6 260 21:33 28.02.2021
2011 Clouds 26 1010 83 6000 4.12 260 20:59 28.02.2021
2012 Clouds 26 1010 83 6000 4.12 260 20:38 28.02.2021
2013 Clouds 26 1010 83 6000 4.12 260 20:38 28.02.2021
2014 Clouds 26 1010 83 6000 4.12 240 20:18 28.02.2021
2015 Clouds 26 1010 83 6000 4.12 240 20:18 28.02.2021
2016 Clouds 27 1010 78 6000 3.6 230 19:45 28.02.2021
2017 Clouds 27 1010 78 6000 3.6 230 19:45 28.02.2021
2018 Clouds 27 1010 74 6000 3.09 250 19:24 28.02.2021
2019 Rain 28 1010 78 6000 2.06 260 18:43 28.02.2021
2020 Clouds 28 1010 78 5000 2.57 260 18:25 28.02.2021
2021 Rain 28 1011 78 6000 3.09 260 17:51 28.02.2021
2022 Clouds 28 1011 78 6000 3.09 260 17:28 28.02.2021
2023 Clouds 28 1011 74 6000 2.57 260 16:56 28.02.2021
2024 Rain 28 1011 74 6000 3.6 230 16:38 28.02.2021
2025 Clouds 28 1011 74 6000 3.6 230 16:18 28.02.2021
2026 Clouds 28 1011 74 6000 2.06 260 15:47 28.02.2021
2027 Clouds 28 1011 78 6000 2.57 260 15:24 28.02.2021
2028 Rain 28 1010 78 6000 3.09 250 14:52 28.02.2021
2029 Clouds 29 1010 74 7000 4.63 230 14:29 28.02.2021
2030 Clouds 29 1010 65 8000 4.63 250 13:52 28.02.2021
2031 Rain 30 1009 61 9000 5.14 240 13:21 28.02.2021
2032 Rain 30 1009 61 10000 3.6 250 12:57 28.02.2021
2033 Rain 30 1009 61 10000 3.6 250 12:39 28.02.2021
2034 Rain 30 1009 62 10000 5.66 230 12:20 28.02.2021
2035 Rain 30 1008 66 10000 4.63 250 11:52 28.02.2021
2036 Rain 31 1007 62 10000 6.17 240 11:26 28.02.2021
2037 Clouds 31 1007 62 10000 5.14 250 10:57 28.02.2021
2038 Clouds 33 1007 52 10000 6.69 240 10:29 28.02.2021
2039 Clouds 34 1007 52 10000 7.72 270 09:57 28.02.2021
2040 Clouds 33 1007 52 10000 7.72 270 09:35 28.02.2021
2041 Clouds 34 1007 52 10000 6.17 270 08:55 28.02.2021
2042 Clouds 33 1007 52 10000 6.17 270 08:33 28.02.2021
2043 Clouds 33 1008 55 10000 6.17 240 07:59 28.02.2021
2044 Clouds 32 1008 55 10000 6.17 240 07:39 28.02.2021
2045 Clouds 32 1009 70 10000 6.17 270 07:19 28.02.2021
2046 Clouds 32 1010 58 10000 6.17 260 06:23 28.02.2021
2047 Clouds 31 1011 70 10000 4.12 250 03:46 28.02.2021
2048 Clouds 29 1010 74 7000 2.57 210 02:25 28.02.2021
2049 Haze 29 1009 78 5000 1.03 0 01:20 28.02.2021
2050 Haze 26 1009 83 5000 1.03 310 00:38 28.02.2021
2051 Clouds 26 1009 78 6000 0.51 0 23:50 27.02.2021
2052 Clouds 26 1009 78 6000 0.51 240 23:21 27.02.2021
2053 Clouds 26 1008 78 6000 2.06 240 22:50 27.02.2021
2054 Clouds 27 1008 74 6000 2.06 220 22:23 27.02.2021
2055 Clouds 27 1008 78 6000 0.51 0 21:58 27.02.2021
2056 Clouds 27 1008 78 6000 0.51 0 21:37 27.02.2021
2057 Clouds 28 1009 74 6000 3.09 230 20:55 27.02.2021
2058 Clouds 28 1009 74 6000 3.09 230 20:37 27.02.2021
2059 Haze 28 1009 74 5000 3.09 230 20:18 27.02.2021
2060 Haze 27 1009 74 5000 2.57 230 19:41 27.02.2021
2061 Haze 27 1009 74 5000 2.06 240 19:23 27.02.2021
2062 Haze 28 1010 69 3100 2.06 260 18:39 27.02.2021
2063 Haze 28 1010 83 3400 1.03 0 18:19 27.02.2021
2064 Haze 29 1010 78 3400 1.03 270 17:43 27.02.2021
2065 Haze 29 1010 78 2700 0.51 0 17:20 27.02.2021
2066 Haze 29 1010 83 2500 1.54 290 16:51 27.02.2021
2067 Haze 29 1010 83 4000 2.57 0 16:31 27.02.2021
2068 Haze 29 1010 78 2400 1.54 250 15:53 27.02.2021
2069 Haze 29 1010 78 2400 1.54 250 15:33 27.02.2021
2070 Haze 28 1009 78 2600 0.51 20 14:48 27.02.2021
2071 Haze 30 1008 74 3400 1.03 40 14:30 27.02.2021
2072 Haze 30 1008 74 4300 1.03 30 13:49 27.02.2021
2073 Clouds 29 1007 78 7000 1.54 40 13:27 27.02.2021
2074 Clouds 29 1007 74 7000 2.57 40 12:52 27.02.2021
2075 Clouds 30 1007 74 7000 1.54 30 12:28 27.02.2021
2076 Clouds 30 1006 70 7000 2.06 10 11:56 27.02.2021
2077 Clouds 30 1006 70 7000 2.06 10 11:38 27.02.2021
2078 Clouds 32 1005 70 10000 2.57 0 11:18 27.02.2021
2079 Clouds 31 1005 66 10000 2.06 10 10:41 27.02.2021
2080 Clouds 31 1006 70 10000 3.09 360 10:18 27.02.2021
2081 Clouds 31 1006 70 10000 3.09 360 10:18 27.02.2021
2082 Clouds 32 1006 66 10000 3.09 10 09:44 27.02.2021
2083 Clouds 32 1006 66 10000 3.6 350 09:25 27.02.2021
2084 Clouds 32 1007 66 10000 3.6 360 08:39 27.02.2021
2085 Clouds 32 1007 66 10000 4.63 350 08:20 27.02.2021
2086 Clouds 32 1007 66 9000 5.14 360 07:36 27.02.2021
2087 Clouds 29 1009 78 8000 2.06 0 03:28 27.02.2021
2088 Haze 25 1008 88 5000 1.03 0 00:37 27.02.2021
2089 Haze 25 1008 94 4000 3.6 220 23:51 26.02.2021
2090 Haze 25 1008 94 4000 3.09 220 23:26 26.02.2021
2091 Clouds 26 1008 94 3000 3.09 240 22:44 26.02.2021
2092 Clouds 26 1008 94 3000 3.6 230 22:23 26.02.2021
2093 Haze 26 1007 88 4000 3.09 50 21:42 26.02.2021
2094 Clouds 26 1008 83 4000 4.63 240 21:19 26.02.2021
2095 Clouds 27 1008 88 4000 2.06 0 20:44 26.02.2021
2096 Clouds 27 1008 88 4000 2.06 0 20:44 26.02.2021
2097 Clouds 27 1008 88 4000 1.54 0 20:21 26.02.2021
2098 Clouds 26 1008 83 4000 4.12 100 19:42 26.02.2021
2099 Clouds 27 1009 83 4000 3.6 40 19:22 26.02.2021
2100 Clouds 27 1009 83 5000 3.6 120 18:42 26.02.2021
2101 Clouds 27 1009 89 5000 3.6 110 18:21 26.02.2021
2102 Clouds 27 1009 89 5000 4.12 90 17:40 26.02.2021
2103 Clouds 27 1009 89 5000 3.6 90 17:22 26.02.2021
2104 Clouds 27 1009 89 5000 2.57 90 16:52 26.02.2021
2105 Clouds 28 1009 83 5000 3.09 110 16:31 26.02.2021
2106 Clouds 28 1009 83 6000 2.57 90 15:57 26.02.2021
2107 Clouds 28 1009 83 6000 2.57 90 15:37 26.02.2021
2108 Clouds 28 1009 89 6000 1.54 90 15:19 26.02.2021
2109 Clouds 27 1008 83 6000 2.06 70 14:44 26.02.2021
2110 Clouds 27 1008 83 6000 2.57 80 14:24 26.02.2021
2111 Clouds 27 1007 83 6000 2.06 60 13:39 26.02.2021
2112 Clouds 28 1007 78 6000 2.57 40 13:20 26.02.2021
2113 Clouds 28 1006 78 10000 3.6 50 12:38 26.02.2021
2114 Clouds 29 1006 74 9000 4.12 50 11:51 26.02.2021
2115 Clouds 29 1006 74 9000 4.12 50 11:51 26.02.2021
2116 Clouds 29 1006 74 9000 4.12 40 11:33 26.02.2021
2117 Rain 29 1005 74 9000 4.12 30 10:46 26.02.2021
2118 Rain 30 1006 74 10000 4.12 350 09:55 26.02.2021
2119 Rain 31 1006 74 10000 5.14 360 09:31 26.02.2021
2120 Rain 31 1006 74 10000 6.69 350 08:56 26.02.2021
2121 Clouds 31 1006 66 10000 6.17 350 08:25 26.02.2021
2122 Clouds 30 1007 74 10000 6.69 340 07:49 26.02.2021
2123 Rain 30 1008 70 8000 4.63 360 06:36 26.02.2021
2124 Rain 29 1009 78 8000 3.09 360 05:31 26.02.2021
2125 Clouds 28 1008 74 8000 1.03 0 03:48 26.02.2021
2126 Clouds 27 1008 78 6000 2.06 170 02:35 26.02.2021
2127 Rain 25 1007 88 5000 1.54 150 23:57 25.02.2021
2128 Rain 25 1006 94 5000 1.54 130 23:28 25.02.2021
2129 Rain 25 1006 94 5000 1.54 160 22:50 25.02.2021
2130 Rain 25 1006 94 5000 1.54 160 22:50 25.02.2021
2131 Rain 25 1006 94 5000 1.03 0 22:19 25.02.2021
2132 Rain 25 1006 94 5000 0.88 131 21:44 25.02.2021
2133 Rain 25 1006 94 5000 1.03 0 21:26 25.02.2021
2134 Rain 25 1006 94 5000 1.03 200 20:41 25.02.2021
2135 Rain 25 1007 94 8000 2.06 20 20:22 25.02.2021
2136 Rain 25 1007 88 7000 2.06 50 19:52 25.02.2021
2137 Rain 26 1007 94 6000 2.06 330 19:22 25.02.2021
2138 Rain 25 1007 94 6000 3.09 330 18:58 25.02.2021
2139 Rain 27 1009 84 4261 0.89 45 18:27 25.02.2021
2140 Clouds 27 1007 89 4900 1.03 0 17:50 25.02.2021
2141 Clouds 28 1005 99 4617 2.21 25 17:27 25.02.2021
2142 Clouds 28 1005 99 4617 2.21 25 16:48 25.02.2021
2143 Clouds 28 1005 99 10000 1.68 10 16:25 25.02.2021
2144 Clouds 28 1005 99 10000 1.68 10 15:31 25.02.2021
2145 Clouds 28 1005 99 4493 1.93 349 14:58 25.02.2021
2146 Clouds 28 1004 99 3826 2.31 345 14:26 25.02.2021
2147 Clouds 27 1006 83 7000 3.6 10 13:55 25.02.2021
2148 Clouds 28 1006 78 7000 3.6 20 13:27 25.02.2021
2149 Clouds 28 1006 78 7000 3.6 10 12:56 25.02.2021
2150 Clouds 28 1005 78 8000 3.6 10 12:22 25.02.2021
2151 Clouds 29 1004 74 8000 4.12 10 11:47 25.02.2021
2152 Clouds 29 1004 74 8000 3.6 360 11:21 25.02.2021
2153 Clouds 29 1004 74 9000 3.6 340 10:46 25.02.2021
2154 Clouds 29 1004 74 9000 4.12 350 10:26 25.02.2021
2155 Rain 29 1004 74 10000 4.63 340 09:43 25.02.2021
2156 Rain 30 1005 70 10000 6.17 350 08:56 25.02.2021
2157 Clouds 31 1005 70 10000 4.63 340 08:25 25.02.2021
2158 Clouds 31 1005 70 10000 7.2 350 07:56 25.02.2021
2159 Clouds 30 1005 70 10000 7.2 350 07:34 25.02.2021
2160 Clouds 31 1006 70 10000 7.2 340 06:55 25.02.2021
2161 Rain 27 1005 99 8162 5.65 304 02:39 25.02.2021
2162 Clouds 25 1004 99 8574 4.66 299 01:38 25.02.2021
2163 Rain 25 1004 99 8598 4.07 300 00:42 25.02.2021
2164 Clouds 25 1004 99 9633 4.26 299 23:53 24.02.2021
2165 Clouds 25 1004 99 10000 4.3 289 23:28 24.02.2021
2166 Clouds 25 1003 99 10000 4.3 289 22:45 24.02.2021
2167 Clouds 25 1003 99 10000 4.64 279 22:25 24.02.2021
2168 Clouds 25 1003 99 10000 4.64 279 21:46 24.02.2021
2169 Clouds 25 1003 99 10000 4.83 270 20:59 24.02.2021
2170 Clouds 25 1003 99 10000 4.83 270 20:40 24.02.2021
2171 Clouds 25 1003 99 10000 4.96 263 20:20 24.02.2021
2172 Clouds 25 1004 99 10000 5.01 264 19:29 24.02.2021
2173 Clouds 25 1004 99 10000 5.37 262 18:59 24.02.2021
2174 Clouds 25 1005 99 10000 5.37 262 18:39 24.02.2021
2175 Clouds 25 1005 99 10000 5.15 264 18:21 24.02.2021
2176 Clouds 26 1005 99 10000 5.15 264 17:38 24.02.2021
2177 Clouds 25 1005 99 10000 5.12 252 17:18 24.02.2021
2178 Clouds 25 1005 99 10000 5.12 252 16:43 24.02.2021
2179 Clouds 25 1005 99 10000 5.58 250 16:19 24.02.2021
2180 Rain 26 1005 99 10000 5.58 250 15:40 24.02.2021
2181 Rain 25 1005 99 10000 5.51 254 14:57 24.02.2021
2182 Rain 25 1005 99 10000 5.51 254 14:35 24.02.2021
2183 Rain 25 1007 94 6000 3.09 280 13:59 24.02.2021
2184 Rain 26 1007 94 6000 3.09 280 13:39 24.02.2021
2185 Rain 25 1007 94 6000 3.09 280 13:21 24.02.2021
2186 Rain 25 1007 94 6000 4.63 310 12:44 24.02.2021
2187 Clouds 26 1007 88 1800 7.72 260 12:24 24.02.2021
2188 Rain 27 1004 99 10000 6.43 252 11:47 24.02.2021
2189 Rain 28 1005 74 7000 7.2 300 10:57 24.02.2021
2190 Clouds 29 1005 74 10000 4.63 290 10:32 24.02.2021
2191 Clouds 29 1005 74 9000 4.12 280 09:46 24.02.2021
2192 Rain 28 1005 83 9000 6.17 290 09:20 24.02.2021
2193 Clouds 29 1006 78 9000 8.23 310 08:34 24.02.2021
2194 Clouds 30 1006 70 9000 6.17 310 07:57 24.02.2021
2195 Clouds 28 1007 78 8000 8.23 280 07:20 24.02.2021
2196 Clouds 30 1007 62 10000 7.72 270 06:31 24.02.2021
2197 Clouds 29 1009 83 8000 4.12 260 03:31 24.02.2021
2198 Clouds 25 1008 88 7000 3.6 260 00:26 24.02.2021
2199 Clouds 26 1008 83 7000 4.63 250 23:29 23.02.2021
2200 Rain 26 1008 83 7000 5.66 260 22:40 23.02.2021
2201 Rain 26 1008 83 7000 7.2 250 22:20 23.02.2021
2202 Clouds 27 1007 83 7000 4.12 230 21:44 23.02.2021
2203 Rain 27 1007 83 7000 4.63 240 21:24 23.02.2021
2204 Clouds 26 1008 88 7000 3.09 270 20:48 23.02.2021
2205 Clouds 26 1008 88 7000 3.09 270 20:29 23.02.2021
2206 Clouds 26 1008 88 7000 3.09 290 19:48 23.02.2021
2207 Clouds 26 1009 83 8000 3.6 270 19:28 23.02.2021
2208 Clouds 26 1009 83 9000 5.14 250 18:58 23.02.2021
2209 Rain 27 1009 83 9000 5.14 250 18:39 23.02.2021
2210 Clouds 27 1009 78 9000 3.6 260 18:18 23.02.2021
2211 Clouds 27 1009 78 8000 5.14 260 17:39 23.02.2021
2212 Clouds 27 1009 83 8000 5.14 270 16:56 23.02.2021
2213 Clouds 27 1009 83 8000 5.14 270 16:36 23.02.2021
2214 Clouds 27 1009 83 8000 5.14 250 16:18 23.02.2021
2215 Rain 27 1009 83 8000 3.6 260 15:40 23.02.2021
2216 Rain 28 1009 78 8000 3.6 270 15:21 23.02.2021
2217 Rain 28 1009 78 7000 4.12 260 14:44 23.02.2021
2218 Rain 28 1009 78 7000 4.63 260 14:25 23.02.2021
2219 Clouds 28 1008 74 7000 5.66 270 13:47 23.02.2021
2220 Clouds 28 1008 74 7000 4.63 280 13:26 23.02.2021
2221 Rain 28 1007 74 7000 6.17 280 12:52 23.02.2021
2222 Rain 28 1007 74 8000 5.14 280 12:22 23.02.2021
2223 Rain 29 1007 65 8000 5.66 280 11:50 23.02.2021
2224 Rain 30 1007 69 8000 5.14 290 11:23 23.02.2021
2225 Rain 29 1006 78 8000 6.69 290 10:52 23.02.2021
2226 Rain 29 1006 78 8000 6.69 290 10:34 23.02.2021
2227 Rain 29 1006 94 1800 5.14 60 09:45 23.02.2021
2228 Rain 28 1006 94 1800 5.14 60 09:25 23.02.2021
2229 Clouds 30 1006 94 1800 5.14 60 08:54 23.02.2021
2230 Clouds 31 1006 74 1000 5.14 140 08:25 23.02.2021
2231 Rain 33 1006 74 5000 5.14 330 07:58 23.02.2021
2232 Clouds 32 1008 55 6000 3.09 280 05:40 23.02.2021
2233 Clouds 31 1008 55 6000 3.09 280 05:19 23.02.2021
2234 Haze 28 1010 94 3000 1.54 220 02:34 23.02.2021
2235 Haze 25 1009 94 3000 2.06 180 00:54 23.02.2021
2236 Mist 25 1009 100 3000 1.54 250 00:18 23.02.2021
2237 Mist 26 1008 100 3000 2.57 240 23:21 22.02.2021
2238 Haze 26 1008 94 4000 2.06 250 22:41 22.02.2021
2239 Haze 26 1008 94 4000 2.06 250 22:20 22.02.2021
2240 Haze 26 1008 94 4000 2.06 240 21:45 22.02.2021
2241 Clouds 27 1006 99 10000 2.57 279 21:23 22.02.2021
2242 Clouds 27 1006 99 10000 2.57 279 20:52 22.02.2021
2243 Clouds 27 1006 99 10000 2.56 286 20:29 22.02.2021
2244 Clouds 27 1006 99 10000 2.56 286 19:54 22.02.2021
2245 Clouds 27 1007 99 10000 2.56 286 19:35 22.02.2021
2246 Clouds 27 1007 99 10000 1.93 295 18:58 22.02.2021
2247 Clouds 27 1007 99 10000 1.93 295 18:40 22.02.2021
2248 Clouds 28 1007 99 10000 1.83 303 18:20 22.02.2021
2249 Haze 27 1011 94 4000 1.95 317 17:27 22.02.2021
2250 Haze 27 1011 94 4000 1.95 317 16:57 22.02.2021
2251 Haze 27 1011 94 4000 1.95 317 16:39 22.02.2021
2252 Haze 27 1011 94 4000 1.54 180 15:56 22.02.2021
2253 Haze 28 1011 94 4000 1.54 160 15:29 22.02.2021
2254 Haze 28 1010 94 4000 2.61 327 14:48 22.02.2021
2255 Haze 28 1010 89 4000 1.54 160 14:30 22.02.2021
2256 Haze 28 1010 89 4000 1.54 140 13:47 22.02.2021
2257 Rain 28 1009 89 4000 1.54 50 13:19 22.02.2021
2258 Rain 29 1009 78 5000 2.57 360 12:40 22.02.2021
2259 Clouds 29 1009 78 5000 2.57 360 12:20 22.02.2021
2260 Haze 29 1008 74 5000 2.06 310 11:44 22.02.2021
2261 Clouds 30 1008 70 6000 3.6 320 11:25 22.02.2021
2262 Clouds 30 1007 66 6000 2.06 350 10:47 22.02.2021
2263 Clouds 31 1007 66 6000 3.09 300 10:26 22.02.2021
2264 Clouds 30 1007 66 6000 3.09 330 09:45 22.02.2021
2265 Clouds 31 1008 66 6000 3.09 360 09:25 22.02.2021
2266 Clouds 32 1008 62 6000 3.6 310 08:51 22.02.2021
2267 Clouds 31 1008 62 6000 3.6 340 08:29 22.02.2021
2268 Haze 31 1008 66 5000 2.57 310 07:57 22.02.2021
2269 Haze 31 1009 70 5000 2.57 320 07:26 22.02.2021
2270 Haze 30 1009 70 5000 2.57 320 06:44 22.02.2021
2271 Haze 31 1011 70 5000 2.57 360 05:42 22.02.2021
2272 Haze 30 1012 74 4000 1.54 250 03:29 22.02.2021
2273 Haze 29 1012 78 4000 1.54 290 02:49 22.02.2021
2274 Haze 25 1010 88 4000 1.54 240 00:45 22.02.2021
2275 Haze 25 1010 88 4000 1.54 240 00:22 22.02.2021
2276 Haze 25 1010 88 4000 0.44 261 23:30 21.02.2021
2277 Haze 25 1009 88 4000 1.54 140 22:53 21.02.2021
2278 Haze 25 1009 88 4000 1.54 140 22:23 21.02.2021
2279 Clouds 25 1007 99 10000 0.72 341 21:43 21.02.2021
2280 Clouds 25 1007 99 10000 1.37 353 21:24 21.02.2021
2281 Haze 26 1010 89 5000 1.54 0 20:44 21.02.2021
2282 Haze 26 1010 83 5000 1.03 0 20:20 21.02.2021
2283 Haze 26 1010 83 5000 1.03 0 19:53 21.02.2021
2284 Haze 26 1010 83 5000 1.03 40 19:33 21.02.2021
2285 Clouds 26 1010 83 6000 1.03 0 18:52 21.02.2021
2286 Clouds 26 1011 83 6000 1.03 290 18:26 21.02.2021
2287 Clouds 26 1011 83 6000 1.03 290 18:26 21.02.2021
2288 Clouds 26 1011 83 6000 1.54 60 17:33 21.02.2021
2289 Clouds 27 1011 78 7000 2.06 60 16:59 21.02.2021
2290 Clouds 27 1011 78 7000 2.06 60 16:39 21.02.2021
2291 Clouds 27 1011 78 7000 2.06 0 16:20 21.02.2021
2292 Clouds 27 1011 78 8000 2.06 100 15:23 21.02.2021
2293 Clouds 27 1011 83 8000 1.03 0 14:56 21.02.2021
2294 Clouds 28 1010 69 6000 2.06 340 14:37 21.02.2021
2295 Clouds 28 1010 69 6000 2.06 340 13:49 21.02.2021
2296 Clouds 28 1010 69 6000 2.06 340 13:28 21.02.2021
2297 Clouds 29 1009 62 6000 2.57 10 12:32 21.02.2021
2298 Clouds 30 1009 58 6000 2.06 10 11:59 21.02.2021
2299 Clouds 30 1008 62 6000 3.6 350 11:40 21.02.2021
2300 Clouds 31 1008 58 6000 2.57 10 10:46 21.02.2021
2301 Clouds 31 1008 62 6000 3.09 360 10:21 21.02.2021
2302 Clouds 30 1008 62 6000 3.09 350 09:43 21.02.2021
2303 Clouds 31 1008 62 6000 3.09 350 09:24 21.02.2021
2304 Clouds 31 1009 58 6000 2.57 330 08:36 21.02.2021
2305 Clouds 31 1009 54 10000 5.36 333 07:57 21.02.2021
2306 Clouds 31 1010 62 6000 4.12 340 07:22 21.02.2021
2307 Clouds 32 1011 66 6000 4.12 360 06:24 21.02.2021
2308 Haze 27 1012 94 4000 3.09 220 02:42 21.02.2021
2309 Rain 25 1012 100 3000 1.54 180 01:20 21.02.2021
2310 Rain 25 1011 100 4000 1.54 190 00:21 21.02.2021
2311 Rain 25 1011 100 3000 1.54 300 23:47 20.02.2021
2312 Rain 25 1010 100 3000 1.54 280 22:58 20.02.2021
2313 Rain 25 1010 100 3000 1.54 190 22:33 20.02.2021
2314 Rain 25 1010 94 4500 2.57 250 21:57 20.02.2021
2315 Rain 25 1010 94 4500 2.57 250 21:39 20.02.2021
2316 Rain 26 1010 89 5000 3.09 260 21:18 20.02.2021
2317 Clouds 25 1010 94 5000 2.57 260 20:38 20.02.2021
2318 Rain 25 1010 94 6000 2.06 0 20:19 20.02.2021
2319 Rain 25 1011 94 6000 1.54 0 19:41 20.02.2021
2320 Rain 25 1011 94 4000 1.54 240 18:55 20.02.2021
2321 Haze 25 1011 94 4000 1.54 240 18:33 20.02.2021
2322 Haze 25 1011 94 4000 1.54 240 18:33 20.02.2021
2323 Haze 25 1012 94 4000 1.54 190 17:59 20.02.2021
2324 Rain 25 1012 94 3000 1.54 180 17:33 20.02.2021
2325 Clouds 25 1012 94 3000 2.06 230 16:49 20.02.2021
2326 Rain 25 1012 100 3000 1.54 190 16:26 20.02.2021
2327 Rain 26 1012 100 4000 1.54 160 15:42 20.02.2021
2328 Haze 26 1011 94 4000 1.54 140 14:53 20.02.2021
2329 Clouds 27 1011 94 3000 1.54 150 14:27 20.02.2021
2330 Clouds 27 1011 89 4000 2.73 37 13:58 20.02.2021
2331 Clouds 28 1010 83 5000 2.06 70 13:39 20.02.2021
2332 Clouds 28 1010 83 5000 2.06 70 13:21 20.02.2021
2333 Clouds 28 1010 83 5000 2.06 70 13:21 20.02.2021
2334 Haze 28 1010 78 5000 1.54 20 12:44 20.02.2021
2335 Haze 28 1009 74 5000 2.06 350 11:56 20.02.2021
2336 Haze 29 1009 78 5000 2.06 360 11:36 20.02.2021
2337 Haze 29 1008 74 5000 1.54 300 10:53 20.02.2021
2338 Haze 30 1008 70 5000 2.57 350 10:29 20.02.2021
2339 Haze 30 1008 70 5000 3.09 340 09:48 20.02.2021
2340 Haze 30 1009 70 5000 3.09 350 08:56 20.02.2021
2341 Haze 29 1009 74 5000 2.57 300 08:27 20.02.2021
2342 Haze 29 1009 74 5000 2.57 300 07:50 20.02.2021
2343 Mist 26 1012 94 2000 1.54 240 02:37 20.02.2021
2344 Mist 26 1012 94 2000 1.54 240 02:19 20.02.2021
2345 Clouds 26 1011 94 2000 2.06 260 01:20 20.02.2021
2346 Rain 25 1010 94 2000 2.06 220 00:42 20.02.2021
2347 Rain 25 1010 100 2000 1.54 250 23:42 19.02.2021
2348 Rain 25 1009 100 2000 2.57 220 22:51 19.02.2021
2349 Rain 25 1009 100 2000 2.57 220 22:26 19.02.2021
2350 Rain 26 1009 83 5000 5.66 330 21:47 19.02.2021
2351 Rain 26 1009 83 5000 5.14 330 21:28 19.02.2021
2352 Rain 25 1009 89 5000 4.12 330 20:47 19.02.2021
2353 Rain 25 1010 94 5000 3.09 360 20:27 19.02.2021
2354 Rain 25 1010 94 3000 5.14 340 19:50 19.02.2021
2355 Rain 25 1010 89 5000 4.63 250 19:20 19.02.2021
2356 Rain 24 1008 99 5597 4.52 314 18:54 19.02.2021
2357 Rain 25 1011 94 2000 3.09 140 18:31 19.02.2021
2358 Rain 25 1011 94 2000 3.09 140 17:45 19.02.2021
2359 Clouds 25 1011 94 2000 3.6 150 16:50 19.02.2021
2360 Haze 26 1012 89 3000 2.06 160 16:23 19.02.2021
2361 Haze 26 1012 89 3000 2.06 150 15:57 19.02.2021
2362 Haze 26 1011 83 3000 1.91 333 15:30 19.02.2021
2363 Haze 26 1011 83 4000 0.7 44 14:56 19.02.2021
2364 Haze 27 1010 83 5000 0.7 44 14:36 19.02.2021
2365 Haze 27 1010 83 5000 0.79 54 13:57 19.02.2021
2366 Haze 27 1010 83 5000 2.06 350 13:37 19.02.2021
2367 Haze 27 1009 70 5000 1.54 320 12:59 19.02.2021
2368 Haze 27 1009 74 5000 2.06 340 12:41 19.02.2021
2369 Haze 28 1009 74 5000 2.06 340 12:22 19.02.2021
2370 Haze 28 1009 78 5000 2.57 270 11:44 19.02.2021
2371 Haze 28 1009 74 5000 3.09 290 11:20 19.02.2021
2372 Haze 28 1009 74 5000 2.57 330 10:39 19.02.2021
2373 Haze 28 1009 74 5000 2.57 330 10:19 19.02.2021
2374 Haze 28 1009 74 5000 2.57 300 09:38 19.02.2021
2375 Haze 28 1009 74 5000 2.57 300 09:19 19.02.2021
2376 Haze 28 1009 74 4000 3.09 290 08:49 19.02.2021
2377 Haze 28 1009 69 4000 4.12 340 08:21 19.02.2021
2378 Haze 28 1010 74 4000 3.6 300 07:47 19.02.2021
2379 Haze 28 1010 74 4000 3.6 320 07:26 19.02.2021
2380 Haze 28 1011 74 4000 2.57 270 06:47 19.02.2021
2381 Haze 28 1012 89 3000 2.06 230 04:42 19.02.2021
2382 Rain 26 1013 94 3000 2.06 290 03:32 19.02.2021
2383 Rain 24 1011 94 2500 1.54 280 01:46 19.02.2021
2384 Rain 24 1011 94 1500 1.54 310 00:36 19.02.2021
2385 Rain 25 1010 100 2000 2.06 260 23:50 18.02.2021
2386 Rain 25 1010 100 2000 2.06 260 23:32 18.02.2021
2387 Rain 24 1010 94 500 2.06 40 22:44 18.02.2021
2388 Rain 25 1010 94 500 2.06 40 22:26 18.02.2021
2389 Rain 25 1009 88 7000 6.17 330 21:42 18.02.2021
2390 Rain 24 1009 94 6000 4.63 330 21:24 18.02.2021
2391 Rain 25 1009 88 6000 5.14 330 20:41 18.02.2021
2392 Rain 25 1010 88 4000 5.66 350 20:21 18.02.2021
2393 Rain 25 1010 88 5000 2.06 260 19:46 18.02.2021
2394 Clouds 25 1010 88 7000 2.06 290 19:25 18.02.2021
2395 Clouds 25 1011 88 7000 1.54 300 18:52 18.02.2021
2396 Clouds 25 1011 88 7000 2.57 340 18:27 18.02.2021
2397 Clouds 25 1011 88 6999 1.03 0 17:52 18.02.2021
2398 Clouds 25 1011 88 6000 1.03 0 17:25 18.02.2021
2399 Clouds 25 1011 88 6000 1.03 0 17:25 18.02.2021
2400 Clouds 25 1012 94 6000 1.54 210 16:52 18.02.2021
2401 Clouds 25 1012 94 6000 1.54 210 16:33 18.02.2021
2402 Clouds 25 1011 94 6000 2.06 180 15:44 18.02.2021
2403 Clouds 25 1011 88 4000 2.57 170 15:24 18.02.2021
2404 Rain 25 1011 88 5000 2.57 170 14:58 18.02.2021
2405 Rain 25 1010 100 4000 1.54 190 14:36 18.02.2021
2406 Rain 25 1010 100 4000 1.54 190 13:58 18.02.2021
2407 Rain 25 1010 100 4000 1.54 190 13:40 18.02.2021
2408 Rain 25 1010 100 4000 1.54 190 13:18 18.02.2021
2409 Rain 25 1009 100 3000 1.54 210 12:41 18.02.2021
2410 Rain 25 1009 100 3000 1.54 210 12:18 18.02.2021
2411 Rain 25 1009 100 3000 2.06 230 11:46 18.02.2021
2412 Rain 25 1009 94 3000 1.54 270 11:25 18.02.2021
2413 Rain 25 1008 94 3000 1.54 270 10:44 18.02.2021
2414 Rain 24 1009 94 3000 1.54 240 10:25 18.02.2021
2415 Rain 24 1009 100 3000 1.54 260 09:39 18.02.2021
2416 Rain 25 1009 100 3000 1.54 260 09:20 18.02.2021
2417 Rain 25 1010 94 2000 1.54 360 08:39 18.02.2021
2418 Rain 24 1010 94 2000 1.54 360 08:20 18.02.2021
2419 Rain 27 1010 89 2000 2.06 300 07:31 18.02.2021
2420 Clouds 30 1010 78 3000 2.57 360 06:40 18.02.2021
2421 Clouds 29 1011 78 6000 5.14 250 02:21 18.02.2021
2422 Clouds 24 1009 88 6000 2.06 250 23:51 17.02.2021
2423 Haze 25 1009 83 5000 2.06 250 23:21 17.02.2021
2424 Haze 25 1009 83 5000 3.6 270 22:49 17.02.2021
2425 Haze 25 1009 78 5000 2.06 270 22:25 17.02.2021
2426 Clouds 25 1009 83 9000 2.57 260 21:50 17.02.2021
2427 Clouds 25 1009 88 8000 2.57 300 21:22 17.02.2021
2428 Clouds 25 1009 88 8000 3.09 300 20:47 17.02.2021
2429 Clouds 25 1009 88 7000 2.57 280 20:29 17.02.2021
2430 Haze 25 1010 88 5000 3.09 290 19:49 17.02.2021
2431 Haze 26 1010 83 5000 2.57 270 19:30 17.02.2021
2432 Haze 26 1010 83 5000 2.57 260 18:45 17.02.2021
2433 Haze 26 1011 83 5000 1.54 270 18:25 17.02.2021
2434 Haze 27 1011 83 5000 1.54 270 17:41 17.02.2021
2435 Haze 27 1011 83 5000 1.54 270 17:41 17.02.2021
2436 Haze 27 1011 83 5000 1.54 270 17:19 17.02.2021
2437 Haze 27 1011 83 5000 1.54 320 16:46 17.02.2021
2438 Haze 27 1011 83 5000 1.54 320 16:25 17.02.2021
2439 Haze 28 1011 83 5000 1.54 330 15:44 17.02.2021
2440 Haze 28 1011 83 5000 1.54 300 15:25 17.02.2021
2441 Haze 28 1011 83 5000 1.54 330 14:48 17.02.2021
2442 Rain 28 1010 83 5000 1.54 270 14:29 17.02.2021
2443 Haze 28 1010 83 5000 1.54 20 13:48 17.02.2021
2444 Haze 28 1010 83 5000 2.06 340 13:29 17.02.2021
2445 Haze 28 1010 83 5000 2.06 330 12:47 17.02.2021
2446 Rain 29 1009 78 5000 2.06 330 12:24 17.02.2021
2447 Haze 29 1009 78 5000 2.06 350 11:44 17.02.2021
2448 Rain 29 1009 74 5000 1.54 310 11:22 17.02.2021
2449 Rain 30 1008 74 5000 1.54 320 10:49 17.02.2021
2450 Haze 30 1008 74 5000 1.54 330 10:31 17.02.2021
2451 Rain 30 1008 74 5000 2.57 290 09:55 17.02.2021
2452 Haze 31 1009 74 5000 2.57 280 09:30 17.02.2021
2453 Haze 31 1009 74 5000 2.06 330 08:45 17.02.2021
2454 Rain 31 1009 74 5000 1.54 300 08:23 17.02.2021
2455 Rain 29 1010 78 5000 2.57 360 07:34 17.02.2021
2456 Rain 28 1012 78 5000 2.06 330 06:36 17.02.2021
2457 Rain 28 1012 78 5000 3.09 250 03:47 17.02.2021
2458 Rain 26 1012 83 5000 2.57 300 02:30 17.02.2021
2459 Haze 25 1011 83 5000 1.54 290 01:33 17.02.2021
2460 Haze 25 1010 83 5000 1.54 290 00:25 17.02.2021
2461 Rain 24 1009 94 5000 4.12 240 23:38 16.02.2021
2462 Rain 25 1009 94 4000 4.63 270 22:46 16.02.2021
2463 Haze 25 1009 100 4000 3.09 240 22:26 16.02.2021
2464 Haze 24 1009 88 5000 6.17 230 21:59 16.02.2021
2465 Haze 24 1009 88 5000 6.17 230 21:39 16.02.2021
2466 Clouds 24 1009 94 4000 5.14 230 21:21 16.02.2021
2467 Rain 25 1010 94 3000 4.63 250 20:47 16.02.2021
2468 Clouds 26 1009 89 4000 2.57 240 20:24 16.02.2021
2469 Clouds 26 1009 89 5000 1.54 240 19:48 16.02.2021
2470 Clouds 26 1009 89 5000 1.03 0 19:28 16.02.2021
2471 Haze 26 1010 89 5000 1.54 0 18:50 16.02.2021
2472 Haze 26 1011 100 4000 2.54 355 18:26 16.02.2021
2473 Haze 26 1011 100 4000 2.52 355 17:53 16.02.2021
2474 Haze 26 1011 100 4000 3.29 20 17:27 16.02.2021
2475 Mist 26 1010 100 3000 3.29 20 16:57 16.02.2021
2476 Mist 26 1010 100 3000 3.29 20 16:38 16.02.2021
2477 Mist 26 1010 100 3000 2.9 34 16:19 16.02.2021
2478 Haze 26 1010 100 4000 2.9 34 15:36 16.02.2021
2479 Haze 26 1010 100 4000 2.82 27 15:18 16.02.2021
2480 Haze 26 1010 94 5000 2.82 27 14:40 16.02.2021
2481 Haze 27 1010 94 5000 3.4 13 14:21 16.02.2021
2482 Haze 27 1009 94 4000 3.4 13 13:45 16.02.2021
2483 Haze 27 1009 94 4000 1.54 340 12:59 16.02.2021
2484 Haze 27 1008 89 4000 3.3 0 12:41 16.02.2021
2485 Haze 28 1008 89 4000 3.77 353 12:19 16.02.2021
2486 Haze 28 1008 94 4000 1.54 350 11:40 16.02.2021
2487 Clouds 28 1008 94 3000 1.54 300 11:20 16.02.2021
2488 Clouds 29 1008 94 3000 1.54 300 10:46 16.02.2021
2489 Clouds 29 1008 94 3000 1.54 300 10:27 16.02.2021
2490 Rain 29 1008 94 4000 1.54 310 09:53 16.02.2021
2491 Clouds 27 1008 89 4000 1.54 330 09:28 16.02.2021
2492 Clouds 27 1008 89 4000 1.54 330 09:28 16.02.2021
2493 Clouds 28 1008 89 4000 5.03 340 08:52 16.02.2021
2494 Rain 27 1009 94 4000 1.54 310 08:29 16.02.2021
2495 Clouds 29 1009 94 3000 1.54 280 07:58 16.02.2021
2496 Rain 28 1010 89 4000 1.54 300 06:58 16.02.2021
2497 Rain 26 1011 100 3000 1.54 180 02:47 16.02.2021
2498 Rain 25 1009 100 3000 1.54 110 00:35 16.02.2021
2499 Rain 25 1009 100 3000 1.54 30 23:30 15.02.2021
2500 Rain 25 1009 100 3000 2.06 240 22:51 15.02.2021
2501 Rain 25 1009 100 3000 2.06 240 22:30 15.02.2021
2502 Rain 25 1009 100 3000 2.06 240 22:30 15.02.2021
2503 Rain 26 1009 94 6000 2.06 160 21:50 15.02.2021
2504 Rain 24 1008 94 6000 1.54 0 21:26 15.02.2021
2505 Rain 24 1009 88 6000 2.57 290 20:57 15.02.2021
2506 Rain 24 1009 88 4000 4.63 30 20:39 15.02.2021
2507 Rain 24 1009 88 4000 4.63 30 20:19 15.02.2021
2508 Clouds 26 1009 88 3000 6.69 10 19:42 15.02.2021
2509 Clouds 27 1007 99 10000 2.99 13 19:18 15.02.2021
2510 Clouds 28 1007 99 10000 3.37 359 18:42 15.02.2021
2511 Clouds 28 1007 99 10000 3.2 10 18:18 15.02.2021
2512 Clouds 28 1008 99 10000 3.2 10 17:41 15.02.2021
2513 Clouds 28 1008 99 10000 3.18 12 17:21 15.02.2021
2514 Clouds 28 1008 99 10000 3.18 12 16:48 15.02.2021
2515 Clouds 28 1008 99 10000 3.4 14 16:26 15.02.2021
2516 Clouds 28 1008 99 10000 3.4 14 15:49 15.02.2021
2517 Clouds 28 1008 99 10000 3.26 16 15:22 15.02.2021
2518 Clouds 28 1010 78 6000 1.03 20 14:49 15.02.2021
2519 Clouds 28 1009 78 6000 1.54 310 14:21 15.02.2021
2520 Clouds 28 1009 78 6000 1.54 310 13:51 15.02.2021
2521 Clouds 28 1009 78 6000 1.54 310 13:28 15.02.2021
2522 Clouds 28 1009 83 6000 2.57 360 12:54 15.02.2021
2523 Clouds 28 1008 83 6000 2.06 310 12:36 15.02.2021
2524 Rain 28 1008 78 6000 1.54 340 11:59 15.02.2021
2525 Clouds 29 1007 74 6000 2.57 20 11:39 15.02.2021
2526 Rain 29 1007 74 6000 2.57 20 11:18 15.02.2021
2527 Rain 30 1007 70 6000 4.12 360 10:42 15.02.2021
2528 Clouds 30 1007 70 6000 4.12 360 10:21 15.02.2021
2529 Clouds 31 1007 66 6000 4.12 330 09:52 15.02.2021
2530 Clouds 31 1007 66 6000 4.12 330 09:32 15.02.2021
2531 Clouds 31 1007 66 6000 4.12 330 09:32 15.02.2021
2532 Clouds 31 1008 66 6000 1.54 330 08:34 15.02.2021
2533 Clouds 32 1009 66 6000 2.06 300 07:34 15.02.2021
2534 Clouds 31 1009 66 6000 2.06 300 06:44 15.02.2021
2535 Clouds 29 1011 89 2000 2.06 20 04:59 15.02.2021
2536 Rain 27 1011 94 3000 1.54 130 02:22 15.02.2021
2537 Rain 25 1010 94 2000 3.33 294 00:32 15.02.2021
2538 Rain 25 1010 94 4000 2.06 70 23:32 14.02.2021
2539 Rain 25 1010 94 4000 1.54 30 22:52 14.02.2021
2540 Rain 25 1010 94 4000 2.77 292 22:34 14.02.2021
2541 Rain 25 1008 99 10000 2.93 300 21:56 14.02.2021
2542 Rain 25 1007 99 10000 2.93 300 21:36 14.02.2021
2543 Rain 25 1010 88 6000 1.54 220 20:56 14.02.2021
2544 Rain 25 1010 88 5000 2.57 180 20:32 14.02.2021
2545 Mist 25 1010 94 5000 3.6 170 19:59 14.02.2021
2546 Rain 25 1010 94 5000 1.54 0 19:38 14.02.2021
2547 Rain 25 1011 94 5000 2.94 325 18:48 14.02.2021
2548 Haze 25 1011 94 5000 2.73 328 18:29 14.02.2021
2549 Rain 25 1011 94 5000 2.73 328 17:48 14.02.2021
2550 Clouds 26 1012 88 4000 1.54 200 17:28 14.02.2021
2551 Clouds 26 1011 89 5000 1.54 290 16:42 14.02.2021
2552 Rain 26 1011 89 5000 1.54 290 16:23 14.02.2021
2553 Haze 28 1011 89 5000 1.54 60 15:45 14.02.2021
2554 Haze 28 1011 89 5000 1.54 60 15:25 14.02.2021
2555 Haze 28 1010 89 5000 1.54 340 14:33 14.02.2021
2556 Haze 28 1010 83 5000 1.54 320 13:59 14.02.2021
2557 Haze 27 1010 83 5000 1.54 360 13:33 14.02.2021
2558 Haze 28 1010 83 5000 2.57 350 12:58 14.02.2021
2559 Haze 28 1009 83 5000 2.57 360 12:22 14.02.2021
2560 Haze 29 1009 83 5000 1.54 330 11:52 14.02.2021
2561 Rain 29 1009 79 5000 1.54 360 11:26 14.02.2021
2562 Haze 29 1009 83 5000 1.54 350 10:57 14.02.2021
2563 Rain 29 1009 83 5000 3.09 330 09:59 14.02.2021
2564 Rain 29 1009 83 5000 4.12 350 09:40 14.02.2021
2565 Haze 30 1009 83 5000 4.12 350 09:21 14.02.2021
2566 Haze 29 1010 78 5000 2.06 280 08:43 14.02.2021
2567 Rain 29 1011 78 5000 2.06 340 07:58 14.02.2021
2568 Rain 30 1011 78 5000 2.06 330 06:54 14.02.2021
2569 Rain 31 1012 79 5000 3.09 320 05:43 14.02.2021
2570 Haze 30 1012 83 3000 2.06 210 03:33 14.02.2021
2571 Haze 29 1012 89 3000 1.54 220 02:29 14.02.2021
2572 Rain 26 1011 100 4000 1.54 220 00:49 14.02.2021
2573 Haze 26 1011 94 4000 1.54 240 00:31 14.02.2021
2574 Rain 26 1011 89 4000 1.54 270 23:42 13.02.2021
2575 Haze 26 1011 89 4000 1.54 270 23:23 13.02.2021
2576 Rain 26 1011 94 6000 1.54 0 22:47 13.02.2021
2577 Rain 26 1011 94 7000 1.54 210 22:20 13.02.2021
2578 Rain 26 1011 94 7000 1.54 250 21:44 13.02.2021
2579 Rain 26 1011 94 6000 1.03 270 21:22 13.02.2021
2580 Rain 26 1011 94 7000 2.06 290 20:30 13.02.2021
2581 Rain 27 1011 94 7000 2.06 260 19:59 13.02.2021
2582 Rain 27 1011 94 7000 2.06 260 19:40 13.02.2021
2583 Rain 27 1011 83 7000 1.03 0 19:21 13.02.2021
2584 Clouds 27 1011 89 5000 1.54 310 18:45 13.02.2021
2585 Clouds 28 1012 78 6000 1.54 290 18:23 13.02.2021
2586 Clouds 28 1012 78 6000 1.54 290 17:43 13.02.2021
2587 Clouds 28 1012 78 6000 1.54 290 17:23 13.02.2021
2588 Clouds 27 1012 89 6000 2.47 300 16:44 13.02.2021
2589 Clouds 27 1012 83 6000 1.54 140 16:26 13.02.2021
2590 Clouds 28 1012 78 6000 2.06 270 15:41 13.02.2021
2591 Clouds 28 1012 78 6000 2.06 270 15:22 13.02.2021
2592 Clouds 28 1011 78 6000 1.54 300 14:33 13.02.2021
2593 Clouds 29 1010 78 6000 2.06 350 13:48 13.02.2021
2594 Clouds 29 1010 78 6000 2.06 330 13:25 13.02.2021
2595 Clouds 29 1009 78 6000 2.06 290 12:50 13.02.2021
2596 Clouds 30 1009 70 6000 2.06 330 12:19 13.02.2021
2597 Clouds 31 1008 66 6000 2.06 310 11:45 13.02.2021
2598 Clouds 32 1008 66 6000 2.06 290 11:20 13.02.2021
2599 Clouds 30 1008 70 6000 2.57 270 10:47 13.02.2021
2600 Clouds 32 1008 66 6000 3.09 310 10:27 13.02.2021
2601 Haze 32 1009 66 5000 2.57 320 09:59 13.02.2021
2602 Haze 31 1009 66 5000 4.12 300 09:41 13.02.2021
2603 Haze 31 1009 66 5000 4.12 300 09:20 13.02.2021
2604 Haze 32 1010 62 4000 4.12 270 08:40 13.02.2021
2605 Haze 31 1010 66 4000 2.06 270 07:53 13.02.2021
2606 Haze 30 1012 74 4000 3.09 240 06:42 13.02.2021
2607 Haze 30 1012 74 4000 3.09 240 06:19 13.02.2021
2608 Rain 30 1013 83 3000 2.06 300 04:19 13.02.2021
2609 Rain 27 1012 94 4000 2.99 273 01:54 13.02.2021
2610 Rain 26 1011 94 4000 1.88 273 00:51 13.02.2021
2611 Rain 26 1011 94 4000 1.44 256 23:55 12.02.2021
2612 Rain 27 1010 89 4000 1.54 330 23:31 12.02.2021
2613 Rain 27 1010 89 4000 1.54 330 22:58 12.02.2021
2614 Clouds 25 1010 94 6000 0.51 0 22:29 12.02.2021
2615 Clouds 25 1010 94 6000 1.54 0 21:50 12.02.2021
2616 Clouds 26 1010 88 5000 2.57 350 21:29 12.02.2021
2617 Clouds 26 1011 88 5000 3.6 10 20:57 12.02.2021
2618 Clouds 26 1011 88 5000 3.6 10 20:38 12.02.2021
2619 Rain 26 1010 89 5000 1.54 0 20:19 12.02.2021
2620 Rain 26 1011 88 5000 1.54 0 19:47 12.02.2021
2621 Rain 26 1011 88 4000 2.57 220 19:25 12.02.2021
2622 Rain 26 1012 94 4000 2.57 350 18:30 12.02.2021
2623 Clouds 26 1012 83 3000 4.12 10 17:48 12.02.2021
2624 Haze 27 1012 89 4000 4.12 360 17:25 12.02.2021
2625 Haze 27 1012 89 5000 1.54 300 16:39 12.02.2021
2626 Clouds 28 1012 83 6000 1.03 260 15:47 12.02.2021
2627 Clouds 28 1011 83 7000 1.03 260 15:21 12.02.2021
2628 Clouds 28 1011 83 7000 1.03 260 15:21 12.02.2021
2629 Clouds 28 1011 83 7000 1.03 0 14:53 12.02.2021
2630 Clouds 27 1009 78 6000 1.54 300 14:30 12.02.2021
2631 Clouds 28 1009 78 6000 1.54 300 13:41 12.02.2021
2632 Clouds 28 1009 78 6000 1.54 300 13:22 12.02.2021
2633 Clouds 28 1009 78 6000 1.54 360 12:49 12.02.2021
2634 Clouds 28 1009 78 6000 1.54 360 12:31 12.02.2021
2635 Clouds 29 1008 74 6000 1.54 320 11:43 12.02.2021
2636 Clouds 29 1008 74 6000 1.54 320 11:20 12.02.2021
2637 Clouds 30 1008 74 6000 1.54 30 10:46 12.02.2021
2638 Clouds 30 1008 70 6000 2.57 310 09:52 12.02.2021
2639 Clouds 30 1008 70 6000 2.57 310 09:29 12.02.2021
2640 Clouds 31 1008 74 6000 4.12 250 08:51 12.02.2021
2641 Clouds 30 1009 74 6000 1.54 250 08:29 12.02.2021
2642 Clouds 30 1009 74 6000 1.54 250 08:29 12.02.2021
2643 Clouds 30 1009 74 6000 3.6 330 07:58 12.02.2021
2644 Haze 31 1010 83 5000 2.06 340 07:35 12.02.2021
2645 Haze 31 1010 83 5000 2.57 250 06:55 12.02.2021
2646 Clouds 31 1011 70 6000 3.09 340 05:49 12.02.2021
2647 Clouds 31 1011 70 6000 3.09 340 05:23 12.02.2021
2648 Clouds 31 1011 70 6000 3.09 340 05:23 12.02.2021
2649 Haze 28 1010 83 5000 3.21 260 01:48 12.02.2021
2650 Haze 25 1009 88 5000 2.13 261 23:44 11.02.2021
2651 Haze 25 1008 88 5000 2.05 252 23:22 11.02.2021
2652 Haze 26 1008 83 5000 1.54 260 22:58 11.02.2021
2653 Haze 26 1008 83 5000 1.54 230 22:39 11.02.2021
2654 Haze 26 1008 83 5000 1.54 230 22:20 11.02.2021
2655 Clouds 26 1008 88 7000 2.06 240 21:39 11.02.2021
2656 Clouds 26 1008 88 7000 1.54 300 21:19 11.02.2021
2657 Haze 26 1008 88 5000 2.06 250 20:46 11.02.2021
2658 Haze 26 1008 88 5000 1.54 300 20:22 11.02.2021
2659 Haze 26 1008 88 5000 1.03 310 19:49 11.02.2021
2660 Haze 26 1009 88 5000 1.54 0 19:31 11.02.2021
2661 Haze 26 1009 88 5000 2.06 300 18:55 11.02.2021
2662 Clouds 27 1010 78 6000 1.54 290 18:29 11.02.2021
2663 Clouds 27 1010 78 6000 1.54 290 17:55 11.02.2021
2664 Clouds 27 1010 78 6000 1.54 290 17:22 11.02.2021
2665 Clouds 27 1010 78 6000 1.54 270 16:59 11.02.2021
2666 Clouds 27 1010 78 6000 1.54 300 16:41 11.02.2021
2667 Clouds 27 1010 78 6000 1.54 300 16:21 11.02.2021
2668 Clouds 28 1010 74 6000 1.54 240 15:43 11.02.2021
2669 Clouds 28 1009 74 6000 2.57 250 15:25 11.02.2021
2670 Clouds 28 1009 74 6000 2.57 280 14:47 11.02.2021
2671 Clouds 28 1009 74 6000 2.06 270 14:28 11.02.2021
2672 Clouds 28 1008 74 6000 3.09 260 13:41 11.02.2021
2673 Clouds 28 1008 74 6000 3.09 260 13:19 11.02.2021
2674 Clouds 29 1008 74 6000 2.06 250 12:51 11.02.2021
2675 Clouds 29 1007 70 6000 3.09 270 12:28 11.02.2021
2676 Haze 30 1007 74 5000 3.6 290 11:46 11.02.2021
2677 Clouds 30 1007 74 6000 3.09 330 11:22 11.02.2021
2678 Clouds 28 1007 74 6000 2.57 340 10:45 11.02.2021
2679 Clouds 28 1007 74 6000 2.57 340 10:45 11.02.2021
2680 Clouds 29 1006 74 6000 3.09 300 10:26 11.02.2021
2681 Rain 31 1006 70 6000 4.12 260 09:53 11.02.2021
2682 Rain 29 1006 66 6000 2.57 300 09:22 11.02.2021
2683 Rain 32 1007 62 6000 3.6 300 08:51 11.02.2021
2684 Clouds 31 1007 58 6000 4.12 270 08:23 11.02.2021
2685 Clouds 31 1008 66 6000 3.09 290 07:30 11.02.2021
2686 Clouds 33 1009 58 6000 4.12 250 06:40 11.02.2021
2687 Clouds 32 1009 66 6000 4.63 230 04:58 11.02.2021
2688 Clouds 29 1010 83 6000 3.09 250 02:29 11.02.2021
2689 Haze 26 1008 94 6000 2.57 260 00:50 11.02.2021
2690 Haze 25 1008 88 5000 3.6 290 00:20 11.02.2021
2691 Haze 25 1007 94 5000 3.47 246 23:40 10.02.2021
2692 Haze 25 1007 94 5000 2.06 250 22:52 10.02.2021
2693 Haze 25 1007 88 5000 2.57 230 22:29 10.02.2021
2694 Haze 25 1007 88 5000 2.57 230 22:29 10.02.2021
2695 Haze 25 1007 88 5000 2.57 250 21:58 10.02.2021
2696 Haze 25 1007 88 5000 2.57 250 21:38 10.02.2021
2697 Haze 26 1008 88 5000 2.06 250 21:19 10.02.2021
2698 Haze 26 1008 88 5000 2.06 250 20:40 10.02.2021
2699 Haze 26 1008 88 5000 2.57 250 20:22 10.02.2021
2700 Haze 26 1008 88 5000 3.09 240 19:45 10.02.2021
2701 Haze 26 1008 88 5000 2.06 270 19:24 10.02.2021
2702 Clouds 26 1009 88 6000 2.57 260 18:40 10.02.2021
2703 Haze 26 1010 89 5000 1.54 280 18:22 10.02.2021
2704 Haze 26 1010 89 5000 1.54 280 17:51 10.02.2021
2705 Haze 27 1010 89 5000 1.54 280 17:24 10.02.2021
2706 Haze 27 1010 89 5000 2.06 260 16:53 10.02.2021
2707 Rain 27 1010 89 5000 2.57 240 16:30 10.02.2021
2708 Haze 27 1009 83 5000 2.57 240 15:54 10.02.2021
2709 Haze 27 1009 83 5000 2.57 260 15:23 10.02.2021
2710 Haze 27 1009 83 5000 1.54 270 14:47 10.02.2021
2711 Haze 27 1009 83 5000 2.06 290 14:27 10.02.2021
2712 Haze 28 1008 78 5000 1.54 230 13:51 10.02.2021
2713 Haze 28 1008 74 5000 2.06 250 13:28 10.02.2021
2714 Haze 28 1008 74 5000 3.6 280 12:49 10.02.2021
2715 Haze 29 1007 69 5000 2.57 260 12:29 10.02.2021
2716 Rain 29 1007 70 5000 3.09 270 11:49 10.02.2021
2717 Haze 29 1006 70 5000 3.09 290 11:31 10.02.2021
2718 Haze 30 1006 70 5000 4.12 230 10:52 10.02.2021
2719 Rain 30 1007 70 5000 5.14 270 10:21 10.02.2021
2720 Rain 30 1007 74 5000 5.14 280 09:44 10.02.2021
2721 Rain 31 1007 70 5000 5.14 260 09:22 10.02.2021
2722 Haze 31 1007 66 5000 5.14 250 08:50 10.02.2021
2723 Haze 31 1008 70 5000 6.69 280 08:30 10.02.2021
2724 Haze 32 1008 70 5000 6.69 240 07:25 10.02.2021
2725 Rain 27 1010 83 5000 6.69 240 05:40 10.02.2021
2726 Haze 28 1008 83 5000 1.54 240 01:21 10.02.2021
2727 Haze 26 1007 94 5000 1.54 240 23:42 09.02.2021
2728 Haze 26 1007 94 5000 1.54 240 23:24 09.02.2021
2729 Haze 26 1007 94 5000 1.54 240 22:42 09.02.2021
2730 Haze 26 1007 94 5000 1.54 240 22:23 09.02.2021
2731 Clear 26 1007 83 10000 3.09 220 21:47 09.02.2021
2732 Clouds 26 1007 83 7000 3.6 230 21:20 09.02.2021
2733 Clouds 26 1007 89 7000 3.09 220 20:43 09.02.2021
2734 Clouds 26 1008 89 7000 2.06 220 20:24 09.02.2021
2735 Clouds 26 1008 89 7000 3.09 230 19:44 09.02.2021
2736 Clouds 26 1008 89 6000 4.12 220 19:22 09.02.2021
2737 Clouds 26 1008 89 6000 1.03 230 18:44 09.02.2021
2738 Clouds 26 1008 89 6000 3.09 240 18:26 09.02.2021
2739 Haze 26 1009 89 5000 1.54 240 17:49 09.02.2021
2740 Haze 27 1009 83 3000 1.03 270 17:27 09.02.2021
2741 Haze 27 1009 94 4000 1.54 240 16:53 09.02.2021
2742 Haze 27 1009 89 4000 1.03 290 16:20 09.02.2021
2743 Haze 27 1009 89 5000 1.03 250 15:51 09.02.2021
2744 Haze 28 1009 83 5000 1.03 260 15:31 09.02.2021
2745 Haze 27 1008 83 5000 1.03 240 14:59 09.02.2021
2746 Haze 28 1008 89 5000 1.54 240 14:36 09.02.2021
2747 Haze 28 1008 89 5000 1.54 240 14:18 09.02.2021
2748 Haze 28 1008 89 5000 1.54 240 13:40 09.02.2021
2749 Haze 28 1008 89 5000 1.54 240 13:20 09.02.2021
2750 Rain 28 1008 89 3000 2.06 220 12:43 09.02.2021
2751 Clouds 28 1007 83 2000 2.06 340 12:23 09.02.2021
2752 Haze 30 1006 70 5000 2.57 350 11:44 09.02.2021
2753 Haze 30 1006 70 5000 2.57 350 11:21 09.02.2021
2754 Clouds 31 1006 70 6000 2.57 320 10:57 09.02.2021
2755 Clouds 32 1006 70 6000 2.57 320 10:20 09.02.2021
2756 Clouds 30 1006 70 6000 2.57 330 09:52 09.02.2021
2757 Clouds 30 1006 66 6000 3.09 280 09:26 09.02.2021
2758 Clouds 32 1006 66 6000 1.54 320 08:56 09.02.2021
2759 Clouds 32 1007 79 6000 2.06 280 08:29 09.02.2021
2760 Clouds 32 1008 66 6000 1.54 300 07:41 09.02.2021
2761 Haze 30 1009 74 5000 2.57 330 05:34 09.02.2021
2762 Haze 29 1010 89 3000 2.57 210 03:48 09.02.2021
2763 Haze 26 1010 94 3000 1.54 220 01:52 09.02.2021
2764 Mist 25 1008 88 4500 1.54 0 00:31 09.02.2021
2765 Clouds 25 1008 94 5000 1.54 0 23:40 08.02.2021
2766 Clouds 25 1008 88 5000 1.54 250 23:18 08.02.2021
2767 Mist 25 1007 94 5000 1.03 270 22:42 08.02.2021
2768 Mist 25 1007 94 5000 2.06 270 22:22 08.02.2021
2769 Mist 25 1007 88 5000 1.54 290 21:45 08.02.2021
2770 Rain 25 1008 94 5000 1.03 340 21:22 08.02.2021
2771 Haze 25 1008 88 5000 1.03 330 20:44 08.02.2021
2772 Rain 25 1008 88 5000 1.03 310 20:24 08.02.2021
2773 Rain 25 1008 88 4000 1.03 350 19:58 08.02.2021
2774 Rain 25 1008 88 4000 1.03 350 19:39 08.02.2021
2775 Rain 25 1009 94 4000 1.03 280 19:19 08.02.2021
2776 Rain 25 1010 94 4000 2.95 253 18:41 08.02.2021
2777 Rain 25 1010 94 4000 2.84 251 18:18 08.02.2021
2778 Rain 25 1009 94 5000 2.06 150 17:43 08.02.2021
2779 Clouds 25 1009 94 5000 2.06 150 17:22 08.02.2021
2780 Rain 25 1009 94 5000 2.06 150 16:40 08.02.2021
2781 Rain 25 1010 94 4000 1.54 280 16:20 08.02.2021
2782 Rain 25 1010 94 4000 1.54 300 15:40 08.02.2021
2783 Rain 25 1010 94 4000 1.54 300 15:19 08.02.2021
2784 Rain 25 1010 94 4000 1.54 250 14:51 08.02.2021
2785 Rain 25 1009 94 4000 2.06 320 14:29 08.02.2021
2786 Rain 25 1009 94 2000 3.09 290 13:56 08.02.2021
2787 Rain 26 1008 83 1500 7.72 240 13:29 08.02.2021
2788 Clouds 27 1008 83 5000 1.54 360 12:49 08.02.2021
2789 Rain 28 1007 83 5000 1.54 220 12:31 08.02.2021
2790 Rain 29 1006 74 5000 1.54 330 11:42 08.02.2021
2791 Rain 29 1006 74 5000 1.54 330 11:18 08.02.2021
2792 Rain 30 1006 70 6000 3.09 350 10:39 08.02.2021
2793 Clouds 30 1006 70 6000 3.09 350 10:20 08.02.2021
2794 Clouds 31 1006 70 6000 3.09 320 09:48 08.02.2021
2795 Rain 31 1006 70 6000 1.54 340 09:21 08.02.2021
2796 Rain 31 1007 74 6000 1.54 360 08:31 08.02.2021
2797 Rain 31 1007 79 6000 3.09 330 07:49 08.02.2021
2798 Clouds 31 1008 78 5000 2.06 330 06:51 08.02.2021
2799 Haze 31 1009 74 5000 3.6 340 05:28 08.02.2021
2800 Clouds 26 1009 100 2000 2.06 280 02:27 08.02.2021
2801 Rain 26 1008 94 2500 2.06 250 00:26 08.02.2021
2802 Rain 25 1008 94 4000 2.06 280 23:56 07.02.2021
2803 Rain 25 1008 94 4000 1.54 320 23:37 07.02.2021
2804 Rain 25 1008 94 4000 1.54 320 23:18 07.02.2021
2805 Rain 25 1007 94 4000 1.54 250 22:42 07.02.2021
2806 Rain 25 1007 94 4000 1.54 250 22:24 07.02.2021
2807 Rain 26 1007 89 6000 2.57 330 21:50 07.02.2021
2808 Rain 26 1007 89 6000 1.54 310 21:26 07.02.2021
2809 Rain 26 1007 94 5000 1.03 0 20:51 07.02.2021
2810 Rain 26 1008 94 5000 2.57 0 20:33 07.02.2021
2811 Rain 26 1008 94 5000 2.57 330 19:54 07.02.2021
2812 Rain 26 1009 89 5000 4.63 350 19:30 07.02.2021
2813 Rain 26 1009 83 5000 3.09 360 18:52 07.02.2021
2814 Haze 26 1010 100 4000 1.54 280 18:34 07.02.2021
2815 Rain 26 1010 100 4000 1.54 280 17:59 07.02.2021
2816 Rain 26 1010 100 4000 1.54 280 17:40 07.02.2021
2817 Rain 26 1010 100 4000 1.54 280 17:18 07.02.2021
2818 Rain 26 1010 100 4000 1.54 280 17:18 07.02.2021
2819 Rain 26 1010 100 4000 1.54 320 16:44 07.02.2021
2820 Rain 26 1010 100 4000 1.54 300 16:22 07.02.2021
2821 Rain 26 1010 100 4000 1.54 300 16:22 07.02.2021
2822 Rain 26 1010 94 4000 1.54 260 15:47 07.02.2021
2823 Rain 26 1010 100 3000 1.54 250 15:28 07.02.2021
2824 Rain 26 1009 100 3000 1.54 270 14:47 07.02.2021
2825 Rain 26 1009 100 3000 2.57 290 14:29 07.02.2021
2826 Rain 26 1009 94 3000 2.57 240 13:52 07.02.2021
2827 Rain 26 1008 94 2000 7.72 220 13:34 07.02.2021
2828 Rain 27 1008 89 300 7.72 210 12:45 07.02.2021
2829 Rain 27 1006 83 4000 2.57 330 12:22 07.02.2021
2830 Clouds 28 1006 83 4000 2.57 330 11:50 07.02.2021
2831 Haze 29 1006 78 5000 4.12 300 11:27 07.02.2021
2832 Haze 29 1006 74 5000 3.09 290 10:51 07.02.2021
2833 Haze 29 1006 74 5000 5.14 340 10:26 07.02.2021
2834 Rain 30 1006 74 5000 5.14 340 09:49 07.02.2021
2835 Rain 30 1006 74 5000 5.14 340 09:21 07.02.2021
2836 Haze 30 1007 74 5000 5.14 320 08:31 07.02.2021
2837 Haze 29 1008 66 5000 5.14 330 07:38 07.02.2021
2838 Haze 31 1009 70 5000 3.6 320 05:57 07.02.2021
2839 Rain 28 1010 83 4000 3.09 270 03:54 07.02.2021
2840 Clouds 27 1008 94 3000 2.57 270 01:37 07.02.2021
2841 Rain 26 1008 94 2000 2.57 270 00:36 07.02.2021
2842 Rain 26 1007 100 2000 1.54 240 23:47 06.02.2021
2843 Rain 26 1007 100 2000 2.06 270 22:48 06.02.2021
2844 Rain 25 1007 78 5000 4.12 330 21:43 06.02.2021
2845 Rain 25 1007 89 5000 2.57 290 21:23 06.02.2021
2846 Rain 25 1007 89 5000 3.6 290 20:53 06.02.2021
2847 Rain 25 1008 89 5000 1.54 240 20:26 06.02.2021
2848 Rain 25 1008 94 500 2.06 280 19:58 06.02.2021
2849 Rain 25 1008 94 500 2.06 280 19:34 06.02.2021
2850 Rain 26 1008 89 1000 5.66 250 18:56 06.02.2021
2851 Clouds 28 1008 89 1000 5.66 250 18:35 06.02.2021
2852 Clouds 28 1008 83 3000 5.66 40 17:56 06.02.2021
2853 Clouds 28 1008 83 3000 5.66 40 17:38 06.02.2021
2854 Clouds 29 1009 83 3000 1.03 50 17:19 06.02.2021
2855 Clouds 29 1009 83 5000 1.03 40 16:42 06.02.2021
2856 Clouds 29 1009 83 6000 1.03 50 16:24 06.02.2021
2857 Clouds 29 1009 78 6000 2.06 30 15:48 06.02.2021
2858 Clouds 29 1009 78 6000 1.54 30 15:26 06.02.2021
2859 Clouds 29 1008 78 7000 1.54 40 14:46 06.02.2021
2860 Clouds 29 1007 78 6000 1.54 40 14:28 06.02.2021
2861 Clouds 29 1007 78 6000 1.54 40 13:53 06.02.2021
2862 Clouds 28 1007 78 6000 1.54 40 13:34 06.02.2021
2863 Clouds 29 1006 70 6000 2.06 330 12:23 06.02.2021
2864 Clouds 30 1006 66 6000 1.54 360 11:57 06.02.2021
2865 Rain 30 1006 66 6000 2.57 360 11:38 06.02.2021
2866 Rain 31 1006 66 6000 2.57 360 11:19 06.02.2021
2867 Rain 30 1006 66 6000 2.57 350 10:44 06.02.2021
2868 Clouds 30 1006 66 6000 2.57 350 10:24 06.02.2021
2869 Clouds 30 1006 66 6000 3.09 360 09:37 06.02.2021
2870 Clouds 30 1006 66 6000 3.09 360 09:18 06.02.2021
2871 Haze 31 1007 66 5000 4.12 340 08:49 06.02.2021
2872 Haze 31 1007 66 5000 4.12 340 08:28 06.02.2021
2873 Haze 31 1009 70 5000 4.12 330 06:40 06.02.2021
2874 Haze 30 1010 74 4000 4.12 240 04:45 06.02.2021
2875 Haze 29 1010 78 4000 4.12 290 02:43 06.02.2021
2876 Haze 26 1009 89 4000 2.06 290 00:49 06.02.2021
2877 Rain 26 1009 89 3000 2.57 300 00:21 06.02.2021
2878 Rain 26 1009 83 3000 2.57 270 23:59 05.02.2021
2879 Rain 26 1008 89 3000 2.57 330 23:29 05.02.2021
2880 Rain 26 1008 89 3000 2.57 310 22:49 05.02.2021
2881 Rain 26 1008 94 3000 1.54 310 22:24 05.02.2021
2882 Rain 26 1008 78 5000 4.12 320 21:54 05.02.2021
2883 Rain 26 1008 78 5000 4.12 320 21:35 05.02.2021
2884 Rain 26 1009 83 4000 5.14 320 20:52 05.02.2021
2885 Rain 26 1009 83 4000 3.09 290 20:19 05.02.2021
2886 Rain 26 1009 88 4000 7.2 340 19:39 05.02.2021
2887 Rain 26 1009 89 5000 7.2 340 19:18 05.02.2021
2888 Rain 26 1009 89 5000 4.63 320 18:38 05.02.2021
2889 Haze 26 1009 94 5000 2.57 310 18:19 05.02.2021
2890 Clouds 27 1010 89 3000 2.57 270 17:35 05.02.2021
2891 Rain 27 1010 89 3000 2.57 270 16:58 05.02.2021
2892 Rain 27 1010 89 3000 2.57 270 16:39 05.02.2021
2893 Clouds 27 1010 89 3000 2.57 270 16:20 05.02.2021
2894 Haze 28 1009 78 5000 3.1 338 15:44 05.02.2021
2895 Haze 28 1009 83 5000 2.64 345 15:22 05.02.2021
2896 Haze 28 1009 83 5000 2.64 345 14:38 05.02.2021
2897 Haze 28 1009 83 5000 2.77 350 14:19 05.02.2021
2898 Clouds 28 1008 83 6000 2.06 300 13:48 05.02.2021
2899 Clouds 28 1008 83 6000 2.06 300 13:30 05.02.2021
2900 Clouds 28 1008 83 6000 2.06 300 13:30 05.02.2021
2901 Clouds 29 1008 78 8000 3.09 20 12:42 05.02.2021
2902 Clouds 29 1008 78 9000 3.6 20 12:21 05.02.2021
2903 Haze 30 1007 74 5000 3.09 310 11:39 05.02.2021
2904 Haze 30 1007 74 5000 3.09 310 11:20 05.02.2021
2905 Haze 31 1007 74 5000 3.09 310 10:48 05.02.2021
2906 Haze 32 1007 70 5000 5.14 350 10:25 05.02.2021
2907 Haze 31 1007 66 5000 3.09 270 09:43 05.02.2021
2908 Haze 31 1007 66 5000 4.12 320 09:24 05.02.2021
2909 Haze 31 1009 66 5000 3.6 320 08:42 05.02.2021
2910 Haze 31 1009 66 5000 3.6 320 07:43 05.02.2021
2911 Haze 31 1009 70 5000 4.63 300 07:24 05.02.2021
2912 Haze 31 1010 74 5000 3.6 280 06:34 05.02.2021
2913 Haze 30 1011 74 5000 3.6 300 05:35 05.02.2021
2914 Haze 28 1011 94 4000 2.57 240 02:26 05.02.2021
2915 Haze 27 1011 100 4000 2.06 260 01:43 05.02.2021
2916 Clouds 25 1010 100 3000 1.54 250 00:37 05.02.2021
2917 Clouds 25 1010 100 3000 1.54 250 00:19 05.02.2021
2918 Haze 25 1010 100 4000 1.54 260 23:43 04.02.2021
2919 Mist 25 1010 100 4000 1.54 240 23:25 04.02.2021
2920 Rain 25 1009 94 4000 1.54 240 22:55 04.02.2021
2921 Rain 25 1009 94 4000 1.54 240 22:37 04.02.2021
2922 Rain 25 1009 100 4000 1.54 200 21:58 04.02.2021
2923 Rain 25 1009 83 5000 2.57 320 21:40 04.02.2021
2924 Rain 25 1010 89 4000 3.09 340 20:58 04.02.2021
2925 Rain 25 1010 89 4000 3.09 340 20:34 04.02.2021
2926 Rain 25 1010 89 4000 3.09 340 20:34 04.02.2021
2927 Rain 25 1010 94 4000 4.12 340 19:53 04.02.2021
2928 Rain 25 1010 88 4000 2.06 350 19:32 04.02.2021
2929 Haze 26 1011 94 4000 2.57 360 18:51 04.02.2021
2930 Rain 26 1011 94 5000 1.54 300 18:24 04.02.2021
2931 Rain 25 1011 94 5000 1.54 300 17:50 04.02.2021
2932 Haze 26 1011 94 5000 1.54 300 17:24 04.02.2021
2933 Rain 25 1011 94 5000 1.54 340 16:51 04.02.2021
2934 Haze 25 1011 94 5000 1.54 340 16:21 04.02.2021
2935 Rain 25 1011 94 5000 1.54 340 16:21 04.02.2021
2936 Haze 26 1011 94 5000 2.6 292 15:58 04.02.2021
2937 Clouds 26 1011 94 5000 1.54 290 15:38 04.02.2021
2938 Clouds 26 1011 94 5000 1.54 290 15:20 04.02.2021
2939 Clouds 25 1011 100 5000 1.54 270 14:40 04.02.2021
2940 Clouds 25 1011 100 5000 1.54 270 14:20 04.02.2021
2941 Haze 25 1010 100 4000 1.54 280 13:44 04.02.2021
2942 Clouds 25 1010 100 4000 3.38 292 12:58 04.02.2021
2943 Rain 25 1009 94 3000 3.6 250 12:34 04.02.2021
2944 Rain 25 1009 94 3000 4.12 240 11:54 04.02.2021
2945 Rain 25 1009 94 2000 8.23 250 11:33 04.02.2021
2946 Rain 27 1009 88 2000 7.72 240 10:51 04.02.2021
2947 Rain 28 1008 74 6000 4.12 350 10:21 04.02.2021
2948 Clouds 31 1008 70 6000 4.63 330 09:44 04.02.2021
2949 Clouds 31 1008 66 6000 4.63 330 09:19 04.02.2021
2950 Clouds 31 1008 70 6000 4.63 360 08:48 04.02.2021
2951 Clouds 31 1009 66 6000 5.14 320 08:24 04.02.2021
2952 Clouds 31 1009 66 6000 4.63 350 07:43 04.02.2021
2953 Clouds 29 1009 70 6000 4.12 330 07:24 04.02.2021
2954 Clouds 30 1010 70 6000 4.12 350 06:43 04.02.2021
2955 Haze 30 1012 74 5000 3.09 290 04:31 04.02.2021
2956 Haze 27 1011 94 3000 3.6 240 02:29 04.02.2021
2957 Haze 25 1010 94 4000 1.54 260 00:59 04.02.2021
2958 Haze 25 1010 94 4000 5.1 293 23:52 03.02.2021
2959 Haze 25 1010 94 4000 5.13 302 23:27 03.02.2021
2960 Haze 25 1009 94 5000 2.06 220 22:36 03.02.2021
2961 Haze 25 1009 94 5000 2.06 220 22:18 03.02.2021
2962 Haze 25 1009 94 4000 1.54 290 21:41 03.02.2021
2963 Haze 25 1010 94 4000 1.54 250 21:21 03.02.2021
2964 Rain 25 1010 94 4000 1.54 250 20:48 03.02.2021
2965 Rain 25 1010 94 4000 2.06 250 20:28 03.02.2021
2966 Rain 25 1010 94 4000 1.54 270 19:52 03.02.2021
2967 Rain 25 1011 94 4000 2.06 280 19:23 03.02.2021
2968 Rain 25 1011 88 4000 2.06 270 18:52 03.02.2021
2969 Rain 25 1011 88 4000 1.54 0 18:22 03.02.2021
2970 Haze 25 1012 88 4000 1.03 0 17:57 03.02.2021
2971 Haze 25 1012 88 4000 1.03 0 17:37 03.02.2021
2972 Rain 25 1012 88 4000 2.06 230 17:18 03.02.2021
2973 Rain 25 1012 88 5000 2.06 230 16:36 03.02.2021
2974 Rain 26 1012 88 5000 1.54 270 15:58 03.02.2021
2975 Rain 26 1012 88 5000 1.54 270 15:38 03.02.2021
2976 Rain 26 1012 94 5000 1.54 280 15:20 03.02.2021
2977 Rain 26 1011 94 5000 2.06 230 14:43 03.02.2021
2978 Rain 26 1010 83 5000 3.09 280 14:20 03.02.2021
2979 Rain 26 1010 83 5000 3.09 280 13:43 03.02.2021
2980 Rain 26 1010 83 5000 3.09 280 13:43 03.02.2021
2981 Haze 26 1010 83 5000 3.09 280 13:19 03.02.2021
2982 Haze 26 1010 83 5000 3.09 290 12:39 03.02.2021
2983 Rain 27 1008 74 5000 2.06 300 12:19 03.02.2021
2984 Haze 27 1008 78 5000 2.57 320 11:41 03.02.2021
2985 Haze 28 1008 78 5000 2.57 320 11:21 03.02.2021
2986 Haze 30 1008 74 5000 2.57 340 10:28 03.02.2021
2987 Haze 30 1008 70 5000 2.06 290 09:58 03.02.2021
2988 Haze 30 1008 70 5000 2.06 290 09:58 03.02.2021
2989 Rain 30 1008 70 5000 2.06 290 09:38 03.02.2021
2990 Rain 31 1008 70 5000 2.06 290 09:19 03.02.2021
2991 Rain 30 1009 74 5000 2.06 290 08:43 03.02.2021
2992 Rain 30 1009 78 4000 3.6 270 07:54 03.02.2021
2993 Haze 29 1011 78 4000 4.12 290 06:42 03.02.2021
2994 Haze 29 1011 78 4000 4.12 290 06:42 03.02.2021
2995 Haze 29 1011 89 4000 2.06 300 04:56 03.02.2021
2996 Haze 29 1011 89 4000 2.06 300 04:37 03.02.2021
2997 Haze 28 1012 94 3000 2.57 290 03:49 03.02.2021
2998 Clouds 26 1012 100 3000 1.54 240 02:40 03.02.2021
2999 Rain 25 1011 100 3000 2.57 240 01:47 03.02.2021
3000 Rain 24 1011 100 3000 2.06 230 00:24 03.02.2021
3001 Rain 24 1010 100 4000 2.06 240 23:43 02.02.2021
3002 Rain 24 1010 100 3000 2.57 240 23:25 02.02.2021
3003 Rain 24 1010 100 1500 2.57 240 22:43 02.02.2021
3004 Rain 24 1010 100 1500 2.57 240 22:43 02.02.2021
3005 Rain 24 1010 100 1500 2.57 240 22:19 02.02.2021
3006 Rain 24 1010 94 5000 4.63 240 21:44 02.02.2021
3007 Rain 24 1010 94 4800 3.09 280 21:23 02.02.2021
3008 Rain 24 1010 94 4000 1.54 0 20:49 02.02.2021
3009 Rain 24 1010 94 1500 4.12 230 20:21 02.02.2021
3010 Rain 25 1010 94 3000 1.54 0 19:51 02.02.2021
3011 Rain 25 1011 94 1500 2.06 0 19:33 02.02.2021
3012 Rain 25 1011 94 5000 1.54 350 18:56 02.02.2021
3013 Rain 25 1011 94 5000 1.54 350 18:37 02.02.2021
3014 Clouds 25 1011 94 5000 2.57 290 18:19 02.02.2021
3015 Haze 26 1011 88 5000 4.63 240 17:38 02.02.2021
3016 Haze 26 1011 88 5000 4.63 240 17:19 02.02.2021
3017 Haze 26 1011 88 5000 4.63 240 16:44 02.02.2021
3018 Haze 26 1011 88 5000 4.63 240 16:25 02.02.2021
3019 Rain 26 1011 89 5000 5.14 230 15:53 02.02.2021
3020 Clouds 26 1010 89 5000 1.54 220 15:29 02.02.2021
3021 Clouds 27 1010 83 4000 1.54 200 14:52 02.02.2021
3022 Haze 27 1010 83 5000 2.06 220 14:33 02.02.2021
3023 Haze 28 1009 78 5000 1.54 180 13:56 02.02.2021
3024 Haze 28 1009 78 5000 1.54 180 13:38 02.02.2021
3025 Haze 28 1009 78 5000 1.54 180 13:19 02.02.2021
3026 Rain 29 1009 78 5000 1.54 140 12:42 02.02.2021
3027 Haze 29 1008 74 5000 2.57 350 11:46 02.02.2021
3028 Clouds 30 1008 74 6000 2.57 320 11:25 02.02.2021
3029 Clouds 30 1008 66 6000 3.09 330 10:56 02.02.2021
3030 Clouds 31 1007 62 6000 3.09 300 10:37 02.02.2021
3031 Clouds 31 1007 62 6000 3.09 300 10:19 02.02.2021
3032 Clouds 31 1007 66 6000 3.6 310 09:39 02.02.2021
3033 Clouds 32 1007 66 6000 3.6 310 09:19 02.02.2021
3034 Clouds 31 1008 66 6000 3.09 340 08:33 02.02.2021
3035 Haze 31 1009 66 5000 3.09 310 07:42 02.02.2021
3036 Haze 31 1010 74 5000 2.57 270 06:46 02.02.2021
3037 Haze 30 1010 70 5000 3.6 310 06:27 02.02.2021
3038 Clouds 30 1010 62 6000 2.57 330 05:47 02.02.2021
3039 Haze 29 1011 83 4000 2.06 210 02:46 02.02.2021
3040 Rain 28 1011 94 3000 2.06 260 02:23 02.02.2021
3041 Rain 25 1010 94 2000 2.06 240 00:37 02.02.2021
3042 Rain 25 1010 100 2000 1.54 290 23:37 01.02.2021
3043 Rain 25 1009 100 2000 1.54 310 22:51 01.02.2021
3044 Rain 25 1009 100 2000 1.54 310 22:33 01.02.2021
3045 Rain 25 1009 94 5000 1.54 290 21:53 01.02.2021
3046 Rain 25 1009 94 5000 1.54 290 21:35 01.02.2021
3047 Rain 25 1010 94 1000 1.54 270 20:58 01.02.2021
3048 Rain 25 1010 94 1000 1.54 270 20:40 01.02.2021
3049 Rain 25 1010 94 5000 1.03 260 20:22 01.02.2021
3050 Rain 25 1010 94 4000 1.03 0 19:41 01.02.2021
3051 Clouds 25 1011 94 6000 2.57 250 19:21 01.02.2021
3052 Rain 25 1011 94 6000 2.57 270 18:49 01.02.2021
3053 Rain 26 1011 94 7000 2.06 280 18:28 01.02.2021
3054 Rain 26 1011 94 6000 1.54 310 17:48 01.02.2021
3055 Rain 26 1011 94 6000 2.06 290 17:25 01.02.2021
3056 Rain 26 1011 89 6000 2.06 300 16:58 01.02.2021
3057 Rain 26 1011 89 6000 1.54 290 16:30 01.02.2021
3058 Rain 26 1011 89 6000 1.03 300 15:48 01.02.2021
3059 Rain 26 1011 89 5000 1.03 290 15:19 01.02.2021
3060 Rain 26 1011 89 8000 1.54 270 14:52 01.02.2021
3061 Rain 26 1010 94 4000 1.54 340 14:33 01.02.2021
3062 Rain 26 1010 94 4000 1.54 340 13:51 01.02.2021
3063 Rain 26 1010 94 4000 1.54 340 13:28 01.02.2021
3064 Rain 26 1010 89 4000 1.54 320 12:58 01.02.2021
3065 Rain 26 1009 89 3000 1.54 30 12:40 01.02.2021
3066 Rain 26 1009 89 3000 1.54 30 12:21 01.02.2021
3067 Rain 27 1008 74 4000 2.06 350 11:40 01.02.2021
3068 Haze 29 1008 74 4000 2.06 350 11:19 01.02.2021
3069 Haze 29 1007 74 5000 3.09 300 10:44 01.02.2021
3070 Rain 30 1007 70 5000 3.09 310 10:19 01.02.2021
3071 Haze 32 1008 66 5000 2.57 350 09:43 01.02.2021
3072 Haze 32 1008 66 5000 2.57 350 09:20 01.02.2021
3073 Haze 32 1008 66 5000 2.06 300 08:44 01.02.2021
3074 Haze 31 1010 66 5000 4.12 340 07:37 01.02.2021
3075 Haze 32 1011 66 4000 2.06 270 05:59 01.02.2021
3076 Rain 29 1011 74 4000 2.06 310 03:21 01.02.2021
3077 Haze 26 1011 94 3000 1.54 250 00:58 01.02.2021
3078 Mist 25 1010 94 3000 0.59 222 23:42 31.01.2021
3079 Mist 25 1009 94 3000 1.07 239 22:43 31.01.2021
3080 Mist 25 1009 94 3000 1.62 234 22:24 31.01.2021
3081 Rain 25 1009 88 3000 1.03 170 21:50 31.01.2021
3082 Mist 26 1010 83 4000 0.51 0 21:23 31.01.2021
3083 Mist 26 1010 83 4000 0.51 0 21:23 31.01.2021
3084 Haze 26 1010 88 4000 1.54 210 20:50 31.01.2021
3085 Haze 26 1010 88 4000 1.54 210 20:50 31.01.2021
3086 Haze 26 1010 83 4000 1.03 0 20:22 31.01.2021
3087 Rain 26 1010 83 4400 1.03 0 19:56 31.01.2021
3088 Rain 26 1010 83 4400 1.03 0 19:37 31.01.2021
3089 Haze 26 1011 83 4700 2.06 0 19:19 31.01.2021
3090 Rain 26 1011 89 4300 1.54 0 18:41 31.01.2021
3091 Rain 26 1011 89 4300 1.54 0 18:41 31.01.2021
3092 Haze 26 1011 89 4300 1.54 0 18:21 31.01.2021
3093 Haze 27 1011 83 4100 1.03 0 17:47 31.01.2021
3094 Haze 27 1011 83 5000 1.03 0 17:23 31.01.2021
3095 Haze 27 1011 83 5000 1.03 0 16:51 31.01.2021
3096 Haze 27 1011 83 5000 1.03 0 16:51 31.01.2021
3097 Haze 27 1011 89 5000 2.38 287 16:33 31.01.2021
3098 Rain 27 1011 89 5000 2.35 289 15:52 31.01.2021
3099 Haze 27 1011 89 5000 2.35 289 15:34 31.01.2021
3100 Rain 27 1010 83 5000 2.31 285 14:45 31.01.2021
3101 Rain 27 1010 83 5000 2.72 281 14:24 31.01.2021
3102 Haze 27 1010 83 5000 2.72 281 13:56 31.01.2021
3103 Haze 27 1010 83 5000 2.72 281 13:56 31.01.2021
3104 Rain 28 1009 74 5000 1.54 290 13:37 31.01.2021
3105 Haze 28 1009 74 5000 1.54 290 12:49 31.01.2021
3106 Haze 28 1009 74 5000 2.06 300 12:23 31.01.2021
3107 Haze 28 1009 74 5000 4.12 290 11:58 31.01.2021
3108 Haze 29 1009 74 5000 4.12 300 11:37 31.01.2021
3109 Haze 29 1009 74 5000 4.12 300 11:19 31.01.2021
3110 Haze 29 1009 74 5000 2.57 290 10:43 31.01.2021
3111 Haze 30 1009 74 5000 3.09 260 10:24 31.01.2021
3112 Rain 30 1009 78 5000 2.06 310 09:32 31.01.2021
3113 Rain 30 1010 70 5000 3.6 290 08:34 31.01.2021
3114 Rain 29 1010 74 5000 4.12 270 07:20 31.01.2021
3115 Rain 29 1012 83 3000 2.57 250 05:42 31.01.2021
3116 Rain 25 1010 100 2000 1.54 280 00:52 31.01.2021
3117 Rain 25 1010 100 2000 1.54 260 00:26 31.01.2021
3118 Rain 25 1009 100 3000 4.08 293 23:34 30.01.2021
3119 Rain 25 1009 100 3000 3.62 290 22:57 30.01.2021
3120 Rain 25 1009 88 3500 1.03 0 22:31 30.01.2021
3121 Rain 25 1009 88 3500 1.03 0 21:42 30.01.2021
3122 Rain 25 1009 88 3500 1.54 0 21:23 30.01.2021
3123 Rain 25 1009 88 4000 2.06 0 20:50 30.01.2021
3124 Rain 25 1010 88 4000 2.06 0 20:31 30.01.2021
3125 Rain 25 1010 88 5000 2.57 0 19:54 30.01.2021
3126 Rain 25 1010 88 5000 2.57 0 19:54 30.01.2021
3127 Rain 25 1010 88 5000 2.57 0 19:36 30.01.2021
3128 Rain 25 1010 88 5000 2.57 190 19:18 30.01.2021
3129 Rain 25 1010 88 5000 2.06 0 18:39 30.01.2021
3130 Rain 25 1011 94 5000 1.54 190 18:19 30.01.2021
3131 Rain 25 1011 94 5000 1.03 190 17:23 30.01.2021
3132 Rain 25 1011 88 5000 1.03 260 16:56 30.01.2021
3133 Rain 25 1011 88 5000 1.03 260 16:37 30.01.2021
3134 Rain 25 1011 88 5000 1.03 0 16:18 30.01.2021
3135 Rain 25 1011 88 5000 2.57 330 15:40 30.01.2021
3136 Rain 25 1011 88 5000 1.54 320 15:22 30.01.2021
3137 Rain 25 1011 88 4000 2.06 300 14:52 30.01.2021
3138 Clouds 26 1009 89 4000 1.54 260 14:22 30.01.2021
3139 Clouds 26 1009 89 4000 1.54 260 13:40 30.01.2021
3140 Clouds 26 1009 89 4000 1.54 260 13:19 30.01.2021
3141 Haze 27 1009 83 4000 1.54 300 12:42 30.01.2021
3142 Haze 28 1009 83 4000 1.54 300 12:20 30.01.2021
3143 Rain 28 1008 78 4000 1.54 310 11:40 30.01.2021
3144 Rain 28 1008 83 4000 1.54 290 10:54 30.01.2021
3145 Rain 28 1008 89 4000 1.54 280 09:54 30.01.2021
3146 Rain 28 1008 89 4000 1.54 280 09:31 30.01.2021
3147 Rain 29 1008 78 5000 4.12 290 08:56 30.01.2021
3148 Rain 29 1008 78 5000 4.12 290 08:56 30.01.2021
3149 Rain 29 1009 74 5000 4.12 300 08:36 30.01.2021
3150 Rain 29 1009 70 5000 4.63 320 07:30 30.01.2021
3151 Haze 29 1010 74 5000 4.12 340 06:21 30.01.2021
3152 Clouds 26 1011 94 4000 2.06 280 03:36 30.01.2021
3153 Rain 25 1011 100 4000 1.54 240 02:26 30.01.2021
3154 Rain 24 1010 94 4000 5.6 293 01:59 30.01.2021
3155 Mist 24 1009 94 4000 1.54 270 00:49 30.01.2021
3156 Rain 24 1009 94 4000 1.54 260 00:21 30.01.2021
3157 Rain 24 1009 94 4000 1.54 270 23:49 29.01.2021
3158 Rain 24 1009 94 4000 5.26 294 23:27 29.01.2021
3159 Rain 24 1009 94 3000 2.06 270 22:45 29.01.2021
3160 Rain 24 1009 94 2000 3.09 260 22:23 29.01.2021
3161 Clouds 25 1009 94 6000 4.63 250 21:44 29.01.2021
3162 Clouds 24 1009 94 5000 2.06 280 21:26 29.01.2021
3163 Clouds 25 1009 88 5000 3.6 260 20:42 29.01.2021
3164 Haze 25 1009 83 5000 5.14 240 20:21 29.01.2021
3165 Haze 25 1009 83 5000 3.09 250 19:39 29.01.2021
3166 Haze 25 1010 88 5000 2.57 250 19:20 29.01.2021
3167 Haze 25 1010 88 5000 3.6 240 18:45 29.01.2021
3168 Haze 25 1010 83 5000 3.09 250 17:46 29.01.2021
3169 Rain 25 1010 88 5000 2.57 240 17:22 29.01.2021
3170 Rain 25 1010 88 5000 2.57 240 16:47 29.01.2021
3171 Rain 25 1010 88 5000 3.09 240 16:24 29.01.2021
3172 Haze 25 1010 88 5000 3.09 240 15:54 29.01.2021
3173 Rain 25 1010 88 5000 3.09 260 15:36 29.01.2021
3174 Haze 25 1009 88 5000 3.6 240 14:58 29.01.2021
3175 Haze 25 1009 88 5000 2.57 260 14:21 29.01.2021
3176 Haze 25 1009 88 5000 2.57 260 13:46 29.01.2021
3177 Rain 25 1009 94 5000 2.06 270 13:27 29.01.2021
3178 Rain 25 1008 94 5000 3.09 260 12:30 29.01.2021
3179 Clouds 25 1008 94 5000 3.09 250 11:59 29.01.2021
3180 Rain 25 1008 94 5000 3.6 250 11:41 29.01.2021
3181 Rain 25 1008 94 5000 3.6 250 11:18 29.01.2021
3182 Rain 25 1008 94 4000 3.09 260 10:41 29.01.2021
3183 Rain 25 1008 94 4000 3.09 260 10:19 29.01.2021
3184 Rain 26 1007 89 1000 9.26 250 09:37 29.01.2021
3185 Rain 27 1007 94 3000 2.57 270 08:50 29.01.2021
3186 Rain 29 1008 74 5000 3.09 240 08:26 29.01.2021
3187 Haze 30 1008 58 5000 3.6 330 07:44 29.01.2021
3188 Haze 30 1008 66 5000 4.12 290 07:23 29.01.2021
3189 Haze 30 1010 70 5000 3.6 330 06:38 29.01.2021
3190 Haze 28 1010 78 5000 2.57 290 04:42 29.01.2021
3191 Haze 24 1009 100 3000 1.54 260 00:51 29.01.2021
3192 Haze 24 1009 100 3000 1.54 260 00:23 29.01.2021
3193 Clouds 24 1008 100 3000 2.57 240 23:55 28.01.2021
3194 Clouds 24 1008 100 3000 2.57 250 23:36 28.01.2021
3195 Clouds 24 1008 100 3000 2.57 250 23:18 28.01.2021
3196 Haze 24 1008 94 3000 2.06 250 22:41 28.01.2021
3197 Haze 24 1008 94 3000 2.06 250 22:21 28.01.2021
3198 Rain 24 1008 94 5000 2.57 0 21:42 28.01.2021
3199 Rain 24 1008 94 5000 2.57 0 21:23 28.01.2021
3200 Rain 24 1009 94 5000 3.6 270 20:46 28.01.2021
3201 Rain 24 1009 94 5000 3.09 240 20:19 28.01.2021
3202 Rain 25 1009 88 5000 4.12 240 19:52 28.01.2021
3203 Rain 25 1009 94 5000 3.6 250 19:29 28.01.2021
3204 Clouds 26 1009 88 5000 2.57 280 18:53 28.01.2021
3205 Clouds 26 1009 88 5000 2.57 280 18:34 28.01.2021
3206 Clouds 25 1010 94 3500 3.09 0 17:58 28.01.2021
3207 Clouds 25 1010 94 3500 3.09 0 17:40 28.01.2021
3208 Clouds 26 1010 88 4000 6.17 10 17:21 28.01.2021
3209 Clouds 26 1010 88 8000 1.54 250 16:43 28.01.2021
3210 Rain 25 1010 88 8000 1.54 280 16:21 28.01.2021
3211 Clouds 26 1010 88 8000 1.54 240 15:36 28.01.2021
3212 Haze 26 1009 74 5000 4.12 270 14:55 28.01.2021
3213 Rain 27 1009 74 5000 4.12 270 14:37 28.01.2021
3214 Haze 27 1009 74 5000 4.12 270 14:18 28.01.2021
3215 Rain 27 1008 65 5000 4.12 280 13:39 28.01.2021
3216 Rain 27 1008 65 5000 4.12 280 12:51 28.01.2021
3217 Haze 28 1008 69 5000 4.12 280 12:33 28.01.2021
3218 Haze 28 1007 69 5000 4.12 290 11:58 28.01.2021
3219 Haze 28 1007 69 5000 4.12 240 11:39 28.01.2021
3220 Haze 28 1007 69 5000 4.12 240 11:18 28.01.2021
3221 Haze 28 1007 65 5000 4.12 270 10:49 28.01.2021
3222 Haze 28 1007 65 5000 4.12 270 10:26 28.01.2021
3223 Haze 28 1007 70 5000 4.12 280 09:42 28.01.2021
3224 Haze 28 1007 70 5000 4.12 280 09:20 28.01.2021
3225 Haze 28 1007 65 5000 4.12 270 08:46 28.01.2021
3226 Haze 26 1008 74 5000 4.12 240 07:54 28.01.2021
3227 Haze 25 1009 83 5000 4.12 270 07:36 28.01.2021
3228 Clouds 25 1009 83 5000 4.12 270 06:48 28.01.2021
3229 Haze 27 1010 69 5000 4.12 240 04:33 28.01.2021
3230 Haze 27 1010 74 5000 4.12 240 03:42 28.01.2021
3231 Clouds 25 1009 94 5000 4.12 240 00:57 28.01.2021
3232 Clouds 24 1009 94 5000 7.2 250 23:43 27.01.2021
3233 Clouds 24 1008 88 5000 6.69 240 23:23 27.01.2021
3234 Haze 25 1008 83 5000 3.09 250 22:41 27.01.2021
3235 Haze 25 1008 83 5000 3.09 250 22:21 27.01.2021
3236 Clouds 25 1008 88 7000 5.14 260 21:42 27.01.2021
3237 Clouds 25 1008 83 7000 5.66 270 21:22 27.01.2021
3238 Clouds 25 1008 88 6000 6.69 270 20:47 27.01.2021
3239 Clouds 25 1008 83 6000 3.6 250 20:20 27.01.2021
3240 Clouds 25 1009 83 6000 3.6 250 19:43 27.01.2021
3241 Clouds 25 1009 88 6000 3.6 240 19:21 27.01.2021
3242 Clouds 26 1009 88 6000 3.09 260 18:45 27.01.2021
3243 Clouds 26 1010 88 6000 2.06 280 18:24 27.01.2021
3244 Clouds 26 1010 88 6000 2.57 270 17:52 27.01.2021
3245 Clouds 26 1010 88 6000 3.6 250 17:32 27.01.2021
3246 Rain 26 1010 88 5000 3.09 260 16:56 27.01.2021
3247 Clouds 27 1009 83 6000 2.06 280 16:38 27.01.2021
3248 Rain 27 1009 83 6000 2.06 280 16:20 27.01.2021
3249 Rain 27 1009 83 6000 2.06 280 15:48 27.01.2021
3250 Rain 27 1009 83 6000 2.06 280 15:27 27.01.2021
3251 Rain 27 1009 78 6000 2.06 260 14:24 27.01.2021
3252 Clouds 27 1008 78 6000 2.57 280 13:50 27.01.2021
3253 Clouds 27 1008 74 6000 2.06 270 13:32 27.01.2021
3254 Rain 27 1007 74 6000 2.57 290 12:42 27.01.2021
3255 Clouds 27 1007 74 6000 2.57 290 12:23 27.01.2021
3256 Clouds 28 1007 74 6000 3.6 310 11:47 27.01.2021
3257 Haze 28 1007 74 5000 4.12 240 11:23 27.01.2021
3258 Clouds 28 1006 65 6000 7.72 280 10:42 27.01.2021
3259 Clouds 29 1006 65 6000 7.72 280 10:21 27.01.2021
3260 Clouds 29 1007 69 5000 4.63 280 09:51 27.01.2021
3261 Clouds 29 1007 69 5000 5.14 260 09:27 27.01.2021
3262 Rain 29 1008 78 5000 5.14 280 08:40 27.01.2021
3263 Rain 29 1008 78 5000 6.17 250 07:46 27.01.2021
3264 Clouds 28 1008 78 5000 6.17 250 07:26 27.01.2021
3265 Rain 28 1008 74 5000 7.72 240 06:25 27.01.2021
3266 Rain 29 1009 74 6000 5.14 270 05:49 27.01.2021
3267 Clouds 30 1009 74 6000 5.14 270 04:57 27.01.2021
3268 Haze 27 1009 83 5000 3.6 250 02:46 27.01.2021
3269 Haze 26 1009 83 5000 2.57 270 02:20 27.01.2021
3270 Haze 25 1008 88 5000 2.57 250 00:56 27.01.2021
3271 Haze 25 1008 88 5000 2.57 250 00:18 27.01.2021
3272 Haze 24 1007 94 4000 4.12 230 23:32 26.01.2021
3273 Haze 24 1007 94 4000 4.12 230 22:58 26.01.2021
3274 Haze 24 1008 94 3000 4.12 240 22:37 26.01.2021
3275 Haze 24 1008 94 3000 4.12 240 22:18 26.01.2021
3276 Clouds 24 1008 94 5000 3.6 250 21:46 26.01.2021
3277 Clouds 24 1008 94 4000 4.12 240 21:21 26.01.2021
3278 Clouds 24 1008 94 4000 4.12 240 20:41 26.01.2021
3279 Clouds 24 1008 94 4000 4.63 240 20:23 26.01.2021
3280 Clouds 24 1009 94 2000 4.63 260 19:50 26.01.2021
3281 Rain 24 1009 94 3000 7.72 270 19:29 26.01.2021
3282 Haze 25 1009 94 5000 5.14 260 18:57 26.01.2021
3283 Haze 25 1009 94 5000 5.14 260 18:39 26.01.2021
3284 Haze 25 1009 94 5000 5.14 260 18:19 26.01.2021
3285 Haze 25 1009 94 5000 5.14 250 17:46 26.01.2021
3286 Haze 25 1010 94 5000 5.14 250 17:22 26.01.2021
3287 Clouds 25 1010 94 5000 4.12 240 16:42 26.01.2021
3288 Rain 25 1010 94 5000 4.63 260 16:20 26.01.2021
3289 Clouds 25 1010 94 5000 5.14 270 15:50 26.01.2021
3290 Clouds 25 1010 94 5000 4.63 250 15:30 26.01.2021
3291 Rain 25 1009 94 2000 5.66 260 14:49 26.01.2021
3292 Rain 26 1008 78 5000 4.12 240 14:30 26.01.2021
3293 Rain 26 1008 78 5000 4.12 240 13:42 26.01.2021
3294 Rain 26 1008 78 5000 4.12 240 13:24 26.01.2021
3295 Rain 26 1008 83 5000 4.12 240 12:45 26.01.2021
3296 Rain 26 1007 83 6000 5.14 240 12:25 26.01.2021
3297 Rain 27 1007 78 6000 4.12 240 11:59 26.01.2021
3298 Rain 27 1007 78 6000 5.14 270 11:39 26.01.2021
3299 Haze 28 1006 74 5000 5.14 240 10:50 26.01.2021
3300 Haze 28 1006 74 5000 5.14 240 10:31 26.01.2021
3301 Haze 28 1006 78 5000 4.12 240 09:48 26.01.2021
3302 Rain 28 1006 78 5000 4.12 240 09:28 26.01.2021
3303 Haze 28 1007 78 5000 4.12 270 08:53 26.01.2021
3304 Rain 28 1007 89 5000 2.57 240 08:33 26.01.2021
3305 Clouds 30 1008 89 4000 4.12 330 07:50 26.01.2021
3306 Haze 32 1008 62 5000 4.12 240 06:24 26.01.2021
3307 Haze 33 1009 66 5000 4.12 240 05:44 26.01.2021
3308 Clouds 32 1009 62 6000 4.12 240 05:23 26.01.2021
3309 Haze 29 1010 74 5000 4.12 240 02:57 26.01.2021
3310 Haze 26 1009 88 4000 2.57 220 00:58 26.01.2021
3311 Mist 25 1008 100 3000 2.08 262 23:40 25.01.2021
3312 Mist 25 1008 100 3000 1.71 271 23:18 25.01.2021
3313 Mist 25 1009 100 3000 1.71 271 22:39 25.01.2021
3314 Mist 25 1009 100 3000 1.14 283 22:18 25.01.2021
3315 Mist 26 1009 89 3000 2.57 320 21:39 25.01.2021
3316 Mist 26 1009 83 3000 1.54 350 20:53 25.01.2021
3317 Mist 26 1009 83 3000 1.54 350 20:33 25.01.2021
3318 Haze 26 1009 88 5000 1.54 0 19:58 25.01.2021
3319 Haze 26 1009 88 5000 1.54 0 19:40 25.01.2021
3320 Haze 26 1009 88 5000 2.06 270 19:20 25.01.2021
3321 Haze 26 1010 83 5000 1.03 0 18:42 25.01.2021
3322 Haze 26 1010 83 5000 1.03 310 18:22 25.01.2021
3323 Haze 26 1010 83 5000 1.54 300 17:43 25.01.2021
3324 Rain 26 1010 83 5000 1.54 290 17:24 25.01.2021
3325 Rain 26 1010 89 5000 1.74 170 16:43 25.01.2021
3326 Rain 26 1010 89 5000 1.27 207 16:24 25.01.2021
3327 Haze 26 1010 89 5000 1.27 207 15:53 25.01.2021
3328 Rain 26 1010 89 5000 1.27 207 15:34 25.01.2021
3329 Rain 26 1010 89 5000 1.54 140 14:51 25.01.2021
3330 Rain 27 1010 89 5000 1.54 170 14:20 25.01.2021
3331 Rain 27 1009 89 5000 1.54 230 13:55 25.01.2021
3332 Rain 27 1009 83 4000 1.54 140 13:36 25.01.2021
3333 Rain 27 1009 83 4000 1.54 140 12:49 25.01.2021
3334 Rain 27 1008 83 5000 1.54 200 12:25 25.01.2021
3335 Haze 28 1008 78 5000 5.14 200 11:58 25.01.2021
3336 Rain 28 1007 78 5000 1.54 280 11:25 25.01.2021
3337 Haze 29 1006 78 5000 1.54 340 10:45 25.01.2021
3338 Rain 29 1006 78 5000 3.09 280 10:21 25.01.2021
3339 Haze 30 1006 83 5000 2.57 330 09:48 25.01.2021
3340 Clouds 29 1007 89 5000 1.54 200 09:28 25.01.2021
3341 Rain 29 1008 88 4000 6.17 250 08:33 25.01.2021
3342 Rain 30 1008 89 4000 6.17 260 07:51 25.01.2021
3343 Clouds 31 1008 66 4000 2.06 300 07:27 25.01.2021
3344 Haze 32 1009 66 4000 1.54 310 06:25 25.01.2021
3345 Mist 27 1010 94 2000 1.54 180 01:37 25.01.2021
3346 Mist 25 1010 100 1800 2.25 78 00:35 25.01.2021
3347 Mist 25 1009 100 2000 1.94 87 23:20 24.01.2021
3348 Mist 25 1009 100 2000 1.94 87 22:48 24.01.2021
3349 Mist 25 1009 100 2000 1.82 100 22:28 24.01.2021
3350 Mist 25 1009 94 2000 1.54 130 21:58 24.01.2021
3351 Haze 25 1009 94 3000 1.03 0 21:30 24.01.2021
3352 Haze 25 1009 94 3000 1.54 40 20:47 24.01.2021
3353 Haze 25 1009 94 3000 2.91 115 20:23 24.01.2021
3354 Haze 25 1009 88 3000 1.54 0 19:57 24.01.2021
3355 Haze 25 1009 88 3000 1.54 0 19:39 24.01.2021
3356 Haze 25 1009 88 3000 1.54 0 19:19 24.01.2021
3357 Haze 25 1010 88 4300 1.54 0 18:54 24.01.2021
3358 Haze 25 1010 88 4300 1.54 0 18:36 24.01.2021
3359 Haze 25 1010 88 5000 2.06 0 18:18 24.01.2021
3360 Haze 25 1010 88 5000 3.09 170 17:42 24.01.2021
3361 Haze 25 1011 88 5000 2.06 0 17:18 24.01.2021
3362 Rain 25 1011 94 4700 1.03 0 16:41 24.01.2021
3363 Haze 25 1011 88 4500 1.54 0 16:21 24.01.2021
3364 Haze 25 1011 88 5000 3.09 140 15:46 24.01.2021
3365 Rain 26 1010 94 4000 1.54 130 15:21 24.01.2021
3366 Rain 26 1010 94 4000 1.54 130 14:56 24.01.2021
3367 Haze 26 1010 94 4000 1.54 130 14:32 24.01.2021
3368 Rain 25 1009 94 4000 1.54 310 13:36 24.01.2021
3369 Rain 26 1009 94 5000 1.54 230 12:55 24.01.2021
3370 Rain 26 1009 94 5000 1.54 250 12:36 24.01.2021
3371 Rain 26 1009 94 5000 1.54 250 12:18 24.01.2021
3372 Rain 26 1009 94 5000 1.54 170 11:43 24.01.2021
3373 Rain 26 1009 94 5000 1.54 150 11:22 24.01.2021
3374 Rain 26 1008 88 5000 1.54 130 10:36 24.01.2021
3375 Rain 26 1008 88 5000 1.54 130 10:36 24.01.2021
3376 Rain 26 1009 94 5000 1.54 210 09:53 24.01.2021
3377 Rain 26 1009 94 5000 1.54 200 09:22 24.01.2021
3378 Rain 26 1009 94 4000 1.54 180 08:51 24.01.2021
3379 Rain 25 1011 100 3000 1.54 260 05:18 24.01.2021
3380 Rain 26 1011 94 2000 1.54 320 02:21 24.01.2021
3381 Rain 25 1010 100 2000 1.54 160 00:58 24.01.2021
3382 Mist 25 1009 100 2000 1.54 150 00:23 24.01.2021
3383 Mist 26 1009 100 2000 1.54 170 23:46 23.01.2021
3384 Mist 26 1009 100 2000 3.29 310 23:22 23.01.2021
3385 Rain 26 1008 100 2000 3.29 310 22:41 23.01.2021
3386 Rain 26 1008 89 4000 3.09 130 22:21 23.01.2021
3387 Rain 26 1008 89 4000 1.54 0 21:47 23.01.2021
3388 Mist 27 1008 83 4000 1.03 0 21:19 23.01.2021
3389 Haze 27 1009 83 4400 1.03 0 20:40 23.01.2021
3390 Haze 27 1009 89 4800 1.03 0 20:21 23.01.2021
3391 Haze 27 1009 89 5000 1.03 60 19:45 23.01.2021
3392 Rain 27 1009 89 4800 1.54 60 19:20 23.01.2021
3393 Rain 27 1009 89 4800 1.54 60 19:20 23.01.2021
3394 Haze 27 1009 89 5000 1.54 70 18:44 23.01.2021
3395 Haze 28 1010 89 5000 3.49 9 18:24 23.01.2021
3396 Haze 28 1010 89 5000 3.49 9 17:45 23.01.2021
3397 Clouds 28 1010 89 6000 3.02 9 17:26 23.01.2021
3398 Clouds 28 1010 89 6000 3.02 9 16:47 23.01.2021
3399 Clouds 28 1010 89 6000 2.92 20 16:25 23.01.2021
3400 Clouds 28 1010 83 6000 2.92 20 15:40 23.01.2021
3401 Clouds 28 1010 83 6000 2.97 19 15:20 23.01.2021
3402 Clouds 28 1010 89 6000 2.97 19 14:31 23.01.2021
3403 Haze 28 1009 83 5000 3.11 18 13:52 23.01.2021
3404 Haze 29 1009 78 5000 3.11 18 13:34 23.01.2021
3405 Haze 29 1009 78 5000 3.22 14 12:57 23.01.2021
3406 Haze 29 1008 78 5000 2.06 350 12:27 23.01.2021
3407 Haze 30 1008 74 5000 2.06 30 11:45 23.01.2021
3408 Haze 30 1008 74 5000 2.06 300 11:25 23.01.2021
3409 Haze 30 1008 74 5000 3.6 340 10:48 23.01.2021
3410 Clouds 30 1008 74 6000 2.06 360 10:19 23.01.2021
3411 Rain 30 1007 74 6000 3.09 310 09:46 23.01.2021
3412 Clouds 31 1007 70 6000 4.12 360 08:54 23.01.2021
3413 Clouds 30 1008 70 6000 4.63 280 08:30 23.01.2021
3414 Clouds 30 1008 70 6000 4.63 280 08:30 23.01.2021
3415 Haze 29 1008 70 5000 5.14 340 07:24 23.01.2021
3416 Haze 29 1010 70 5000 2.5 350 03:36 23.01.2021
3417 Haze 25 1009 94 2000 1.19 309 00:41 23.01.2021
3418 Haze 24 1008 94 3000 1.22 297 23:39 22.01.2021
3419 Haze 24 1008 94 3000 1.44 288 22:53 22.01.2021
3420 Haze 24 1008 94 3000 1.44 288 22:32 22.01.2021
3421 Mist 25 1008 83 2400 1.03 150 21:46 22.01.2021
3422 Mist 24 1008 94 2500 1.03 0 21:26 22.01.2021
3423 Mist 24 1008 88 3000 1.54 260 20:56 22.01.2021
3424 Mist 24 1008 88 3000 1.54 260 20:37 22.01.2021
3425 Rain 25 1008 88 2500 1.54 270 19:54 22.01.2021
3426 Haze 25 1009 88 2500 1.03 290 19:21 22.01.2021
3427 Rain 26 1009 83 2700 1.03 0 18:55 22.01.2021
3428 Haze 26 1009 83 3000 1.03 0 18:30 22.01.2021
3429 Rain 26 1010 83 3500 1.03 210 17:58 22.01.2021
3430 Rain 26 1010 83 3500 1.03 210 17:40 22.01.2021
3431 Rain 26 1010 83 2500 1.03 240 16:59 22.01.2021
3432 Rain 26 1010 83 2500 1.03 240 16:36 22.01.2021
3433 Haze 26 1010 83 2500 1.03 360 15:59 22.01.2021
3434 Haze 27 1010 83 2500 1.03 20 15:26 22.01.2021
3435 Haze 27 1010 83 4000 1.03 0 14:51 22.01.2021
3436 Haze 27 1008 73 5000 1.54 290 14:29 22.01.2021
3437 Rain 27 1008 73 5000 1.54 290 13:46 22.01.2021
3438 Rain 27 1008 73 5000 1.54 290 13:27 22.01.2021
3439 Rain 27 1008 69 5000 1.54 300 12:44 22.01.2021
3440 Rain 28 1008 65 5000 1.54 280 12:20 22.01.2021
3441 Rain 28 1008 65 5000 1.54 240 11:45 22.01.2021
3442 Haze 28 1007 57 5000 1.54 270 10:54 22.01.2021
3443 Rain 28 1007 65 5000 1.54 310 10:34 22.01.2021
3444 Rain 28 1007 61 5000 2.57 300 09:55 22.01.2021
3445 Rain 28 1007 61 5000 2.57 300 09:55 22.01.2021
3446 Rain 27 1007 61 5000 2.57 220 09:21 22.01.2021
3447 Haze 27 1008 65 5000 4.12 240 08:50 22.01.2021
3448 Rain 28 1008 65 5000 4.12 240 08:25 22.01.2021
3449 Haze 28 1009 65 5000 4.12 240 07:23 22.01.2021
3450 Clouds 28 1011 78 6000 2.57 0 02:42 22.01.2021
3451 Mist 26 1010 94 4000 1.03 280 00:37 22.01.2021
3452 Mist 26 1009 88 4000 1.03 0 23:50 21.01.2021
3453 Mist 26 1009 94 4000 1.03 280 23:29 21.01.2021
3454 Haze 26 1009 94 4000 0.51 330 22:49 21.01.2021
3455 Haze 26 1009 94 4000 1.03 0 22:23 21.01.2021
3456 Haze 26 1008 88 4000 1.03 0 21:43 21.01.2021
3457 Haze 26 1008 88 4000 1.54 190 21:20 21.01.2021
3458 Haze 26 1008 88 4000 1.54 240 20:48 21.01.2021
3459 Haze 26 1009 88 4000 1.03 290 20:27 21.01.2021
3460 Haze 26 1009 88 4000 1.54 280 19:51 21.01.2021
3461 Haze 26 1009 88 5000 2.06 280 19:29 21.01.2021
3462 Rain 26 1009 83 5000 1.54 300 18:56 21.01.2021
3463 Rain 26 1010 78 5000 1.03 0 18:38 21.01.2021
3464 Rain 26 1010 78 5000 1.03 0 18:19 21.01.2021
3465 Rain 27 1011 83 5000 1.03 310 17:42 21.01.2021
3466 Rain 27 1011 83 5000 1.03 310 17:19 21.01.2021
3467 Rain 27 1011 89 3000 1.54 310 16:42 21.01.2021
3468 Rain 27 1011 89 1500 1.54 0 16:24 21.01.2021
3469 Haze 28 1010 79 5000 0.91 246 15:58 21.01.2021
3470 Rain 28 1010 79 5000 0.91 246 15:33 21.01.2021
3471 Haze 28 1010 79 5000 0.04 0 14:52 21.01.2021
3472 Haze 27 1010 83 5000 2.06 30 14:34 21.01.2021
3473 Haze 28 1009 83 5000 0.16 68 13:48 21.01.2021
3474 Haze 28 1009 83 5000 1.54 350 13:27 21.01.2021
3475 Haze 28 1009 83 5000 1.23 355 12:55 21.01.2021
3476 Haze 28 1008 78 5000 1.03 310 12:37 21.01.2021
3477 Haze 29 1008 78 5000 1.03 310 12:18 21.01.2021
3478 Haze 29 1007 78 5000 1.54 310 11:43 21.01.2021
3479 Haze 29 1007 78 5000 1.54 310 11:22 21.01.2021
3480 Haze 30 1007 70 5000 1.54 280 10:45 21.01.2021
3481 Haze 30 1007 74 5000 1.54 240 10:24 21.01.2021
3482 Haze 30 1007 78 5000 2.06 250 09:40 21.01.2021
3483 Haze 30 1007 78 5000 2.06 250 09:21 21.01.2021
3484 Rain 29 1008 83 4000 1.54 290 08:35 21.01.2021
3485 Rain 29 1009 83 4000 2.06 310 07:49 21.01.2021
3486 Rain 28 1009 83 4000 2.06 270 07:26 21.01.2021
3487 Rain 28 1010 78 5000 1.54 330 06:43 21.01.2021
3488 Haze 28 1011 83 4000 2.06 280 04:58 21.01.2021
3489 Rain 26 1011 94 2000 1.54 240 02:22 21.01.2021
3490 Rain 25 1010 94 4000 1.54 200 00:43 21.01.2021
3491 Rain 25 1009 94 3000 1.54 270 23:52 20.01.2021
3492 Haze 25 1009 94 3000 1.54 270 23:30 20.01.2021
3493 Rain 26 1009 94 3000 1.54 290 22:57 20.01.2021
3494 Haze 26 1009 89 3000 1.54 20 22:35 20.01.2021
3495 Clouds 26 1009 94 5000 3.09 350 21:56 20.01.2021
3496 Clouds 26 1009 89 5000 3.6 30 21:24 20.01.2021
3497 Haze 26 1009 83 5000 1.54 160 20:55 20.01.2021
3498 Haze 26 1009 83 5000 1.54 160 20:36 20.01.2021
3499 Haze 26 1009 89 5000 1.03 130 20:18 20.01.2021
3500 Haze 26 1009 89 5000 1.54 140 19:40 20.01.2021
3501 Haze 27 1010 83 5000 1.54 130 19:21 20.01.2021
3502 Haze 27 1010 83 5000 2.06 110 18:41 20.01.2021
3503 Haze 27 1011 89 5000 1.54 100 17:56 20.01.2021
3504 Haze 27 1011 89 5000 1.54 100 17:37 20.01.2021
3505 Clouds 28 1011 83 6000 1.03 70 16:52 20.01.2021
3506 Clouds 28 1011 83 6000 1.54 90 16:32 20.01.2021
3507 Rain 28 1011 83 6000 1.54 100 15:51 20.01.2021
3508 Rain 28 1011 83 6000 1.54 100 15:33 20.01.2021
3509 Clouds 28 1010 74 6000 2.57 40 14:48 20.01.2021
3510 Clouds 28 1009 74 6000 1.54 310 14:22 20.01.2021
3511 Clouds 28 1009 74 6000 1.54 310 13:42 20.01.2021
3512 Clouds 28 1009 74 6000 1.54 310 13:21 20.01.2021
3513 Clouds 29 1009 74 6000 2.57 330 12:39 20.01.2021
3514 Clouds 29 1008 74 6000 4.12 360 11:57 20.01.2021
3515 Clouds 30 1009 70 6000 4.12 360 11:37 20.01.2021
3516 Clouds 30 1008 65 6000 2.57 360 10:56 20.01.2021
3517 Clouds 30 1008 65 6000 2.57 360 10:32 20.01.2021
3518 Clouds 30 1008 65 6000 2.57 360 10:32 20.01.2021
3519 Haze 31 1008 66 5000 1.54 40 09:54 20.01.2021
3520 Haze 30 1008 66 5000 4.12 330 09:26 20.01.2021
3521 Haze 30 1008 70 5000 4.12 360 08:57 20.01.2021
3522 Haze 31 1008 70 5000 4.12 360 08:31 20.01.2021
3523 Haze 30 1008 74 5000 1.54 320 07:57 20.01.2021
3524 Haze 30 1009 74 5000 3.6 340 07:35 20.01.2021
3525 Haze 29 1009 83 4000 3.09 340 06:39 20.01.2021
3526 Clouds 27 1011 94 1500 2.57 230 03:28 20.01.2021
3527 Mist 25 1010 94 4000 2.06 240 01:19 20.01.2021
3528 Clouds 25 1009 100 3000 2.06 210 00:46 20.01.2021
3529 Haze 25 1009 94 4000 1.54 200 23:49 19.01.2021
3530 Haze 24 1009 94 4000 1.54 140 23:26 19.01.2021
3531 Haze 24 1009 94 4000 1.54 210 22:57 19.01.2021
3532 Clouds 24 1009 94 4000 1.54 220 22:37 19.01.2021
3533 Clouds 24 1009 94 4000 1.54 220 22:19 19.01.2021
3534 Clouds 25 1009 83 6000 3.09 340 21:50 19.01.2021
3535 Clouds 25 1008 83 6000 3.09 0 21:26 19.01.2021
3536 Rain 25 1008 88 5000 2.06 0 20:44 19.01.2021
3537 Rain 25 1009 94 5000 1.54 0 20:24 19.01.2021
3538 Rain 24 1009 94 4000 2.57 0 19:54 19.01.2021
3539 Rain 24 1009 94 4000 2.57 170 19:29 19.01.2021
3540 Clouds 24 1010 94 4000 3.6 220 18:49 19.01.2021
3541 Clouds 26 1010 88 4000 5.14 260 18:27 19.01.2021
3542 Clouds 27 1010 83 4000 4.12 30 17:47 19.01.2021
3543 Haze 27 1010 83 5000 3.6 50 17:29 19.01.2021
3544 Clouds 27 1010 83 5000 3.09 40 16:50 19.01.2021
3545 Clouds 27 1010 89 6000 1.83 43 16:30 19.01.2021
3546 Clouds 27 1010 89 6000 1.6 51 15:59 19.01.2021
3547 Clouds 27 1010 89 6000 1.6 51 15:40 19.01.2021
3548 Clouds 27 1010 89 6000 1.51 39 15:19 19.01.2021
3549 Haze 27 1010 78 5000 1.54 40 14:41 19.01.2021
3550 Haze 27 1010 78 5000 1.54 40 14:23 19.01.2021
3551 Haze 28 1010 78 5000 2.06 30 13:48 19.01.2021
3552 Haze 28 1009 74 5000 1.54 330 13:21 19.01.2021
3553 Haze 28 1009 74 5000 2.57 300 12:48 19.01.2021
3554 Clouds 28 1009 74 5000 2.57 350 12:29 19.01.2021
3555 Haze 29 1008 74 5000 2.57 340 11:44 19.01.2021
3556 Haze 29 1008 74 5000 2.57 320 11:26 19.01.2021
3557 Haze 28 1008 69 4000 2.57 290 10:51 19.01.2021
3558 Haze 29 1008 69 5000 3.09 300 10:32 19.01.2021
3559 Haze 29 1008 69 5000 4.63 350 09:53 19.01.2021
3560 Haze 29 1008 65 5000 4.12 320 09:30 19.01.2021
3561 Haze 29 1008 65 5000 4.63 330 08:56 19.01.2021
3562 Haze 29 1009 65 5000 3.6 310 08:26 19.01.2021
3563 Haze 29 1009 69 5000 3.09 310 07:47 19.01.2021
3564 Haze 29 1009 69 5000 2.57 330 06:54 19.01.2021
3565 Haze 26 1011 88 4000 3.09 250 02:33 19.01.2021
3566 Clouds 25 1010 94 3000 2.06 240 01:27 19.01.2021
3567 Haze 24 1010 94 4000 1.54 250 23:58 18.01.2021
3568 Haze 24 1009 94 4000 1.54 250 23:34 18.01.2021
3569 Haze 24 1009 94 3000 1.54 250 22:51 18.01.2021
3570 Clouds 25 1009 78 7000 6.69 330 22:26 18.01.2021
3571 Clouds 25 1009 83 6000 4.63 320 21:58 18.01.2021
3572 Rain 25 1009 83 6000 4.63 320 21:39 18.01.2021
3573 Clouds 25 1009 88 6000 5.14 310 21:20 18.01.2021
3574 Clouds 25 1009 83 6000 3.6 320 20:43 18.01.2021
3575 Clouds 25 1009 78 6000 6.17 320 20:24 18.01.2021
3576 Clouds 25 1009 83 6000 3.6 300 19:51 18.01.2021
3577 Rain 25 1010 83 5000 4.63 320 19:32 18.01.2021
3578 Rain 25 1010 94 5000 3.6 280 18:47 18.01.2021
3579 Rain 25 1010 83 5000 3.6 320 18:23 18.01.2021
3580 Rain 25 1010 83 5000 4.63 300 17:45 18.01.2021
3581 Rain 26 1010 78 5000 1.54 300 17:23 18.01.2021
3582 Clouds 26 1010 78 5000 1.54 300 16:46 18.01.2021
3583 Rain 27 1010 78 6000 2.06 290 16:22 18.01.2021
3584 Clouds 28 1010 78 6000 2.06 290 15:48 18.01.2021
3585 Rain 28 1010 78 6000 1.54 300 15:25 18.01.2021
3586 Rain 28 1010 78 6000 1.54 270 14:44 18.01.2021
3587 Clouds 28 1010 78 6000 1.54 270 14:26 18.01.2021
3588 Clouds 28 1009 78 6000 1.54 290 13:47 18.01.2021
3589 Clouds 28 1009 78 6000 1.54 300 13:28 18.01.2021
3590 Haze 28 1009 74 5000 1.54 350 12:55 18.01.2021
3591 Haze 28 1009 74 5000 1.54 350 12:36 18.01.2021
3592 Haze 28 1009 74 5000 1.54 350 12:18 18.01.2021
3593 Haze 28 1007 78 5000 2.06 300 11:40 18.01.2021
3594 Haze 28 1007 78 5000 2.06 300 11:20 18.01.2021
3595 Rain 29 1007 78 5000 2.06 300 10:46 18.01.2021
3596 Clouds 29 1008 74 4000 5.14 240 09:50 18.01.2021
3597 Rain 29 1008 74 5000 3.09 330 09:32 18.01.2021
3598 Haze 30 1008 74 5000 5.14 330 08:55 18.01.2021
3599 Haze 30 1008 74 5000 2.57 360 08:25 18.01.2021
3600 Haze 31 1008 79 5000 3.6 330 07:37 18.01.2021
3601 Haze 29 1009 83 4000 2.57 330 05:49 18.01.2021
3602 Clouds 29 1010 78 4000 3.09 360 04:40 18.01.2021
3603 Clouds 29 1010 78 4000 3.09 360 04:18 18.01.2021
3604 Haze 29 1010 83 5000 4.12 310 03:43 18.01.2021
3605 Haze 29 1010 83 5000 4.12 270 03:20 18.01.2021
3606 Rain 28 1010 83 5000 2.57 260 02:40 18.01.2021
3607 Haze 27 1010 89 5000 2.57 240 01:39 18.01.2021
3608 Haze 26 1009 89 5000 2.57 250 00:35 18.01.2021
3609 Rain 26 1008 89 5000 2.57 260 23:49 17.01.2021
3610 Rain 26 1008 89 5000 2.06 280 23:22 17.01.2021
3611 Clouds 26 1008 88 6000 1.54 280 22:47 17.01.2021
3612 Clouds 26 1008 88 6000 2.06 280 22:22 17.01.2021
3613 Clouds 26 1008 88 6000 2.57 280 21:42 17.01.2021
3614 Clouds 27 1008 83 6000 2.57 300 21:24 17.01.2021
3615 Clouds 27 1008 83 6000 2.57 320 20:50 17.01.2021
3616 Clouds 27 1008 83 6000 2.57 310 20:31 17.01.2021
3617 Haze 27 1008 83 5000 4.63 330 19:44 17.01.2021
3618 Clouds 27 1009 89 5000 3.6 330 19:26 17.01.2021
3619 Haze 27 1009 89 5000 2.06 0 18:51 17.01.2021
3620 Haze 27 1009 83 5000 3.09 290 18:28 17.01.2021
3621 Haze 28 1009 89 5000 2.57 300 17:49 17.01.2021
3622 Haze 28 1010 83 5000 2.06 280 17:28 17.01.2021
3623 Haze 28 1010 89 5000 2.57 310 16:45 17.01.2021
3624 Haze 28 1009 83 5000 2.06 340 16:24 17.01.2021
3625 Clouds 28 1009 83 6000 2.06 350 15:44 17.01.2021
3626 Clouds 28 1009 83 7000 1.54 320 15:26 17.01.2021
3627 Clouds 28 1009 83 7000 2.06 310 14:53 17.01.2021
3628 Clouds 29 1009 83 7000 2.57 320 14:27 17.01.2021
3629 Haze 29 1007 78 5000 2.57 320 13:58 17.01.2021
3630 Haze 29 1007 78 5000 2.57 320 13:40 17.01.2021
3631 Haze 29 1007 78 5000 2.57 320 13:21 17.01.2021
3632 Haze 30 1007 74 5000 2.57 310 12:41 17.01.2021
3633 Haze 30 1007 74 5000 2.57 310 12:22 17.01.2021
3634 Haze 30 1006 70 5000 2.57 270 11:25 17.01.2021
3635 Haze 31 1005 70 5000 3.09 280 10:51 17.01.2021
3636 Haze 31 1005 70 5000 3.09 280 10:24 17.01.2021
3637 Haze 32 1005 70 5000 4.12 300 09:48 17.01.2021
3638 Haze 31 1006 70 5000 4.12 350 08:49 17.01.2021
3639 Haze 31 1006 70 5000 4.12 340 08:26 17.01.2021
3640 Haze 31 1009 65 4000 2.57 300 04:29 17.01.2021
3641 Haze 29 1010 78 4000 1.54 280 02:51 17.01.2021
3642 Haze 26 1008 83 3000 2.57 210 00:56 17.01.2021
3643 Haze 26 1008 83 3000 2.57 210 00:21 17.01.2021
3644 Haze 25 1008 88 3000 1.54 220 23:52 16.01.2021
3645 Haze 26 1007 88 3000 1.54 270 23:21 16.01.2021
3646 Haze 25 1007 88 3000 2.57 160 22:53 16.01.2021
3647 Haze 26 1007 88 3000 2.57 160 22:19 16.01.2021
3648 Haze 26 1007 88 5000 2.06 310 21:45 16.01.2021
3649 Haze 26 1007 88 5000 1.54 270 21:22 16.01.2021
3650 Haze 27 1007 83 5000 2.06 290 20:47 16.01.2021
3651 Clouds 27 1007 83 6000 2.06 320 20:23 16.01.2021
3652 Clouds 27 1007 78 6000 1.54 0 19:49 16.01.2021
3653 Clouds 27 1007 78 6000 2.57 200 19:29 16.01.2021
3654 Clouds 28 1007 78 7000 3.09 220 18:46 16.01.2021
3655 Clouds 27 1008 78 6000 2.57 160 18:27 16.01.2021
3656 Rain 28 1008 78 6000 2.57 160 17:50 16.01.2021
3657 Rain 28 1008 78 6000 2.57 160 17:30 16.01.2021
3658 Clouds 28 1008 69 6000 1.54 290 16:51 16.01.2021
3659 Clouds 28 1008 69 6000 1.54 290 16:33 16.01.2021
3660 Rain 28 1007 69 6000 1.54 270 15:56 16.01.2021
3661 Clouds 28 1007 74 6000 2.57 260 15:37 16.01.2021
3662 Rain 28 1007 70 6000 4.12 240 14:31 16.01.2021
3663 Rain 29 1007 65 6000 5.14 260 13:52 16.01.2021
3664 Rain 29 1007 65 6000 5.14 260 13:52 16.01.2021
3665 Clouds 29 1006 65 6000 4.12 260 13:30 16.01.2021
3666 Rain 30 1006 62 5000 4.12 270 12:47 16.01.2021
3667 Rain 29 1005 65 5000 4.12 210 12:23 16.01.2021
3668 Rain 30 1005 65 5000 4.12 210 11:55 16.01.2021
3669 Rain 32 1005 58 5000 6.69 240 11:26 16.01.2021
3670 Clouds 33 1004 55 6000 4.12 240 10:54 16.01.2021
3671 Clouds 34 1004 49 6000 5.66 270 10:35 16.01.2021
3672 Clouds 35 1004 49 6000 5.66 270 09:54 16.01.2021
3673 Clouds 34 1004 46 6000 5.66 270 09:19 16.01.2021
3674 Clouds 34 1005 52 6000 5.66 220 08:18 16.01.2021
3675 Clouds 34 1006 49 6000 5.66 240 06:49 16.01.2021
3676 Clouds 33 1008 51 6000 7.72 240 04:53 16.01.2021
3677 Haze 30 1009 66 5000 4.12 240 03:18 16.01.2021
3678 Haze 29 1009 89 4000 3.09 240 02:37 16.01.2021
3679 Haze 26 1008 88 4000 2.06 270 00:45 16.01.2021
3680 Haze 25 1008 88 3000 1.54 260 00:21 16.01.2021
3681 Haze 25 1007 88 5000 1.54 270 23:36 15.01.2021
3682 Haze 25 1008 83 5000 2.06 290 22:39 15.01.2021
3683 Haze 25 1008 83 5000 2.06 290 22:21 15.01.2021
3684 Mist 26 1007 83 3000 2.06 260 21:42 15.01.2021
3685 Haze 26 1008 83 4000 2.82 263 20:49 15.01.2021
3686 Haze 26 1008 78 5000 1.54 280 20:24 15.01.2021
3687 Haze 26 1008 83 5000 1.54 270 19:48 15.01.2021
3688 Haze 26 1008 78 5000 1.54 230 19:29 15.01.2021
3689 Rain 26 1009 78 5000 1.54 220 18:54 15.01.2021
3690 Rain 26 1009 78 5000 1.54 220 18:21 15.01.2021
3691 Haze 26 1009 73 5000 2.57 210 17:59 15.01.2021
3692 Haze 26 1009 73 5000 2.57 210 17:40 15.01.2021
3693 Haze 26 1010 69 5000 2.57 220 17:21 15.01.2021
3694 Haze 26 1009 69 5000 2.57 250 16:46 15.01.2021
3695 Haze 26 1009 78 5000 2.57 270 16:23 15.01.2021
3696 Haze 27 1009 73 5000 3.6 270 15:41 15.01.2021
3697 Haze 27 1009 83 5000 1.54 290 15:21 15.01.2021
3698 Haze 28 1009 83 5000 1.03 330 14:44 15.01.2021
3699 Clouds 28 1008 74 6000 1.54 290 14:25 15.01.2021
3700 Clouds 28 1008 74 6000 1.54 290 13:42 15.01.2021
3701 Clouds 28 1008 74 6000 1.54 290 13:22 15.01.2021
3702 Clouds 29 1008 74 6000 2.57 310 12:51 15.01.2021
3703 Clouds 28 1008 74 6000 2.57 320 12:31 15.01.2021
3704 Clouds 29 1008 74 6000 2.57 310 11:50 15.01.2021
3705 Clouds 29 1008 70 6000 3.6 350 11:31 15.01.2021
3706 Clouds 29 1007 70 6000 3.09 330 10:56 15.01.2021
3707 Clouds 30 1007 66 6000 3.6 360 10:37 15.01.2021
3708 Haze 29 1007 66 5000 3.09 320 09:56 15.01.2021
3709 Haze 29 1007 66 5000 3.09 320 09:35 15.01.2021
3710 Haze 29 1007 66 5000 4.63 350 08:48 15.01.2021
3711 Haze 30 1008 62 5000 2.57 310 08:21 15.01.2021
3712 Haze 29 1008 66 5000 2.57 240 07:41 15.01.2021
3713 Haze 29 1008 66 5000 2.57 240 07:19 15.01.2021
3714 Haze 28 1010 70 5000 2.57 360 04:35 15.01.2021
3715 Haze 28 1010 83 3000 1.54 260 01:48 15.01.2021
3716 Haze 26 1009 94 3000 1.54 210 23:55 14.01.2021
3717 Haze 26 1009 89 3000 1.54 240 23:23 14.01.2021
3718 Haze 26 1009 89 3000 1.54 160 22:44 14.01.2021
3719 Haze 26 1008 89 3000 1.54 290 22:25 14.01.2021
3720 Haze 26 1009 89 5000 2.57 190 21:48 14.01.2021
3721 Haze 26 1009 83 5000 1.54 250 21:21 14.01.2021
3722 Haze 26 1009 89 5000 1.54 0 20:51 14.01.2021
3723 Rain 26 1009 89 5000 1.03 290 20:27 14.01.2021
3724 Haze 26 1009 89 5000 2.06 240 19:48 14.01.2021
3725 Clouds 27 1010 89 6000 1.03 0 19:29 14.01.2021
3726 Clouds 27 1010 89 6000 1.03 260 18:55 14.01.2021
3727 Clouds 27 1010 89 6000 1.54 0 18:31 14.01.2021
3728 Rain 27 1011 83 6000 1.03 360 17:53 14.01.2021
3729 Haze 27 1012 83 5000 1.54 160 17:27 14.01.2021
3730 Haze 27 1012 83 5000 1.54 160 16:46 14.01.2021
3731 Rain 27 1012 83 5000 1.54 160 16:26 14.01.2021
3732 Rain 27 1012 83 6000 1.54 250 15:46 14.01.2021
3733 Rain 27 1012 83 6000 1.54 250 15:23 14.01.2021
3734 Clouds 28 1011 78 6000 1.54 320 14:39 14.01.2021
3735 Clouds 28 1011 78 6000 1.54 320 14:20 14.01.2021
3736 Clouds 28 1010 78 6000 2.06 330 13:54 14.01.2021
3737 Clouds 28 1010 78 6000 2.06 330 13:23 14.01.2021
3738 Clouds 28 1010 78 6000 1.54 330 12:54 14.01.2021
3739 Clouds 29 1010 74 6000 2.57 330 12:21 14.01.2021
3740 Clouds 29 1009 74 6000 3.09 340 11:53 14.01.2021
3741 Clouds 29 1009 74 6000 1.54 340 11:21 14.01.2021
3742 Rain 29 1009 69 6000 2.57 340 10:57 14.01.2021
3743 Clouds 29 1009 70 6000 1.54 340 10:38 14.01.2021
3744 Clouds 29 1009 70 6000 1.54 340 10:18 14.01.2021
3745 Clouds 29 1009 70 6000 2.57 350 09:41 14.01.2021
3746 Clouds 29 1009 70 6000 2.57 350 09:19 14.01.2021
3747 Haze 30 1009 70 5000 2.57 330 08:28 14.01.2021
3748 Haze 30 1009 70 5000 2.57 300 07:51 14.01.2021
3749 Haze 30 1010 70 5000 2.57 240 07:28 14.01.2021
3750 Clouds 31 1010 65 6000 3.6 330 06:30 14.01.2021
3751 Haze 29 1011 78 5000 2.57 270 04:24 14.01.2021
3752 Rain 26 1009 94 5000 1.54 220 23:57 13.01.2021
3753 Rain 26 1009 89 5000 1.54 210 23:27 13.01.2021
3754 Rain 26 1009 94 5000 1.54 250 22:48 13.01.2021
3755 Rain 26 1009 94 5000 1.54 250 22:20 13.01.2021
3756 Rain 26 1009 94 5000 1.54 250 22:20 13.01.2021
3757 Rain 27 1009 83 8000 3.09 290 21:43 13.01.2021
3758 Clouds 27 1009 83 8000 3.09 290 21:20 13.01.2021
3759 Rain 27 1010 83 8000 2.57 300 20:51 13.01.2021
3760 Rain 27 1010 83 8000 2.06 290 20:23 13.01.2021
3761 Rain 27 1010 83 8000 1.54 290 19:48 13.01.2021
3762 Rain 27 1010 83 8000 2.06 290 19:24 13.01.2021
3763 Rain 27 1010 83 8000 2.57 310 18:46 13.01.2021
3764 Rain 27 1010 78 8000 2.57 310 18:25 13.01.2021
3765 Rain 27 1010 78 8000 2.57 320 17:42 13.01.2021
3766 Rain 27 1010 89 8000 2.06 320 17:18 13.01.2021
3767 Rain 28 1010 78 8000 2.06 320 16:42 13.01.2021
3768 Rain 28 1011 78 8000 2.06 330 16:21 13.01.2021
3769 Rain 28 1010 78 8000 2.06 320 15:41 13.01.2021
3770 Clouds 28 1010 78 8000 1.54 330 15:20 13.01.2021
3771 Clouds 28 1009 74 6000 1.03 270 14:28 13.01.2021
3772 Clouds 28 1009 74 6000 1.03 270 13:48 13.01.2021
3773 Clouds 28 1009 74 6000 1.03 270 13:25 13.01.2021
3774 Clouds 28 1009 74 6000 1.54 310 12:46 13.01.2021
3775 Clouds 28 1008 69 6000 2.06 310 12:25 13.01.2021
3776 Clouds 28 1008 69 6000 2.57 280 11:51 13.01.2021
3777 Clouds 29 1007 70 6000 3.09 330 11:33 13.01.2021
3778 Clouds 29 1007 70 6000 3.09 330 10:49 13.01.2021
3779 Clouds 29 1008 70 6000 3.6 360 10:29 13.01.2021
3780 Clouds 29 1008 74 6000 4.12 290 09:49 13.01.2021
3781 Clouds 29 1008 74 6000 4.12 290 09:28 13.01.2021
3782 Clouds 29 1008 74 6000 3.09 340 08:48 13.01.2021
3783 Clouds 28 1008 70 6000 3.09 330 08:24 13.01.2021
3784 Clouds 28 1009 74 6000 2.57 320 07:30 13.01.2021
3785 Rain 29 1010 78 6000 1.54 280 06:26 13.01.2021
3786 Clouds 28 1010 83 5000 2.06 270 04:19 13.01.2021
3787 Clouds 29 1010 78 5000 2.57 270 03:44 13.01.2021
3788 Clouds 28 1010 83 5000 1.54 320 03:23 13.01.2021
3789 Haze 27 1009 89 5000 2.06 270 00:54 13.01.2021
3790 Clouds 26 1008 83 6000 2.57 280 23:44 12.01.2021
3791 Clouds 26 1007 83 6000 2.06 290 23:19 12.01.2021
3792 Clouds 26 1007 83 6000 2.57 300 22:39 12.01.2021
3793 Clouds 26 1008 94 5000 2.57 270 22:20 12.01.2021
3794 Haze 26 1008 94 5000 2.06 270 21:44 12.01.2021
3795 Clouds 26 1008 94 5000 2.06 260 21:26 12.01.2021
3796 Haze 26 1008 88 5000 1.54 290 20:48 12.01.2021
3797 Haze 27 1008 83 5000 3.09 300 20:27 12.01.2021
3798 Haze 27 1009 89 5000 1.54 290 19:47 12.01.2021
3799 Clouds 27 1009 83 5000 1.03 280 19:26 12.01.2021
3800 Haze 27 1009 83 5000 2.06 310 18:42 12.01.2021
3801 Clouds 27 1009 78 6000 3.09 240 18:23 12.01.2021
3802 Clouds 27 1009 78 6000 3.09 240 17:39 12.01.2021
3803 Clouds 27 1009 78 6000 2.57 230 17:19 12.01.2021
3804 Haze 27 1009 83 5000 4.12 250 16:43 12.01.2021
3805 Rain 27 1009 74 6000 4.63 240 16:22 12.01.2021
3806 Rain 27 1009 74 6000 4.63 240 15:29 12.01.2021
3807 Rain 27 1009 78 6000 5.14 240 14:59 12.01.2021
3808 Rain 27 1009 78 6000 4.63 260 14:41 12.01.2021
3809 Rain 27 1009 78 6000 4.63 260 14:19 12.01.2021
3810 Rain 27 1008 78 6000 4.12 240 13:50 12.01.2021
3811 Rain 27 1008 83 6000 5.14 260 12:50 12.01.2021
3812 Rain 27 1007 83 5000 5.14 250 12:22 12.01.2021
3813 Rain 27 1007 83 5000 4.63 240 11:40 12.01.2021
3814 Rain 28 1006 83 5000 5.14 250 10:52 12.01.2021
3815 Rain 28 1006 83 5000 3.6 240 10:21 12.01.2021
3816 Rain 28 1007 83 5000 3.6 250 09:57 12.01.2021
3817 Rain 28 1007 83 4000 4.12 230 09:28 12.01.2021
3818 Rain 29 1007 83 4000 4.12 260 08:51 12.01.2021
3819 Clouds 29 1007 78 4000 5.14 250 08:25 12.01.2021
3820 Haze 29 1009 74 5000 4.12 270 07:36 12.01.2021
3821 Haze 30 1009 74 5000 5.14 250 06:39 12.01.2021
3822 Clouds 30 1009 70 6000 4.12 300 05:34 12.01.2021
3823 Clouds 29 1010 78 6000 3.09 240 03:27 12.01.2021
3824 Clouds 27 1010 83 6000 3.6 280 02:19 12.01.2021
3825 Clouds 27 1009 83 6000 2.06 250 01:28 12.01.2021
3826 Clouds 26 1008 88 6000 3.6 280 23:57 11.01.2021
3827 Clouds 26 1007 88 6000 2.57 270 23:36 11.01.2021
3828 Clouds 26 1007 88 6000 2.57 270 23:18 11.01.2021
3829 Clouds 26 1007 88 6000 2.57 280 22:44 11.01.2021
3830 Clouds 26 1007 88 6000 3.09 290 22:26 11.01.2021
3831 Clouds 25 1008 94 7000 2.57 300 21:42 11.01.2021
3832 Clouds 25 1008 94 6000 3.09 270 21:23 11.01.2021
3833 Clouds 25 1008 94 6000 3.6 260 20:47 11.01.2021
3834 Clouds 26 1009 94 4000 3.09 270 20:28 11.01.2021
3835 Clouds 26 1009 94 4000 3.6 260 19:57 11.01.2021
3836 Clouds 26 1009 94 4000 3.6 260 19:34 11.01.2021
3837 Rain 26 1010 88 5000 6.69 280 18:46 11.01.2021
3838 Rain 27 1010 83 6000 4.63 280 18:27 11.01.2021
3839 Rain 27 1010 83 6000 4.12 310 17:57 11.01.2021
3840 Clouds 27 1010 83 6000 4.12 310 17:38 11.01.2021
3841 Rain 27 1010 83 6000 4.63 330 17:20 11.01.2021
3842 Clouds 27 1010 83 6000 2.57 280 16:41 11.01.2021
3843 Rain 27 1010 83 7000 2.57 280 16:22 11.01.2021
3844 Clouds 27 1010 83 7000 2.06 270 15:49 11.01.2021
3845 Clouds 27 1010 83 6000 2.06 290 15:29 11.01.2021
3846 Rain 27 1009 83 6000 4.12 250 14:40 11.01.2021
3847 Rain 27 1008 78 6000 1.54 280 14:19 11.01.2021
3848 Rain 27 1008 78 6000 1.54 280 13:43 11.01.2021
3849 Rain 27 1008 78 6000 1.54 280 13:19 11.01.2021
3850 Haze 28 1007 74 5000 5.14 270 12:36 11.01.2021
3851 Clouds 29 1006 70 4000 4.12 270 11:58 11.01.2021
3852 Haze 29 1005 66 5000 4.12 280 11:36 11.01.2021
3853 Clouds 31 1005 58 6000 3.6 300 10:53 11.01.2021
3854 Rain 31 1005 58 6000 3.6 300 10:27 11.01.2021
3855 Clouds 30 1005 62 6000 2.57 330 09:45 11.01.2021
3856 Clouds 30 1005 70 6000 2.57 280 09:24 11.01.2021
3857 Clouds 31 1006 66 6000 4.12 330 08:47 11.01.2021
3858 Clouds 31 1006 66 6000 4.12 330 08:21 11.01.2021
3859 Clouds 31 1007 62 6000 3.6 330 07:40 11.01.2021
3860 Clouds 32 1007 62 6000 3.6 330 07:19 11.01.2021
3861 Rain 31 1007 58 5000 4.12 350 06:46 11.01.2021
3862 Clouds 28 1009 78 6000 2.57 240 01:53 11.01.2021
3863 Haze 26 1008 88 5000 2.06 240 00:40 11.01.2021
3864 Haze 25 1007 83 5000 1.54 260 23:46 10.01.2021
3865 Haze 26 1007 88 5000 1.54 250 22:49 10.01.2021
3866 Rain 26 1007 88 5000 1.54 250 22:28 10.01.2021
3867 Rain 25 1007 94 5000 2.57 290 21:57 10.01.2021
3868 Haze 25 1007 94 5000 2.57 290 21:37 10.01.2021
3869 Haze 25 1007 94 5000 1.54 280 21:18 10.01.2021
3870 Rain 25 1007 94 5000 2.57 280 20:39 10.01.2021
3871 Rain 26 1007 88 5000 3.09 260 20:21 10.01.2021
3872 Rain 26 1007 88 5000 2.06 290 19:38 10.01.2021
3873 Haze 26 1007 88 5000 2.57 300 19:20 10.01.2021
3874 Rain 26 1008 88 5000 2.57 290 18:43 10.01.2021
3875 Haze 26 1009 83 5000 1.54 250 18:20 10.01.2021
3876 Haze 27 1009 83 5000 1.54 250 17:23 10.01.2021
3877 Haze 27 1009 83 5000 3.42 282 16:49 10.01.2021
3878 Rain 27 1009 83 5000 1.54 170 16:28 10.01.2021
3879 Clouds 27 1008 78 6000 1.54 200 15:39 10.01.2021
3880 Clouds 27 1008 78 6000 1.54 200 15:21 10.01.2021
3881 Rain 27 1008 78 6000 1.54 170 14:40 10.01.2021
3882 Rain 27 1008 78 6000 1.54 170 14:22 10.01.2021
3883 Rain 27 1007 78 6000 3.09 260 13:42 10.01.2021
3884 Clouds 27 1007 78 6000 3.09 260 13:24 10.01.2021
3885 Clouds 28 1007 78 6000 3.09 260 12:56 10.01.2021
3886 Rain 28 1006 74 6000 5.14 250 12:38 10.01.2021
3887 Clouds 28 1006 74 6000 2.57 270 11:56 10.01.2021
3888 Rain 28 1005 74 6000 4.12 290 11:20 10.01.2021
3889 Clouds 29 1005 70 6000 6.17 290 10:51 10.01.2021
3890 Clouds 30 1005 70 6000 3.09 270 10:24 10.01.2021
3891 Clouds 30 1005 74 6000 4.12 280 09:45 10.01.2021
3892 Clouds 30 1006 66 6000 3.6 330 08:38 10.01.2021
3893 Clouds 32 1007 66 6000 5.14 290 07:46 10.01.2021
3894 Rain 32 1008 66 6000 3.09 280 06:22 10.01.2021
3895 Clouds 32 1008 66 6000 5.14 230 05:46 10.01.2021
3896 Clouds 32 1008 66 6000 5.14 270 05:27 10.01.2021
3897 Clouds 27 1007 94 6000 1.54 260 01:42 10.01.2021
3898 Haze 25 1006 88 5000 1.03 260 00:21 10.01.2021
3899 Rain 25 1006 94 5000 2.06 270 23:41 09.01.2021
3900 Haze 25 1006 94 5000 2.06 270 23:20 09.01.2021
3901 Rain 25 1006 94 6000 3.09 240 22:22 09.01.2021
3902 Rain 25 1006 94 6000 2.06 220 21:59 09.01.2021
3903 Rain 25 1006 94 6000 2.06 220 21:59 09.01.2021
3904 Rain 25 1006 94 5000 2.57 210 21:39 09.01.2021
3905 Rain 25 1006 94 5000 2.57 210 21:21 09.01.2021
3906 Rain 25 1007 94 4000 2.06 200 20:56 09.01.2021
3907 Rain 25 1007 94 4000 1.03 0 20:32 09.01.2021
3908 Clouds 25 1007 88 5000 1.54 270 19:40 09.01.2021
3909 Clouds 25 1008 88 5000 3.09 270 19:21 09.01.2021
3910 Rain 25 1008 88 5000 3.6 290 18:38 09.01.2021
3911 Rain 25 1008 88 5000 3.6 290 18:38 09.01.2021
3912 Rain 25 1009 88 6000 4.12 260 18:18 09.01.2021
3913 Rain 25 1009 94 6000 3.6 260 17:41 09.01.2021
3914 Rain 25 1009 94 6000 3.6 260 17:22 09.01.2021
3915 Rain 25 1010 94 6000 4.63 260 16:28 09.01.2021
3916 Rain 25 1010 88 5000 4.63 260 15:41 09.01.2021
3917 Rain 25 1010 88 5000 5.14 270 15:22 09.01.2021
3918 Rain 25 1008 88 4000 2.06 220 14:37 09.01.2021
3919 Rain 25 1008 88 4000 2.06 220 14:19 09.01.2021
3920 Rain 25 1008 88 4000 2.06 220 13:45 09.01.2021
3921 Rain 26 1008 88 4000 2.06 220 13:27 09.01.2021
3922 Rain 26 1007 94 4000 5.14 180 12:29 09.01.2021
3923 Rain 26 1007 94 3000 1.54 210 11:59 09.01.2021
3924 Rain 26 1007 94 3000 2.57 230 11:40 09.01.2021
3925 Rain 26 1007 94 3000 2.57 230 11:22 09.01.2021
3926 Rain 26 1006 94 5000 2.57 280 10:48 09.01.2021
3927 Clouds 26 1006 94 3000 3.09 260 10:25 09.01.2021
3928 Rain 26 1006 94 4000 3.09 290 09:45 09.01.2021
3929 Rain 27 1006 94 4000 3.6 280 09:21 09.01.2021
3930 Clouds 27 1006 89 2000 4.63 300 08:19 09.01.2021
3931 Rain 30 1007 74 5000 5.14 300 06:54 09.01.2021
3932 Clouds 28 1007 58 6000 3.6 290 06:36 09.01.2021
3933 Clouds 31 1008 58 7000 5.14 250 04:25 09.01.2021
3934 Clouds 30 1009 74 6000 3.6 240 02:46 09.01.2021
3935 Clouds 28 1009 78 6000 1.54 210 02:27 09.01.2021
3936 Clouds 28 1008 83 6000 2.06 200 01:25 09.01.2021
3937 Haze 26 1007 88 5000 3.09 260 00:34 09.01.2021
3938 Haze 26 1007 88 4000 2.57 240 23:49 08.01.2021
3939 Haze 26 1006 94 3000 1.54 240 22:48 08.01.2021
3940 Haze 26 1006 88 2700 3.6 280 21:54 08.01.2021
3941 Haze 26 1006 94 2400 3.09 270 21:27 08.01.2021
3942 Haze 26 1006 94 2300 2.57 280 20:41 08.01.2021
3943 Haze 26 1006 89 4000 2.06 240 19:59 08.01.2021
3944 Haze 27 1007 89 4000 1.03 210 19:25 08.01.2021
3945 Haze 27 1007 89 3600 1.03 320 18:59 08.01.2021
3946 Haze 27 1009 94 4000 1.54 240 18:34 08.01.2021
3947 Haze 27 1009 94 4000 1.54 240 17:55 08.01.2021
3948 Rain 27 1009 94 4000 1.54 240 17:28 08.01.2021
3949 Haze 27 1009 94 4000 1.54 250 16:50 08.01.2021
3950 Haze 27 1008 94 5000 1.54 150 15:55 08.01.2021
3951 Clouds 27 1008 94 6000 2.06 190 15:33 08.01.2021
3952 Clouds 27 1008 83 6000 1.54 190 14:41 08.01.2021
3953 Clouds 27 1008 83 6000 1.54 190 14:20 08.01.2021
3954 Haze 27 1007 83 5000 1.54 10 13:22 08.01.2021
3955 Haze 28 1006 78 5000 1.54 300 12:52 08.01.2021
3956 Haze 29 1006 78 5000 1.54 350 12:23 08.01.2021
3957 Haze 29 1006 78 5000 1.54 350 12:23 08.01.2021
3958 Haze 29 1006 78 5000 1.54 340 11:59 08.01.2021
3959 Rain 29 1005 78 5000 1.54 270 11:39 08.01.2021
3960 Rain 29 1005 78 5000 1.54 270 11:20 08.01.2021
3961 Rain 29 1005 83 5000 1.54 330 10:45 08.01.2021
3962 Haze 30 1005 79 5000 1.54 300 09:57 08.01.2021
3963 Haze 30 1005 83 4000 1.54 330 09:38 08.01.2021
3964 Rain 30 1005 83 4000 1.54 330 09:19 08.01.2021
3965 Rain 28 1006 94 4000 2.57 330 07:44 08.01.2021
3966 Clouds 29 1007 89 4000 4.12 360 07:25 08.01.2021
3967 Rain 31 1008 66 6000 2.57 270 04:18 08.01.2021
3968 Haze 26 1006 83 5000 5.14 240 23:43 07.01.2021
3969 Haze 26 1006 83 5000 5.14 240 23:25 07.01.2021
3970 Haze 27 1006 78 4000 3.6 250 22:36 07.01.2021
3971 Clouds 27 1006 83 6000 4.63 250 21:52 07.01.2021
3972 Clouds 27 1005 89 6000 3.6 240 21:33 07.01.2021
3973 Clouds 27 1005 89 6000 4.63 230 20:56 07.01.2021
3974 Clouds 27 1005 89 6000 4.63 230 20:37 07.01.2021
3975 Clouds 27 1006 78 6000 3.6 230 19:50 07.01.2021
3976 Clouds 27 1006 78 6000 3.6 230 19:50 07.01.2021
3977 Clouds 27 1006 83 6000 3.6 240 19:30 07.01.2021
3978 Clouds 27 1006 89 6000 2.06 220 18:50 07.01.2021
3979 Haze 27 1008 83 5000 1.54 270 18:22 07.01.2021
3980 Haze 27 1008 83 5000 1.54 270 17:36 07.01.2021
3981 Haze 27 1008 83 5000 1.54 270 17:18 07.01.2021
3982 Haze 27 1008 83 5000 3.19 284 16:45 07.01.2021
3983 Haze 27 1008 83 5000 1.54 250 16:20 07.01.2021
3984 Rain 28 1008 83 5000 2.73 291 15:31 07.01.2021
3985 Haze 28 1007 83 5000 2.72 313 14:39 07.01.2021
3986 Haze 28 1007 83 5000 2.87 331 14:20 07.01.2021
3987 Clouds 28 1007 78 6000 1.54 360 13:31 07.01.2021
3988 Clouds 29 1006 78 6000 1.54 360 12:57 07.01.2021
3989 Clouds 29 1006 66 6000 1.5 300 12:29 07.01.2021
3990 Clouds 29 1005 66 6000 1.5 280 11:51 07.01.2021
3991 Clouds 29 1005 66 6000 1.5 280 11:30 07.01.2021
3992 Clouds 29 1005 66 6000 3.6 250 10:47 07.01.2021
3993 Clouds 29 1005 70 6000 1.5 290 10:19 07.01.2021
3994 Clouds 30 1005 66 6000 3.6 270 09:44 07.01.2021
3995 Clouds 30 1005 70 6000 1.5 340 09:18 07.01.2021
3996 Clouds 30 1006 66 6000 3.6 280 08:25 07.01.2021
3997 Clouds 28 1006 66 6000 3.6 280 07:44 07.01.2021
3998 Rain 29 1007 74 5000 2.6 300 06:52 07.01.2021
3999 Clouds 27 1009 94 4000 1.5 140 03:34 07.01.2021
4000 Rain 25 1007 94 2000 2.1 350 00:27 07.01.2021
4001 Rain 25 1007 94 2000 2.1 350 23:36 06.01.2021
4002 Rain 26 1007 94 5000 1.46 313 22:37 06.01.2021
4003 Rain 26 1007 94 3000 1 0 21:42 06.01.2021
4004 Mist 26 1006 94 3000 1 350 21:23 06.01.2021
4005 Mist 26 1006 94 3000 1 350 20:51 06.01.2021
4006 Mist 26 1007 94 4000 1 60 20:23 06.01.2021
4007 Clouds 26 1007 94 4000 1 70 19:49 06.01.2021
4008 Clouds 26 1007 94 4000 1 70 19:29 06.01.2021
4009 Rain 26 1007 94 4000 1 0 18:55 06.01.2021
4010 Clouds 25 1008 88 5000 1 280 18:36 06.01.2021
4011 Clouds 26 1008 88 5000 1 280 18:18 06.01.2021
4012 Rain 26 1008 88 5000 2.1 220 17:41 06.01.2021
4013 Rain 26 1008 88 5000 2.1 170 17:21 06.01.2021
4014 Clouds 26 1008 88 5000 2.1 170 16:39 06.01.2021
4015 Clouds 26 1008 88 5000 3.1 230 16:18 06.01.2021
4016 Thunderstorm 26 1008 88 4000 3.1 160 15:49 06.01.2021
4017 Thunderstorm 26 1008 83 4000 1.5 0 15:24 06.01.2021
4018 Clouds 26 1008 83 6000 1.5 0 14:41 06.01.2021
4019 Rain 27 1007 78 5000 3.1 250 14:19 06.01.2021
4020 Rain 27 1007 78 5000 3.1 250 13:40 06.01.2021
4021 Rain 27 1007 78 6000 2.1 360 13:18 06.01.2021
4022 Rain 28 1007 78 6000 1.5 320 12:45 06.01.2021
4023 Rain 29 1005 74 6000 1.5 300 11:50 06.01.2021
4024 Clouds 30 1005 74 6000 2.1 340 11:24 06.01.2021
4025 Rain 30 1004 74 6000 3.1 350 10:46 06.01.2021
4026 Rain 31 1004 70 6000 2.6 360 09:53 06.01.2021
4027 Rain 31 1004 70 6000 2.6 330 09:34 06.01.2021
4028 Rain 32 1004 70 6000 2.6 270 08:55 06.01.2021
4029 Clouds 32 1006 70 6000 3.1 280 08:21 06.01.2021
4030 Rain 32 1006 70 6000 3.1 280 07:53 06.01.2021
4031 Haze 32 1007 66 5000 2.1 300 06:45 06.01.2021
4032 Haze 31 1007 70 5000 2.1 320 05:32 06.01.2021
4033 Haze 31 1008 70 5000 1.5 300 04:31 06.01.2021
4034 Haze 28 1009 88 4000 1.5 100 02:45 06.01.2021
4035 Haze 27 1008 88 4000 1.5 120 02:22 06.01.2021
4036 Haze 25 1007 94 4000 0.87 119 00:22 06.01.2021
4037 Haze 24 1007 94 5000 1.5 150 22:59 05.01.2021
4038 Haze 24 1007 94 5000 1.5 150 22:40 05.01.2021
4039 Clouds 25 1007 88 6000 1 0 22:20 05.01.2021
4040 Clouds 25 1007 88 6000 1 0 21:52 05.01.2021
4041 Rain 24 1007 94 6000 1 290 20:41 05.01.2021
4042 Rain 24 1008 94 6000 1.5 20 20:23 05.01.2021
4043 Rain 25 1008 88 5000 1.5 300 19:41 05.01.2021
4044 Rain 25 1009 94 5000 2.6 270 19:21 05.01.2021
4045 Rain 26 1009 94 2500 7.7 310 18:42 05.01.2021
4046 Haze 26 1009 94 3000 1.64 46 18:23 05.01.2021
4047 Haze 27 1009 94 3000 1.64 46 17:49 05.01.2021
4048 Rain 27 1009 94 3000 2.2 63 17:26 05.01.2021
4049 Rain 27 1009 83 4000 2.2 63 16:52 05.01.2021
4050 Haze 27 1009 83 4000 2.15 63 16:21 05.01.2021
4051 Haze 27 1009 83 4000 2.15 63 15:50 05.01.2021
4052 Rain 27 1009 83 6000 1.96 55 14:56 05.01.2021
4053 Clouds 28 1009 83 6000 1.96 55 14:38 05.01.2021
4054 Rain 28 1008 78 6000 1.5 180 13:49 05.01.2021
4055 Rain 29 1007 78 6000 1.5 270 13:26 05.01.2021
4056 Clouds 29 1007 74 6000 1.5 270 12:49 05.01.2021
4057 Rain 29 1007 74 6000 1.5 280 12:26 05.01.2021
4058 Clouds 30 1006 74 6000 1.5 270 11:39 05.01.2021
4059 Haze 30 1006 74 5000 2.6 260 10:55 05.01.2021
4060 Haze 30 1006 74 5000 2.6 260 10:36 05.01.2021
4061 Rain 30 1006 78 5000 2.1 300 09:50 05.01.2021
4062 Rain 30 1006 78 5000 2.1 300 09:30 05.01.2021
4063 Rain 29 1007 83 4000 1.5 310 08:28 05.01.2021
4064 Rain 29 1007 88 4000 1.5 30 07:46 05.01.2021
4065 Clouds 28 1009 88 3000 2.6 320 04:58 05.01.2021
4066 Haze 27 1008 83 4000 1.85 346 01:31 05.01.2021
4067 Clouds 26 1008 83 6000 1 0 00:21 05.01.2021
4068 Rain 26 1008 83 6000 1 0 23:38 04.01.2021
4069 Haze 26 1007 88 5000 1.38 276 23:19 04.01.2021
4070 Rain 26 1007 88 5000 1.38 276 22:41 04.01.2021
4071 Clouds 26 1007 88 6000 1.5 300 21:54 04.01.2021
4072 Clouds 26 1007 88 6000 1.5 300 21:35 04.01.2021
4073 Clouds 26 1007 88 6000 1 270 20:51 04.01.2021
4074 Haze 26 1007 94 5000 1 300 20:31 04.01.2021
4075 Clouds 26 1007 88 6000 2.1 300 19:53 04.01.2021
4076 Clouds 27 1007 88 6000 2.1 300 19:29 04.01.2021
4077 Clouds 27 1007 88 7000 2.6 290 18:58 04.01.2021
4078 Clouds 27 1008 83 7000 1.5 320 18:29 04.01.2021
4079 Clouds 27 1008 83 7000 1.5 330 17:44 04.01.2021
4080 Rain 27 1008 78 6000 1 280 17:26 04.01.2021
4081 Rain 27 1008 78 6000 1 280 16:48 04.01.2021
4082 Clouds 28 1008 78 6000 1.5 280 16:27 04.01.2021
4083 Rain 28 1008 74 6000 2.6 260 15:51 04.01.2021
4084 Clouds 28 1008 74 6000 2.6 260 15:32 04.01.2021
4085 Clouds 28 1008 74 6000 3.1 260 14:48 04.01.2021
4086 Rain 29 1008 69 6000 3.1 260 13:51 04.01.2021
4087 Clouds 29 1007 69 6000 6.2 240 13:26 04.01.2021
4088 Rain 29 1007 69 6000 6.2 240 12:49 04.01.2021
4089 Clouds 29 1007 70 6000 7.7 230 12:25 04.01.2021
4090 Clouds 30 1006 70 6000 5.1 240 11:31 04.01.2021
4091 Clouds 30 1006 70 6000 7.7 240 10:56 04.01.2021
4092 Haze 31 1006 70 5000 7.7 240 10:37 04.01.2021
4093 Haze 31 1006 74 4000 5.1 270 10:18 04.01.2021
4094 Clouds 32 1006 55 2000 6.2 280 09:23 04.01.2021
4095 Clouds 32 1006 52 6000 6.2 340 08:50 04.01.2021
4096 Clouds 31 1006 52 6000 7.7 240 08:21 04.01.2021
4097 Clouds 32 1007 52 6000 6.7 260 07:45 04.01.2021
4098 Clouds 32 1008 55 6000 6.2 240 05:35 04.01.2021
4099 Clouds 31 1009 66 6000 3.1 290 04:44 04.01.2021
4100 Haze 27 1009 94 5000 2.1 250 01:26 04.01.2021
4101 Clouds 26 1008 88 8000 2.6 260 23:55 03.01.2021
4102 Haze 25 1007 88 5000 1.5 260 23:26 03.01.2021
4103 Haze 25 1007 88 5000 1.5 260 22:57 03.01.2021
4104 Haze 25 1007 88 5000 1.5 260 22:38 03.01.2021
4105 Clouds 25 1007 88 8000 3.1 260 22:18 03.01.2021
4106 Clouds 25 1007 88 8000 3.1 290 21:30 03.01.2021
4107 Clouds 25 1007 88 8000 2.6 300 20:53 03.01.2021
4108 Clouds 26 1007 83 8000 3.1 270 20:34 03.01.2021
4109 Clouds 26 1007 83 8000 2.6 290 19:58 03.01.2021
4110 Clouds 26 1008 88 8000 2.1 300 19:37 03.01.2021
4111 Clouds 26 1008 88 8000 3.1 280 19:18 03.01.2021
4112 Clouds 26 1008 88 8000 3.1 280 18:41 03.01.2021
4113 Clouds 26 1008 88 8000 2.6 280 18:20 03.01.2021
4114 Rain 26 1009 88 8000 2.1 280 17:48 03.01.2021
4115 Rain 26 1009 88 8000 2.1 290 17:23 03.01.2021
4116 Clouds 26 1009 88 8000 3.1 270 16:44 03.01.2021
4117 Clouds 26 1009 83 8000 3.1 260 16:20 03.01.2021
4118 Rain 25 1010 83 8000 2.1 280 15:47 03.01.2021
4119 Rain 25 1010 83 8000 2.1 280 15:47 03.01.2021
4120 Clouds 25 1010 83 8000 2.1 280 15:28 03.01.2021
4121 Rain 25 1009 83 8000 3.6 260 14:57 03.01.2021
4122 Rain 26 1008 83 5000 3.1 240 14:29 03.01.2021
4123 Rain 26 1008 83 5000 3.1 240 13:42 03.01.2021
4124 Rain 26 1008 88 5000 2.1 280 13:23 03.01.2021
4125 Rain 27 1008 88 5000 2.1 290 12:36 03.01.2021
4126 Rain 27 1007 88 4000 2.6 190 11:42 03.01.2021
4127 Rain 28 1007 88 4000 2.6 190 11:24 03.01.2021
4128 Rain 28 1006 88 5000 1.5 350 10:45 03.01.2021
4129 Rain 28 1006 88 5000 1.5 310 10:18 03.01.2021
4130 Rain 30 1007 78 5000 2.1 340 09:41 03.01.2021
4131 Rain 30 1006 78 6000 4.1 260 09:22 03.01.2021
4132 Clouds 32 1007 49 7000 3.6 260 07:49 03.01.2021
4133 Clouds 34 1008 52 6000 5.1 270 05:58 03.01.2021
4134 Haze 28 1009 74 5000 2.68 265 02:28 03.01.2021
4135 Haze 28 1009 78 5000 1.5 20 01:45 03.01.2021
4136 Haze 26 1008 83 4000 2.78 262 00:20 03.01.2021
4137 Haze 26 1008 83 4000 1.5 200 23:30 02.01.2021
4138 Haze 26 1008 83 4000 1.5 230 22:56 02.01.2021
4139 Haze 26 1008 78 4000 1.5 210 22:32 02.01.2021
4140 Clouds 26 1007 83 7000 3.6 260 21:52 02.01.2021
4141 Clouds 26 1007 83 7000 3.6 260 21:32 02.01.2021
4142 Clouds 26 1008 83 7000 4.1 260 20:55 02.01.2021
4143 Clouds 27 1008 83 7000 4.1 260 20:36 02.01.2021
4144 Clouds 27 1008 83 7000 4.6 250 20:18 02.01.2021
4145 Clouds 27 1009 83 7000 3.6 260 19:21 02.01.2021
4146 Rain 27 1009 83 7000 3.6 260 18:58 02.01.2021
4147 Rain 27 1009 83 7000 3.6 260 18:40 02.01.2021
4148 Clouds 27 1009 83 6000 3.6 260 18:20 02.01.2021
4149 Clouds 27 1009 83 6000 3.6 260 17:45 02.01.2021
4150 Clouds 28 1009 74 6000 1.5 270 17:22 02.01.2021
4151 Clouds 28 1009 74 6000 1.5 270 16:24 02.01.2021
4152 Clouds 28 1009 78 6000 4.1 240 15:57 02.01.2021
4153 Haze 29 1008 74 5000 2.6 280 15:38 02.01.2021
4154 Haze 29 1008 74 5000 2.6 280 15:20 02.01.2021
4155 Haze 29 1008 74 5000 2.6 280 14:36 02.01.2021
4156 Haze 29 1008 74 5000 1.5 330 13:54 02.01.2021
4157 Haze 30 1008 74 5000 1.5 330 13:32 02.01.2021
4158 Haze 30 1007 74 5000 1.5 310 12:53 02.01.2021
4159 Haze 30 1006 70 5000 2.6 30 12:32 02.01.2021
4160 Haze 30 1006 70 5000 3.1 360 11:45 02.01.2021
4161 Haze 32 1006 70 5000 2.6 350 11:22 02.01.2021
4162 Haze 31 1006 66 5000 2.6 360 10:49 02.01.2021
4163 Haze 32 1006 66 5000 2.6 360 10:28 02.01.2021
4164 Haze 31 1006 62 5000 1.5 350 09:52 02.01.2021
4165 Haze 31 1006 62 5000 3.1 330 09:23 02.01.2021
4166 Haze 32 1006 55 5000 3.1 250 08:50 02.01.2021
4167 Haze 32 1006 55 5000 3.1 250 08:28 02.01.2021
4168 Haze 30 1007 62 5000 1.5 330 07:47 02.01.2021
4169 Haze 31 1008 62 5000 2.6 320 07:22 02.01.2021
4170 Haze 32 1008 62 5000 2.6 330 06:40 02.01.2021
4171 Clouds 31 1009 66 6000 5.1 280 05:28 02.01.2021
4172 Clouds 26 1009 88 6000 1.5 270 00:58 02.01.2021
4173 Clouds 24 1008 88 6000 1.5 280 00:37 02.01.2021
4174 Haze 24 1008 88 5000 2.69 261 23:55 01.01.2021
4175 Rain 25 1008 88 5000 1.5 270 23:21 01.01.2021
4176 Rain 25 1008 88 5000 1.5 270 22:47 01.01.2021
4177 Clouds 25 1008 94 5000 4.1 310 22:24 01.01.2021
4178 Clouds 25 1008 94 5000 4.1 310 21:44 01.01.2021
4179 Clouds 26 1009 83 6000 2.6 360 21:22 01.01.2021
4180 Clouds 26 1009 83 6000 2.6 360 21:22 01.01.2021
4181 Clouds 26 1009 83 6000 3.6 10 20:53 01.01.2021
4182 Haze 26 1009 83 5000 3.1 350 20:22 01.01.2021
4183 Haze 26 1009 78 5000 2.6 290 19:43 01.01.2021
4184 Haze 26 1009 78 5000 2.6 290 19:24 01.01.2021
4185 Haze 26 1009 83 5000 3.6 260 18:59 01.01.2021
4186 Haze 26 1009 83 5000 3.6 260 18:40 01.01.2021
4187 Clouds 26 1009 83 6000 2.6 260 18:20 01.01.2021
4188 Haze 26 1009 94 5000 1.5 240 17:42 01.01.2021
4189 Haze 26 1009 94 5000 1.5 240 17:22 01.01.2021
4190 Clouds 26 1009 94 6000 3.67 251 16:45 01.01.2021
4191 Clouds 26 1009 94 6000 3.66 253 15:57 01.01.2021
4192 Clouds 26 1009 94 6000 3.66 253 15:39 01.01.2021
4193 Clouds 26 1008 94 6000 3.84 267 14:42 01.01.2021
4194 Clouds 26 1008 94 6000 4.07 272 14:21 01.01.2021
4195 Clouds 26 1008 94 6000 4.07 272 13:37 01.01.2021
4196 Clouds 27 1007 94 6000 3.67 292 12:51 01.01.2021
4197 Clouds 27 1007 88 6000 1.5 230 12:27 01.01.2021
4198 Clouds 27 1007 94 6000 1.5 240 11:42 01.01.2021
4199 Clouds 27 1007 88 6000 2.6 260 11:19 01.01.2021
4200 Haze 27 1007 94 5000 3.1 240 10:56 01.01.2021
4201 Rain 26 1007 94 5000 3.1 270 10:22 01.01.2021
4202 Clouds 27 1007 94 2000 3.1 260 09:30 01.01.2021
4203 Clouds 28 1007 88 2000 2.6 240 08:30 01.01.2021
4204 Clouds 30 1008 88 2000 1.5 250 06:46 01.01.2021
4205 Clouds 30 1009 74 6000 3.1 280 04:50 01.01.2021
4206 Clouds 27 1009 88 6000 1.5 260 01:43 01.01.2021
4207 Haze 25 1008 94 5000 2.1 270 00:32 01.01.2021
4208 Haze 25 1008 88 5000 1.5 250 23:41 31.12.2020
4209 Haze 25 1008 88 5000 2.1 230 23:21 31.12.2020
4210 Haze 25 1008 88 5000 2.6 280 22:42 31.12.2020
4211 Clouds 25 1008 88 6000 4.6 280 22:24 31.12.2020
4212 Clouds 25 1008 88 7000 3.6 280 21:57 31.12.2020
4213 Clouds 25 1008 88 7000 3.6 280 21:39 31.12.2020
4214 Clouds 25 1008 88 7000 3.6 270 21:20 31.12.2020
4215 Clouds 25 1008 88 7000 3.6 270 20:31 31.12.2020
4216 Clouds 25 1009 88 7000 3.6 280 19:51 31.12.2020
4217 Clouds 25 1009 88 7000 3.6 280 19:33 31.12.2020
4218 Rain 26 1009 88 7000 4.1 300 18:56 31.12.2020
4219 Haze 26 1009 88 4000 2.1 240 18:26 31.12.2020
4220 Haze 26 1009 88 4000 2.1 240 17:55 31.12.2020
4221 Haze 26 1009 88 4000 2.1 240 17:37 31.12.2020
4222 Haze 26 1009 94 4000 2.1 270 17:18 31.12.2020
4223 Clouds 26 1010 94 4000 1.5 280 16:38 31.12.2020
4224 Clouds 25 1010 94 4000 1 270 16:20 31.12.2020
4225 Clouds 26 1009 94 4000 1 320 15:43 31.12.2020
4226 Clouds 26 1009 94 4000 1.5 280 15:20 31.12.2020
4227 Thunderstorm 25 1009 94 3000 1.5 260 14:42 31.12.2020
4228 Rain 26 1009 94 3000 2.1 300 14:23 31.12.2020
4229 Rain 26 1009 94 3000 2.1 300 13:59 31.12.2020
4230 Rain 27 1008 83 3000 2.6 350 13:37 31.12.2020
4231 Rain 27 1008 78 4000 1 340 13:19 31.12.2020
4232 Haze 27 1007 78 5000 2.1 300 12:49 31.12.2020
4233 Haze 27 1007 78 5000 2.1 300 12:31 31.12.2020
4234 Haze 28 1006 78 5000 2.1 330 11:47 31.12.2020
4235 Haze 28 1006 78 5000 2.1 330 11:29 31.12.2020
4236 Haze 28 1006 78 5000 3.6 310 10:45 31.12.2020
4237 Haze 28 1006 78 5000 2.1 300 10:27 31.12.2020
4238 Haze 27 1006 78 5000 2.6 340 09:49 31.12.2020
4239 Haze 27 1007 78 5000 2.6 310 09:24 31.12.2020
4240 Haze 27 1007 83 5000 2.6 350 08:49 31.12.2020
4241 Rain 27 1007 83 5000 2.6 350 08:31 31.12.2020
4242 Haze 28 1008 78 5000 2.6 290 07:56 31.12.2020
4243 Clouds 28 1008 83 5000 5.1 260 07:25 31.12.2020
4244 Clouds 29 1009 66 6000 4.1 270 05:30 31.12.2020
4245 Clouds 27 1010 78 8000 3.6 270 03:37 31.12.2020
4246 Clouds 28 1009 78 6000 5.1 240 02:38 31.12.2020
4247 Clouds 28 1009 78 6000 5.1 240 02:20 31.12.2020
4248 Clouds 27 1009 78 6000 2.6 260 01:41 31.12.2020
4249 Clouds 26 1008 83 6000 3.1 250 01:19 31.12.2020
4250 Clouds 26 1008 83 6000 5.1 260 00:39 31.12.2020
4251 Haze 25 1007 74 5000 2.1 250 23:41 30.12.2020
4252 Rain 25 1007 74 5000 2.1 250 23:19 30.12.2020
4253 Clouds 25 1008 88 6000 3.1 280 22:43 30.12.2020
4254 Clouds 25 1008 88 6000 4.1 270 22:23 30.12.2020
4255 Clouds 25 1008 88 6000 4.6 270 21:38 30.12.2020
4256 Clouds 25 1008 88 7000 4.1 260 21:19 30.12.2020
4257 Clouds 26 1008 88 6000 4.6 250 20:41 30.12.2020
4258 Clouds 25 1008 88 6000 4.6 250 20:20 30.12.2020
4259 Clouds 25 1009 88 6000 4.6 260 19:39 30.12.2020
4260 Rain 26 1009 83 6000 5.1 250 19:19 30.12.2020
4261 Haze 26 1009 74 5000 6.7 250 18:42 30.12.2020
4262 Haze 26 1009 74 5000 6.7 250 18:23 30.12.2020
4263 Haze 26 1009 74 5000 6.7 250 17:50 30.12.2020
4264 Haze 26 1009 74 5000 7.7 240 17:30 30.12.2020
4265 Haze 26 1009 83 5000 7.7 240 16:52 30.12.2020
4266 Haze 26 1009 83 5000 3.1 240 16:25 30.12.2020
4267 Rain 27 1008 78 5000 2.6 260 15:45 30.12.2020
4268 Haze 27 1008 78 5000 2.6 260 15:24 30.12.2020
4269 Rain 27 1008 83 5000 2.6 220 14:43 30.12.2020
4270 Haze 27 1008 78 5000 2.1 220 14:22 30.12.2020
4271 Haze 28 1007 74 5000 3.1 260 13:20 30.12.2020
4272 Rain 28 1007 69 5000 5.1 240 12:27 30.12.2020
4273 Rain 28 1006 74 5000 6.2 240 11:49 30.12.2020
4274 Rain 29 1006 74 5000 5.1 240 11:24 30.12.2020
4275 Rain 29 1006 74 5000 5.1 240 10:59 30.12.2020
4276 Haze 29 1006 74 5000 2.6 270 10:39 30.12.2020
4277 Clouds 29 1006 74 5000 5.1 240 10:20 30.12.2020
4278 Clouds 29 1006 74 5000 10.3 240 09:46 30.12.2020
4279 Clouds 30 1006 66 6000 4.1 270 09:18 30.12.2020
4280 Clouds 31 1007 62 6000 7.7 250 08:23 30.12.2020
4281 Clouds 31 1008 70 6000 7.7 230 07:28 30.12.2020
4282 Clouds 31 1008 70 6000 8.2 230 06:43 30.12.2020
4283 Clouds 31 1009 66 6000 5.1 240 05:50 30.12.2020
4284 Clouds 31 1009 66 6000 5.1 240 05:31 30.12.2020
4285 Clouds 30 1009 66 6000 3.1 250 03:45 30.12.2020
4286 Clouds 29 1009 74 6000 6.7 270 03:25 30.12.2020
4287 Clouds 28 1009 74 6000 5.1 260 02:36 30.12.2020
4288 Haze 27 1009 83 5000 4.1 240 01:49 30.12.2020
4289 Haze 27 1009 83 5000 4.1 240 01:30 30.12.2020
4290 Haze 27 1008 69 5000 4.1 270 00:47 30.12.2020
4291 Haze 27 1008 69 5000 4.1 270 00:27 30.12.2020
4292 Haze 26 1007 69 5000 4.1 260 23:52 29.12.2020
4293 Haze 26 1007 69 5000 4.1 260 23:34 29.12.2020
4294 Haze 27 1007 65 5000 2.6 270 22:50 29.12.2020
4295 Haze 27 1007 65 5000 2.6 270 22:31 29.12.2020
4296 Clouds 26 1008 83 8000 3.1 270 21:56 29.12.2020
4297 Clouds 26 1008 83 8000 3.1 270 21:38 29.12.2020
4298 Clouds 26 1008 78 8000 3.1 260 21:20 29.12.2020
4299 Clouds 26 1008 78 8000 3.1 260 20:43 29.12.2020
4300 Clouds 26 1008 74 8000 4.1 250 20:25 29.12.2020
4301 Rain 26 1009 74 8000 4.1 260 19:45 29.12.2020
4302 Clouds 26 1009 74 8000 4.1 260 19:22 29.12.2020
4303 Clouds 26 1009 74 8000 4.6 260 18:53 29.12.2020
4304 Clouds 26 1009 74 8000 4.1 260 18:28 29.12.2020
4305 Rain 26 1009 74 8000 7.7 260 17:47 29.12.2020
4306 Rain 26 1010 74 8000 5.7 260 17:23 29.12.2020
4307 Rain 26 1010 74 8000 5.7 260 16:55 29.12.2020
4308 Rain 26 1010 74 8000 8.7 240 16:26 29.12.2020
4309 Rain 26 1010 74 8000 8.7 240 15:46 29.12.2020
4310 Rain 27 1010 74 8000 6.7 260 15:26 29.12.2020
4311 Rain 28 1010 74 8000 6.7 260 14:45 29.12.2020
4312 Rain 28 1008 65 6000 4.1 250 14:27 29.12.2020
4313 Rain 28 1008 65 6000 4.1 250 13:56 29.12.2020
4314 Rain 28 1007 65 6000 5.1 260 13:25 29.12.2020
4315 Rain 29 1007 65 6000 5.1 260 12:45 29.12.2020
4316 Rain 29 1007 62 6000 6.2 260 12:26 29.12.2020
4317 Clouds 29 1006 62 6000 6.2 250 11:59 29.12.2020
4318 Clouds 29 1006 62 6000 6.2 250 11:32 29.12.2020
4319 Clouds 30 1005 58 6000 5.1 260 10:52 29.12.2020
4320 Clouds 31 1006 58 6000 9.3 250 10:20 29.12.2020
4321 Clouds 31 1006 58 6000 9.3 250 09:40 29.12.2020
4322 Rain 32 1006 58 6000 6.2 270 09:18 29.12.2020
4323 Clouds 32 1006 62 6000 7.7 270 08:47 29.12.2020
4324 Clouds 32 1007 66 6000 7.7 240 07:40 29.12.2020
4325 Clouds 33 1008 62 6000 1.5 260 06:58 29.12.2020
4326 Clouds 32 1009 62 7000 5.1 280 05:40 29.12.2020
4327 Clouds 26 1009 78 6000 5.1 250 01:46 29.12.2020
4328 Clouds 26 1008 83 6000 3.6 260 00:24 29.12.2020
4329 Clouds 26 1008 83 6000 3.6 260 00:24 29.12.2020
4330 Clouds 26 1008 83 6000 3.6 260 00:24 29.12.2020
4331 Clouds 26 1007 83 6000 4.1 240 23:37 28.12.2020
4332 Clouds 26 1007 83 6000 4.1 250 22:44 28.12.2020
4333 Rain 26 1008 83 6000 3.6 250 21:51 28.12.2020
4334 Rain 26 1008 83 6000 4.1 240 21:30 28.12.2020
4335 Rain 27 1008 83 6000 4.1 260 20:50 28.12.2020
4336 Rain 27 1008 83 6000 4.1 260 20:50 28.12.2020
4337 Rain 27 1008 83 6000 4.1 260 20:31 28.12.2020
4338 Rain 27 1008 83 6000 4.1 270 19:59 28.12.2020
4339 Rain 27 1008 83 7000 5.1 270 19:41 28.12.2020
4340 Rain 27 1008 83 7000 5.1 250 19:21 28.12.2020
4341 Rain 27 1008 83 7000 5.1 250 18:48 28.12.2020
4342 Rain 28 1009 69 7000 5.1 240 18:26 28.12.2020
4343 Clouds 28 1009 69 7000 5.1 240 17:41 28.12.2020
4344 Clouds 28 1009 69 7000 5.1 260 17:18 28.12.2020
4345 Clouds 28 1009 69 7000 5.1 270 16:33 28.12.2020
4346 Clouds 28 1009 74 7000 3.6 270 15:59 28.12.2020
4347 Rain 28 1008 74 7000 5.1 250 15:40 28.12.2020
4348 Clouds 28 1008 74 7000 5.1 290 14:49 28.12.2020
4349 Rain 29 1007 66 6000 3.6 260 13:51 28.12.2020
4350 Clouds 29 1007 66 6000 5.7 290 13:24 28.12.2020
4351 Clouds 30 1006 58 6000 5.7 270 12:40 28.12.2020
4352 Clouds 30 1006 58 6000 5.1 280 12:20 28.12.2020
4353 Clouds 31 1006 58 6000 5.1 260 11:45 28.12.2020
4354 Clouds 31 1005 58 7000 5.1 250 11:22 28.12.2020
4355 Clouds 32 1005 52 7000 5.1 270 10:43 28.12.2020
4356 Clouds 33 1005 55 7000 5.7 250 10:25 28.12.2020
4357 Clouds 34 1005 55 7000 7.7 240 09:45 28.12.2020
4358 Rain 34 1006 55 7000 7.7 230 09:18 28.12.2020
4359 Clouds 33 1008 55 7000 7.7 230 07:21 28.12.2020
4360 Rain 33 1008 55 7000 4.6 250 06:43 28.12.2020
4361 Clouds 31 1010 70 6000 5.1 240 04:22 28.12.2020
4362 Clouds 28 1009 74 6000 5.1 240 01:57 28.12.2020
4363 Clouds 26 1008 83 6000 5.1 220 00:30 28.12.2020
4364 Clouds 26 1008 83 6000 5.1 220 00:30 28.12.2020
4365 Haze 26 1008 69 5000 2.6 260 23:45 27.12.2020
4366 Haze 26 1007 69 5000 2.6 260 23:18 27.12.2020
4367 Clouds 26 1007 88 7000 3.1 270 21:57 27.12.2020
4368 Clouds 26 1007 88 7000 3.1 270 21:57 27.12.2020
4369 Clouds 26 1007 88 7000 3.1 260 21:26 27.12.2020
4370 Clouds 26 1008 78 6000 3.6 280 20:45 27.12.2020
4371 Clouds 27 1008 78 6000 4.1 260 19:25 27.12.2020
4372 Clouds 27 1009 78 7000 2.6 280 18:57 27.12.2020
4373 Clouds 27 1009 78 7000 2.6 280 18:38 27.12.2020
4374 Clouds 27 1009 74 7000 3.6 250 18:19 27.12.2020
4375 Haze 27 1009 74 5000 2.6 250 17:43 27.12.2020
4376 Haze 27 1009 74 5000 2.6 250 17:22 27.12.2020
4377 Haze 27 1009 74 5000 3.1 240 16:35 27.12.2020
4378 Haze 28 1009 78 5000 3.1 270 15:54 27.12.2020
4379 Haze 28 1009 78 5000 4.1 240 14:59 27.12.2020
4380 Haze 28 1008 69 5000 4.1 240 14:40 27.12.2020
4381 Haze 28 1008 69 5000 3.1 250 14:18 27.12.2020
4382 Haze 28 1007 69 5000 2.6 280 13:22 27.12.2020
4383 Haze 28 1007 69 5000 2.1 260 12:43 27.12.2020
4384 Haze 28 1006 74 5000 7.7 250 11:56 27.12.2020
4385 Thunderstorm 29 1005 70 5000 7.7 250 11:35 27.12.2020
4386 Clouds 32 1005 55 6000 4.1 330 10:51 27.12.2020
4387 Clouds 32 1005 55 6000 4.1 340 10:24 27.12.2020
4388 Clouds 34 1005 55 6000 4.1 340 09:46 27.12.2020
4389 Clouds 32 1007 52 6000 2.6 300 08:39 27.12.2020
4390 Clouds 32 1007 52 6000 2.6 300 08:18 27.12.2020
4391 Haze 34 1008 55 5000 2.6 270 07:26 27.12.2020
4392 Clouds 32 1010 58 6000 2.6 240 05:44 27.12.2020
4393 Clouds 32 1011 55 6000 3.1 240 03:33 27.12.2020
4394 Haze 30 1010 58 6000 4.1 240 02:45 27.12.2020
4395 Haze 29 1010 78 5000 2.6 250 01:33 27.12.2020
4396 Haze 27 1009 78 5000 1.5 220 23:57 26.12.2020
4397 Clouds 27 1009 78 6000 1.5 230 23:27 26.12.2020
4398 Clouds 27 1009 78 6000 1.5 230 22:49 26.12.2020
4399 Clouds 27 1008 74 7000 3.1 260 22:21 26.12.2020
4400 Clouds 27 1008 74 7000 3.1 260 21:57 26.12.2020
4401 Clouds 27 1008 78 7000 3.1 260 21:38 26.12.2020
4402 Clouds 27 1008 74 7000 3.1 250 21:19 26.12.2020
4403 Clouds 27 1009 69 7000 3.1 230 20:41 26.12.2020
4404 Clouds 27 1009 69 7000 3.1 220 20:18 26.12.2020
4405 Rain 27 1009 78 7000 2.6 290 19:26 26.12.2020
4406 Clouds 27 1009 78 7000 2.6 290 18:50 26.12.2020
4407 Rain 27 1009 78 7000 2.6 290 18:28 26.12.2020
4408 Clouds 27 1010 74 7000 3.6 260 17:41 26.12.2020
4409 Clouds 27 1010 78 7000 3.6 270 17:20 26.12.2020
4410 Clouds 28 1010 74 7000 3.1 270 16:36 26.12.2020
4411 Clouds 28 1010 74 7000 3.6 300 15:27 26.12.2020
4412 Clouds 29 1010 74 7000 3.6 300 14:51 26.12.2020
4413 Clouds 29 1008 62 6000 2.6 250 14:28 26.12.2020
4414 Rain 29 1008 62 6000 2.6 250 13:51 26.12.2020
4415 Clouds 30 1008 62 6000 2.6 250 13:31 26.12.2020
4416 Rain 30 1007 55 6000 4.6 250 12:49 26.12.2020
4417 Clouds 30 1007 55 6000 4.6 250 12:30 26.12.2020
4418 Clouds 31 1006 52 6000 5.1 260 11:51 26.12.2020
4419 Clouds 32 1006 49 6000 5.1 250 11:23 26.12.2020
4420 Clouds 32 1006 49 6000 5.1 260 10:55 26.12.2020
4421 Clouds 32 1006 49 6000 5.1 260 10:28 26.12.2020
4422 Clouds 32 1006 46 6000 6.2 270 09:52 26.12.2020
4423 Clouds 32 1006 46 6000 6.2 270 09:31 26.12.2020
4424 Clouds 32 1007 46 6000 5.1 260 08:39 26.12.2020
4425 Clouds 32 1008 43 6000 2.6 300 07:56 26.12.2020
4426 Clouds 32 1008 46 6000 5.1 280 06:47 26.12.2020
4427 Clouds 29 1010 69 6000 2.6 230 03:52 26.12.2020
4428 Clouds 27 1010 83 6000 5.1 250 02:24 26.12.2020
4429 Clouds 25 1009 88 6000 2.6 270 00:28 26.12.2020
4430 Rain 26 1008 88 6000 2.6 240 23:43 25.12.2020
4431 Clouds 25 1008 88 6000 1.5 250 23:25 25.12.2020
4432 Clouds 25 1008 83 6000 1.5 230 22:50 25.12.2020
4433 Clouds 25 1008 88 6000 2.1 280 22:23 25.12.2020
4434 Clouds 25 1008 88 6000 2.1 280 21:37 25.12.2020
4435 Clouds 26 1008 83 6000 1.5 290 21:19 25.12.2020
4436 Clouds 25 1009 83 7000 2.6 300 20:38 25.12.2020
4437 Clouds 25 1009 88 5000 3.1 260 19:52 25.12.2020
4438 Clouds 25 1009 88 5000 3.1 260 19:33 25.12.2020
4439 Clouds 26 1010 83 6000 2.6 300 18:39 25.12.2020
4440 Clouds 26 1010 83 6000 3.6 260 17:57 25.12.2020
4441 Rain 26 1010 83 6000 3.6 260 17:35 25.12.2020
4442 Rain 26 1011 78 6000 5.1 230 16:48 25.12.2020
4443 Rain 27 1011 78 6000 4.6 250 16:20 25.12.2020
4444 Clouds 27 1010 74 6000 6.2 240 15:46 25.12.2020
4445 Clouds 28 1010 78 6000 2.68 232 15:22 25.12.2020
4446 Clouds 29 1009 74 6000 1.5 120 14:32 25.12.2020
4447 Clouds 30 1008 62 6000 3.1 220 13:47 25.12.2020
4448 Clouds 30 1007 62 6000 3.6 220 13:26 25.12.2020
4449 Rain 30 1007 62 6000 5.1 240 12:49 25.12.2020
4450 Clouds 30 1006 58 6000 4.6 210 12:27 25.12.2020
4451 Rain 30 1006 62 6000 6.2 210 11:46 25.12.2020
4452 Clouds 31 1005 58 7000 5.1 250 11:23 25.12.2020
4453 Clouds 33 1005 49 7000 4.6 270 10:40 25.12.2020
4454 Clouds 34 1005 43 7000 7.7 260 09:49 25.12.2020
4455 Clouds 33 1006 46 7000 5.1 250 08:53 25.12.2020
4456 Clouds 34 1006 46 7000 5.1 250 08:35 25.12.2020
4457 Clouds 32 1008 52 7000 5.1 260 06:51 25.12.2020
4458 Clouds 33 1008 55 7000 7.7 230 05:38 25.12.2020
4459 Clouds 27 1008 83 6000 2.52 220 02:23 25.12.2020
4460 Haze 25 1007 88 5000 3.43 227 00:32 25.12.2020
4461 Haze 25 1007 94 5000 3.43 227 23:32 24.12.2020
4462 Clouds 25 1007 83 6000 4.1 220 22:55 24.12.2020
4463 Clouds 26 1007 83 6000 4.1 220 22:25 24.12.2020
4464 Clouds 25 1007 83 6000 4.1 240 21:52 24.12.2020
4465 Clouds 25 1007 83 6000 4.1 240 21:25 24.12.2020
4466 Clouds 26 1008 83 6000 5.7 250 19:56 24.12.2020
4467 Rain 25 1010 94 4000 1.5 250 18:22 24.12.2020
4468 Clouds 26 1010 94 4000 1.5 250 17:42 24.12.2020
4469 Rain 26 1010 88 5000 2.6 210 17:21 24.12.2020
4470 Rain 26 1009 88 5000 2.1 210 16:26 24.12.2020
4471 Clouds 26 1009 83 5000 2.1 240 15:49 24.12.2020
4472 Clouds 26 1009 83 5000 2.1 240 15:26 24.12.2020
4473 Rain 26 1009 83 5000 2.1 240 14:57 24.12.2020
4474 Clouds 26 1009 78 6000 2.1 250 14:38 24.12.2020
4475 Clouds 26 1009 78 6000 2.1 250 14:38 24.12.2020
4476 Rain 26 1008 78 6000 4.1 260 14:20 24.12.2020
4477 Rain 27 1007 78 6000 5.1 270 13:39 24.12.2020
4478 Rain 27 1007 74 6000 7.7 270 13:19 24.12.2020
4479 Clouds 27 1007 74 6000 7.7 240 12:40 24.12.2020
4480 Clouds 27 1006 74 6000 8.7 240 12:19 24.12.2020
4481 Clouds 28 1006 69 6000 5.7 250 11:38 24.12.2020
4482 Clouds 28 1006 69 6000 5.1 250 11:19 24.12.2020
4483 Haze 28 1006 69 5000 8.7 230 10:46 24.12.2020
4484 Haze 28 1006 69 5000 7.7 250 10:27 24.12.2020
4485 Rain 28 1006 69 5000 7.7 270 09:50 24.12.2020
4486 Rain 29 1006 69 5000 7.7 240 08:58 24.12.2020
4487 Rain 32 1006 66 5000 8.7 250 07:56 24.12.2020
4488 Clouds 32 1006 62 6000 9.8 240 07:37 24.12.2020
4489 Clouds 33 1007 55 6000 2.6 240 06:34 24.12.2020
4490 Haze 32 1008 58 5000 3.1 180 04:24 24.12.2020
4491 Clouds 28 1008 78 6000 1.5 270 01:53 24.12.2020
4492 Clouds 28 1008 78 6000 1.5 270 01:53 24.12.2020
4493 Haze 28 1008 78 5000 1.5 250 01:28 24.12.2020
4494 Haze 26 1008 78 5000 1.5 250 00:44 24.12.2020
4495 Haze 26 1007 83 5000 2.6 280 00:19 24.12.2020
4496 Haze 26 1007 88 5000 1.04 187 23:40 23.12.2020
4497 Haze 26 1007 78 5000 1.5 250 23:21 23.12.2020
4498 Haze 26 1007 83 5000 1.5 260 22:48 23.12.2020
4499 Clouds 26 1007 83 7000 3.1 270 22:27 23.12.2020
4500 Clouds 26 1007 83 7000 3.1 270 21:48 23.12.2020
4501 Clouds 26 1007 83 7000 3.1 270 21:23 23.12.2020
4502 Clouds 26 1007 83 7000 3.6 270 20:46 23.12.2020
4503 Clouds 26 1007 78 7000 3.1 260 20:28 23.12.2020
4504 Rain 26 1007 78 7000 3.1 260 19:59 23.12.2020
4505 Rain 26 1007 78 7000 3.1 260 19:38 23.12.2020
4506 Rain 27 1008 78 7000 2.6 270 19:19 23.12.2020
4507 Rain 27 1008 78 7000 2.6 270 18:46 23.12.2020
4508 Rain 27 1008 78 7000 2.6 280 18:20 23.12.2020
4509 Rain 27 1008 78 7000 3.6 270 17:36 23.12.2020
4510 Rain 28 1008 78 7000 3.6 270 17:18 23.12.2020
4511 Rain 28 1008 78 7000 3.1 270 16:40 23.12.2020
4512 Rain 28 1008 78 8000 2.1 280 16:22 23.12.2020
4513 Rain 28 1008 78 8000 2.1 280 15:50 23.12.2020
4514 Rain 28 1008 74 8000 3.6 260 15:27 23.12.2020
4515 Clouds 28 1008 74 8000 3.6 260 14:58 23.12.2020
4516 Haze 29 1006 69 5000 2.1 250 14:37 23.12.2020
4517 Rain 28 1006 69 5000 2.1 250 14:19 23.12.2020
4518 Rain 28 1006 69 5000 2.1 250 13:43 23.12.2020
4519 Rain 29 1006 62 5000 4.1 240 13:19 23.12.2020
4520 Rain 29 1005 62 5000 4.1 240 12:47 23.12.2020
4521 Haze 29 1005 55 5000 4.1 250 12:24 23.12.2020
4522 Haze 30 1004 62 5000 5.1 260 11:46 23.12.2020
4523 Haze 31 1004 62 5000 5.1 250 11:19 23.12.2020
4524 Haze 31 1004 58 5000 4.1 250 10:42 23.12.2020
4525 Haze 31 1004 58 5000 4.1 270 10:24 23.12.2020
4526 Haze 32 1004 59 5000 5.1 260 09:33 23.12.2020
4527 Clouds 34 1004 52 6000 4.1 250 08:45 23.12.2020
4528 Clouds 35 1005 52 6000 2.6 250 08:20 23.12.2020
4529 Rain 35 1005 49 6000 2.6 230 07:27 23.12.2020
4530 Clouds 34 1006 52 6000 3.6 240 06:39 23.12.2020
4531 Clouds 34 1008 52 6000 2.6 240 05:39 23.12.2020
4532 Haze 33 1008 52 5000 2.6 270 04:57 23.12.2020
4533 Haze 26 1008 94 4000 2.1 250 00:48 23.12.2020
4534 Haze 25 1008 94 4000 2.1 270 00:21 23.12.2020
4535 Clouds 25 1007 94 6000 2.1 230 23:35 22.12.2020
4536 Clouds 25 1007 88 6000 1.5 260 22:58 22.12.2020
4537 Clouds 25 1007 88 6000 1.5 270 22:40 22.12.2020
4538 Clouds 25 1007 88 6000 1.5 260 22:20 22.12.2020
4539 Mist 25 1007 88 3000 2.1 250 21:41 22.12.2020
4540 Mist 25 1007 88 4000 1.5 270 21:20 22.12.2020
4541 Mist 25 1007 88 4000 1.5 270 21:20 22.12.2020
4542 Haze 26 1007 83 4000 1 300 20:49 22.12.2020
4543 Haze 25 1007 88 4000 2.1 290 20:22 22.12.2020
4544 Haze 26 1008 88 4000 2.6 270 19:46 22.12.2020
4545 Clouds 26 1008 88 6000 2.6 280 19:26 22.12.2020
4546 Clouds 26 1008 88 6000 2.1 310 18:56 22.12.2020
4547 Clouds 26 1009 83 6000 2.1 220 18:36 22.12.2020
4548 Clouds 27 1009 83 6000 2.1 220 18:18 22.12.2020
4549 Clouds 27 1009 83 6000 2.1 220 18:18 22.12.2020
4550 Clouds 27 1009 83 6000 2.1 220 17:36 22.12.2020
4551 Clouds 27 1009 83 6000 2.1 230 17:18 22.12.2020
4552 Clouds 27 1009 78 6000 2.1 210 16:46 22.12.2020
4553 Clouds 28 1009 78 6000 1.5 240 16:19 22.12.2020
4554 Rain 28 1009 74 6000 2.1 230 15:45 22.12.2020
4555 Clouds 28 1009 74 6000 2.6 220 15:27 22.12.2020
4556 Clouds 28 1009 74 6000 2.1 230 14:46 22.12.2020
4557 Clouds 29 1009 74 6000 2.1 230 14:46 22.12.2020
4558 Clouds 29 1009 74 6000 2.1 230 14:46 22.12.2020
4559 Clouds 29 1008 66 6000 3.1 230 14:28 22.12.2020
4560 Clouds 29 1008 66 6000 3.1 230 13:55 22.12.2020
4561 Clouds 29 1007 62 6000 2.6 240 13:36 22.12.2020
4562 Clouds 30 1007 62 6000 2.6 240 13:18 22.12.2020
4563 Clouds 30 1007 62 6000 4.6 270 12:42 22.12.2020
4564 Clouds 30 1007 66 6000 2.6 250 12:22 22.12.2020
4565 Clouds 31 1006 62 6000 3.6 240 11:55 22.12.2020
4566 Clouds 31 1006 62 6000 3.6 240 11:37 22.12.2020
4567 Clouds 32 1006 58 6000 3.1 260 11:18 22.12.2020
4568 Clouds 32 1006 55 6000 4.1 250 10:45 22.12.2020
4569 Clouds 33 1006 55 6000 5.1 250 10:23 22.12.2020
4570 Clouds 32 1006 58 6000 3.6 230 09:49 22.12.2020
4571 Rain 33 1006 62 6000 3.1 290 09:21 22.12.2020
4572 Clouds 34 1007 58 6000 3.6 280 08:45 22.12.2020
4573 Rain 33 1007 58 6000 3.6 260 08:25 22.12.2020
4574 Clouds 32 1008 58 6000 3.1 280 07:47 22.12.2020
4575 Clouds 33 1009 58 6000 3.6 280 06:38 22.12.2020
4576 Clouds 32 1009 66 7000 6.2 280 05:39 22.12.2020
4577 Rain 27 1010 74 5000 6.2 240 02:39 22.12.2020
4578 Haze 26 1009 88 5000 4.18 259 00:44 22.12.2020
4579 Haze 26 1008 83 5000 1.5 200 23:52 21.12.2020
4580 Rain 26 1008 83 5000 1.5 200 23:29 21.12.2020
4581 Haze 25 1007 83 5000 2.6 240 22:38 21.12.2020
4582 Clouds 25 1008 83 8000 2.6 270 22:19 21.12.2020
4583 Clouds 25 1008 83 8000 2.6 270 21:49 21.12.2020
4584 Rain 25 1008 83 8000 2.6 270 21:31 21.12.2020
4585 Clouds 25 1008 83 7000 3.1 290 20:50 21.12.2020
4586 Haze 25 1008 83 5000 3.6 280 20:25 21.12.2020
4587 Haze 25 1008 83 5000 3.6 280 19:56 21.12.2020
4588 Haze 25 1008 83 5000 3.6 280 19:37 21.12.2020
4589 Clouds 26 1008 83 7000 5.1 260 19:18 21.12.2020
4590 Clouds 26 1008 83 7000 5.1 260 18:50 21.12.2020
4591 Clouds 25 1009 88 7000 4.1 270 18:32 21.12.2020
4592 Clouds 26 1009 83 7000 5.1 260 17:43 21.12.2020
4593 Haze 26 1009 78 5000 1.5 240 17:24 21.12.2020
4594 Haze 26 1009 78 5000 1.5 240 16:47 21.12.2020
4595 Haze 26 1009 78 5000 2.1 270 16:26 21.12.2020
4596 Haze 26 1009 88 5000 2.6 230 15:45 21.12.2020
4597 Haze 26 1009 83 5000 2.6 240 15:27 21.12.2020
4598 Haze 26 1009 83 5000 2.6 240 14:56 21.12.2020
4599 Clouds 27 1009 78 5000 5.1 250 14:21 21.12.2020
4600 Haze 27 1008 74 5000 5.1 250 13:42 21.12.2020
4601 Clouds 28 1008 69 6000 7.7 260 13:24 21.12.2020
4602 Clouds 28 1008 69 6000 5.1 260 12:43 21.12.2020
4603 Clouds 28 1007 69 6000 5.1 250 12:24 21.12.2020
4604 Clouds 29 1007 69 6000 5.1 250 11:55 21.12.2020
4605 Clouds 29 1007 69 6000 5.1 250 11:37 21.12.2020
4606 Clouds 29 1006 70 7000 5.7 270 11:18 21.12.2020
4607 Rain 30 1006 70 7000 5.7 270 10:40 21.12.2020
4608 Rain 30 1006 70 7000 6.7 240 10:21 21.12.2020
4609 Rain 30 1007 70 7000 6.7 240 09:43 21.12.2020
4610 Clouds 31 1006 70 7000 7.7 240 09:24 21.12.2020
4611 Clouds 31 1007 70 6000 5.1 240 08:47 21.12.2020
4612 Clouds 31 1008 70 6000 5.1 260 07:48 21.12.2020
4613 Clouds 31 1009 69 6000 5.1 250 06:21 21.12.2020
4614 Haze 29 1010 83 5000 7.7 240 04:32 21.12.2020
4615 Haze 26 1009 88 5000 4.1 240 01:22 21.12.2020
4616 Haze 25 1009 88 4000 2.6 240 00:31 21.12.2020
4617 Haze 25 1008 94 5000 3.1 250 23:34 20.12.2020
4618 Haze 24 1008 94 5000 3.1 250 22:58 20.12.2020
4619 Haze 24 1008 94 5000 2.6 250 22:39 20.12.2020
4620 Clouds 25 1008 88 6000 4.6 260 22:21 20.12.2020
4621 Rain 25 1008 88 6000 5.7 260 21:39 20.12.2020
4622 Rain 25 1008 88 6000 5.1 250 21:20 20.12.2020
4623 Rain 25 1008 88 6000 4.6 260 20:48 20.12.2020
4624 Clouds 25 1008 83 6000 6.2 250 20:23 20.12.2020
4625 Clouds 25 1009 88 6000 5.7 240 19:46 20.12.2020
4626 Rain 25 1009 88 6000 5.7 240 19:27 20.12.2020
4627 Rain 26 1009 88 5000 6.7 250 18:57 20.12.2020
4628 Rain 26 1009 88 5000 6.7 250 18:38 20.12.2020
4629 Rain 26 1009 88 6000 3.6 270 18:19 20.12.2020
4630 Clouds 27 1009 88 6000 3.6 270 17:43 20.12.2020
4631 Clouds 27 1010 88 6000 4.1 250 17:22 20.12.2020
4632 Clouds 27 1010 88 6000 4.1 250 16:44 20.12.2020
4633 Clouds 27 1010 88 6000 3.6 260 16:25 20.12.2020
4634 Clouds 26 1010 88 6000 3.6 260 15:45 20.12.2020
4635 Clouds 26 1009 88 6000 3.6 250 15:24 20.12.2020
4636 Clouds 26 1009 88 6000 4.1 260 14:49 20.12.2020
4637 Haze 26 1008 78 4000 5.1 230 14:30 20.12.2020
4638 Haze 26 1008 78 4000 5.1 230 13:47 20.12.2020
4639 Clouds 26 1008 83 4000 4.1 250 13:25 20.12.2020
4640 Clouds 26 1008 83 4000 4.1 250 12:57 20.12.2020
4641 Clouds 26 1008 88 3000 4.1 270 12:38 20.12.2020
4642 Clouds 26 1008 88 2000 3.6 260 12:18 20.12.2020
4643 Rain 28 1007 66 4000 4.1 250 11:42 20.12.2020
4644 Clouds 29 1006 78 4000 4.1 250 10:57 20.12.2020
4645 Clouds 29 1006 78 4000 4.1 250 10:38 20.12.2020
4646 Haze 30 1006 74 4000 2.6 250 10:19 20.12.2020
4647 Rain 29 1007 74 5000 2.6 260 09:45 20.12.2020
4648 Haze 29 1007 74 5000 2.6 270 09:27 20.12.2020
4649 Haze 31 1007 66 4000 4.1 260 08:52 20.12.2020
4650 Haze 31 1007 66 4000 4.1 260 08:33 20.12.2020
4651 Clouds 30 1008 78 5000 4.6 260 07:23 20.12.2020
4652 Clouds 30 1008 78 5000 4.6 260 07:23 20.12.2020
4653 Haze 32 1009 74 5000 3.1 240 05:44 20.12.2020
4654 Haze 26 1009 88 5000 3.1 270 01:33 20.12.2020
4655 Haze 26 1009 88 5000 3.1 270 00:32 20.12.2020
4656 Haze 25 1008 94 5000 2.1 230 23:20 19.12.2020
4657 Haze 25 1008 94 5000 2.1 230 22:56 19.12.2020
4658 Haze 25 1008 94 5000 2.1 240 22:37 19.12.2020
4659 Rain 26 1008 88 6000 3.6 280 22:19 19.12.2020
4660 Rain 26 1008 88 6000 3.1 270 21:42 19.12.2020
4661 Haze 26 1008 88 5000 3.6 270 21:23 19.12.2020
4662 Rain 26 1008 88 10000 3.1 300 20:44 19.12.2020
4663 Rain 26 1009 88 7000 4.6 327 20:21 19.12.2020
4664 Clouds 26 1009 83 7000 4.1 260 19:51 19.12.2020
4665 Clouds 26 1009 88 6000 2.1 260 19:33 19.12.2020
4666 Clouds 26 1009 88 6000 2.1 260 18:42 19.12.2020
4667 Clouds 26 1009 83 6000 2.6 270 18:24 19.12.2020
4668 Clouds 27 1009 83 6000 2.1 250 17:48 19.12.2020
4669 Clouds 26 1009 83 6000 2.6 230 17:25 19.12.2020
4670 Clouds 27 1009 83 6000 3.1 250 16:55 19.12.2020
4671 Clouds 27 1009 83 6000 3.1 250 16:36 19.12.2020
4672 Clouds 27 1009 78 6000 3.6 260 16:18 19.12.2020
4673 Clouds 27 1009 78 6000 3.1 250 15:47 19.12.2020
4674 Clouds 27 1009 78 6000 2.6 240 14:49 19.12.2020
4675 Clouds 27 1008 78 6000 3.6 240 14:24 19.12.2020
4676 Rain 28 1008 74 6000 3.1 270 13:42 19.12.2020
4677 Clouds 28 1007 74 6000 3.1 250 13:21 19.12.2020
4678 Clouds 28 1007 74 6000 4.1 280 12:55 19.12.2020
4679 Clouds 29 1007 74 6000 4.1 280 12:37 19.12.2020
4680 Clouds 29 1006 70 7000 3.6 260 12:18 19.12.2020
4681 Clouds 30 1006 70 7000 4.1 280 11:41 19.12.2020
4682 Clouds 31 1006 66 6000 4.6 260 10:48 19.12.2020
4683 Clouds 32 1006 66 6000 4.6 280 10:28 19.12.2020
4684 Clouds 32 1006 66 6000 4.6 280 09:59 19.12.2020
4685 Clouds 32 1006 66 6000 4.6 280 09:59 19.12.2020
4686 Clouds 32 1006 74 6000 3.1 270 09:39 19.12.2020
4687 Clouds 31 1006 83 6000 3.1 300 08:57 19.12.2020
4688 Clouds 30 1008 94 6000 3.1 220 08:18 19.12.2020
4689 Clouds 30 1007 74 5000 6.2 190 07:19 19.12.2020
4690 Clouds 32 1007 55 7000 6.7 260 06:44 19.12.2020
4691 Clouds 30 1008 55 7000 6.7 250 05:20 19.12.2020
4692 Clouds 30 1009 66 6000 7.2 220 03:40 19.12.2020
4693 Clouds 25 1008 88 6000 3.1 240 00:41 19.12.2020
4694 Haze 26 1008 88 5000 3.6 240 00:21 19.12.2020
4695 Haze 25 1007 88 5000 3.1 240 23:49 18.12.2020
4696 Haze 25 1007 83 5000 3.6 250 23:25 18.12.2020
4697 Haze 25 1007 88 5000 3.1 260 22:57 18.12.2020
4698 Haze 25 1007 88 5000 3.1 260 22:38 18.12.2020
4699 Clouds 26 1007 88 7000 4.1 270 22:19 18.12.2020
4700 Clouds 26 1007 88 7000 4.1 270 21:41 18.12.2020
4701 Clouds 26 1007 88 6000 4.1 280 21:22 18.12.2020
4702 Clouds 26 1008 88 6000 3.1 280 20:25 18.12.2020
4703 Rain 26 1008 88 6000 3.1 280 19:49 18.12.2020
4704 Rain 26 1008 88 6000 3.6 280 19:23 18.12.2020
4705 Clouds 26 1008 88 6000 3.6 290 18:46 18.12.2020
4706 Haze 26 1008 78 5000 2.6 250 18:28 18.12.2020
4707 Haze 27 1008 78 5000 2.6 250 17:52 18.12.2020
4708 Haze 27 1009 74 5000 3.1 250 17:20 18.12.2020
4709 Haze 27 1009 78 5000 2.1 250 16:45 18.12.2020
4710 Haze 27 1009 78 5000 2.6 270 16:21 18.12.2020
4711 Clouds 27 1009 74 6000 2.6 260 15:54 18.12.2020
4712 Clouds 27 1009 74 6000 2.6 260 15:34 18.12.2020
4713 Clouds 28 1008 69 6000 2.6 270 14:57 18.12.2020
4714 Clouds 28 1008 74 6000 5.1 260 14:26 18.12.2020
4715 Clouds 28 1008 74 6000 5.1 260 13:59 18.12.2020
4716 Clouds 28 1007 69 6000 5.1 250 13:40 18.12.2020
4717 Clouds 29 1007 66 6000 4.1 280 13:21 18.12.2020
4718 Clouds 29 1007 66 6000 5.7 270 12:42 18.12.2020
4719 Rain 30 1006 62 6000 7.2 250 11:29 18.12.2020
4720 Rain 30 1006 62 6000 7.2 250 10:58 18.12.2020
4721 Clouds 30 1005 62 6000 5.1 270 10:37 18.12.2020
4722 Clouds 30 1005 58 6000 7.7 270 10:19 18.12.2020
4723 Clouds 30 1005 58 6000 5.1 270 09:38 18.12.2020
4724 Rain 31 1005 55 6000 5.1 270 09:19 18.12.2020
4725 Clouds 32 1006 59 6000 5.1 270 08:50 18.12.2020
4726 Clouds 31 1006 55 6000 7.7 260 08:21 18.12.2020
4727 Clouds 30 1007 62 6000 5.1 270 07:20 18.12.2020
4728 Clouds 30 1007 62 6000 5.1 270 06:59 18.12.2020
4729 Rain 29 1008 70 6000 5.7 240 05:45 18.12.2020
4730 Clouds 30 1008 70 6000 5.1 260 05:26 18.12.2020
4731 Clouds 30 1008 70 6000 6.7 280 04:42 18.12.2020
4732 Clouds 27 1008 83 6000 2.6 250 01:47 18.12.2020
4733 Clouds 27 1008 83 6000 2.6 250 01:47 18.12.2020
4734 Clouds 27 1008 83 6000 2.6 250 01:47 18.12.2020
4735 Clouds 27 1008 83 6000 2.6 250 01:47 18.12.2020
4736 Rain 26 1008 88 5000 2.1 250 00:38 18.12.2020
4737 Haze 25 1007 88 5000 3.1 250 23:54 17.12.2020
4738 Haze 25 1007 88 5000 3.1 250 23:25 17.12.2020
4739 Haze 25 1007 88 5000 3.1 250 23:25 17.12.2020
4740 Haze 25 1007 88 5000 3.1 250 22:49 17.12.2020
4741 Haze 26 1007 88 5000 3.1 250 22:28 17.12.2020
4742 Clouds 26 1007 83 8000 5.7 270 21:47 17.12.2020
4743 Clouds 25 1009 81 10000 0.89 69 21:25 17.12.2020
4744 Clear 26 1008 83 10000 5.7 270 20:56 17.12.2020
4745 Clear 26 1008 83 10000 5.7 270 20:37 17.12.2020
4746 Clear 26 1008 83 10000 5.7 270 20:18 17.12.2020
4747 Clouds 26 1008 83 9000 5.1 270 19:44 17.12.2020
4748 Clouds 26 1008 83 8000 5.1 280 19:23 17.12.2020
4749 Clouds 26 1008 83 8000 5.1 280 18:41 17.12.2020
4750 Clouds 26 1009 83 8000 5.7 270 18:23 17.12.2020
4751 Clouds 26 1009 83 8000 5.7 270 17:53 17.12.2020
4752 Clouds 26 1009 83 8000 5.7 270 17:32 17.12.2020
4753 Clouds 26 1009 83 8000 5.7 270 17:32 17.12.2020
4754 Rain 26 1009 88 8000 4.1 260 16:44 17.12.2020
4755 Clouds 27 1009 83 8000 5.1 250 16:24 17.12.2020
4756 Clouds 27 1009 83 8000 5.1 250 15:52 17.12.2020
4757 Clouds 27 1009 83 8000 5.7 250 15:31 17.12.2020
4758 Clouds 27 1009 83 7000 4.6 260 14:55 17.12.2020
4759 Haze 27 1008 78 5000 5.1 250 14:34 17.12.2020
4760 Haze 27 1008 78 5000 5.1 250 13:58 17.12.2020
4761 Haze 27 1008 78 5000 5.1 250 13:58 17.12.2020
4762 Haze 27 1008 78 5000 5.1 250 13:35 17.12.2020
4763 Clouds 28 1007 74 6000 5.7 250 12:48 17.12.2020
4764 Clouds 28 1007 69 6000 5.1 250 12:25 17.12.2020
4765 Clouds 29 1007 69 6000 5.1 250 11:45 17.12.2020
4766 Clouds 29 1006 70 6000 5.1 260 11:25 17.12.2020
4767 Clouds 30 1007 70 6000 6.2 240 10:56 17.12.2020
4768 Clouds 30 1007 70 6000 6.2 240 10:56 17.12.2020
4769 Clouds 30 1007 70 6000 6.2 240 10:29 17.12.2020
4770 Clouds 32 1006 55 6000 5.1 260 09:31 17.12.2020
4771 Clouds 32 1007 55 6000 2.6 270 08:20 17.12.2020
4772 Haze 33 1008 62 5000 4.1 260 07:40 17.12.2020
4773 Haze 32 1008 62 5000 4.1 260 07:18 17.12.2020
4774 Haze 31 1008 62 5000 5.1 280 06:42 17.12.2020
4775 Haze 30 1009 62 5000 7.7 250 06:24 17.12.2020
4776 Clouds 24 1008 94 5000 2.6 240 00:55 17.12.2020
4777 Clouds 24 1008 94 3000 7.2 240 23:57 16.12.2020
4778 Clouds 25 1008 94 3000 7.2 220 23:22 16.12.2020
4779 Rain 25 1008 94 3000 7.2 220 23:22 16.12.2020
4780 Rain 25 1008 94 3000 3.1 220 22:57 16.12.2020
4781 Rain 25 1008 94 3000 3.1 220 22:36 16.12.2020
4782 Rain 25 1008 94 5000 0.5 0 21:54 16.12.2020
4783 Rain 25 1008 94 5000 0.5 0 21:36 16.12.2020
4784 Rain 26 1008 94 5000 1.5 320 20:56 16.12.2020
4785 Rain 25 1008 94 5000 1.5 320 20:37 16.12.2020
4786 Rain 26 1008 94 5000 1.5 300 20:18 16.12.2020
4787 Clouds 27 1009 83 7000 4.6 280 19:20 16.12.2020
4788 Clouds 27 1008 83 8000 5.1 240 18:57 16.12.2020
4789 Clouds 27 1008 83 8000 5.1 240 18:31 16.12.2020
4790 Rain 27 1009 83 8000 3.6 240 17:57 16.12.2020
4791 Clouds 27 1009 74 6000 3.1 250 17:31 16.12.2020
4792 Clouds 27 1009 74 6000 3.1 250 16:42 16.12.2020
4793 Clouds 27 1009 74 6000 4.6 250 16:22 16.12.2020
4794 Clouds 27 1009 74 6000 4.6 250 16:22 16.12.2020
4795 Clouds 27 1009 78 6000 4.1 260 15:51 16.12.2020
4796 Rain 27 1009 78 6000 4.6 270 15:30 16.12.2020
4797 Rain 28 1008 74 6000 4.6 240 14:51 16.12.2020
4798 Clouds 28 1008 74 6000 4.6 240 14:29 16.12.2020
4799 Rain 28 1008 74 6000 5.1 260 13:50 16.12.2020
4800 Rain 28 1008 74 6000 5.1 260 13:31 16.12.2020
4801 Clouds 28 1007 69 6000 7.7 260 12:56 16.12.2020
4802 Clouds 28 1007 69 6000 7.7 260 12:37 16.12.2020
4803 Clouds 29 1006 66 6000 8.7 240 11:43 16.12.2020
4804 Clouds 30 1006 62 6000 9.3 260 11:22 16.12.2020
4805 Clouds 31 1006 62 6000 8.7 240 10:50 16.12.2020
4806 Clouds 31 1006 62 6000 8.7 240 10:27 16.12.2020
4807 Clouds 32 1006 58 7000 7.7 240 09:49 16.12.2020
4808 Clouds 32 1006 58 7000 7.7 270 09:18 16.12.2020
4809 Rain 32 1007 59 7000 7.7 250 07:59 16.12.2020
4810 Clouds 31 1008 58 7000 7.7 270 07:39 16.12.2020
4811 Rain 31 1008 58 7000 7.7 270 06:57 16.12.2020
4812 Rain 27 1010 78 6000 5.1 280 03:35 16.12.2020
4813 Clouds 27 1010 78 6000 5.1 260 01:31 16.12.2020
4814 Rain 26 1009 83 5000 2.6 260 23:46 15.12.2020
4815 Haze 25 1009 83 5000 5.1 240 22:56 15.12.2020
4816 Haze 25 1009 83 5000 5.1 240 22:38 15.12.2020
4817 Rain 25 1010 88 6000 5.1 270 22:18 15.12.2020
4818 Clouds 25 1010 88 6000 5.1 270 21:40 15.12.2020
4819 Clouds 26 1010 83 6000 4.6 260 21:21 15.12.2020
4820 Clouds 26 1010 83 6000 6.2 260 20:44 15.12.2020
4821 Clouds 26 1010 83 6000 5.7 270 20:26 15.12.2020
4822 Clouds 26 1010 83 6000 5.7 270 19:52 15.12.2020
4823 Clouds 26 1010 83 6000 6.2 260 19:26 15.12.2020
4824 Haze 26 1011 78 5000 4.1 260 18:39 15.12.2020
4825 Haze 26 1011 78 5000 4.1 260 18:21 15.12.2020
4826 Rain 26 1011 78 5000 4.1 260 17:45 15.12.2020
4827 Haze 26 1011 83 5000 3.1 240 17:27 15.12.2020
4828 Rain 27 1011 78 5000 1.5 250 16:46 15.12.2020
4829 Rain 27 1011 74 5000 3.1 270 16:27 15.12.2020
4830 Haze 27 1011 74 5000 1.5 230 15:42 15.12.2020
4831 Rain 27 1011 74 5000 2.6 230 15:24 15.12.2020
4832 Rain 27 1010 74 5000 3.6 230 14:43 15.12.2020
4833 Rain 28 1009 69 5000 2.6 210 14:20 15.12.2020
4834 Rain 28 1009 65 5000 3.1 260 13:51 15.12.2020
4835 Rain 28 1008 65 6000 4.1 270 13:26 15.12.2020
4836 Rain 28 1008 65 6000 5.1 250 12:46 15.12.2020
4837 Rain 28 1008 65 6000 9.8 230 12:20 15.12.2020
4838 Rain 28 1008 78 6000 8.7 230 11:54 15.12.2020
4839 Rain 29 1007 66 6000 8.7 230 11:25 15.12.2020
4840 Rain 30 1007 58 6000 7.7 240 10:52 15.12.2020
4841 Rain 30 1006 62 6000 5.7 240 10:23 15.12.2020
4842 Rain 31 1007 62 6000 5.7 270 09:49 15.12.2020
4843 Rain 32 1007 59 6000 5.1 250 09:31 15.12.2020
4844 Clouds 32 1007 55 6000 6.7 260 08:47 15.12.2020
4845 Clouds 33 1007 59 6000 5.1 260 08:25 15.12.2020
4846 Clouds 32 1008 62 6000 6.7 260 07:49 15.12.2020
4847 Clouds 32 1008 55 6000 8.7 240 07:23 15.12.2020
4848 Clouds 33 1009 59 7000 5.1 250 06:27 15.12.2020
4849 Haze 27 1009 88 4000 1.5 290 01:27 15.12.2020
4850 Haze 26 1009 94 4000 1.5 290 00:34 15.12.2020
4851 Haze 26 1008 83 5000 1.5 260 23:23 14.12.2020
4852 Haze 26 1008 83 5000 2.1 290 22:48 14.12.2020
4853 Clouds 26 1008 83 7000 4.1 250 22:27 14.12.2020
4854 Clouds 26 1008 83 7000 4.6 250 21:44 14.12.2020
4855 Clouds 26 1008 83 7000 4.6 240 21:22 14.12.2020
4856 Clouds 26 1009 83 7000 5.1 240 20:51 14.12.2020
4857 Clouds 26 1009 83 7000 5.1 240 20:51 14.12.2020
4858 Clouds 26 1009 83 7000 5.1 240 20:29 14.12.2020
4859 Rain 26 1009 83 7000 5.7 240 19:53 14.12.2020
4860 Rain 26 1009 83 7000 5.7 240 19:29 14.12.2020
4861 Rain 26 1010 83 7000 4.1 240 18:44 14.12.2020
4862 Rain 26 1010 83 7000 3.6 260 18:25 14.12.2020
4863 Rain 27 1010 83 7000 4.6 260 17:46 14.12.2020
4864 Rain 26 1011 83 7000 4.1 250 17:23 14.12.2020
4865 Rain 26 1013 80 10000 0.89 294 16:50 14.12.2020
4866 Rain 26 1013 80 6847 1.34 276 16:29 14.12.2020
4867 Rain 27 1013 79 6847 0.89 0 15:39 14.12.2020
4868 Rain 27 1006 66 8979 7.68 250 15:20 14.12.2020
4869 Rain 27 1009 78 5000 4.1 260 14:42 14.12.2020
4870 Rain 27 1009 78 5000 4.1 260 14:24 14.12.2020
4871 Rain 27 1009 78 5000 4.1 260 13:43 14.12.2020
4872 Rain 28 1009 78 5000 5.1 260 13:19 14.12.2020
4873 Rain 28 1008 74 5000 4.1 260 12:52 14.12.2020
4874 Haze 28 1008 74 5000 4.1 240 12:24 14.12.2020
4875 Rain 28 1007 74 5000 4.1 250 11:35 14.12.2020
4876 Rain 29 1007 74 5000 5.1 260 10:38 14.12.2020
4877 Clouds 28 1007 83 4000 3.1 270 10:19 14.12.2020
4878 Clouds 28 1007 83 4000 3.1 270 09:43 14.12.2020
4879 Rain 30 1007 74 2500 5.1 270 08:47 14.12.2020
4880 Clouds 30 1007 74 2500 5.1 270 08:29 14.12.2020
4881 Clouds 32 1008 62 6000 3.1 270 07:44 14.12.2020
4882 Clouds 32 1009 66 6000 5.1 260 06:48 14.12.2020
4883 Clouds 32 1009 66 6000 5.1 260 06:48 14.12.2020
4884 Clouds 32 1009 66 6000 4.1 260 05:36 14.12.2020
4885 Clouds 28 1009 78 6000 5.1 260 02:26 14.12.2020
4886 Clouds 27 1008 78 6000 4.1 260 00:56 14.12.2020
4887 Clouds 26 1008 78 6000 4.6 300 00:33 14.12.2020
4888 Clouds 26 1007 78 6000 4.1 250 23:57 13.12.2020
4889 Clouds 26 1007 78 6000 4.1 250 23:36 13.12.2020
4890 Clouds 26 1007 78 6000 4.6 250 22:48 13.12.2020
4891 Clouds 26 1007 83 8000 5.1 240 22:20 13.12.2020
4892 Clouds 26 1007 83 8000 5.1 240 21:47 13.12.2020
4893 Rain 26 1007 83 8000 5.1 240 21:28 13.12.2020
4894 Clouds 26 1008 78 8000 5.7 240 20:40 13.12.2020
4895 Clouds 26 1008 78 8000 6.2 240 20:21 13.12.2020
4896 Clouds 26 1008 78 8000 6.2 240 19:42 13.12.2020
4897 Clouds 26 1008 83 8000 5.7 240 19:20 13.12.2020
4898 Clouds 27 1008 83 8000 5.7 240 18:44 13.12.2020
4899 Clouds 27 1009 78 6000 3.6 230 18:21 13.12.2020
4900 Rain 27 1009 78 6000 3.6 230 17:47 13.12.2020
4901 Rain 27 1009 78 6000 3.6 250 17:21 13.12.2020
4902 Rain 27 1009 78 6000 3.6 250 16:59 13.12.2020
4903 Clouds 27 1009 78 6000 2.6 250 16:39 13.12.2020
4904 Rain 27 1009 83 6000 2.1 240 16:19 13.12.2020
4905 Rain 27 1009 83 6000 2.6 210 15:42 13.12.2020
4906 Clouds 27 1009 83 6000 2.6 240 15:23 13.12.2020
4907 Rain 26 1008 83 6000 3.6 230 14:44 13.12.2020
4908 Clouds 27 1008 83 6000 3.1 230 14:25 13.12.2020
4909 Rain 27 1008 78 6000 3.6 240 13:44 13.12.2020
4910 Rain 27 1008 78 5000 3.1 230 13:25 13.12.2020
4911 Haze 27 1007 78 5000 1.5 260 12:51 13.12.2020
4912 Rain 28 1007 88 5000 1 320 12:23 13.12.2020
4913 Rain 28 1002 69 10000 4.86 249 11:43 13.12.2020
4914 Rain 28 1007 88 5000 4.92 262 10:56 13.12.2020
4915 Clouds 28 1007 88 5000 4.92 262 10:38 13.12.2020
4916 Rain 29 1007 88 5000 1.5 340 09:57 13.12.2020
4917 Rain 29 1007 88 5000 1.5 340 09:28 13.12.2020
4918 Rain 29 1007 83 5000 1.5 350 08:35 13.12.2020
4919 Rain 28 1008 88 5000 2.6 360 07:51 13.12.2020
4920 Rain 29 1010 66 6000 4.6 250 04:48 13.12.2020
4921 Rain 28 1009 74 6000 3.6 250 02:42 13.12.2020
4922 Clouds 27 1009 78 6000 5.1 270 01:58 13.12.2020
4923 Clouds 27 1008 78 6000 3.1 270 00:51 13.12.2020
4924 Clouds 27 1008 78 6000 3.1 270 00:33 13.12.2020
4925 Rain 26 1007 78 5000 1.5 290 23:33 12.12.2020
4926 Haze 26 1007 78 5000 1.5 270 22:56 12.12.2020
4927 Haze 26 1007 88 5000 1.5 0 22:20 12.12.2020
4928 Thunderstorm 26 1007 88 5000 1.5 0 21:44 12.12.2020
4929 Thunderstorm 26 1007 83 5000 2.1 330 21:18 12.12.2020
4930 Thunderstorm 27 1008 78 5000 3.6 10 20:41 12.12.2020
4931 Thunderstorm 27 1008 78 5000 3.6 10 20:19 12.12.2020
4932 Thunderstorm 27 1008 78 5000 3.1 270 19:46 12.12.2020
4933 Thunderstorm 27 1008 78 5000 3.1 270 19:28 12.12.2020
4934 Thunderstorm 26 1008 83 5000 3.1 260 18:47 12.12.2020
4935 Clouds 27 1009 78 6000 6.7 240 18:29 12.12.2020
4936 Clouds 27 1009 78 6000 6.7 240 17:47 12.12.2020
4937 Clouds 27 1009 78 6000 6.7 240 17:28 12.12.2020
4938 Rain 26 1009 78 6000 6.7 240 16:24 12.12.2020
4939 Haze 27 1009 74 5000 6.7 250 15:52 12.12.2020
4940 Haze 27 1009 74 5000 6.7 250 15:34 12.12.2020
4941 Haze 27 1008 78 5000 5.1 230 14:50 12.12.2020
4942 Haze 27 1008 78 5000 3.6 240 13:58 12.12.2020
4943 Clouds 28 1008 74 5000 3.1 230 13:38 12.12.2020
4944 Clouds 28 1007 74 5000 4.1 250 13:19 12.12.2020
4945 Clouds 28 1007 74 6000 3.1 250 12:31 12.12.2020
4946 Clouds 29 1005 66 5000 3.6 250 10:56 12.12.2020
4947 Clouds 30 1005 62 6000 3.6 250 09:50 12.12.2020
4948 Clouds 31 1005 62 6000 4.1 240 08:57 12.12.2020
4949 Rain 28 1009 74 6000 6.2 240 03:33 12.12.2020
4950 Clouds 26 1009 83 6000 4.1 240 00:28 12.12.2020
4951 Haze 25 1008 83 5000 4.1 280 22:50 11.12.2020
4952 Clouds 26 1009 88 8000 4.1 250 20:52 11.12.2020
4953 Rain 26 1009 88 8000 4.1 260 18:56 11.12.2020
4954 Rain 26 1013 81 10000 1.79 315 16:45 11.12.2020
4955 Rain 26 1009 83 5000 7.7 240 14:24 11.12.2020
4956 Clouds 27 1009 78 5000 7.7 260 13:25 11.12.2020
4957 Rain 28 1007 66 5000 2.6 340 12:21 11.12.2020
4958 Clouds 30 1006 58 6000 2.6 320 11:52 11.12.2020
4959 Clouds 31 1006 62 6000 2.6 350 11:24 11.12.2020
4960 Rain 32 1006 62 6000 2.6 350 09:58 11.12.2020
4961 Haze 31 1009 66 5000 2.6 300 06:26 11.12.2020
4962 Rain 31 1009 66 6000 4.1 260 05:20 11.12.2020
4963 Clouds 30 1010 78 6000 3.1 230 02:58 11.12.2020
4964 Clouds 27 1008 88 6000 1.5 290 00:40 11.12.2020
4965 Rain 26 1007 88 6000 2.1 250 23:25 10.12.2020
4966 Haze 26 1007 88 5000 2.1 220 21:37 10.12.2020
4967 Haze 26 1007 88 5000 4.1 240 20:50 10.12.2020
4968 Haze 26 1008 88 5000 2.1 220 19:52 10.12.2020
4969 Haze 26 1008 88 5000 1.5 230 19:21 10.12.2020
4970 Clouds 26 1010 83 6000 2.6 280 18:44 10.12.2020
4971 Clouds 26 1009 83 6000 2.6 280 17:23 10.12.2020
4972 Clouds 27 1009 83 6000 2.1 280 15:52 10.12.2020
4973 Clouds 27 1009 83 6000 2.6 270 14:59 10.12.2020
4974 Clouds 27 1009 83 6000 3.1 280 14:39 10.12.2020
4975 Haze 27 1008 94 5000 2.1 270 13:26 10.12.2020
4976 Clouds 28 1007 78 2000 3.6 280 11:51 10.12.2020
4977 Clouds 30 1006 62 6000 4.6 290 10:29 10.12.2020
4978 Rain 31 1007 66 6000 4.1 330 08:20 10.12.2020
4979 Clouds 31 1007 66 6000 4.6 330 06:59 10.12.2020
4980 Clouds 31 1008 58 6000 3.1 290 05:26 10.12.2020
4981 Clouds 28 1009 78 6000 2.6 270 02:31 10.12.2020
4982 Haze 28 1008 83 5000 2.6 260 01:25 10.12.2020
4983 Haze 26 1007 83 5000 3.6 270 23:37 09.12.2020
4984 Rain 26 1006 78 7000 3.6 260 20:37 09.12.2020
4985 Clouds 26 1007 83 8000 4.1 260 19:40 09.12.2020
4986 Clouds 27 1007 83 8000 4.6 250 18:36 09.12.2020
4987 Rain 27 1008 78 5000 2.6 270 16:57 09.12.2020
4988 Rain 27 1008 83 5000 3.1 250 16:26 09.12.2020
4989 Haze 27 1008 78 5000 2.6 250 15:44 09.12.2020
4990 Haze 27 1008 78 5000 2.6 250 15:44 09.12.2020
4991 Haze 28 1007 74 5000 3.1 270 14:50 09.12.2020
4992 Haze 28 1007 74 5000 3.1 270 14:26 09.12.2020
4993 Clouds 29 1006 66 6000 5.1 260 13:19 09.12.2020
4994 Clouds 29 1006 66 6000 5.1 260 12:58 09.12.2020
4995 Haze 29 1005 66 5000 7.7 270 12:23 09.12.2020
4996 Haze 30 1005 58 5000 5.7 270 11:33 09.12.2020
4997 Haze 31 1005 62 5000 6.7 240 09:51 09.12.2020
4998 Haze 32 1005 70 5000 5.7 240 08:35 09.12.2020
4999 Haze 32 1006 66 5000 6.2 280 06:38 09.12.2020
5000 Haze 28 1008 74 5000 5.7 270 05:27 09.12.2020
5001 Haze 27 1009 78 5000 4.1 280 02:40 09.12.2020
5002 Haze 27 1008 88 5000 2.6 270 00:34 09.12.2020
5003 Haze 26 1007 83 5000 4.1 270 23:33 08.12.2020
5004 Clouds 26 1007 88 7000 3.1 240 21:56 08.12.2020
5005 Clouds 27 1007 83 7000 4.1 230 20:24 08.12.2020
5006 Clouds 27 1008 83 8000 5.1 240 19:30 08.12.2020
5007 Clouds 27 1008 83 8000 5.1 240 18:35 08.12.2020
5008 Clouds 27 1010 78 10000 1.79 315 16:39 08.12.2020
5009 Clouds 27 1011 73 10000 2.68 318 15:18 08.12.2020
5010 Haze 27 1007 74 5000 5.1 260 13:49 08.12.2020
5011 Haze 28 1007 69 5000 7.7 270 12:38 08.12.2020
5012 Haze 31 1006 58 5000 7.7 260 11:53 08.12.2020
5013 Haze 32 1006 58 5000 7.7 270 10:54 08.12.2020
5014 Haze 31 1006 58 5000 7.7 270 10:34 08.12.2020
5015 Haze 32 1006 66 5000 7.7 260 09:38 08.12.2020
5016 Haze 32 1007 66 5000 5.1 270 07:35 08.12.2020
5017 Haze 32 1009 74 5000 4.1 300 05:26 08.12.2020
5018 Rain 27 1010 94 5000 2.6 270 02:24 08.12.2020
5019 Rain 26 1009 94 4000 1.5 240 00:44 08.12.2020
5020 Haze 25 1009 88 5000 4.1 290 23:25 07.12.2020
5021 Haze 25 1008 88 5000 3.6 260 22:20 07.12.2020
5022 Haze 25 1008 88 5000 3.1 260 21:26 07.12.2020
5023 Haze 25 1009 94 5000 2.6 250 19:27 07.12.2020
5024 Clouds 25 1011 94 2000 3.6 270 17:57 07.12.2020
5025 Haze 25 1011 94 5000 1.5 250 17:20 07.12.2020
5026 Rain 26 1010 94 5000 2.1 240 16:38 07.12.2020
5027 Haze 25 1010 94 5000 2.6 270 15:24 07.12.2020
5028 Haze 25 1010 94 5000 2.6 250 14:31 07.12.2020
5029 Haze 25 1009 88 5000 2.6 270 13:36 07.12.2020
5030 Haze 26 1008 83 5000 4.1 250 12:28 07.12.2020
5031 Rain 26 1008 83 5000 4.1 290 11:42 07.12.2020
5032 Rain 26 1008 94 4000 4.1 250 10:32 07.12.2020
5033 Clouds 27 1007 94 5000 2.6 280 09:23 07.12.2020
5034 Rain 30 1008 66 5000 4.1 300 07:38 07.12.2020
5035 Haze 29 1010 83 5000 3.6 280 05:27 07.12.2020
5036 Haze 27 1011 94 5000 3.1 260 03:53 07.12.2020
5037 Rain 24 1008 94 4000 4.1 250 00:49 07.12.2020
5038 Rain 24 1007 94 1000 10.3 240 22:52 06.12.2020
5039 Rain 25 1007 94 4100 3.6 260 21:44 06.12.2020
5040 Rain 25 1008 88 7000 2.6 220 20:43 06.12.2020
5041 Haze 26 1007 88 5000 2.6 230 20:22 06.12.2020
5042 Rain 25 1008 88 5000 2.6 230 19:30 06.12.2020
5043 Rain 25 1010 88 5000 4.6 250 17:39 06.12.2020
5044 Rain 26 1010 88 5000 4.6 250 16:34 06.12.2020
5045 Clouds 25 1009 94 4000 4.1 240 14:49 06.12.2020
5046 Rain 25 1008 88 5000 5.7 240 13:23 06.12.2020
5047 Rain 26 1008 88 5000 4.1 240 12:33 06.12.2020
5048 Rain 27 1007 78 5000 4.1 270 11:53 06.12.2020
5049 Rain 28 1007 78 5000 4.1 270 11:25 06.12.2020
5050 Haze 28 1006 69 5000 7.2 260 10:36 06.12.2020
5051 Rain 29 1006 78 5000 2.1 290 09:31 06.12.2020
5052 Rain 29 1007 100 3000 1.5 270 07:41 06.12.2020
5053 Rain 27 1009 94 2000 5.7 240 04:51 06.12.2020
5054 Clouds 25 1008 94 3000 4.1 240 00:46 06.12.2020
5055 Rain 25 1007 94 3000 4.1 240 00:26 06.12.2020
5056 Clouds 25 1007 94 3000 4.1 240 23:57 05.12.2020
5057 Haze 25 1006 94 5000 3.6 230 22:25 05.12.2020
5058 Haze 25 1006 94 5000 3.1 230 21:55 05.12.2020
5059 Clouds 25 1006 94 5000 3.6 270 21:30 05.12.2020
5060 Rain 25 1007 88 5000 1.5 0 19:54 05.12.2020
5061 Rain 25 1008 88 5000 1 0 18:46 05.12.2020
5062 Rain 25 1004 66 10000 4.47 251 17:55 05.12.2020
5063 Rain 26 1004 66 10000 5.12 261 16:45 05.12.2020
5064 Clouds 26 1004 66 10000 5.19 259 16:26 05.12.2020
5065 Clouds 26 1003 65 10000 6.4 271 15:21 05.12.2020
5066 Rain 27 1007 69 4000 2.6 270 13:25 05.12.2020
5067 Haze 29 1006 66 5000 2.6 300 11:50 05.12.2020
5068 Haze 29 1006 62 5000 5.1 250 10:35 05.12.2020
5069 Haze 30 1006 66 4000 2.6 260 09:31 05.12.2020
5070 Clouds 28 1009 88 4000 1.5 350 07:48 05.12.2020
5071 Clouds 28 1010 83 4000 5.1 250 05:34 05.12.2020
5072 Haze 27 1008 83 5000 3.1 250 00:55 05.12.2020
5073 Haze 26 1008 88 5000 2.6 240 23:36 04.12.2020
5074 Clouds 26 1007 88 6000 2.1 210 21:35 04.12.2020
5075 Rain 26 1008 88 6000 2.6 210 19:35 04.12.2020
5076 Rain 26 1010 83 6000 3.6 250 18:40 04.12.2020
5077 Rain 26 1010 83 6000 3.6 250 17:47 04.12.2020
5078 Rain 27 1009 78 6000 3.1 240 16:37 04.12.2020
5079 Clouds 27 1009 78 6000 3.6 220 15:25 04.12.2020
5080 Rain 27 1008 78 6000 4.1 250 13:38 04.12.2020
5081 Clouds 28 1007 78 6000 3.6 260 13:20 04.12.2020
5082 Clouds 28 1007 78 6000 3.6 270 12:26 04.12.2020
5083 Rain 29 1006 83 5000 2.1 300 10:37 04.12.2020
5084 Rain 32 1007 58 5000 2.6 300 09:25 04.12.2020
5085 Clouds 32 1008 55 6000 2.6 260 06:40 04.12.2020
5086 Clouds 31 1009 59 6000 3.1 240 04:54 04.12.2020
5087 Haze 27 1009 74 5000 2.1 230 01:54 04.12.2020
5088 Haze 26 1007 88 4000 1.5 210 22:51 03.12.2020
5089 Clouds 26 1008 88 6000 2.1 200 21:38 03.12.2020
5090 Clouds 26 1008 88 7000 1.5 220 20:47 03.12.2020
5091 Rain 26 1009 88 7000 3.1 220 19:25 03.12.2020
5092 Clouds 26 1010 88 7000 2.6 210 18:48 03.12.2020
5093 Haze 28 1010 74 5000 3.6 250 17:21 03.12.2020
5094 Haze 28 1010 74 5000 2.1 250 16:45 03.12.2020
5095 Haze 28 1010 78 5000 2.1 250 15:34 03.12.2020
5096 Haze 28 1009 74 5000 2.6 267 14:50 03.12.2020
5097 Haze 28 1009 74 5000 1.5 260 14:19 03.12.2020
5098 Haze 29 1008 66 5000 1.5 280 12:55 03.12.2020
5099 Haze 30 1007 66 5000 2.1 280 12:25 03.12.2020
5100 Haze 30 1007 62 5000 2.6 270 11:22 03.12.2020
5101 Clouds 33 1007 58 6000 1.5 300 08:49 03.12.2020
5102 Rain 25 1010 94 5000 4.1 210 04:44 03.12.2020
5103 Rain 24 1010 94 3000 2.1 210 02:22 03.12.2020
5104 Rain 25 1009 88 3000 1.5 270 00:42 03.12.2020
5105 Rain 25 1008 94 4000 2.3 249 22:47 02.12.2020
5106 Rain 25 1007 94 5000 2.1 220 21:58 02.12.2020
5107 Rain 25 1008 88 5000 0.5 0 20:52 02.12.2020
5108 Rain 25 1008 88 5000 0.5 0 20:34 02.12.2020
5109 Rain 26 1008 88 7000 2.1 260 19:58 02.12.2020
5110 Rain 27 1009 88 9000 5.7 240 17:56 02.12.2020
5111 Thunderstorm 28 1009 83 9000 3.6 230 17:37 02.12.2020
5112 Rain 28 1009 83 9000 3.6 230 17:19 02.12.2020
5113 Clouds 28 1008 78 6000 2.6 280 14:49 02.12.2020
5114 Haze 30 1005 66 5000 2.6 300 11:34 02.12.2020
5115 Clouds 32 1005 66 5000 4.1 240 10:28 02.12.2020
5116 Clouds 35 1005 50 6000 2.6 330 08:40 02.12.2020
5117 Clouds 32 1009 55 6000 4.1 240 03:57 02.12.2020
5118 Rain 26 1007 78 8000 2.6 190 22:21 01.12.2020
5119 Rain 26 1007 78 8000 2.6 210 21:36 01.12.2020
5120 Clouds 26 1008 83 8000 3.1 230 19:35 01.12.2020
5121 Clouds 27 1009 74 6000 2.1 210 17:52 01.12.2020
5122 Rain 28 1009 78 6000 2.1 270 16:35 01.12.2020
5123 Clouds 29 1008 66 6000 6.2 240 13:38 01.12.2020
5124 Clouds 30 1007 62 6000 6.2 260 12:25 01.12.2020
5125 Clouds 31 1006 58 7000 6.2 270 11:27 01.12.2020
5126 Clouds 32 1005 62 7000 5.1 230 10:39 01.12.2020
5127 Clouds 34 1007 52 7000 8.2 240 08:21 01.12.2020
5128 Clouds 34 1008 55 7000 8.2 240 06:48 01.12.2020
5129 Clouds 28 1010 83 6000 2.6 240 01:53 01.12.2020
5130 Clouds 27 1010 83 6000 2.6 240 00:56 01.12.2020
5131 Haze 25 1008 83 5000 2.6 260 23:21 30.11.2020
5132 Haze 25 1008 83 5000 2.1 260 22:45 30.11.2020
5133 Haze 25 1008 83 5000 2.1 260 22:25 30.11.2020
5134 Clouds 26 1009 83 7000 4.1 220 20:57 30.11.2020
5135 Clouds 26 1010 78 6000 4.1 220 19:42 30.11.2020
5136 Clouds 26 1011 78 6000 2.6 250 18:24 30.11.2020
5137 Clouds 26 1011 78 6000 2.6 250 17:51 30.11.2020
5138 Clouds 27 1011 78 6000 3.1 240 16:58 30.11.2020
5139 Clouds 27 1011 78 6000 3.1 230 16:38 30.11.2020
5140 Rain 27 1010 74 6000 5.1 240 14:47 30.11.2020
5141 Rain 27 1009 74 6000 8.2 250 13:53 30.11.2020
5142 Haze 27 1008 74 5000 7.7 230 12:34 30.11.2020
5143 Rain 27 1007 74 5000 7.7 240 11:58 30.11.2020
5144 Haze 28 1007 74 5000 7.7 240 10:30 30.11.2020
5145 Haze 28 1007 69 5000 9.3 270 09:51 30.11.2020
5146 Clouds 31 1008 62 6000 7.7 260 07:44 30.11.2020
5147 Clouds 27 1009 83 6000 2.1 270 01:19 30.11.2020
5148 Clouds 25 1008 88 6000 3.6 240 22:20 29.11.2020
5149 Rain 25 1008 88 6000 3.6 240 21:43 29.11.2020
5150 Clouds 25 1008 88 6000 3.6 240 21:25 29.11.2020
5151 Rain 25 1011 83 5000 5.7 220 17:48 29.11.2020
5152 Rain 25 1011 88 5000 4.1 220 16:57 29.11.2020
5153 Rain 26 1010 88 5000 4.1 250 13:35 29.11.2020
5154 Rain 26 1009 78 6000 5.1 250 12:34 29.11.2020
5155 Rain 27 1008 74 7000 5.1 250 11:22 29.11.2020
5156 Clouds 32 1007 58 7000 7.7 250 08:52 29.11.2020
5157 Clouds 32 1007 58 7000 7.7 250 08:34 29.11.2020
5158 Haze 27 1009 78 5000 1.5 290 02:31 29.11.2020
5159 Haze 27 1007 83 5000 4.33 243 22:58 28.11.2020
5160 Clouds 27 1008 83 8000 4.1 240 21:20 28.11.2020
5161 Clouds 27 1008 74 8000 3.6 220 19:54 28.11.2020
5162 Clouds 27 1009 74 8000 3.1 210 19:27 28.11.2020
5163 Clouds 27 1009 74 10000 3.1 220 18:52 28.11.2020
5164 Rain 27 1010 83 5000 1.5 230 17:52 28.11.2020
5165 Clouds 27 1010 83 5000 1.5 70 16:52 28.11.2020
5166 Rain 28 1010 83 5000 1 180 14:58 28.11.2020
5167 Rain 29 1008 69 5000 3.1 210 13:31 28.11.2020
5168 Haze 31 1006 62 5000 3.1 270 11:24 28.11.2020
5169 Haze 33 1007 46 5000 2.1 260 08:18 28.11.2020
5170 Clouds 31 1010 62 6000 1.5 150 03:38 28.11.2020
5171 Haze 29 1010 78 5000 1.5 210 01:52 28.11.2020
5172 Haze 26 1008 94 3000 2.25 195 23:19 27.11.2020
5173 Rain 25 1008 88 5000 0.5 0 21:57 27.11.2020
5174 Clouds 25 1009 88 5000 2.6 250 20:38 27.11.2020
5175 Rain 25 1009 78 10000 1.5 290 19:31 27.11.2020
5176 Rain 25 1010 78 10000 0.5 0 18:57 27.11.2020
5177 Rain 26 1010 94 2000 2.6 170 15:50 27.11.2020
5178 Rain 28 1010 94 2500 4.1 150 14:22 27.11.2020
5179 Clouds 29 1008 88 2000 2.6 220 12:48 27.11.2020
5180 Clouds 30 1007 74 1500 7.7 90 12:20 27.11.2020
5181 Haze 33 1006 62 5000 3.1 50 10:51 27.11.2020
5182 Haze 34 1006 62 5000 3.1 50 10:28 27.11.2020
5183 Clouds 35 1006 41 6000 3.1 190 09:27 27.11.2020
5184 Clouds 26 1008 88 7000 2.6 240 22:59 26.11.2020
5185 Clouds 25 1010 80 10000 0.45 342 22:22 26.11.2020
5186 Clouds 26 1007 83 7000 3.1 230 21:39 26.11.2020
5187 Clouds 26 1008 94 7000 3.1 240 20:43 26.11.2020
5188 Clouds 27 1009 88 7000 2.6 240 18:36 26.11.2020
5189 Clouds 28 1010 83 7000 5.1 240 17:20 26.11.2020
5190 Haze 30 1007 70 5000 2.6 240 13:44 26.11.2020
5191 Haze 30 1007 66 5000 3.1 230 12:56 26.11.2020
5192 Haze 30 1007 66 5000 3.1 230 12:29 26.11.2020
5193 Haze 32 1005 62 5000 4.1 360 10:40 26.11.2020
5194 Haze 34 1006 55 5000 4.1 30 10:18 26.11.2020
5195 Haze 34 1006 55 5000 4.1 30 09:34 26.11.2020
5196 Clouds 35 1006 52 6000 2.6 40 08:47 26.11.2020
5197 Clouds 35 1006 52 6000 2.6 40 08:28 26.11.2020
5198 Haze 28 1010 78 5000 1.5 220 02:18 26.11.2020
5199 Clouds 26 1007 88 6000 2.6 220 22:18 25.11.2020
5200 Clouds 25 1007 88 6000 3.6 230 20:32 25.11.2020
5201 Haze 27 1008 83 5000 1.5 0 18:59 25.11.2020
5202 Haze 26 1008 94 4000 2.32 141 17:29 25.11.2020
5203 Haze 27 1009 94 5000 1.5 90 15:44 25.11.2020
5204 Haze 27 1009 94 5000 1.5 110 14:58 25.11.2020
5205 Rain 28 1008 88 5000 1.5 130 13:46 25.11.2020
5206 Clouds 28 1008 94 4000 3.1 150 12:57 25.11.2020
5207 Rain 28 1006 94 4000 4.1 80 11:24 25.11.2020
5208 Rain 32 1005 78 4000 3.1 20 09:21 25.11.2020
5209 Rain 34 1006 62 3000 5.1 40 08:50 25.11.2020
5210 Clouds 34 1006 46 6000 1.5 270 07:45 25.11.2020
5211 Clouds 32 1009 55 6000 2.6 240 03:52 25.11.2020
5212 Clouds 30 1008 78 6000 2.6 180 01:49 25.11.2020
5213 Haze 26 1007 88 3000 1.5 290 00:21 25.11.2020
5214 Haze 25 1007 88 3000 2.1 280 23:35 24.11.2020
5215 Haze 26 1007 88 3000 1.5 260 22:41 24.11.2020
5216 Clouds 24 1007 83 7000 5.7 240 21:44 24.11.2020
5217 Clouds 24 1007 83 7000 4.6 250 21:26 24.11.2020
5218 Clouds 24 1008 88 7000 5.7 240 20:19 24.11.2020
5219 Haze 26 1010 94 4000 1.5 270 17:47 24.11.2020
5220 Rain 26 1010 94 4000 1.5 270 17:27 24.11.2020
5221 Haze 26 1010 94 3000 1.5 280 16:38 24.11.2020
5222 Rain 26 1010 94 3000 2.54 182 15:56 24.11.2020
5223 Rain 26 1010 94 3000 3.1 30 15:20 24.11.2020
5224 Rain 26 1010 94 3000 1.5 20 14:45 24.11.2020
5225 Rain 26 1010 94 3000 2.68 199 13:56 24.11.2020
5226 Rain 27 1008 88 2000 2.6 190 12:40 24.11.2020
5227 Rain 28 1008 88 1000 6.7 110 12:20 24.11.2020
5228 Rain 28 1007 78 4000 7.7 120 11:33 24.11.2020
5229 Rain 31 1006 74 5000 3.1 30 10:25 24.11.2020
5230 Haze 32 1006 79 4000 3.6 60 09:40 24.11.2020
5231 Clouds 33 1006 79 3000 2.6 30 09:21 24.11.2020
5232 Haze 34 1008 46 6000 6.2 200 06:50 24.11.2020
5233 Haze 32 1010 55 6000 5.1 250 03:59 24.11.2020
5234 Clouds 25 1008 83 8000 4.1 240 22:25 23.11.2020
5235 Clouds 26 1008 83 8000 4.1 240 21:33 23.11.2020
5236 Clouds 26 1009 88 7000 3.6 240 20:36 23.11.2020
5237 Clouds 26 1009 88 6000 3.6 240 20:18 23.11.2020
5238 Rain 26 1010 88 6000 3.6 230 17:58 23.11.2020
5239 Rain 26 1011 83 6000 3.6 240 17:21 23.11.2020
5240 Clouds 27 1011 83 7000 4.1 240 15:44 23.11.2020
5241 Clouds 27 1010 83 7000 4.1 220 14:46 23.11.2020
5242 Haze 27 1009 78 4000 2.6 240 12:55 23.11.2020
5243 Haze 27 1009 83 4000 3.1 240 12:34 23.11.2020
5244 Rain 27 1008 78 4000 4.1 270 11:44 23.11.2020
5245 Rain 30 1007 62 5000 2.1 360 10:47 23.11.2020
5246 Haze 32 1007 66 5000 2.6 310 09:31 23.11.2020
5247 Haze 32 1008 62 4000 1.5 50 08:39 23.11.2020
5248 Clouds 32 1010 70 4000 2.1 290 07:19 23.11.2020
5249 Rain 26 1010 83 3000 0.79 140 00:25 23.11.2020
5250 Rain 26 1009 88 4000 0.42 162 23:28 22.11.2020
5251 Clouds 26 1008 88 6000 1.5 0 21:59 22.11.2020
5252 Clouds 26 1008 88 6000 1.5 210 20:53 22.11.2020
5253 Clouds 26 1009 83 6000 1.5 0 19:53 22.11.2020
5254 Clouds 27 1010 83 6000 2.1 210 18:40 22.11.2020
5255 Haze 27 1011 88 3000 1.11 141 16:52 22.11.2020
5256 Rain 27 1011 88 4000 1.56 158 15:51 22.11.2020
5257 Haze 28 1010 88 5000 1.72 168 14:34 22.11.2020
5258 Rain 29 1009 88 5000 1.5 110 12:50 22.11.2020
5259 Haze 29 1008 78 5000 1.5 130 11:57 22.11.2020
5260 Rain 30 1007 74 5000 2.1 220 11:20 22.11.2020
5261 Rain 31 1007 74 5000 2.6 240 10:45 22.11.2020
5262 Rain 30 1008 83 5000 2.6 250 09:32 22.11.2020
5263 Haze 28 1010 88 3000 1.19 98 01:49 22.11.2020
5264 Haze 25 1009 94 3000 1.5 140 23:40 21.11.2020
5265 Haze 26 1008 83 4900 1.5 0 22:18 21.11.2020
5266 Haze 26 1008 83 5000 2.6 160 21:30 21.11.2020
5267 Haze 26 1008 83 5000 2.6 160 21:30 21.11.2020
5268 Haze 26 1008 83 5000 1 160 20:35 21.11.2020
5269 Haze 26 1008 83 5000 1.5 160 19:57 21.11.2020
5270 Haze 26 1009 83 5000 1 200 19:36 21.11.2020
5271 Clouds 26 1009 83 6000 1 200 18:28 21.11.2020
5272 Haze 26 1010 88 5000 1.5 190 17:26 21.11.2020
5273 Rain 26 1010 88 5000 1.5 190 16:39 21.11.2020
5274 Haze 26 1009 83 5000 3.08 153 15:22 21.11.2020
5275 Haze 26 1009 83 5000 3.08 153 15:22 21.11.2020
5276 Rain 27 1009 78 5000 1.5 220 14:43 21.11.2020
5277 Haze 27 1009 78 5000 2.6 240 14:22 21.11.2020
5278 Haze 27 1008 78 4000 2.6 220 12:36 21.11.2020
5279 Rain 27 1008 83 4000 4.1 210 12:18 21.11.2020
5280 Rain 29 1006 83 4000 5.1 120 10:51 21.11.2020
5281 Haze 29 1006 83 4000 5.1 120 10:26 21.11.2020
5282 Clouds 32 1007 59 5000 5.1 30 08:51 21.11.2020
5283 Haze 33 1008 59 5000 5.1 360 06:35 21.11.2020
5284 Haze 34 1010 66 4000 2.6 340 04:39 21.11.2020
5285 Haze 28 1009 94 3000 2.08 92 01:32 21.11.2020
5286 Haze 25 1008 94 3000 1.83 99 23:59 20.11.2020
5287 Haze 26 1007 94 3000 1.52 99 22:26 20.11.2020
5288 Haze 25 1007 94 4000 1.5 0 21:42 20.11.2020
5289 Haze 26 1007 88 3500 1.5 230 21:21 20.11.2020
5290 Haze 26 1008 88 4000 1 220 19:46 20.11.2020
5291 Haze 26 1008 83 5000 1.5 210 18:50 20.11.2020
5292 Haze 26 1009 83 4000 1.5 220 17:53 20.11.2020
5293 Haze 27 1009 83 4000 1.5 220 17:27 20.11.2020
5294 Clouds 26 1009 83 7000 1 240 16:39 20.11.2020
5295 Clouds 26 1009 83 8000 1.5 220 15:58 20.11.2020
5296 Clouds 27 1009 83 8000 1.5 230 15:26 20.11.2020
5297 Rain 28 1008 78 3000 2.6 220 13:46 20.11.2020
5298 Rain 28 1008 78 3000 2.6 220 13:18 20.11.2020
5299 Rain 28 1007 78 4000 4.6 210 12:36 20.11.2020
5300 Rain 29 1007 74 3000 4.1 250 11:45 20.11.2020
5301 Haze 30 1006 70 5000 3.1 340 10:59 20.11.2020
5302 Rain 32 1006 49 6000 1.5 10 08:54 20.11.2020
5303 Clouds 34 1008 49 6000 4.1 30 08:25 20.11.2020
5304 Clouds 33 1008 52 7000 5.1 40 07:32 20.11.2020
5305 Haze 31 1010 70 5000 4.1 120 03:44 20.11.2020
5306 Rain 27 1008 94 4000 1.5 170 22:42 19.11.2020
5307 Rain 27 1007 83 4000 2.1 180 21:57 19.11.2020
5308 Rain 27 1007 88 4000 2.6 200 21:38 19.11.2020
5309 Haze 27 1008 88 5000 1 210 20:33 19.11.2020
5310 Haze 27 1008 88 5000 1 210 19:53 19.11.2020
5311 Haze 28 1009 88 5000 1.5 100 19:24 19.11.2020
5312 Haze 28 1009 83 5000 1.5 130 17:40 19.11.2020
5313 Haze 29 1010 83 5000 3.1 60 16:54 19.11.2020
5314 Haze 28 1009 78 5000 1.5 100 15:40 19.11.2020
5315 Rain 29 1009 78 5000 2.6 50 15:18 19.11.2020
5316 Rain 29 1008 78 5000 2.6 70 13:46 19.11.2020
5317 Rain 29 1008 74 5000 6.2 70 13:19 19.11.2020
5318 Haze 30 1007 70 5000 6.2 70 12:35 19.11.2020
5319 Rain 31 1006 55 5000 7.7 70 11:50 19.11.2020
5320 Clouds 31 1006 55 5000 7.7 70 11:32 19.11.2020
5321 Clouds 32 1006 52 5000 6.2 70 10:53 19.11.2020
5322 Rain 32 1006 49 6000 7.7 50 10:18 19.11.2020
5323 Rain 33 1005 46 6000 8.7 50 09:42 19.11.2020
5324 Clouds 32 1005 46 6000 8.7 50 09:24 19.11.2020
5325 Haze 34 1007 49 5000 4.1 40 08:19 19.11.2020
5326 Haze 34 1008 52 5000 3.6 70 05:41 19.11.2020
5327 Haze 30 1009 83 4000 1.27 207 01:45 19.11.2020
5328 Haze 25 1008 88 3000 1.5 240 23:52 18.11.2020
5329 Haze 25 1008 88 4000 1.48 173 23:24 18.11.2020
5330 Haze 25 1008 88 4000 1.48 173 22:36 18.11.2020
5331 Mist 25 1007 88 3000 1 0 22:18 18.11.2020
5332 Mist 26 1007 94 3000 1 200 21:38 18.11.2020
5333 Mist 26 1007 94 3500 2.1 190 21:19 18.11.2020
5334 Haze 26 1009 88 3000 1.5 0 19:47 18.11.2020
5335 Haze 26 1009 88 3000 1.5 0 19:25 18.11.2020
5336 Haze 26 1009 88 3500 2.1 200 18:49 18.11.2020
5337 Haze 26 1009 83 5000 1.5 190 17:59 18.11.2020
5338 Haze 26 1009 83 5000 1.5 190 17:35 18.11.2020
5339 Clouds 27 1009 78 7000 2.6 220 16:23 18.11.2020
5340 Clouds 27 1008 74 8000 1.5 190 15:22 18.11.2020
5341 Haze 27 1007 78 5000 2.6 230 14:40 18.11.2020
5342 Haze 27 1007 78 5000 2.6 230 13:43 18.11.2020
5343 Haze 27 1007 78 5000 2.1 240 12:54 18.11.2020
5344 Rain 28 1006 74 5000 1.5 180 12:27 18.11.2020
5345 Haze 29 1006 66 5000 4.1 220 11:28 18.11.2020
5346 Haze 29 1006 62 4000 4.1 210 10:31 18.11.2020
5347 Haze 32 1006 59 5000 2.1 360 09:41 18.11.2020
5348 Rain 31 1007 59 4000 2.1 150 07:37 18.11.2020
5349 Haze 34 1008 59 5000 1.5 90 06:30 18.11.2020
5350 Haze 27 1008 88 3000 0.31 100 00:23 18.11.2020
5351 Clouds 26 1008 88 3000 4.1 60 23:31 17.11.2020
5352 Haze 26 1007 94 3000 0.39 125 22:46 17.11.2020
5353 Haze 26 1007 94 3000 0.51 78 22:28 17.11.2020
5354 Haze 26 1006 83 4000 1.5 240 21:49 17.11.2020
5355 Haze 26 1006 83 4000 1.5 240 21:29 17.11.2020
5356 Haze 26 1007 78 5000 2.1 240 20:44 17.11.2020
5357 Haze 26 1007 78 5000 2.1 240 20:24 17.11.2020
5358 Haze 27 1007 83 5000 1.5 230 19:50 17.11.2020
5359 Haze 27 1009 83 3000 1.5 240 18:24 17.11.2020
5360 Haze 27 1009 83 3000 1.5 240 17:33 17.11.2020
5361 Rain 27 1009 83 3000 1.5 240 16:49 17.11.2020
5362 Rain 27 1009 78 3000 3.1 250 16:18 17.11.2020
5363 Rain 27 1009 78 3000 2.6 240 15:38 17.11.2020
5364 Rain 27 1008 74 3000 2.54 27 15:20 17.11.2020
5365 Haze 28 1008 74 3000 2.6 23 14:30 17.11.2020
5366 Thunderstorm 28 1007 78 3000 2.6 210 13:45 17.11.2020
5367 Rain 28 1007 78 3000 3.1 210 13:22 17.11.2020
5368 Rain 28 1006 70 3000 3.1 240 12:42 17.11.2020
5369 Rain 30 1006 66 4000 2.1 330 11:45 17.11.2020
5370 Haze 30 1006 66 5000 1.5 330 11:21 17.11.2020
5371 Clouds 32 1005 74 4000 2.1 340 10:39 17.11.2020
5372 Haze 33 1005 66 5000 2.6 10 09:57 17.11.2020
5373 Rain 33 1006 66 5000 2.6 320 09:36 17.11.2020
5374 Haze 33 1007 59 4000 1.5 340 08:43 17.11.2020
5375 Haze 33 1007 59 4000 3.1 340 07:59 17.11.2020
5376 Haze 33 1007 59 4000 3.1 340 07:28 17.11.2020
5377 Haze 32 1010 66 2500 1.5 200 04:30 17.11.2020
5378 Haze 32 1010 74 3000 2.2 67 03:25 17.11.2020
5379 Haze 31 1010 79 4000 2.08 82 02:29 17.11.2020
5380 Haze 28 1009 83 3000 1.78 94 00:56 17.11.2020
5381 Haze 26 1009 88 3000 1.79 85 23:54 16.11.2020
5382 Haze 26 1008 88 4000 1.5 200 23:31 16.11.2020
5383 Haze 26 1008 88 4000 1.5 220 22:58 16.11.2020
5384 Haze 25 1008 83 5000 1 0 22:24 16.11.2020
5385 Haze 27 1008 83 5000 1 0 21:56 16.11.2020
5386 Haze 27 1008 83 5000 1 200 21:37 16.11.2020
5387 Haze 26 1008 83 5000 1 180 21:19 16.11.2020
5388 Haze 25 1008 88 5000 2.1 220 20:26 16.11.2020
5389 Haze 26 1008 88 5000 1.5 230 19:51 16.11.2020
5390 Haze 25 1008 88 5000 1.5 230 19:29 16.11.2020
5391 Haze 26 1009 83 5000 1.5 210 18:50 16.11.2020
5392 Haze 26 1010 83 5000 1 200 18:18 16.11.2020
5393 Haze 27 1010 83 5000 1 200 17:27 16.11.2020
5394 Haze 27 1010 83 5000 2.1 210 16:57 16.11.2020
5395 Haze 27 1010 83 5000 2.1 210 16:39 16.11.2020
5396 Haze 27 1010 88 5000 2.6 240 16:19 16.11.2020
5397 Haze 28 1010 88 5000 3.1 230 15:43 16.11.2020
5398 Haze 28 1010 83 5000 3.1 230 15:23 16.11.2020
5399 Clouds 29 1010 78 7000 2.1 210 14:47 16.11.2020
5400 Haze 29 1009 74 5000 2.6 70 13:40 16.11.2020
5401 Rain 30 1008 70 5000 2.6 80 12:45 16.11.2020
5402 Rain 30 1008 70 5000 2.6 80 12:45 16.11.2020
5403 Rain 30 1008 70 5000 2.6 80 12:45 16.11.2020
5404 Haze 30 1008 70 4000 3.1 30 12:25 16.11.2020
5405 Rain 31 1007 66 5000 4.1 60 11:38 16.11.2020
5406 Rain 31 1007 66 5000 4.1 70 11:20 16.11.2020
5407 Rain 32 1007 66 5000 4.1 70 10:42 16.11.2020
5408 Clouds 31 1007 66 10000 5.7 60 10:24 16.11.2020
5409 Rain 31 1007 62 5000 4.1 70 09:43 16.11.2020
5410 Rain 31 1007 62 5000 4.1 70 09:22 16.11.2020
5411 Rain 32 1007 62 5000 4.1 70 08:40 16.11.2020
5412 Haze 32 1009 62 5000 6.2 70 07:44 16.11.2020
5413 Clouds 33 1009 52 6000 4.1 60 06:50 16.11.2020
5414 Haze 34 1009 52 5000 4.6 70 06:24 16.11.2020
5415 Clouds 34 1010 55 6000 5.1 90 04:43 16.11.2020
5416 Haze 31 1010 74 5000 3.6 100 02:30 16.11.2020
5417 Haze 30 1009 83 4000 3.52 95 01:41 16.11.2020
5418 Haze 27 1008 94 4000 3.84 105 23:58 15.11.2020
5419 Haze 27 1008 88 3000 1.5 90 23:22 15.11.2020
5420 Haze 27 1008 88 3000 1.5 90 22:50 15.11.2020
5421 Haze 27 1008 88 3000 1.5 90 22:22 15.11.2020
5422 Clouds 28 1008 74 7000 2.1 110 21:45 15.11.2020
5423 Clouds 28 1008 74 7000 2.1 110 21:24 15.11.2020
5424 Haze 28 1008 74 5000 4.1 110 20:41 15.11.2020
5425 Haze 28 1009 78 5000 2.6 150 20:21 15.11.2020
5426 Haze 28 1010 78 5000 4.1 110 19:48 15.11.2020
5427 Haze 28 1010 83 5000 3.6 110 19:22 15.11.2020
5428 Haze 28 1010 83 5000 3.6 110 18:57 15.11.2020
5429 Haze 28 1010 83 5000 2.1 0 18:39 15.11.2020
5430 Haze 28 1010 83 5000 2.1 0 18:19 15.11.2020
5431 Rain 28 1010 88 5000 1 0 17:45 15.11.2020
5432 Haze 29 1010 83 4000 1.5 140 17:24 15.11.2020
5433 Haze 29 1010 83 4000 1.5 140 16:48 15.11.2020
5434 Haze 29 1010 78 5000 1.5 130 16:21 15.11.2020
5435 Haze 29 1010 78 5000 1.5 130 15:54 15.11.2020
5436 Haze 29 1010 78 5000 1.5 130 15:29 15.11.2020
5437 Haze 29 1009 78 5000 1.5 90 14:58 15.11.2020
5438 Haze 29 1009 74 5000 1.5 90 14:31 15.11.2020
5439 Haze 30 1008 70 5000 3.6 70 13:57 15.11.2020
5440 Haze 30 1008 70 5000 3.6 70 13:36 15.11.2020
5441 Clouds 31 1007 66 6000 4.1 60 12:52 15.11.2020
5442 Clouds 31 1007 55 6000 4.6 60 12:25 15.11.2020
5443 Clouds 32 1007 55 6000 4.6 60 11:47 15.11.2020
5444 Clouds 32 1007 55 7000 6.2 60 11:21 15.11.2020
5445 Clouds 33 1007 55 7000 6.2 60 10:54 15.11.2020
5446 Clouds 33 1007 55 7000 6.2 60 10:33 15.11.2020
5447 Clouds 33 1007 55 7000 6.7 70 09:59 15.11.2020
5448 Rain 33 1007 52 7000 7.7 70 09:40 15.11.2020
5449 Clouds 33 1007 52 7000 4.6 90 09:19 15.11.2020
5450 Clouds 34 1008 49 7000 6.7 40 08:50 15.11.2020
5451 Clouds 34 1009 49 7000 7.2 60 08:22 15.11.2020
5452 Clouds 33 1009 49 7000 7.2 60 07:38 15.11.2020
5453 Haze 34 1011 59 3000 5.7 60 04:58 15.11.2020
5454 Haze 31 1011 70 4000 1.5 130 02:55 15.11.2020
5455 Haze 27 1009 83 4000 2.43 96 00:48 15.11.2020
5456 Haze 27 1009 83 4000 2.54 111 00:26 15.11.2020
5457 Haze 26 1009 83 3000 2.54 111 23:36 14.11.2020
5458 Haze 27 1009 83 4000 2.24 114 22:50 14.11.2020
5459 Haze 27 1009 83 4000 2.95 121 22:29 14.11.2020
5460 Clouds 27 1008 74 7000 1 0 21:42 14.11.2020
5461 Clouds 27 1008 74 7000 1.5 120 21:22 14.11.2020
5462 Clouds 27 1008 74 7000 1.5 120 20:56 14.11.2020
5463 Clouds 27 1009 74 8000 2.6 140 20:28 14.11.2020
5464 Clouds 27 1009 78 8000 4.1 170 19:51 14.11.2020
5465 Clouds 27 1009 78 8000 4.1 170 19:31 14.11.2020
5466 Clouds 28 1010 74 8000 2.1 160 18:43 14.11.2020
5467 Clouds 27 1010 74 8000 2.1 160 18:24 14.11.2020
5468 Clouds 27 1010 74 8000 2.1 160 17:57 14.11.2020
5469 Clouds 28 1010 74 8000 3.6 140 17:39 14.11.2020
5470 Clouds 28 1011 74 8000 2.6 0 17:19 14.11.2020
5471 Clouds 28 1011 74 8000 3.1 160 16:41 14.11.2020
5472 Clouds 28 1010 74 8000 2.6 0 16:20 14.11.2020
5473 Rain 28 1010 74 8000 2.6 0 15:51 14.11.2020
5474 Rain 28 1010 74 8000 2.6 0 15:26 14.11.2020
5475 Haze 29 1009 66 5000 1.5 350 14:42 14.11.2020
5476 Haze 29 1009 66 5000 1.5 350 14:23 14.11.2020
5477 Rain 29 1009 66 5000 1.5 350 13:42 14.11.2020
5478 Rain 29 1008 66 5000 2.6 280 13:23 14.11.2020
5479 Rain 29 1007 66 5000 2.6 10 12:46 14.11.2020
5480 Haze 30 1007 66 5000 2.6 10 12:28 14.11.2020
5481 Rain 31 1006 62 6000 2.6 360 11:46 14.11.2020
5482 Clouds 32 1006 55 6000 4.1 360 11:25 14.11.2020
5483 Rain 32 1006 55 6000 4.1 360 10:45 14.11.2020
5484 Clouds 33 1006 55 6000 4.1 360 10:25 14.11.2020
5485 Clouds 33 1005 55 6000 4.1 20 09:49 14.11.2020
5486 Clouds 34 1005 55 6000 4.1 20 09:28 14.11.2020
5487 Clouds 34 1006 56 6000 4.1 20 08:50 14.11.2020
5488 Clouds 34 1006 56 6000 4.1 20 08:29 14.11.2020
5489 Clouds 34 1008 56 6000 4.1 30 07:50 14.11.2020
5490 Clouds 34 1008 56 6000 4.1 30 07:26 14.11.2020
5491 Clouds 34 1008 52 6000 4.1 60 06:32 14.11.2020
5492 Clouds 34 1009 49 6000 2.6 180 05:33 14.11.2020
5493 Haze 33 1010 59 5000 1.5 300 04:18 14.11.2020
5494 Haze 29 1009 83 4000 1.5 160 00:59 14.11.2020
5495 Haze 27 1008 83 4000 1.5 170 23:47 13.11.2020
5496 Haze 27 1008 88 5000 1.5 180 23:25 13.11.2020
5497 Haze 27 1008 83 4000 1.5 180 22:55 13.11.2020
5498 Haze 27 1008 83 4000 1.5 180 22:28 13.11.2020
5499 Haze 27 1008 83 4000 2.1 170 21:56 13.11.2020
5500 Haze 27 1008 83 5000 1 0 21:37 13.11.2020
5501 Haze 27 1008 83 5000 1.5 190 21:19 13.11.2020
5502 Haze 27 1008 88 5000 1.5 230 20:42 13.11.2020
5503 Haze 28 1008 83 5000 1.5 210 20:22 13.11.2020
5504 Clouds 28 1008 83 6000 1 210 19:46 13.11.2020
5505 Clouds 28 1008 88 6000 1 0 19:23 13.11.2020
5506 Clouds 28 1008 88 6000 1 0 19:23 13.11.2020
5507 Clouds 28 1008 88 6000 1 0 18:56 13.11.2020
5508 Clouds 28 1009 88 6000 1 220 18:23 13.11.2020
5509 Clouds 28 1009 88 6000 1 220 17:41 13.11.2020
5510 Clouds 28 1010 78 6000 2.1 240 17:19 13.11.2020
5511 Clouds 29 1010 83 10000 1.5 160 16:49 13.11.2020
5512 Clouds 29 1010 83 10000 1.5 160 16:24 13.11.2020
5513 Haze 29 1010 78 5000 2.6 180 15:49 13.11.2020
5514 Haze 29 1010 78 5000 2.6 180 15:27 13.11.2020
5515 Haze 29 1009 74 5000 2.6 130 14:48 13.11.2020
5516 Haze 30 1008 74 5000 5.1 50 14:24 13.11.2020
5517 Haze 31 1008 74 5000 5.1 50 13:47 13.11.2020
5518 Haze 31 1008 70 5000 4.1 60 13:25 13.11.2020
5519 Haze 31 1008 70 5000 4.1 60 12:47 13.11.2020
5520 Clouds 31 1007 66 6000 3.6 40 12:24 13.11.2020
5521 Clouds 31 1006 62 6000 4.1 40 11:49 13.11.2020
5522 Clouds 32 1006 62 6000 4.1 40 11:29 13.11.2020
5523 Clouds 32 1006 62 6000 5.7 90 10:58 13.11.2020
5524 Clouds 33 1006 55 6000 2.6 70 10:39 13.11.2020
5525 Clouds 34 1006 52 6000 5.7 60 10:21 13.11.2020
5526 Clouds 34 1006 52 7000 5.1 60 09:43 13.11.2020
5527 Clouds 34 1006 46 6000 4.1 20 09:23 13.11.2020
5528 Clouds 34 1007 49 6000 5.1 40 08:52 13.11.2020
5529 Clouds 34 1007 49 6000 3.1 50 08:21 13.11.2020
5530 Clouds 34 1008 49 6000 4.1 60 07:45 13.11.2020
5531 Clouds 34 1008 49 6000 4.1 60 07:26 13.11.2020
5532 Clouds 34 1008 46 6000 5.7 40 06:49 13.11.2020
5533 Clouds 34 1009 55 6000 6.2 50 06:19 13.11.2020
5534 Clouds 34 1010 52 6000 6.7 50 05:39 13.11.2020
5535 Haze 31 1010 74 4000 4.1 90 02:22 13.11.2020
5536 Haze 29 1010 78 3000 2.1 90 01:32 13.11.2020
5537 Haze 27 1009 94 3000 1.5 90 00:33 13.11.2020
5538 Haze 26 1008 88 3000 2.1 140 23:39 12.11.2020
5539 Haze 27 1008 88 3000 2.1 120 23:20 12.11.2020
5540 Haze 27 1008 88 3000 2.1 120 22:52 12.11.2020
5541 Haze 27 1008 88 3000 2.1 120 22:33 12.11.2020
5542 Haze 27 1008 83 3000 2.1 100 21:56 12.11.2020
5543 Haze 27 1008 83 3000 3.1 90 21:38 12.11.2020
5544 Haze 27 1008 83 2500 2.1 100 21:18 12.11.2020
5545 Haze 28 1008 78 2500 2.1 100 20:40 12.11.2020
5546 Haze 28 1008 78 2500 2.1 90 20:21 12.11.2020
5547 Haze 28 1008 78 3000 2.6 110 19:50 12.11.2020
5548 Haze 28 1008 78 3000 2.6 110 19:32 12.11.2020
5549 Haze 28 1009 83 4000 3.1 70 18:52 12.11.2020
5550 Haze 28 1009 83 5000 3.1 80 18:24 12.11.2020
5551 Haze 28 1009 83 5000 3.1 80 17:59 12.11.2020
5552 Haze 28 1009 83 5000 3.1 80 17:38 12.11.2020
5553 Haze 29 1010 83 5000 4.1 70 17:20 12.11.2020
5554 Clouds 29 1010 83 8000 4.1 80 16:44 12.11.2020
5555 Clouds 29 1010 74 8000 3.6 80 16:22 12.11.2020
5556 Clouds 29 1010 74 8000 3.1 80 15:42 12.11.2020
5557 Clouds 29 1009 74 8000 4.1 80 15:23 12.11.2020
5558 Clouds 29 1009 74 8000 4.1 80 14:47 12.11.2020
5559 Haze 29 1009 83 5000 3.1 70 14:26 12.11.2020
5560 Haze 29 1009 83 5000 3.1 70 13:57 12.11.2020
5561 Haze 29 1009 83 5000 3.1 70 13:37 12.11.2020
5562 Haze 29 1009 79 5000 4.6 60 13:18 12.11.2020
5563 Haze 31 1008 70 5000 4.6 80 12:43 12.11.2020
5564 Haze 31 1008 70 5000 5.1 60 12:21 12.11.2020
5565 Haze 31 1008 70 5000 5.1 60 11:47 12.11.2020
5566 Haze 31 1008 70 5000 5.1 60 11:28 12.11.2020
5567 Haze 32 1008 62 5000 5.7 90 10:43 12.11.2020
5568 Haze 33 1007 62 5000 4.1 70 10:25 12.11.2020
5569 Haze 32 1007 62 5000 4.1 80 09:48 12.11.2020
5570 Haze 32 1008 66 4000 3.6 90 09:23 12.11.2020
5571 Haze 32 1008 66 4000 3.6 90 08:57 12.11.2020
5572 Haze 32 1008 66 4000 3.6 90 08:57 12.11.2020
5573 Haze 33 1008 66 4000 3.6 90 08:39 12.11.2020
5574 Haze 34 1008 63 4000 1.5 250 08:19 12.11.2020
5575 Rain 33 1009 55 3000 2.6 60 07:50 12.11.2020
5576 Clouds 33 1009 55 3000 2.6 60 07:22 12.11.2020
5577 Haze 33 1010 52 4000 4.1 90 06:50 12.11.2020
5578 Clouds 33 1011 59 6000 2.6 90 05:35 12.11.2020
5579 Haze 31 1012 83 4000 2.6 210 03:23 12.11.2020
5580 Haze 29 1012 88 4000 2.1 150 02:41 12.11.2020
5581 Haze 27 1010 88 4000 1.5 250 00:22 12.11.2020
5582 Haze 27 1010 83 4000 1.5 270 23:26 11.11.2020
5583 Haze 27 1009 83 4000 1.5 270 22:59 11.11.2020
5584 Haze 27 1009 83 4000 1.5 300 22:40 11.11.2020
5585 Clouds 27 1009 88 4000 2.6 310 22:21 11.11.2020
5586 Clouds 27 1009 88 4000 2.6 310 21:54 11.11.2020
5587 Thunderstorm 27 1009 88 3000 2.6 10 21:36 11.11.2020
5588 Thunderstorm 27 1009 83 4000 1.5 0 21:18 11.11.2020
5589 Thunderstorm 27 1009 83 4000 2.6 210 20:41 11.11.2020
5590 Thunderstorm 27 1009 78 6000 2.6 170 20:21 11.11.2020
5591 Clouds 27 1009 78 6000 2.6 200 19:49 11.11.2020
5592 Clouds 27 1009 78 6000 2.6 200 19:31 11.11.2020
5593 Thunderstorm 27 1009 83 6000 1.5 230 18:55 11.11.2020
5594 Clouds 27 1009 83 6000 2.6 200 18:35 11.11.2020
5595 Rain 28 1010 78 6000 2.6 200 17:44 11.11.2020
5596 Clouds 28 1011 78 7000 1.5 0 17:23 11.11.2020
5597 Clouds 28 1011 78 7000 1.5 0 16:56 11.11.2020
5598 Clouds 28 1010 78 7000 2.1 0 16:35 11.11.2020
5599 Clouds 28 1010 78 7000 3.1 170 15:56 11.11.2020
5600 Haze 28 1010 74 5000 1.5 40 15:37 11.11.2020
5601 Haze 29 1010 74 5000 1.5 40 15:18 11.11.2020
5602 Haze 29 1010 74 5000 1.5 40 14:43 11.11.2020
5603 Haze 29 1010 74 5000 1.5 30 14:23 11.11.2020
5604 Haze 29 1009 74 5000 1.5 300 13:44 11.11.2020
5605 Haze 30 1008 70 5000 2.6 30 12:59 11.11.2020
5606 Clouds 31 1007 66 6000 5.1 30 12:21 11.11.2020
5607 Clouds 31 1007 62 6000 5.1 30 11:51 11.11.2020
5608 Clouds 32 1007 62 6000 5.1 30 11:33 11.11.2020
5609 Clouds 32 1006 59 6000 5.1 360 10:45 11.11.2020
5610 Clouds 33 1006 59 6000 5.1 360 10:27 11.11.2020
5611 Clouds 33 1007 59 6000 5.1 360 09:55 11.11.2020
5612 Clouds 33 1007 56 6000 4.1 30 09:37 11.11.2020
5613 Haze 34 1007 56 5000 3.1 300 09:19 11.11.2020
5614 Haze 34 1007 55 5000 3.1 60 08:43 11.11.2020
5615 Haze 34 1008 52 5000 2.6 40 08:24 11.11.2020
5616 Haze 34 1009 52 5000 2.6 40 07:43 11.11.2020
5617 Haze 33 1010 52 5000 5.1 40 06:32 11.11.2020
5618 Clouds 33 1011 55 6000 2.1 60 05:36 11.11.2020
5619 Haze 29 1011 83 3000 2.6 240 01:47 11.11.2020
5620 Haze 27 1011 88 3000 1.5 230 00:57 11.11.2020
5621 Haze 26 1010 94 2000 1.45 88 00:24 11.11.2020
5622 Haze 25 1010 88 3000 1.45 88 23:38 10.11.2020
5623 Haze 25 1009 88 4000 0.85 92 23:20 10.11.2020
5624 Haze 26 1009 88 5000 0.5 0 22:45 10.11.2020
5625 Haze 26 1009 88 5000 0.5 0 22:26 10.11.2020
5626 Haze 26 1009 88 5000 1 210 21:41 10.11.2020
5627 Haze 26 1009 88 5000 1 200 21:23 10.11.2020
5628 Rain 24 1009 88 5000 1 200 20:56 10.11.2020
5629 Haze 26 1009 83 4000 1 160 20:38 10.11.2020
5630 Haze 24 1009 88 4000 1.5 170 20:19 10.11.2020
5631 Haze 25 1009 83 4000 2.1 0 19:44 10.11.2020
5632 Haze 26 1009 83 4000 2.1 0 19:24 10.11.2020
5633 Haze 25 1009 83 4000 2.1 0 18:55 10.11.2020
5634 Haze 26 1010 83 4000 2.1 0 18:36 10.11.2020
5635 Haze 26 1010 83 4000 2.1 0 18:18 10.11.2020
5636 Haze 26 1010 83 4000 2.1 0 17:41 10.11.2020
5637 Haze 27 1011 83 5000 2.06 353 17:22 10.11.2020
5638 Haze 27 1011 83 5000 2.06 353 16:41 10.11.2020
5639 Haze 27 1011 83 5000 2.08 355 16:22 10.11.2020
5640 Haze 27 1011 83 5000 2.08 355 15:54 10.11.2020
5641 Haze 27 1010 78 5000 2.08 355 15:36 10.11.2020
5642 Haze 27 1010 83 5000 1.93 358 15:18 10.11.2020
5643 Haze 27 1010 83 5000 2.1 240 14:39 10.11.2020
5644 Haze 27 1010 88 5000 2.6 230 14:18 10.11.2020
5645 Haze 27 1010 83 5000 4.1 220 13:39 10.11.2020
5646 Haze 28 1010 74 5000 4.1 200 13:20 10.11.2020
5647 Haze 29 1009 70 5000 2.6 250 12:46 10.11.2020
5648 Haze 29 1009 70 5000 2.6 250 12:28 10.11.2020
5649 Haze 30 1008 70 5000 2.6 350 11:43 10.11.2020
5650 Haze 31 1008 66 5000 2.6 330 11:22 10.11.2020
5651 Haze 31 1008 66 5000 2.6 330 10:58 10.11.2020
5652 Haze 32 1007 66 5000 2.1 360 10:39 10.11.2020
5653 Haze 32 1007 66 5000 3.1 330 10:21 10.11.2020
5654 Haze 32 1007 66 5000 3.6 360 09:46 10.11.2020
5655 Haze 32 1007 66 5000 3.6 360 09:25 10.11.2020
5656 Clouds 32 1008 66 5000 4.1 360 08:55 10.11.2020
5657 Haze 33 1008 59 5000 3.1 360 08:29 10.11.2020
5658 Haze 33 1009 62 5000 3.1 50 07:45 10.11.2020
5659 Haze 33 1009 62 5000 3.1 50 07:25 10.11.2020
5660 Haze 34 1010 55 5000 3.1 60 06:41 10.11.2020
5661 Haze 33 1011 59 4000 3.1 100 05:49 10.11.2020
5662 Haze 32 1011 66 4000 1.5 50 04:59 10.11.2020
5663 Haze 31 1011 79 3000 1.5 240 02:37 10.11.2020
5664 Haze 29 1011 88 3000 0.86 81 01:31 10.11.2020
5665 Haze 27 1009 94 3000 0.86 80 00:23 10.11.2020
5666 Haze 27 1009 94 3000 0.86 80 00:22 10.11.2020
5667 Haze 26 1009 100 3000 0.86 80 23:36 09.11.2020
5668 Mist 26 1009 94 2000 0.86 58 22:54 09.11.2020
5669 Mist 27 1009 94 2000 0.86 58 22:36 09.11.2020
5670 Haze 27 1008 83 4500 1.5 200 22:18 09.11.2020
5671 Haze 27 1008 78 4000 1 190 21:39 09.11.2020
5672 Haze 27 1009 83 4000 1 210 21:19 09.11.2020
5673 Haze 27 1009 78 4600 0.5 0 20:39 09.11.2020
5674 Haze 27 1009 78 4900 1 170 20:21 09.11.2020
5675 Haze 28 1009 78 4900 1.5 170 19:42 09.11.2020
5676 Haze 28 1009 78 4900 1.5 160 19:22 09.11.2020
5677 Haze 28 1009 78 4900 1.5 160 18:46 09.11.2020
5678 Haze 28 1009 78 4900 1.5 160 18:46 09.11.2020
5679 Clouds 28 1010 74 6000 0.5 0 18:21 09.11.2020
5680 Clouds 28 1010 74 6000 0.5 0 17:58 09.11.2020
5681 Clouds 28 1010 74 6000 1 190 17:39 09.11.2020
5682 Clouds 28 1010 74 6000 1 170 17:21 09.11.2020
5683 Clouds 28 1010 78 7000 1.5 40 16:38 09.11.2020
5684 Clouds 28 1010 78 6000 1.5 0 16:19 09.11.2020
5685 Clouds 29 1010 74 8000 1.5 30 15:42 09.11.2020
5686 Clouds 29 1010 74 9000 1 0 15:23 09.11.2020
5687 Clouds 29 1010 74 10000 1 0 14:44 09.11.2020
5688 Haze 29 1009 70 5000 2.6 20 14:26 09.11.2020
5689 Rain 29 1009 70 5000 2.6 20 13:48 09.11.2020
5690 Clouds 30 1009 70 6000 2.6 50 13:21 09.11.2020
5691 Clouds 30 1008 66 6000 4.1 40 12:47 09.11.2020
5692 Clouds 30 1008 66 6000 4.1 40 12:26 09.11.2020
5693 Clouds 31 1008 62 6000 3.6 50 11:57 09.11.2020
5694 Clouds 32 1008 52 6000 3.6 30 11:38 09.11.2020
5695 Clouds 33 1007 49 6000 3.6 30 11:19 09.11.2020
5696 Clouds 33 1007 49 6000 3.6 30 10:42 09.11.2020
5697 Clouds 34 1007 44 6000 5.1 70 10:23 09.11.2020
5698 Clouds 33 1007 44 6000 5.1 70 09:45 09.11.2020
5699 Clouds 34 1008 41 6000 5.1 50 09:23 09.11.2020
5700 Clouds 34 1008 41 6000 5.1 50 08:39 09.11.2020
5701 Haze 34 1008 44 5000 2.6 90 08:19 09.11.2020
5702 Haze 34 1009 46 5000 2.6 90 07:39 09.11.2020
5703 Haze 34 1010 49 5000 2.6 70 07:19 09.11.2020
5704 Haze 35 1010 49 5000 2.6 40 06:31 09.11.2020
5705 Haze 32 1012 66 4000 2.08 92 03:22 09.11.2020
5706 Haze 28 1011 88 3000 1.5 230 01:43 09.11.2020
5707 Haze 26 1011 94 3000 1.5 230 00:58 09.11.2020
5708 Haze 24 1010 83 5000 1.5 150 23:53 08.11.2020
5709 Haze 24 1010 83 5000 1.5 150 23:30 08.11.2020
5710 Haze 24 1010 83 4000 1 0 22:46 08.11.2020
5711 Haze 25 1010 78 4000 1 150 22:23 08.11.2020
5712 Haze 25 1010 78 4000 1 150 21:55 08.11.2020
5713 Haze 25 1010 78 4000 1 150 21:55 08.11.2020
5714 Haze 25 1010 83 4000 1 0 21:37 08.11.2020
5715 Haze 25 1009 83 4000 1 150 21:18 08.11.2020
5716 Haze 25 1010 83 4000 1 0 20:39 08.11.2020
5717 Haze 25 1010 83 4000 1 0 20:39 08.11.2020
5718 Haze 25 1010 83 4000 1 0 20:39 08.11.2020
5719 Haze 25 1010 83 4000 1 0 20:39 08.11.2020
5720 Haze 25 1010 83 4000 1 160 20:20 08.11.2020
5721 Haze 25 1010 83 4000 1 160 20:20 08.11.2020
5722 Haze 25 1010 83 4000 1 160 19:56 08.11.2020
5723 Haze 25 1010 83 4000 1 170 19:37 08.11.2020
5724 Haze 25 1010 78 4000 1 170 19:18 08.11.2020
5725 Haze 26 1011 78 4000 1.5 160 18:45 08.11.2020
5726 Rain 26 1011 78 5000 1 0 18:21 08.11.2020
5727 Haze 26 1011 78 5000 1 0 17:57 08.11.2020
5728 Rain 26 1011 78 5000 1 0 17:37 08.11.2020
5729 Haze 26 1011 78 5000 1 200 17:18 08.11.2020
5730 Haze 26 1011 78 5000 1 0 16:46 08.11.2020
5731 Haze 27 1011 74 5000 1.5 150 16:21 08.11.2020
5732 Haze 27 1011 74 5000 1.5 150 15:50 08.11.2020
5733 Haze 27 1011 74 5000 1.5 150 15:28 08.11.2020
5734 Haze 27 1011 69 5000 2.1 140 14:59 08.11.2020
5735 Haze 27 1010 69 5000 1.5 0 14:38 08.11.2020
5736 Haze 27 1010 69 5000 1.5 0 14:20 08.11.2020
5737 Haze 28 1010 74 5000 1.5 90 13:41 08.11.2020
5738 Clouds 28 1010 69 7000 1.5 40 13:20 08.11.2020
5739 Haze 28 1010 69 5000 2.6 20 12:42 08.11.2020
5740 Clouds 28 1009 69 7000 2.6 30 12:24 08.11.2020
5741 Clouds 28 1009 69 7000 2.6 30 11:57 08.11.2020
5742 Clouds 29 1009 66 7000 3.6 50 11:38 08.11.2020
5743 Clouds 29 1009 66 7000 3.6 50 11:38 08.11.2020
5744 Clouds 30 1009 66 7000 2.6 0 11:20 08.11.2020
5745 Clouds 30 1009 58 6000 3.1 40 10:49 08.11.2020
5746 Clouds 30 1009 66 8000 3.6 50 10:18 08.11.2020
5747 Clouds 30 1009 66 8000 3.6 50 10:18 08.11.2020
5748 Clouds 30 1008 58 8000 4.1 40 09:42 08.11.2020
5749 Clouds 30 1009 62 8000 3.6 60 09:24 08.11.2020
5750 Clouds 30 1009 62 8000 3.6 60 08:55 08.11.2020
5751 Clouds 30 1009 66 7000 4.1 50 08:36 08.11.2020
5752 Rain 29 1010 70 7000 4.1 80 07:58 08.11.2020
5753 Thunderstorm 29 1010 70 7000 5.7 60 07:39 08.11.2020
5754 Clouds 30 1010 62 8000 7.7 40 07:18 08.11.2020
5755 Rain 32 1010 66 9000 4.6 350 05:55 08.11.2020
5756 Rain 33 1011 62 9000 3.6 350 05:29 08.11.2020
5757 Clouds 31 1011 66 8000 2.1 0 03:56 08.11.2020
5758 Haze 29 1011 78 4500 1 0 01:49 08.11.2020
5759 Haze 27 1011 88 4500 1 0 01:18 08.11.2020
5760 Mist 25 1010 88 5000 1 0 00:26 08.11.2020
5761 Mist 25 1010 88 3500 2.1 160 23:46 07.11.2020
5762 Mist 25 1010 88 3500 2.1 160 23:28 07.11.2020
5763 Mist 25 1009 94 2500 1 230 22:42 07.11.2020
5764 Mist 25 1009 94 2500 1 230 22:24 07.11.2020
5765 Mist 25 1009 94 2500 1 230 22:24 07.11.2020
5766 Mist 25 1009 88 3000 1 120 21:46 07.11.2020
5767 Haze 26 1009 88 4000 1 140 21:22 07.11.2020
5768 Haze 26 1009 88 4000 1 140 21:22 07.11.2020
5769 Haze 26 1009 88 4000 1 140 20:55 07.11.2020
5770 Haze 26 1009 88 4000 1 0 20:36 07.11.2020
5771 Haze 26 1009 88 5000 1.5 220 20:18 07.11.2020
5772 Haze 26 1010 88 5000 1 0 19:39 07.11.2020
5773 Haze 26 1010 83 5000 1 170 19:20 07.11.2020
5774 Haze 26 1011 83 5000 1 200 18:39 07.11.2020
5775 Haze 26 1011 83 5000 1 200 18:21 07.11.2020
5776 Clouds 26 1011 83 6000 0.5 0 17:46 07.11.2020
5777 Clouds 26 1011 83 6000 1 0 17:26 07.11.2020
5778 Clouds 26 1011 83 7000 1.5 170 16:44 07.11.2020
5779 Clouds 26 1011 83 7000 1 190 16:24 07.11.2020
5780 Clouds 26 1011 78 7000 2.1 160 15:48 07.11.2020
5781 Clouds 26 1011 78 7000 2.1 160 15:24 07.11.2020
5782 Clouds 26 1011 83 7000 1.5 170 14:58 07.11.2020
5783 Clouds 26 1010 83 7000 1.5 0 14:40 07.11.2020
5784 Clouds 26 1010 83 7000 1.5 0 14:19 07.11.2020
5785 Clouds 26 1010 83 8000 2.6 190 13:39 07.11.2020
5786 Clouds 26 1010 83 8000 2.6 190 13:39 07.11.2020
5787 Clouds 26 1009 78 7000 2.1 0 13:21 07.11.2020
5788 Clouds 27 1010 78 8000 1 70 12:35 07.11.2020
5789 Clouds 29 1009 74 7000 3.1 350 11:46 07.11.2020
5790 Thunderstorm 29 1009 79 7000 2.6 0 11:25 07.11.2020
5791 Thunderstorm 29 1009 79 7000 2.6 0 10:57 07.11.2020
5792 Thunderstorm 30 1008 70 8000 5.1 20 10:39 07.11.2020
5793 Thunderstorm 30 1008 74 9000 8.2 360 10:20 07.11.2020
5794 Clouds 30 1008 70 10000 6.2 10 09:47 07.11.2020
5795 Clouds 31 1008 66 10000 5.7 10 09:21 07.11.2020
5796 Clouds 33 1008 66 10000 7.7 30 08:47 07.11.2020
5797 Clouds 34 1008 66 10000 7.7 30 08:28 07.11.2020
5798 Clouds 32 1009 66 10000 6.2 30 07:48 07.11.2020
5799 Clouds 33 1010 66 10000 4.6 30 06:50 07.11.2020
5800 Clouds 34 1011 70 10000 4.6 30 05:48 07.11.2020
5801 Rain 31 1012 74 8000 2.6 0 03:26 07.11.2020
5802 Clouds 30 1012 74 6000 1 0 02:38 07.11.2020
5803 Haze 28 1011 83 5000 2.6 150 01:27 07.11.2020
5804 Mist 25 1011 94 4000 3.1 170 00:34 07.11.2020
5805 Mist 25 1010 94 3500 2.6 170 23:39 06.11.2020
5806 Mist 25 1010 94 3500 1.5 210 23:18 06.11.2020
5807 Mist 25 1010 94 3500 3.6 200 22:40 06.11.2020
5808 Mist 25 1010 94 3500 2.6 210 22:18 06.11.2020
5809 Mist 25 1010 94 3500 1 230 21:42 06.11.2020
5810 Mist 25 1010 94 3000 1.5 230 21:20 06.11.2020
5811 Mist 24 1010 94 4000 1 250 20:45 06.11.2020
5812 Mist 25 1010 94 4000 1.5 0 20:20 06.11.2020
5813 Mist 25 1010 94 4000 1.5 0 20:20 06.11.2020
5814 Mist 24 1011 94 4000 2.1 190 19:45 06.11.2020
5815 Mist 24 1011 94 4000 2.1 190 19:27 06.11.2020
5816 Mist 25 1011 88 4000 2.6 200 18:56 06.11.2020
5817 Mist 25 1011 88 5000 2.1 200 18:38 06.11.2020
5818 Rain 25 1011 88 5000 3.1 210 18:19 06.11.2020
5819 Rain 25 1012 88 5000 3.6 220 17:46 06.11.2020
5820 Mist 25 1012 88 5000 3.6 230 17:24 06.11.2020
5821 Mist 25 1012 88 4500 3.1 220 16:43 06.11.2020
5822 Mist 25 1012 88 4500 3.1 220 16:22 06.11.2020
5823 Mist 25 1012 94 3500 2.6 240 15:47 06.11.2020
5824 Mist 25 1012 94 3500 2.6 240 15:26 06.11.2020
5825 Haze 25 1012 94 4000 3.6 230 14:50 06.11.2020
5826 Rain 26 1012 94 5000 2.6 240 14:23 06.11.2020
5827 Haze 26 1011 94 5000 3.1 240 13:44 06.11.2020
5828 Rain 26 1011 88 7000 2.6 270 13:21 06.11.2020
5829 Clouds 26 1010 88 7000 1 320 12:44 06.11.2020
5830 Clouds 27 1009 88 8000 1.5 0 12:23 06.11.2020
5831 Clouds 27 1009 83 8000 2.6 200 11:40 06.11.2020
5832 Rain 28 1009 78 8000 2.6 150 11:21 06.11.2020
5833 Clouds 28 1009 78 8000 1.5 0 10:39 06.11.2020
5834 Clouds 28 1010 83 7000 1.5 0 10:19 06.11.2020
5835 Clouds 28 1010 83 6000 1.5 0 09:48 06.11.2020
5836 Clouds 28 1010 88 6000 1.5 60 09:21 06.11.2020
5837 Rain 28 1011 88 7000 3.1 50 08:49 06.11.2020
5838 Thunderstorm 26 1011 88 7000 3.1 50 08:28 06.11.2020
5839 Rain 25 1012 94 6000 3.1 40 07:49 06.11.2020
5840 Rain 28 1012 94 6000 3.1 40 07:30 06.11.2020
5841 Clouds 30 1012 88 5000 4.1 360 06:57 06.11.2020
5842 Thunderstorm 32 1012 70 6000 3.6 10 05:44 06.11.2020
5843 Rain 32 1013 74 4500 1 0 03:48 06.11.2020
5844 Rain 27 1011 94 1500 1.5 180 00:51 06.11.2020
5845 Haze 26 1011 94 3000 1 230 00:21 06.11.2020
5846 Haze 26 1011 94 3000 2.1 260 23:31 05.11.2020
5847 Rain 26 1010 94 3000 2.1 230 22:58 05.11.2020
5848 Haze 26 1010 94 3000 2.1 230 22:37 05.11.2020
5849 Rain 26 1010 94 3300 2.1 250 22:19 05.11.2020
5850 Rain 26 1010 94 3300 1.5 290 21:43 05.11.2020
5851 Haze 26 1010 88 3300 1.5 320 21:21 05.11.2020
5852 Haze 26 1010 88 3200 2.1 360 20:48 05.11.2020
5853 Haze 26 1010 88 3200 2.1 360 20:29 05.11.2020
5854 Rain 26 1010 83 3500 1 60 20:00 05.11.2020
5855 Haze 26 1010 83 3700 1.5 70 19:41 05.11.2020
5856 Rain 27 1010 83 2500 2.1 50 19:22 05.11.2020
5857 Rain 27 1011 88 3000 1 70 18:45 05.11.2020
5858 Rain 27 1011 88 3000 1 60 18:26 05.11.2020
5859 Rain 27 1011 88 3000 0.5 30 17:52 05.11.2020
5860 Rain 27 1011 88 3000 0.5 30 17:29 05.11.2020
5861 Rain 27 1012 88 3100 0.5 340 16:59 05.11.2020
5862 Rain 27 1012 88 3000 0.5 250 16:40 05.11.2020
5863 Rain 27 1012 88 3500 0.5 0 16:19 05.11.2020
5864 Rain 28 1012 83 3500 1 120 15:44 05.11.2020
5865 Rain 28 1011 83 4000 1 130 15:22 05.11.2020
5866 Rain 28 1011 83 4000 1 60 14:46 05.11.2020
5867 Rain 28 1011 83 4000 1 60 14:26 05.11.2020
5868 Haze 28 1010 83 5000 1.5 20 13:45 05.11.2020
5869 Haze 28 1010 83 4000 1.5 0 13:26 05.11.2020
5870 Haze 28 1010 83 5000 1.5 0 12:53 05.11.2020
5871 Haze 28 1010 83 5000 1.5 0 12:27 05.11.2020
5872 Clouds 29 1010 83 6000 2.1 0 11:55 05.11.2020
5873 Clouds 29 1009 78 6000 2.1 0 11:37 05.11.2020
5874 Rain 29 1009 78 7000 1.5 240 11:18 05.11.2020
5875 Rain 29 1009 78 8000 2.6 0 10:41 05.11.2020
5876 Rain 30 1009 78 7000 3.6 260 10:22 05.11.2020
5877 Rain 30 1009 78 6000 2.6 0 09:45 05.11.2020
5878 Clouds 29 1010 78 6000 3.6 240 09:22 05.11.2020
5879 Clouds 29 1010 74 6000 4.1 240 08:44 05.11.2020
5880 Rain 30 1011 74 4500 3.6 250 08:25 05.11.2020
5881 Rain 29 1011 78 5000 3.6 240 07:40 05.11.2020
5882 Rain 30 1012 78 6000 3.6 220 07:20 05.11.2020
5883 Rain 30 1012 83 6000 2.6 0 06:34 05.11.2020
5884 Rain 30 1012 83 6000 2.6 0 06:34 05.11.2020
5885 Rain 27 1013 83 7000 2.6 260 05:23 05.11.2020
5886 Thunderstorm 26 1012 83 3500 1 170 01:24 05.11.2020
5887 Rain 26 1011 83 4000 1 170 00:32 05.11.2020
5888 Rain 26 1011 88 5000 1.5 210 23:44 04.11.2020
5889 Rain 25 1011 88 5000 1.5 210 23:26 04.11.2020
5890 Haze 25 1010 94 4500 1 210 22:52 04.11.2020
5891 Rain 25 1010 94 4500 1 210 22:26 04.11.2020
5892 Rain 25 1010 94 4000 1.5 220 21:58 04.11.2020
5893 Haze 25 1009 88 4000 1.5 0 21:37 04.11.2020
5894 Haze 25 1010 94 4000 1 0 21:18 04.11.2020
5895 Haze 25 1010 94 5000 1.5 230 20:43 04.11.2020
5896 Haze 25 1010 88 5000 1 200 20:25 04.11.2020
5897 Haze 26 1010 88 5000 1 200 19:49 04.11.2020
5898 Haze 26 1010 88 5000 1 200 19:29 04.11.2020
5899 Clouds 25 1011 88 6000 1 160 18:55 04.11.2020
5900 Clouds 25 1011 88 6000 1.5 200 18:37 04.11.2020
5901 Clouds 26 1011 83 6000 1.5 0 18:18 04.11.2020
5902 Clouds 26 1011 83 6000 1 170 17:40 04.11.2020
5903 Clouds 26 1012 83 6000 1.5 160 17:22 04.11.2020
5904 Clouds 26 1012 83 7000 1 160 16:41 04.11.2020
5905 Clouds 26 1012 78 7000 2.1 0 16:23 04.11.2020
5906 Clouds 26 1012 83 7000 2.1 200 15:48 04.11.2020
5907 Clouds 27 1011 83 7000 2.1 0 15:25 04.11.2020
5908 Clouds 26 1011 83 7000 2.1 0 14:59 04.11.2020
5909 Clouds 27 1011 78 7000 3.6 190 14:41 04.11.2020
5910 Clouds 27 1011 83 7000 5.1 220 14:21 04.11.2020
5911 Clouds 27 1010 78 7000 1 160 13:45 04.11.2020
5912 Clouds 28 1010 70 8000 1.5 0 13:20 04.11.2020
5913 Clouds 27 1009 78 8000 2.1 40 12:53 04.11.2020
5914 Clouds 27 1009 78 8000 2.1 40 12:27 04.11.2020
5915 Clouds 28 1009 66 8000 2.6 50 11:56 04.11.2020
5916 Rain 29 1009 70 8000 1.5 0 11:38 04.11.2020
5917 Clouds 29 1008 66 4283 2.1 230 11:20 04.11.2020
5918 Clouds 29 1008 70 8000 2.6 230 10:46 04.11.2020
5919 Clouds 31 1008 74 8000 3.6 230 10:22 04.11.2020
5920 Clouds 31 1008 74 8000 3.6 230 09:53 04.11.2020
5921 Thunderstorm 31 1009 66 8000 3.6 350 09:23 04.11.2020
5922 Clouds 31 1009 62 8000 4.6 10 08:46 04.11.2020
5923 Clouds 32 1009 62 10000 4.1 350 08:20 04.11.2020
5924 Clouds 32 1010 62 10000 3.6 320 07:50 04.11.2020
5925 Rain 33 1010 62 10000 3.6 320 07:27 04.11.2020
5926 Clouds 34 1011 59 10000 1.5 0 06:46 04.11.2020
5927 Rain 34 1011 59 10000 1.5 0 06:27 04.11.2020
5928 Clear 33 1013 58 10000 1.5 0 03:46 04.11.2020
5929 Clouds 30 1012 69 7000 1.5 0 02:20 04.11.2020
5930 Haze 26 1012 88 5000 1.5 220 00:43 04.11.2020
5931 Haze 25 1011 88 5000 1.5 210 23:44 03.11.2020
5932 Haze 25 1011 88 5000 2.1 220 23:23 03.11.2020
5933 Haze 26 1011 83 5000 2.6 220 22:41 03.11.2020
5934 Haze 25 1011 88 5000 2.6 230 22:21 03.11.2020
5935 Haze 25 1011 88 5000 2.6 230 21:56 03.11.2020
5936 Haze 26 1011 88 5000 2.6 220 21:38 03.11.2020
5937 Haze 26 1011 88 5000 3.1 220 21:20 03.11.2020
5938 Haze 26 1011 88 5000 3.1 230 20:44 03.11.2020
5939 Haze 26 1011 88 5000 3.1 230 20:23 03.11.2020
5940 Haze 26 1011 88 5000 2.6 230 19:44 03.11.2020
5941 Haze 26 1011 88 5000 2.6 230 19:44 03.11.2020
5942 Haze 26 1011 88 5000 2.6 230 19:23 03.11.2020
5943 Haze 26 1011 83 5000 2.6 230 18:46 03.11.2020
5944 Clouds 26 1011 88 6000 3.1 220 18:21 03.11.2020
5945 Clouds 26 1011 88 6000 3.1 220 17:59 03.11.2020
5946 Clouds 26 1011 88 6000 3.1 220 17:41 03.11.2020
5947 Clouds 26 1011 88 6000 2.6 230 17:22 03.11.2020
5948 Clouds 27 1011 88 6000 2.6 230 16:45 03.11.2020
5949 Clouds 27 1011 88 6000 2.6 230 16:23 03.11.2020
5950 Clouds 27 1011 83 6000 4.1 230 15:46 03.11.2020
5951 Clouds 28 1011 78 6000 3.6 220 15:25 03.11.2020
5952 Clouds 28 1011 78 6000 3.6 220 14:52 03.11.2020
5953 Clouds 28 1011 83 6000 4.1 230 14:33 03.11.2020
5954 Clouds 28 1010 78 7000 5.1 240 13:46 03.11.2020
5955 Clouds 28 1010 78 7000 5.1 240 13:23 03.11.2020
5956 Clouds 28 1010 78 7000 5.1 240 13:23 03.11.2020
5957 Clouds 28 1010 74 6000 4.1 230 12:59 03.11.2020
5958 Clouds 29 1010 69 6000 4.6 240 12:38 03.11.2020
5959 Thunderstorm 29 1009 70 5000 3.6 230 12:19 03.11.2020
5960 Clouds 29 1008 70 7000 4.6 310 11:42 03.11.2020
5961 Clouds 31 1008 66 8000 4.6 300 11:20 03.11.2020
5962 Clouds 32 1008 66 8000 5.7 300 10:40 03.11.2020
5963 Clouds 32 1009 62 8000 4.1 310 10:21 03.11.2020
5964 Clouds 33 1009 62 8000 4.1 310 09:52 03.11.2020
5965 Clouds 34 1009 62 8000 4.6 320 09:33 03.11.2020
5966 Clouds 33 1009 62 8000 4.1 330 08:56 03.11.2020
5967 Clouds 34 1009 55 8000 5.1 310 08:36 03.11.2020
5968 Clouds 33 1010 59 8000 5.1 330 07:58 03.11.2020
5969 Clouds 33 1010 62 9000 5.7 360 07:35 03.11.2020
5970 Clouds 33 1011 62 9000 3.6 10 06:52 03.11.2020
5971 Clouds 33 1012 58 9000 1.5 0 05:50 03.11.2020
5972 Clouds 31 1012 62 8000 1 0 03:34 03.11.2020
5973 Mist 26 1011 88 4000 1 170 00:43 03.11.2020
5974 Mist 25 1011 88 4000 1 0 23:59 02.11.2020
5975 Haze 25 1011 88 4000 1 220 23:40 02.11.2020
5976 Haze 25 1011 88 5000 1.5 210 22:56 02.11.2020
5977 Haze 25 1010 88 5000 1 260 22:37 02.11.2020
5978 Haze 25 1010 88 5000 1 230 22:19 02.11.2020
5979 Haze 25 1010 88 5000 1 240 21:38 02.11.2020
5980 Haze 25 1010 88 5000 2.1 220 21:20 02.11.2020
5981 Haze 26 1010 88 5000 1 190 20:41 02.11.2020
5982 Clouds 26 1010 88 6000 0.5 220 20:20 02.11.2020
5983 Clouds 26 1010 88 6000 0.5 220 19:58 02.11.2020
5984 Clouds 26 1010 88 6000 1 230 19:40 02.11.2020
5985 Haze 26 1011 88 5000 2.6 230 19:21 02.11.2020
5986 Haze 26 1011 88 5000 2.6 230 18:39 02.11.2020
5987 Rain 27 1011 83 8000 1 170 18:21 02.11.2020
5988 Clouds 27 1011 83 8000 1 170 17:56 02.11.2020
5989 Clouds 27 1011 83 8000 1 170 17:36 02.11.2020
5990 Clouds 27 1012 88 8000 2.6 230 17:18 02.11.2020
5991 Clouds 25 1012 88 8000 2.6 240 16:38 02.11.2020
5992 Clouds 26 1012 83 8000 2.6 230 16:20 02.11.2020
5993 Clouds 26 1012 88 8000 2.6 240 15:39 02.11.2020
5994 Rain 26 1012 88 8000 2.6 240 15:20 02.11.2020
5995 Clouds 26 1012 88 8000 2.6 240 14:53 02.11.2020
5996 Clouds 26 1010 83 9000 3.6 230 14:20 02.11.2020
5997 Clouds 26 1010 78 9000 4.6 240 13:52 02.11.2020
5998 Clouds 27 1010 74 9000 5.7 230 13:23 02.11.2020
5999 Clouds 27 1010 74 9000 5.7 230 12:55 02.11.2020
6000 Clouds 27 1009 74 9000 4.6 230 12:30 02.11.2020
6001 Clouds 28 1009 69 9000 5.1 250 11:56 02.11.2020
6002 Clouds 29 1009 69 9000 6.7 240 11:37 02.11.2020
6003 Clouds 30 1008 66 10000 6.7 230 11:18 02.11.2020
6004 Clouds 30 1008 66 10000 6.7 230 11:18 02.11.2020
6005 Clouds 31 1008 66 10000 7.2 240 10:41 02.11.2020
6006 Clouds 31 1008 62 10000 6.2 240 10:18 02.11.2020
6007 Clouds 31 1008 66 10000 6.2 240 09:48 02.11.2020
6008 Clouds 30 1009 66 10000 7.2 240 09:23 02.11.2020
6009 Clouds 30 1009 69 10000 7.7 240 08:40 02.11.2020
6010 Rain 30 1009 69 10000 7.7 240 08:20 02.11.2020
6011 Rain 30 1009 69 10000 7.7 240 08:20 02.11.2020
6012 Clouds 31 1010 70 10000 8.2 240 07:49 02.11.2020
6013 Rain 33 1010 62 10000 7.7 240 06:49 02.11.2020
6014 Clouds 34 1011 66 10000 8.2 240 06:24 02.11.2020
6015 Clouds 27 1011 88 9000 5.7 230 01:40 02.11.2020
6016 Clouds 27 1011 88 9000 6.2 250 01:22 02.11.2020
6017 Clouds 26 1010 88 8000 6.7 230 00:33 02.11.2020
6018 Clouds 25 1010 88 8000 5.1 240 23:41 01.11.2020
6019 Clouds 25 1009 88 8000 6.2 240 23:23 01.11.2020
6020 Clouds 25 1009 88 8000 6.7 250 22:46 01.11.2020
6021 Clouds 25 1009 88 8000 6.7 250 22:25 01.11.2020
6022 Clouds 25 1009 88 7000 6.7 250 21:58 01.11.2020
6023 Clouds 25 1009 88 7000 7.2 240 21:38 01.11.2020
6024 Clouds 25 1009 88 7000 7.2 250 21:20 01.11.2020
6025 Clouds 25 1009 88 7000 7.2 250 20:40 01.11.2020
6026 Clouds 25 1010 88 7000 6.2 240 20:20 01.11.2020
6027 Clouds 26 1010 88 7000 6.7 240 19:41 01.11.2020
6028 Rain 26 1010 88 7000 6.7 240 19:23 01.11.2020
6029 Clouds 26 1010 88 7000 5.7 240 18:42 01.11.2020
6030 Clouds 26 1010 88 7000 5.7 240 18:42 01.11.2020
6031 Clouds 26 1011 88 7000 6.2 240 18:20 01.11.2020
6032 Clouds 26 1011 88 7000 6.2 240 17:58 01.11.2020
6033 Clouds 26 1011 88 7000 6.2 240 17:40 01.11.2020
6034 Clouds 26 1011 78 7000 6.7 240 17:21 01.11.2020
6035 Clouds 26 1011 78 7000 6.2 240 16:40 01.11.2020
6036 Clouds 26 1011 78 7000 5.7 230 16:19 01.11.2020
6037 Clouds 26 1010 78 7000 4.1 230 15:41 01.11.2020
6038 Clouds 26 1010 83 7000 6.7 220 15:22 01.11.2020
6039 Clouds 26 1010 83 7000 6.7 220 14:58 01.11.2020
6040 Clouds 26 1010 83 7000 6.7 230 14:39 01.11.2020
6041 Clouds 27 1009 83 8000 2.6 230 14:18 01.11.2020
6042 Clouds 27 1010 83 8000 2.6 230 13:47 01.11.2020
6043 Clouds 27 1010 83 8000 2.6 230 13:28 01.11.2020
6044 Clouds 27 1008 83 8000 5.7 230 12:43 01.11.2020
6045 Clouds 27 1008 83 8000 5.7 230 12:23 01.11.2020
6046 Clouds 27 1008 83 8000 6.7 220 11:51 01.11.2020
6047 Clouds 26 1008 83 8000 4.6 230 11:19 01.11.2020
6048 Clouds 26 1008 83 7000 4.1 220 10:43 01.11.2020
6049 Clouds 26 1008 83 7000 4.1 220 10:43 01.11.2020
6050 Rain 25 1008 88 6000 4.6 220 10:24 01.11.2020
6051 Rain 25 1008 88 6000 4.6 220 09:57 01.11.2020
6052 Rain 25 1009 88 6000 4.1 210 09:39 01.11.2020
6053 Rain 26 1009 88 6000 7.2 260 08:47 01.11.2020
6054 Rain 26 1009 88 6000 7.2 260 08:23 01.11.2020
6055 Clouds 29 1009 70 7000 7.2 280 07:43 01.11.2020
6056 Clouds 32 1011 66 9000 4.1 250 04:31 01.11.2020
6057 Clouds 29 1011 88 8000 3.1 240 01:52 01.11.2020
6058 Mist 26 1010 94 4300 1.5 160 00:43 01.11.2020
6059 Mist 26 1009 94 3100 2.1 140 23:28 31.10.2020
6060 Mist 26 1009 94 3000 1.5 250 22:58 31.10.2020
6061 Mist 26 1009 94 3000 1 220 22:40 31.10.2020
6062 Mist 26 1009 94 3500 2.1 270 22:21 31.10.2020
6063 Mist 26 1009 94 4000 1.5 250 21:44 31.10.2020
6064 Mist 26 1009 94 4000 1 220 21:20 31.10.2020
6065 Mist 26 1009 94 4000 1.5 210 20:38 31.10.2020
6066 Mist 26 1009 94 4000 0.5 0 20:18 31.10.2020
6067 Mist 26 1010 94 4000 2.1 200 19:41 31.10.2020
6068 Mist 26 1010 94 3800 1.5 250 19:23 31.10.2020
6069 Rain 26 1010 94 4400 1 0 18:47 31.10.2020
6070 Mist 26 1010 94 4400 1 0 18:28 31.10.2020
6071 Mist 26 1011 94 4000 1 0 17:41 31.10.2020
6072 Mist 25 1011 94 4000 1 230 17:22 31.10.2020
6073 Mist 25 1011 88 5000 1 200 16:46 31.10.2020
6074 Mist 25 1011 88 5000 1 200 16:27 31.10.2020
6075 Mist 25 1011 94 5000 0.5 240 15:54 31.10.2020
6076 Mist 25 1011 94 5000 1 0 15:25 31.10.2020
6077 Mist 25 1011 88 5000 1 0 14:53 31.10.2020
6078 Mist 25 1010 94 5000 3.74 193 14:31 31.10.2020
6079 Thunderstorm 25 1010 94 5000 1.5 0 13:51 31.10.2020
6080 Thunderstorm 25 1010 94 5000 1.5 0 13:28 31.10.2020
6081 Rain 25 1009 94 5000 2.1 180 12:48 31.10.2020
6082 Rain 25 1008 94 5000 2.1 150 12:21 31.10.2020
6083 Rain 25 1008 94 6000 1.5 0 11:40 31.10.2020
6084 Rain 26 1008 88 5000 1.5 0 11:21 31.10.2020
6085 Rain 26 1008 88 5000 2.6 190 10:40 31.10.2020
6086 Rain 27 1008 88 5000 4.1 200 09:56 31.10.2020
6087 Rain 27 1008 83 4500 4.1 230 09:37 31.10.2020
6088 Rain 27 1008 88 4500 5.1 230 09:18 31.10.2020
6089 Clouds 31 1008 55 7000 5.7 340 08:22 31.10.2020
6090 Clouds 32 1009 55 9000 4.1 350 07:30 31.10.2020
6091 Clouds 33 1009 55 9000 5.1 10 06:57 31.10.2020
6092 Thunderstorm 32 1010 59 9000 5.1 340 06:36 31.10.2020
6093 Clouds 33 1011 58 10000 2.1 0 03:48 31.10.2020
6094 Clouds 32 1011 66 9000 2.1 0 02:39 31.10.2020
6095 Haze 27 1011 78 4000 1.5 0 00:55 31.10.2020
6096 Clouds 26 1010 83 7000 1 0 23:56 30.10.2020
6097 Clouds 26 1010 78 7000 1.5 0 23:31 30.10.2020
6098 Rain 26 1009 83 7000 1 0 22:59 30.10.2020
6099 Clouds 26 1009 83 7000 0.5 0 22:38 30.10.2020
6100 Clouds 26 1009 83 7000 1 180 22:20 30.10.2020
6101 Rain 26 1009 83 7000 1 0 21:48 30.10.2020
6102 Clouds 26 1009 83 7000 1 0 21:26 30.10.2020
6103 Rain 26 1009 78 7000 3.6 170 20:45 30.10.2020
6104 Clouds 26 1009 78 7000 3.6 170 20:27 30.10.2020
6105 Rain 26 1010 78 7000 3.6 170 19:59 30.10.2020
6106 Rain 26 1010 78 7000 2.6 150 19:39 30.10.2020
6107 Rain 27 1011 74 7000 2.6 0 19:18 30.10.2020
6108 Rain 26 1011 78 7000 2.1 120 18:41 30.10.2020
6109 Rain 27 1012 78 7000 2.1 0 18:22 30.10.2020
6110 Rain 27 1012 78 7000 2.6 150 17:46 30.10.2020
6111 Rain 28 1012 74 7000 4.6 150 17:21 30.10.2020
6112 Rain 28 1012 74 7000 3.6 110 16:50 30.10.2020
6113 Clouds 28 1012 78 7000 3.6 80 16:25 30.10.2020
6114 Rain 28 1012 83 7000 0.5 0 15:45 30.10.2020
6115 Rain 27 1012 83 7000 0.5 0 15:27 30.10.2020
6116 Clouds 28 1011 83 8000 1 0 14:58 30.10.2020
6117 Rain 28 1010 83 8000 2.1 90 14:40 30.10.2020
6118 Clouds 28 1010 83 9000 4.1 70 14:21 30.10.2020
6119 Clouds 28 1010 78 9000 3.1 120 13:42 30.10.2020
6120 Clouds 28 1009 69 10000 5.1 120 13:20 30.10.2020
6121 Clouds 29 1009 66 10000 6.2 120 12:47 30.10.2020
6122 Clouds 29 1009 66 10000 6.2 110 12:22 30.10.2020
6123 Clouds 29 1009 66 10000 6.2 110 11:56 30.10.2020
6124 Rain 30 1008 66 10000 5.1 70 11:21 30.10.2020
6125 Rain 31 1008 66 10000 6.2 80 10:50 30.10.2020
6126 Clouds 31 1008 66 10000 6.2 80 10:25 30.10.2020
6127 Clouds 31 1008 66 10000 9.3 70 09:48 30.10.2020
6128 Clouds 32 1008 66 10000 9.3 70 09:25 30.10.2020
6129 Rain 33 1008 62 10000 9.8 70 08:59 30.10.2020
6130 Clouds 33 1008 59 10000 8.7 80 08:31 30.10.2020
6131 Clouds 32 1008 62 10000 8.2 80 07:53 30.10.2020
6132 Clouds 32 1009 62 10000 7.7 70 07:35 30.10.2020
6133 Clouds 32 1009 59 10000 8.7 80 06:59 30.10.2020
6134 Clouds 32 1010 62 10000 6.2 80 05:53 30.10.2020
6135 Clouds 31 1012 70 8000 4.6 100 02:53 30.10.2020
6136 Haze 29 1010 83 5000 2.6 0 01:20 30.10.2020
6137 Haze 26 1009 83 4000 1 280 23:59 29.10.2020
6138 Haze 26 1009 83 5000 1 0 23:41 29.10.2020
6139 Haze 25 1009 83 4700 1.5 0 23:21 29.10.2020
6140 Haze 25 1009 83 4400 2.6 200 22:44 29.10.2020
6141 Haze 25 1009 83 4400 2.6 200 22:25 29.10.2020
6142 Haze 25 1008 88 5000 2.1 230 21:44 29.10.2020
6143 Haze 25 1008 88 5000 2.1 230 21:24 29.10.2020
6144 Haze 27 1009 88 5000 1.5 0 20:43 29.10.2020
6145 Haze 27 1009 83 5000 1.5 0 20:23 29.10.2020
6146 Haze 27 1009 83 5000 1.5 0 19:56 29.10.2020
6147 Clouds 27 1010 83 6000 2.6 210 19:38 29.10.2020
6148 Clouds 27 1010 83 6000 2.1 0 19:18 29.10.2020
6149 Clouds 28 1010 83 6000 1 190 18:45 29.10.2020
6150 Clouds 28 1010 78 6000 3.1 210 18:25 29.10.2020
6151 Clouds 28 1010 78 6000 3.1 210 17:42 29.10.2020
6152 Clouds 28 1011 83 6000 2.1 100 17:22 29.10.2020
6153 Clouds 28 1011 83 6000 2.1 100 17:22 29.10.2020
6154 Clouds 28 1011 83 6000 2.1 100 16:53 29.10.2020
6155 Clouds 28 1011 78 6000 2.1 70 16:23 29.10.2020
6156 Clouds 29 1011 78 6000 2.1 70 15:58 29.10.2020
6157 Clouds 29 1011 74 7000 3.6 80 15:40 29.10.2020
6158 Clouds 29 1010 78 7000 3.1 90 15:22 29.10.2020
6159 Clouds 29 1010 78 7000 3.1 90 14:47 29.10.2020
6160 Clouds 30 1010 74 8000 4.1 70 14:24 29.10.2020
6161 Clouds 30 1010 74 8000 4.1 70 13:59 29.10.2020
6162 Clouds 30 1009 74 8000 3.1 60 13:40 29.10.2020
6163 Clouds 30 1009 74 8000 3.1 70 13:21 29.10.2020
6164 Clouds 31 1008 70 8000 5.1 70 12:40 29.10.2020
6165 Clouds 31 1008 70 8000 4.6 70 12:19 29.10.2020
6166 Clouds 31 1007 66 8000 5.7 60 11:47 29.10.2020
6167 Clouds 31 1007 66 8000 5.7 60 11:25 29.10.2020
6168 Clouds 32 1007 62 8000 5.7 60 10:38 29.10.2020
6169 Clouds 33 1006 62 8000 6.2 70 10:20 29.10.2020
6170 Clouds 32 1006 62 8000 6.2 70 09:53 29.10.2020
6171 Clouds 32 1007 62 8000 6.2 70 09:28 29.10.2020
6172 Clouds 32 1007 59 8000 6.7 70 08:58 29.10.2020
6173 Clouds 33 1008 59 8000 6.7 70 08:38 29.10.2020
6174 Clouds 34 1008 56 10000 5.7 60 07:58 29.10.2020
6175 Clouds 34 1008 59 10000 6.2 80 07:39 29.10.2020
6176 Clouds 33 1009 59 10000 5.7 80 06:58 29.10.2020
6177 Clouds 33 1010 59 10000 6.2 70 06:21 29.10.2020
6178 Clouds 34 1011 59 9000 4.1 80 04:46 29.10.2020
6179 Clouds 29 1014 79 10000 1.34 201 01:25 29.10.2020
6180 Clouds 26 1004 90 10000 2.3 89 00:31 29.10.2020
6181 Clouds 26 1004 91 10000 2.3 89 23:49 28.10.2020
6182 Clouds 24 1003 90 10000 2.12 92 23:22 28.10.2020
6183 Mist 26 1009 83 5000 2.1 0 22:45 28.10.2020
6184 Mist 26 1009 83 5000 2.1 0 22:27 28.10.2020
6185 Mist 26 1009 83 5000 2.1 0 22:27 28.10.2020
6186 Mist 26 1009 83 5000 2.1 0 21:59 28.10.2020
6187 Mist 26 1009 83 5000 3.6 190 21:40 28.10.2020
6188 Mist 26 1009 83 5000 3.1 190 21:20 28.10.2020
6189 Mist 26 1010 83 5000 3.1 170 20:42 28.10.2020
6190 Clouds 26 1010 83 7000 3.1 170 20:22 28.10.2020
6191 Clouds 26 1010 78 6000 3.1 160 19:51 28.10.2020
6192 Clouds 26 1010 78 6000 3.1 160 19:29 28.10.2020
6193 Clouds 26 1011 78 8000 3.6 170 18:49 28.10.2020
6194 Clouds 26 1011 74 8000 3.6 160 18:22 28.10.2020
6195 Clouds 26 1011 74 8000 3.6 160 17:57 28.10.2020
6196 Clouds 26 1011 74 8000 3.6 160 17:39 28.10.2020
6197 Clouds 26 1012 83 7000 1.5 0 17:18 28.10.2020
6198 Clouds 26 1012 83 7000 1.5 0 16:44 28.10.2020
6199 Clouds 27 1011 78 6000 2.1 190 16:22 28.10.2020
6200 Clouds 27 1011 78 8000 2.1 0 15:38 28.10.2020
6201 Rain 26 1005 78 10000 1.95 355 15:19 28.10.2020
6202 Clouds 27 1010 78 7000 3.1 250 14:43 28.10.2020
6203 Rain 27 1013 74 10000 1.34 225 14:24 28.10.2020
6204 Clouds 30 1012 65 10000 1.34 38 12:49 28.10.2020
6205 Clouds 30 1011 65 10000 1.34 74 12:27 28.10.2020
6206 Clouds 31 1011 64 10000 2.24 53 11:58 28.10.2020
6207 Clouds 31 1010 63 10000 1.34 100 11:39 28.10.2020
6208 Clouds 31 1010 63 10000 1.34 105 11:19 28.10.2020
6209 Clouds 32 1007 66 10000 4.6 20 10:48 28.10.2020
6210 Clouds 33 1007 49 6000 4.1 60 10:29 28.10.2020
6211 Clouds 34 1007 52 6000 3.6 110 09:45 28.10.2020
6212 Clouds 34 1007 52 6000 3.6 110 09:24 28.10.2020
6213 Haze 33 1008 49 5000 2.1 20 08:51 28.10.2020
6214 Haze 33 1008 49 5000 2.1 20 08:32 28.10.2020
6215 Haze 32 1009 46 5000 1.5 130 07:54 28.10.2020
6216 Haze 32 1009 46 5000 1.5 130 07:31 28.10.2020
6217 Haze 34 1010 55 5000 1.5 210 06:57 28.10.2020
6218 Haze 34 1010 55 5000 1.5 210 06:38 28.10.2020
6219 Haze 32 1011 58 5000 2.1 170 05:44 28.10.2020
6220 Haze 32 1012 62 5000 2.6 30 04:50 28.10.2020
6221 Haze 32 1012 66 5000 2.1 80 04:20 28.10.2020
6222 Haze 28 1012 88 4000 2.1 230 01:56 28.10.2020
6223 Fog 25 1011 94 900 0.65 179 00:33 28.10.2020
6224 Mist 25 1010 100 2000 0.37 203 23:50 27.10.2020
6225 Mist 25 1010 94 2000 1.5 240 23:22 27.10.2020
6226 Mist 25 1009 94 1500 1.5 230 22:45 27.10.2020
6227 Mist 25 1009 88 2500 2.1 0 22:22 27.10.2020
6228 Mist 25 1009 88 2500 2.1 0 21:57 27.10.2020
6229 Mist 25 1009 88 2500 2.1 0 21:38 27.10.2020
6230 Mist 25 1009 88 2500 1.5 0 21:20 27.10.2020
6231 Mist 25 1009 88 2500 1.5 0 20:51 27.10.2020
6232 Mist 26 1010 88 2500 1 0 20:25 27.10.2020
6233 Mist 26 1010 88 3000 2.1 360 19:59 27.10.2020
6234 Haze 26 1010 88 4000 1.5 100 19:38 27.10.2020
6235 Haze 25 1010 88 4000 1.5 0 19:20 27.10.2020
6236 Haze 25 1011 94 5000 1 110 18:54 27.10.2020
6237 Haze 25 1011 94 5000 1 110 18:36 27.10.2020
6238 Haze 25 1011 94 5000 1 110 18:18 27.10.2020
6239 Haze 25 1011 94 5000 1.5 220 17:40 27.10.2020
6240 Haze 25 1011 100 4000 1.5 230 17:20 27.10.2020
6241 Haze 25 1011 100 4000 2.21 107 16:46 27.10.2020
6242 Haze 25 1011 100 4000 2.42 90 16:24 27.10.2020
6243 Rain 26 1010 88 6000 2.1 0 15:43 27.10.2020
6244 Clouds 26 1010 88 6000 2.1 0 15:25 27.10.2020
6245 Rain 25 1010 94 4000 1.5 310 14:55 27.10.2020
6246 Clouds 26 1010 94 4000 1.5 310 14:36 27.10.2020
6247 Clouds 26 1010 94 4000 1.5 310 14:18 27.10.2020
6248 Rain 26 1010 94 4000 2.6 120 13:32 27.10.2020
6249 Rain 26 1010 94 4000 2.1 170 12:57 27.10.2020
6250 Rain 26 1010 94 3000 2.6 120 12:37 27.10.2020
6251 Clouds 26 1009 94 3000 2.6 130 12:19 27.10.2020
6252 Thunderstorm 26 1009 94 3000 2.1 90 11:42 27.10.2020
6253 Thunderstorm 26 1009 94 3000 2.6 110 11:21 27.10.2020
6254 Rain 26 1009 94 3000 1.5 290 10:46 27.10.2020
6255 Clouds 26 1008 94 1500 3.1 170 10:22 27.10.2020
6256 Thunderstorm 27 1009 88 3000 4.6 200 09:44 27.10.2020
6257 Rain 28 1008 83 3000 4.6 240 09:23 27.10.2020
6258 Haze 30 1009 66 5000 4.1 40 08:36 27.10.2020
6259 Rain 31 1009 66 5000 4.1 40 08:18 27.10.2020
6260 Haze 32 1009 62 5000 2.6 70 07:42 27.10.2020
6261 Rain 33 1009 62 5000 3.1 30 07:24 27.10.2020
6262 Rain 33 1010 58 6000 3.6 210 06:21 27.10.2020
6263 Rain 33 1010 58 6000 3.6 210 05:51 27.10.2020
6264 Rain 33 1010 58 6000 3.6 210 05:32 27.10.2020
6265 Haze 32 1011 66 5000 1.5 120 04:43 27.10.2020
6266 Haze 28 1010 88 4000 1.5 270 01:32 27.10.2020
6267 Haze 25 1010 88 4000 1.73 189 00:51 27.10.2020
6268 Haze 25 1009 88 4000 1.79 184 23:41 26.10.2020
6269 Haze 25 1009 88 4000 1.76 201 23:19 26.10.2020
6270 Rain 25 1009 94 7000 2.6 260 22:46 26.10.2020
6271 Clouds 25 1008 94 6000 2.1 290 22:21 26.10.2020
6272 Clouds 25 1008 88 6000 1.5 270 21:43 26.10.2020
6273 Clouds 25 1008 94 6000 2.6 260 21:20 26.10.2020
6274 Rain 25 1008 94 6000 2.6 260 20:57 26.10.2020
6275 Rain 25 1009 88 5000 2.1 250 20:38 26.10.2020
6276 Haze 25 1009 88 5000 2.1 250 20:18 26.10.2020
6277 Haze 25 1009 88 5000 2.6 220 19:46 26.10.2020
6278 Haze 25 1009 88 5000 2.1 250 19:22 26.10.2020
6279 Haze 25 1010 88 5000 2.1 250 18:44 26.10.2020
6280 Rain 25 1010 94 5000 2.1 270 18:23 26.10.2020
6281 Rain 25 1010 94 5000 1.5 250 17:55 26.10.2020
6282 Rain 25 1011 88 4000 2.18 233 17:37 26.10.2020
6283 Haze 25 1011 88 4000 1.78 234 17:19 26.10.2020
6284 Rain 25 1011 88 4000 1.78 234 16:40 26.10.2020
6285 Haze 25 1011 88 4000 1.5 270 16:21 26.10.2020
6286 Rain 26 1011 88 4000 1.5 212 15:41 26.10.2020
6287 Rain 26 1010 94 4000 1.5 240 15:20 26.10.2020
6288 Haze 25 1010 94 4000 2.1 160 14:52 26.10.2020
6289 Haze 25 1010 94 4000 2.1 160 14:30 26.10.2020
6290 Haze 25 1009 100 4000 1.5 180 13:43 26.10.2020
6291 Clouds 25 1009 94 3000 1.5 240 13:24 26.10.2020
6292 Rain 25 1009 94 3000 1.5 240 12:49 26.10.2020
6293 Clouds 25 1009 94 3000 1.5 240 12:27 26.10.2020
6294 Rain 25 1009 94 3000 1.5 180 11:57 26.10.2020
6295 Rain 25 1009 94 3000 3.6 90 11:37 26.10.2020
6296 Clouds 25 1009 94 3000 4.1 170 11:19 26.10.2020
6297 Clouds 26 1008 88 5000 6.7 240 10:46 26.10.2020
6298 Thunderstorm 26 1008 83 3000 7.7 250 10:25 26.10.2020
6299 Thunderstorm 26 1008 83 3000 7.7 250 09:51 26.10.2020
6300 Thunderstorm 26 1008 83 3000 7.7 250 09:26 26.10.2020
6301 Clouds 29 1007 59 3000 1.5 310 08:48 26.10.2020
6302 Haze 31 1007 55 4000 2.6 310 08:22 26.10.2020
6303 Haze 31 1008 55 4000 2.6 40 07:38 26.10.2020
6304 Haze 32 1009 52 4000 2.6 360 07:18 26.10.2020
6305 Haze 33 1011 59 4000 2.1 190 05:31 26.10.2020
6306 Haze 33 1011 70 4000 2.1 150 04:19 26.10.2020
6307 Haze 31 1011 78 4000 0.22 58 03:20 26.10.2020
6308 Rain 31 1011 78 4000 0.22 58 03:20 26.10.2020
6309 Haze 31 1011 78 4000 0.22 58 03:20 26.10.2020
6310 Haze 27 1010 94 4000 0.47 105 01:34 26.10.2020
6311 Haze 25 1010 94 4000 0.93 124 00:33 26.10.2020
6312 Mist 25 1009 100 4000 1.08 126 23:46 25.10.2020
6313 Mist 24 1009 100 4000 1.24 133 23:24 25.10.2020
6314 Haze 25 1008 94 5000 1.24 133 22:45 25.10.2020
6315 Haze 25 1008 88 5000 2.1 230 22:26 25.10.2020
6316 Haze 25 1008 88 5000 2.1 230 21:50 25.10.2020
6317 Haze 25 1008 88 5000 2.1 230 21:31 25.10.2020
6318 Haze 25 1008 88 5000 2.6 250 20:59 25.10.2020
6319 Haze 25 1008 88 5000 2.6 230 20:40 25.10.2020
6320 Haze 25 1008 88 5000 3.1 240 20:22 25.10.2020
6321 Haze 25 1009 88 5000 2.1 230 19:50 25.10.2020
6322 Haze 25 1009 88 5000 2.1 230 19:27 25.10.2020
6323 Haze 25 1009 88 5000 3.1 240 18:59 25.10.2020
6324 Rain 25 1010 88 5000 2.1 260 18:41 25.10.2020
6325 Haze 26 1010 88 5000 2.6 280 18:22 25.10.2020
6326 Rain 26 1010 88 6000 2.6 280 17:55 25.10.2020
6327 Rain 26 1010 88 6000 2.6 280 17:36 25.10.2020
6328 Rain 26 1010 88 6000 3.1 280 17:18 25.10.2020
6329 Rain 26 1011 88 6000 2.6 270 16:43 25.10.2020
6330 Rain 26 1011 88 6000 2.6 270 16:23 25.10.2020
6331 Clouds 27 1010 88 7000 2.6 250 15:47 25.10.2020
6332 Clouds 27 1010 88 7000 2.6 250 15:47 25.10.2020
6333 Clouds 27 1010 88 7000 2.6 250 15:47 25.10.2020
6334 Clouds 27 1010 88 7000 2.6 250 15:27 25.10.2020
6335 Clouds 26 1010 83 7000 3.6 240 14:53 25.10.2020
6336 Haze 27 1009 88 5000 0.19 177 14:29 25.10.2020
6337 Haze 27 1009 88 5000 0.19 177 13:45 25.10.2020
6338 Haze 27 1009 88 5000 1.12 321 13:24 25.10.2020
6339 Haze 27 1010 88 5000 1.5 180 12:56 25.10.2020
6340 Haze 27 1010 88 5000 1.5 180 12:38 25.10.2020
6341 Haze 27 1009 88 5000 3.1 220 12:18 25.10.2020
6342 Haze 27 1009 88 4000 4.6 250 11:42 25.10.2020
6343 Clouds 28 1008 88 4000 4.6 240 11:19 25.10.2020
6344 Thunderstorm 28 1008 94 4000 3.6 240 10:46 25.10.2020
6345 Thunderstorm 27 1008 94 4000 3.6 240 10:26 25.10.2020
6346 Thunderstorm 28 1008 94 4000 2.6 220 09:52 25.10.2020
6347 Clouds 30 1008 74 1500 2.1 330 09:22 25.10.2020
6348 Clouds 30 1008 74 1500 2.1 330 08:59 25.10.2020
6349 Clouds 30 1008 74 1500 2.1 330 08:40 25.10.2020
6350 Haze 31 1009 62 5000 2.6 350 08:22 25.10.2020
6351 Haze 31 1009 66 5000 1.5 300 07:44 25.10.2020
6352 Haze 32 1010 66 5000 2.1 330 06:57 25.10.2020
6353 Haze 32 1010 62 5000 3.1 20 06:30 25.10.2020
6354 Haze 32 1012 66 5000 1.5 50 05:22 25.10.2020
6355 Rain 34 1012 62 5000 2.6 90 04:50 25.10.2020
6356 Haze 31 1013 74 5000 2.6 250 02:38 25.10.2020
6357 Haze 26 1011 88 5000 1.5 240 01:32 25.10.2020
6358 Clouds 25 1010 88 6000 2.1 220 00:48 25.10.2020
6359 Clouds 25 1010 83 6000 0.5 0 00:19 25.10.2020
6360 Rain 25 1010 83 7000 1.5 280 23:52 24.10.2020
6361 Clouds 25 1010 83 7000 1.5 280 23:25 24.10.2020
6362 Clouds 25 1009 83 8000 1.5 200 22:43 24.10.2020
6363 Clouds 25 1009 83 8000 1.5 200 22:24 24.10.2020
6364 Clouds 26 1009 83 8000 0.5 0 21:59 24.10.2020
6365 Clouds 26 1009 83 8000 1 0 21:39 24.10.2020
6366 Clouds 26 1010 78 8000 1.5 210 21:20 24.10.2020
6367 Clouds 26 1010 78 8000 2.6 220 20:47 24.10.2020
6368 Clouds 26 1010 78 8000 2.6 220 20:22 24.10.2020
6369 Clouds 26 1010 78 8000 3.1 200 19:48 24.10.2020
6370 Clouds 26 1010 78 8000 3.1 200 19:28 24.10.2020
6371 Clouds 26 1010 83 8000 2.6 230 18:57 24.10.2020
6372 Clouds 26 1011 78 8000 1.5 210 18:39 24.10.2020
6373 Clouds 26 1011 78 8000 2.6 170 18:20 24.10.2020
6374 Clouds 26 1011 78 8000 3.1 170 17:38 24.10.2020
6375 Rain 26 1011 78 8000 3.6 170 17:20 24.10.2020
6376 Rain 27 1011 83 8000 3.6 200 16:44 24.10.2020
6377 Rain 27 1011 78 8000 4.6 160 16:21 24.10.2020
6378 Clouds 27 1010 78 7000 3.1 200 15:39 24.10.2020
6379 Rain 27 1010 78 7000 2.6 0 15:19 24.10.2020
6380 Rain 27 1010 78 6000 6.2 200 14:46 24.10.2020
6381 Clouds 27 1009 78 6000 3.6 270 14:27 24.10.2020
6382 Rain 28 1009 74 6000 5.1 270 13:46 24.10.2020
6383 Clouds 29 1009 74 6000 5.1 270 13:24 24.10.2020
6384 Clouds 30 1008 66 6000 2.6 0 12:46 24.10.2020
6385 Clouds 31 1008 62 8000 4.1 10 12:21 24.10.2020
6386 Clouds 31 1007 62 9000 4.1 10 11:53 24.10.2020
6387 Clouds 32 1007 62 9000 4.1 10 11:35 24.10.2020
6388 Clouds 32 1007 59 10000 4.6 360 10:54 24.10.2020
6389 Clouds 33 1008 55 6000 2.6 340 10:33 24.10.2020
6390 Clouds 33 1008 55 6000 2.6 340 09:55 24.10.2020
6391 Clouds 34 1008 55 6000 2.6 340 09:37 24.10.2020
6392 Rain 34 1008 55 6000 1.5 300 09:19 24.10.2020
6393 Haze 34 1009 59 5000 1.5 20 08:20 24.10.2020
6394 Haze 33 1009 59 5000 1.5 20 07:54 24.10.2020
6395 Haze 34 1010 52 5000 2.6 330 07:25 24.10.2020
6396 Haze 34 1011 55 5000 1.5 10 06:53 24.10.2020
6397 Haze 34 1011 52 5000 1.5 240 06:23 24.10.2020
6398 Haze 32 1012 70 5000 2.6 210 03:36 24.10.2020
6399 Haze 28 1011 83 4000 1.5 220 02:18 24.10.2020
6400 Haze 25 1010 88 5000 1.5 230 00:42 24.10.2020
6401 Haze 25 1009 88 5000 1.5 230 00:22 24.10.2020
6402 Haze 25 1009 88 5000 1.5 270 23:49 23.10.2020
6403 Haze 25 1009 88 5000 1.5 270 23:26 23.10.2020
6404 Clouds 25 1009 83 6000 2.6 250 22:58 23.10.2020
6405 Clouds 25 1009 83 6000 2.6 250 22:40 23.10.2020
6406 Haze 25 1009 83 5000 2.6 270 22:20 23.10.2020
6407 Clouds 25 1009 83 6000 2.6 270 21:50 23.10.2020
6408 Clouds 26 1009 83 6000 3.6 270 21:25 23.10.2020
6409 Haze 26 1009 83 5000 2.6 270 20:42 23.10.2020
6410 Haze 26 1009 83 5000 2.6 270 20:23 23.10.2020
6411 Haze 27 1010 78 5000 1.5 300 19:58 23.10.2020
6412 Haze 27 1010 78 5000 1.5 310 19:33 23.10.2020
6413 Clouds 27 1010 78 6000 2.1 290 18:57 23.10.2020
6414 Haze 27 1011 78 5000 1.5 300 18:38 23.10.2020
6415 Haze 27 1011 78 5000 1.5 300 18:19 23.10.2020
6416 Haze 28 1011 78 5000 1.5 300 17:42 23.10.2020
6417 Haze 28 1011 78 5000 4.76 117 17:20 23.10.2020
6418 Haze 28 1010 78 5000 4.76 117 16:44 23.10.2020
6419 Haze 28 1010 78 5000 4.67 127 16:25 23.10.2020
6420 Clouds 29 1010 74 6000 2.6 160 15:45 23.10.2020
6421 Clouds 29 1010 74 6000 2.6 160 15:24 23.10.2020
6422 Clouds 29 1009 62 6000 4.1 220 14:54 23.10.2020
6423 Clouds 29 1009 62 6000 4.1 220 14:35 23.10.2020
6424 Clouds 30 1008 66 6000 3.6 180 13:59 23.10.2020
6425 Clouds 30 1008 66 6000 3.6 180 13:37 23.10.2020
6426 Clouds 30 1008 62 6000 3.6 180 13:19 23.10.2020
6427 Clouds 31 1007 62 10000 8.7 270 12:47 23.10.2020
6428 Clouds 31 1007 55 6000 3.6 180 12:24 23.10.2020
6429 Clouds 32 1007 55 6000 3.6 180 11:47 23.10.2020
6430 Rain 32 1007 55 6000 3.1 210 11:22 23.10.2020
6431 Clouds 33 1007 58 6000 4.1 210 10:45 23.10.2020
6432 Rain 33 1007 58 6000 4.1 210 10:25 23.10.2020
6433 Clouds 33 1007 52 6000 5.1 270 09:46 23.10.2020
6434 Clouds 33 1007 52 6000 5.1 270 09:27 23.10.2020
6435 Clouds 33 1008 58 6000 4.1 250 08:52 23.10.2020
6436 Rain 33 1008 58 6000 4.1 250 08:32 23.10.2020
6437 Clouds 34 1009 52 7000 4.1 240 07:38 23.10.2020
6438 Rain 34 1009 49 7000 4.1 200 07:19 23.10.2020
6439 Rain 34 1010 55 6000 2.6 240 06:20 23.10.2020
6440 Clouds 33 1010 55 6000 5.1 200 05:35 23.10.2020
6441 Haze 30 1010 69 5000 2.1 180 02:32 23.10.2020
6442 Haze 27 1009 74 5000 2.6 270 01:30 23.10.2020
6443 Haze 27 1009 74 4000 2.1 270 00:47 23.10.2020
6444 Haze 26 1008 78 4000 1.5 240 23:48 22.10.2020
6445 Clouds 26 1008 78 7000 3.1 260 23:26 22.10.2020
6446 Clouds 27 1008 74 6000 3.6 260 22:49 22.10.2020
6447 Clouds 27 1008 74 6000 3.6 260 22:27 22.10.2020
6448 Clouds 27 1008 74 6000 3.6 250 21:59 22.10.2020
6449 Clouds 27 1009 74 6000 4.1 250 21:41 22.10.2020
6450 Clouds 27 1009 74 6000 4.6 240 21:23 22.10.2020
6451 Clouds 27 1009 74 6000 4.6 250 20:45 22.10.2020
6452 Clouds 27 1009 74 6000 4.6 250 20:26 22.10.2020
6453 Clouds 27 1010 74 6000 5.1 260 19:59 22.10.2020
6454 Clouds 27 1010 74 6000 4.1 260 19:40 22.10.2020
6455 Clouds 27 1010 74 7000 4.1 260 19:18 22.10.2020
6456 Clouds 27 1011 69 7000 4.1 240 18:42 22.10.2020
6457 Clouds 27 1011 69 7000 4.6 250 18:20 22.10.2020
6458 Clouds 28 1010 69 8000 5.1 260 17:46 22.10.2020
6459 Clouds 28 1010 69 8000 5.7 250 17:22 22.10.2020
6460 Clouds 28 1010 74 8000 7.2 240 16:54 22.10.2020
6461 Clouds 28 1010 74 8000 7.2 240 16:36 22.10.2020
6462 Clouds 28 1010 69 8000 6.2 230 16:18 22.10.2020
6463 Clouds 29 1009 66 6000 4.1 250 15:40 22.10.2020
6464 Clouds 29 1009 66 6000 4.1 250 15:22 22.10.2020
6465 Clouds 29 1009 66 6000 4.1 250 14:45 22.10.2020
6466 Clouds 29 1009 66 6000 4.1 250 14:24 22.10.2020
6467 Clouds 29 1008 66 6000 6.7 250 13:48 22.10.2020
6468 Clouds 29 1008 66 6000 6.2 250 13:24 22.10.2020
6469 Rain 30 1007 62 6000 5.1 250 12:47 22.10.2020
6470 Clouds 31 1007 59 6000 7.2 250 12:23 22.10.2020
6471 Clouds 31 1007 59 6000 7.2 250 11:50 22.10.2020
6472 Clouds 32 1007 59 6000 7.7 240 11:20 22.10.2020
6473 Rain 34 1007 50 6000 4.1 240 10:51 22.10.2020
6474 Clouds 34 1007 50 6000 4.1 240 10:28 22.10.2020
6475 Haze 33 1007 58 5000 5.1 260 09:52 22.10.2020
6476 Haze 33 1008 59 5000 5.7 240 09:33 22.10.2020
6477 Haze 33 1008 55 5000 4.6 270 08:51 22.10.2020
6478 Haze 33 1008 55 5000 4.6 270 08:30 22.10.2020
6479 Clouds 34 1009 49 6000 4.1 240 07:57 22.10.2020
6480 Clouds 35 1010 49 6000 4.1 270 07:34 22.10.2020
6481 Clouds 34 1010 52 6000 4.1 270 06:58 22.10.2020
6482 Haze 33 1010 55 5000 6.2 270 06:26 22.10.2020
6483 Clouds 32 1011 62 6000 3.1 290 05:40 22.10.2020
6484 Haze 32 1011 66 5000 1.5 150 04:40 22.10.2020
6485 Clouds 26 1009 88 7000 2.6 200 01:46 22.10.2020
6486 Clouds 25 1009 88 6000 4.6 230 00:26 22.10.2020
6487 Haze 26 1008 83 5000 3.1 230 23:51 21.10.2020
6488 Haze 26 1008 83 5000 3.1 230 23:32 21.10.2020
6489 Haze 26 1008 83 4000 2.6 260 22:43 21.10.2020
6490 Haze 25 1008 88 5000 2.1 230 22:19 21.10.2020
6491 Rain 25 1008 88 5000 2.1 230 21:56 21.10.2020
6492 Clouds 26 1008 83 6000 1.5 260 21:37 21.10.2020
6493 Clouds 26 1008 88 6000 1 0 21:18 21.10.2020
6494 Clouds 26 1008 83 6000 1.5 0 20:47 21.10.2020
6495 Clouds 26 1009 83 6000 1 300 20:19 21.10.2020
6496 Clouds 26 1009 88 6000 1 0 19:45 21.10.2020
6497 Rain 26 1009 88 6000 1 0 19:26 21.10.2020
6498 Rain 26 1009 88 6000 1 0 19:26 21.10.2020
6499 Rain 26 1009 88 6000 1.5 200 18:54 21.10.2020
6500 Clouds 26 1010 88 6000 2.1 190 18:33 21.10.2020
6501 Clouds 26 1010 83 6000 2.1 220 17:57 21.10.2020
6502 Rain 26 1010 94 3000 1.5 190 17:39 21.10.2020
6503 Rain 26 1010 94 3000 1.5 190 17:19 21.10.2020
6504 Rain 26 1010 94 3000 1.5 190 16:40 21.10.2020
6505 Rain 26 1010 94 3000 1.5 190 16:21 21.10.2020
6506 Clouds 26 1009 94 3000 1.5 130 15:55 21.10.2020
6507 Rain 26 1009 94 4000 1.5 160 15:36 21.10.2020
6508 Rain 26 1009 94 4000 2.1 140 15:18 21.10.2020
6509 Rain 26 1009 88 4000 2.1 130 14:42 21.10.2020
6510 Thunderstorm 26 1009 88 4000 2.1 130 14:22 21.10.2020
6511 Clouds 26 1008 88 4000 5.1 240 13:42 21.10.2020
6512 Rain 25 1008 88 4000 5.1 240 13:23 21.10.2020
6513 Clouds 26 1008 88 3000 5.1 220 12:43 21.10.2020
6514 Rain 29 1007 88 3000 4.6 210 12:23 21.10.2020
6515 Thunderstorm 28 1007 88 3000 4.6 210 11:59 21.10.2020
6516 Thunderstorm 29 1007 83 5000 2.1 170 11:39 21.10.2020
6517 Thunderstorm 29 1007 83 5000 2.1 170 11:19 21.10.2020
6518 Rain 29 1007 88 4000 2.1 200 10:41 21.10.2020
6519 Clouds 29 1007 88 4000 2.1 200 10:21 21.10.2020
6520 Thunderstorm 30 1007 88 4000 2.6 240 09:51 21.10.2020
6521 Clouds 29 1007 83 4000 2.1 40 09:28 21.10.2020
6522 Thunderstorm 32 1008 55 5000 4.1 20 08:42 21.10.2020
6523 Haze 33 1008 55 5000 2.6 20 08:24 21.10.2020
6524 Haze 34 1008 55 5000 2.6 20 07:56 21.10.2020
6525 Haze 34 1010 59 5000 1.5 300 07:24 21.10.2020
6526 Haze 34 1010 62 5000 1.5 240 06:47 21.10.2020
6527 Haze 34 1011 66 4000 1.5 20 06:25 21.10.2020
6528 Rain 32 1011 83 3000 1.5 160 04:45 21.10.2020
6529 Haze 25 1008 94 3000 0.44 127 00:50 21.10.2020
6530 Haze 25 1008 94 3000 1.5 240 23:37 20.10.2020
6531 Haze 25 1008 88 5000 4.1 260 22:52 20.10.2020
6532 Haze 25 1008 88 5000 4.1 260 22:27 20.10.2020
6533 Haze 26 1009 83 5000 2.6 220 21:48 20.10.2020
6534 Haze 26 1009 83 5000 1 200 21:20 20.10.2020
6535 Haze 26 1009 83 5000 2.1 160 20:44 20.10.2020
6536 Haze 26 1009 83 5000 2.1 160 20:25 20.10.2020
6537 Haze 26 1009 83 5000 2.1 170 19:57 20.10.2020
6538 Haze 26 1010 94 3000 1.5 240 19:39 20.10.2020
6539 Haze 26 1010 94 3000 1.5 240 19:21 20.10.2020
6540 Haze 26 1010 94 3000 1.5 240 18:46 20.10.2020
6541 Haze 26 1010 94 3000 1.5 240 18:26 20.10.2020
6542 Haze 26 1011 94 4000 1.5 250 17:43 20.10.2020
6543 Haze 26 1010 94 4000 1.5 220 17:24 20.10.2020
6544 Clouds 27 1010 78 6000 3.1 210 16:48 20.10.2020
6545 Clouds 27 1010 78 6000 3.1 210 16:27 20.10.2020
6546 Clouds 26 1010 94 4000 1.5 230 15:51 20.10.2020
6547 Rain 26 1010 94 4000 1.5 230 15:33 20.10.2020
6548 Clouds 26 1010 94 4000 1.5 230 14:59 20.10.2020
6549 Rain 26 1010 94 2000 2.6 60 14:39 20.10.2020
6550 Rain 27 1010 94 2000 2.6 60 14:21 20.10.2020
6551 Rain 27 1008 83 4000 3.1 210 13:44 20.10.2020
6552 Rain 28 1008 78 4000 2.6 210 13:23 20.10.2020
6553 Haze 28 1008 78 4000 2.6 210 12:56 20.10.2020
6554 Haze 28 1007 78 4000 2.6 210 12:38 20.10.2020
6555 Rain 28 1007 78 5000 5.1 210 12:19 20.10.2020
6556 Rain 29 1007 70 5000 3.1 30 11:37 20.10.2020
6557 Clouds 29 1006 66 10000 4.6 10 11:18 20.10.2020
6558 Rain 31 1007 55 5000 8.2 30 10:29 20.10.2020
6559 Haze 32 1007 55 5000 8.2 30 09:51 20.10.2020
6560 Haze 33 1007 55 5000 8.2 30 09:21 20.10.2020
6561 Rain 33 1007 62 5000 7.2 30 08:58 20.10.2020
6562 Haze 33 1007 55 5000 5.1 30 08:36 20.10.2020
6563 Haze 33 1008 52 5000 5.1 30 07:52 20.10.2020
6564 Haze 33 1009 55 5000 3.6 60 07:26 20.10.2020
6565 Haze 34 1009 55 5000 6.7 60 06:30 20.10.2020
6566 Clouds 33 1010 55 10000 4.6 70 05:43 20.10.2020
6567 Haze 31 1011 74 4000 1.5 240 03:56 20.10.2020
6568 Haze 27 1010 94 2000 1.5 240 02:19 20.10.2020
6569 Mist 25 1009 100 3000 1.5 250 00:59 20.10.2020
6570 Mist 25 1009 100 3000 1.5 250 00:41 20.10.2020
6571 Mist 25 1008 94 3000 3.59 84 00:20 20.10.2020
6572 Mist 25 1008 94 3000 3.59 84 23:47 19.10.2020
6573 Mist 25 1008 88 3000 2.1 210 23:23 19.10.2020
6574 Mist 25 1008 88 3000 2.1 200 22:44 19.10.2020
6575 Mist 25 1008 88 3000 2.1 200 22:22 19.10.2020
6576 Haze 26 1008 78 5000 2.1 180 21:45 19.10.2020
6577 Haze 26 1008 78 5000 1.5 150 21:22 19.10.2020
6578 Haze 26 1008 83 5000 0.5 130 20:48 19.10.2020
6579 Haze 26 1008 83 5000 0.5 130 20:29 19.10.2020
6580 Haze 26 1009 83 5000 3.66 86 19:51 19.10.2020
6581 Haze 26 1009 83 5000 1.5 240 19:24 19.10.2020
6582 Haze 26 1009 83 5000 1.5 240 19:24 19.10.2020
6583 Haze 26 1009 83 5000 1.5 240 18:55 19.10.2020
6584 Haze 26 1009 83 5000 1 190 18:37 19.10.2020
6585 Haze 26 1010 83 5000 1 0 18:18 19.10.2020
6586 Clouds 26 1010 83 6000 2.1 0 17:44 19.10.2020
6587 Clouds 27 1010 83 6000 2.6 170 17:23 19.10.2020
6588 Clouds 27 1010 83 6000 2.6 180 16:43 19.10.2020
6589 Rain 27 1010 83 6000 2.6 180 16:25 19.10.2020
6590 Rain 29 1003 83 10000 4.19 83 15:43 19.10.2020
6591 Rain 29 1002 82 10000 3.35 71 15:24 19.10.2020
6592 Rain 27 1005 90 10000 1.34 45 14:51 19.10.2020
6593 Rain 27 1002 81 10000 2.68 61 14:26 19.10.2020
6594 Rain 27 1002 81 10000 2.68 61 13:52 19.10.2020
6595 Rain 28 1002 80 10000 2.33 69 13:33 19.10.2020
6596 Rain 28 1002 78 10000 2.5 56 12:56 19.10.2020
6597 Clouds 28 1002 76 10000 2.5 56 12:38 19.10.2020
6598 Rain 28 1002 76 10000 3.49 45 12:19 19.10.2020
6599 Rain 29 1007 88 5000 4.1 170 11:39 19.10.2020
6600 Thunderstorm 28 1007 88 5000 4.1 170 11:18 19.10.2020
6601 Thunderstorm 28 1007 88 5000 4.1 170 10:40 19.10.2020
6602 Rain 29 1007 88 4000 4.1 180 10:20 19.10.2020
6603 Clouds 30 1007 83 3000 5.1 120 09:48 19.10.2020
6604 Clouds 32 1008 70 3000 2.1 340 09:19 19.10.2020
6605 Rain 33 1008 70 3000 2.1 340 08:48 19.10.2020
6606 Haze 33 1008 59 5000 2.6 340 08:23 19.10.2020
6607 Haze 33 1008 55 5000 1.5 340 07:44 19.10.2020
6608 Haze 33 1009 52 5000 1.5 60 07:19 19.10.2020
6609 Haze 32 1010 62 5000 1.5 20 06:19 19.10.2020
6610 Haze 32 1010 62 5000 1.5 20 06:19 19.10.2020
6611 Haze 29 1010 78 4000 2.1 230 03:50 19.10.2020
6612 Haze 29 1010 78 4000 2.1 230 03:32 19.10.2020
6613 Haze 26 1009 94 3000 1.5 150 00:57 19.10.2020
6614 Haze 25 1008 94 3000 1.5 230 00:24 19.10.2020
6615 Haze 25 1008 94 3000 1.5 230 23:47 18.10.2020
6616 Haze 25 1008 94 3000 1.5 230 23:25 18.10.2020
6617 Clouds 26 1008 78 6000 2.1 50 22:52 18.10.2020
6618 Clouds 25 1008 88 6000 2.6 200 22:22 18.10.2020
6619 Clouds 25 1008 88 6000 2.6 200 21:55 18.10.2020
6620 Haze 26 1008 83 5000 1.5 210 21:36 18.10.2020
6621 Haze 26 1009 78 5000 1 0 21:18 18.10.2020
6622 Haze 26 1009 78 5000 1 0 20:40 18.10.2020
6623 Haze 26 1009 78 5000 2.6 190 20:19 18.10.2020
6624 Haze 25 1010 78 5000 2.6 170 19:43 18.10.2020
6625 Haze 26 1010 78 5000 2.6 170 19:25 18.10.2020
6626 Haze 26 1010 83 5000 2.1 190 18:48 18.10.2020
6627 Haze 25 1010 83 5000 1.5 180 18:27 18.10.2020
6628 Haze 26 1010 88 4000 2.1 220 17:44 18.10.2020
6629 Haze 26 1010 88 4000 2.1 220 17:25 18.10.2020
6630 Haze 26 1010 88 4000 2.1 220 16:55 18.10.2020
6631 Haze 27 1010 88 4000 2.1 220 16:37 18.10.2020
6632 Haze 27 1010 88 4000 2.6 220 16:18 18.10.2020
6633 Haze 27 1010 88 4000 2.6 210 15:41 18.10.2020
6634 Rain 27 1010 88 4000 2.1 210 15:19 18.10.2020
6635 Haze 27 1010 88 4000 2.1 210 14:54 18.10.2020
6636 Haze 27 1009 88 4000 1.5 180 14:29 18.10.2020
6637 Thunderstorm 28 1008 88 4000 1.5 180 13:56 18.10.2020
6638 Haze 29 1007 70 4000 4.1 30 13:38 18.10.2020
6639 Haze 29 1007 70 4000 4.1 30 13:19 18.10.2020
6640 Haze 30 1007 74 4000 4.1 30 12:42 18.10.2020
6641 Haze 31 1006 74 4000 4.1 360 12:21 18.10.2020
6642 Clouds 31 1006 88 3000 3.6 270 11:42 18.10.2020
6643 Clouds 31 1006 88 3000 3.6 270 11:23 18.10.2020
6644 Haze 32 1006 66 5000 1.5 330 10:41 18.10.2020
6645 Haze 33 1007 66 5000 1.5 280 10:21 18.10.2020
6646 Haze 33 1007 66 5000 1.5 280 10:21 18.10.2020
6647 Haze 33 1007 66 5000 1.5 280 10:21 18.10.2020
6648 Haze 32 1007 66 5000 2.6 300 09:52 18.10.2020
6649 Haze 33 1007 66 5000 2.6 300 09:25 18.10.2020
6650 Haze 33 1007 62 5000 2.6 330 08:58 18.10.2020
6651 Clouds 33 1008 62 10000 4.1 70 08:39 18.10.2020
6652 Clouds 33 1008 59 10000 5.1 60 08:20 18.10.2020
6653 Haze 32 1010 62 4000 2.6 90 07:32 18.10.2020
6654 Haze 32 1010 62 5000 1.5 150 05:33 18.10.2020
6655 Haze 30 1010 78 4000 1.5 120 03:20 18.10.2020
6656 Haze 26 1009 94 4000 1.06 87 01:43 18.10.2020
6657 Haze 26 1009 94 4000 0.96 91 00:55 18.10.2020
6658 Haze 26 1009 94 4000 0.96 91 00:35 18.10.2020
6659 Haze 26 1008 94 4000 0.56 73 23:56 17.10.2020
6660 Haze 26 1008 88 4000 0.56 73 23:38 17.10.2020
6661 Haze 26 1008 83 5000 1.5 180 23:19 17.10.2020
6662 Haze 27 1007 78 5000 1.5 190 22:43 17.10.2020
6663 Haze 27 1007 78 5000 2.6 180 22:20 17.10.2020
6664 Haze 27 1007 78 5000 2.6 180 21:56 17.10.2020
6665 Haze 27 1008 78 5000 2.1 200 21:38 17.10.2020
6666 Haze 27 1008 78 5000 2.1 200 21:19 17.10.2020
6667 Haze 27 1008 78 5000 1.5 180 20:42 17.10.2020
6668 Haze 27 1008 78 5000 2.1 150 20:18 17.10.2020
6669 Haze 27 1009 83 4000 1.5 210 19:42 17.10.2020
6670 Haze 27 1009 83 4000 1.5 210 19:18 17.10.2020
6671 Haze 27 1009 83 4000 1.5 210 18:43 17.10.2020
6672 Haze 27 1009 88 4000 2.1 200 18:25 17.10.2020
6673 Haze 27 1009 83 4000 2.1 220 17:50 17.10.2020
6674 Haze 28 1010 83 4000 2.1 200 17:23 17.10.2020
6675 Haze 28 1009 83 4000 1.5 230 16:50 17.10.2020
6676 Haze 28 1009 83 4000 1.5 230 16:24 17.10.2020
6677 Haze 28 1009 83 4000 2.6 210 15:57 17.10.2020
6678 Haze 28 1008 78 4000 1.5 290 15:39 17.10.2020
6679 Haze 29 1008 78 4000 1.5 290 15:20 17.10.2020
6680 Haze 29 1008 78 4000 1.5 290 14:53 17.10.2020
6681 Haze 29 1008 78 4000 1.5 290 14:28 17.10.2020
6682 Haze 29 1008 78 4000 1.5 180 13:57 17.10.2020
6683 Haze 30 1007 78 4000 2.1 180 13:39 17.10.2020
6684 Haze 30 1007 70 5000 1.5 350 13:19 17.10.2020
6685 Haze 31 1006 66 5000 1.5 30 12:41 17.10.2020
6686 Haze 31 1006 70 5000 1.5 240 12:20 17.10.2020
6687 Haze 31 1006 70 5000 1.5 240 11:55 17.10.2020
6688 Haze 31 1006 70 5000 1.5 240 11:29 17.10.2020
6689 Haze 31 1006 88 4000 2.1 240 10:44 17.10.2020
6690 Clouds 30 1007 83 3000 5.1 180 10:25 17.10.2020
6691 Rain 30 1007 74 5000 6.7 200 09:41 17.10.2020
6692 Haze 31 1007 58 5000 4.1 340 09:22 17.10.2020
6693 Rain 33 1007 55 5000 4.1 340 08:42 17.10.2020
6694 Haze 34 1008 52 5000 6.2 40 08:18 17.10.2020
6695 Rain 33 1008 55 6000 6.2 50 07:43 17.10.2020
6696 Clouds 34 1009 55 6000 5.7 40 06:44 17.10.2020
6697 Haze 33 1010 70 5000 1.5 360 04:52 17.10.2020
6698 Haze 27 1009 94 3000 0.86 195 02:29 17.10.2020
6699 Haze 25 1008 94 3000 1.5 320 00:57 17.10.2020
6700 Haze 25 1008 94 3000 1 204 00:34 17.10.2020
6701 Haze 25 1007 94 3000 1.5 100 23:38 16.10.2020
6702 Clouds 26 1007 88 6000 1 210 23:20 16.10.2020
6703 Clouds 25 1007 88 10000 2.1 230 22:42 16.10.2020
6704 Haze 25 1007 88 5000 1.5 200 22:23 16.10.2020
6705 Clouds 25 1007 88 6000 1 0 21:47 16.10.2020
6706 Haze 25 1007 88 5000 2.6 210 21:26 16.10.2020
6707 Haze 25 1008 88 4000 2.6 240 20:46 16.10.2020
6708 Haze 25 1008 88 4000 2.6 240 20:46 16.10.2020
6709 Haze 25 1008 88 4000 2.6 240 20:46 16.10.2020
6710 Haze 24 1008 88 4000 2.6 240 20:26 16.10.2020
6711 Haze 25 1008 88 5000 2.1 210 19:54 16.10.2020
6712 Haze 25 1008 88 5000 2.1 210 19:29 16.10.2020
6713 Haze 25 1008 88 5000 1.5 230 18:58 16.10.2020
6714 Rain 26 1009 88 6000 2.1 200 18:40 16.10.2020
6715 Clouds 26 1009 88 6000 2.6 220</